<?xml version='1.0' encoding='UTF-8'?><gpx version="1.1" creator="JPX - https://github.com/jenetics/jpx" xmlns="http://www.topografix.com/GPX/1/1"><trk><trkseg><trkpt lat="45.688267879979804" lon="13.789984672082078"><ele>323.0</ele><time>2026-05-02T13:38:04.997Z</time></trkpt><trkpt lat="45.68830878450055" lon="13.790112961990536"><ele>323.0</ele><time>2026-05-02T13:38:08.997Z</time></trkpt><trkpt lat="45.688315238517845" lon="13.79023291253868"><ele>323.0</ele><time>2026-05-02T13:38:09.997Z</time></trkpt><trkpt lat="45.68831576871655" lon="13.79033344313854"><ele>323.0</ele><time>2026-05-02T13:38:10.997Z</time></trkpt><trkpt lat="45.68832223042223" lon="13.790424471320728"><ele>323.0</ele><time>2026-05-02T13:38:11.997Z</time></trkpt><trkpt lat="45.68827381792462" lon="13.79053991658944"><ele>323.0</ele><time>2026-05-02T13:38:12.997Z</time></trkpt><trkpt lat="45.68829235714565" lon="13.790633577061453"><ele>322.83333333333337</ele><time>2026-05-02T13:38:13.997Z</time></trkpt><trkpt lat="45.68830978976629" lon="13.790721646626757"><ele>322.6666666666667</ele><time>2026-05-02T13:38:14.997Z</time></trkpt><trkpt lat="45.68833143071745" lon="13.790829798167108"><ele>322.5</ele><time>2026-05-02T13:38:15.997Z</time></trkpt><trkpt lat="45.68835285374149" lon="13.790937002445931"><ele>322.3333333333333</ele><time>2026-05-02T13:38:16.997Z</time></trkpt><trkpt lat="45.68837136432157" lon="13.791029632311599"><ele>322.16666666666663</ele><time>2026-05-02T13:38:17.997Z</time></trkpt><trkpt lat="45.6883892774762" lon="13.791119271561255"><ele>322.0</ele><time>2026-05-02T13:38:18.997Z</time></trkpt><trkpt lat="45.68842401802894" lon="13.79128625007606"><ele>322.0</ele><time>2026-05-02T13:38:20.997Z</time></trkpt><trkpt lat="45.68845910949878" lon="13.79144786816081"><ele>322.0</ele><time>2026-05-02T13:38:22.997Z</time></trkpt><trkpt lat="45.688479753032986" lon="13.791542818440297"><ele>322.0</ele><time>2026-05-02T13:38:23.997Z</time></trkpt><trkpt lat="45.68850176862467" lon="13.791644079560198"><ele>322.0</ele><time>2026-05-02T13:38:24.997Z</time></trkpt><trkpt lat="45.68852286778142" lon="13.791741125652312"><ele>322.0</ele><time>2026-05-02T13:38:25.997Z</time></trkpt><trkpt lat="45.68854499177839" lon="13.791842885403923"><ele>322.0</ele><time>2026-05-02T13:38:26.997Z</time></trkpt><trkpt lat="45.68858095617979" lon="13.791984037268893"><ele>321.0</ele><time>2026-05-02T13:38:28.997Z</time></trkpt><trkpt lat="45.68862733155495" lon="13.792166980405632"><ele>320.0</ele><time>2026-05-02T13:39:13.998Z</time></trkpt><trkpt lat="45.68865894075386" lon="13.792294666377552"><ele>319.0</ele><time>2026-05-02T13:39:14.998Z</time></trkpt><trkpt lat="45.688674247864185" lon="13.792395729701418"><ele>318.0</ele><time>2026-05-02T13:39:15.998Z</time></trkpt><trkpt lat="45.68869315664062" lon="13.79248173438978"><ele>317.0</ele><time>2026-05-02T13:39:16.998Z</time></trkpt><trkpt lat="45.688711296514995" lon="13.792604502291713"><ele>317.0</ele><time>2026-05-02T13:39:18.998Z</time></trkpt><trkpt lat="45.688751139269726" lon="13.792716035197579"><ele>317.0</ele><time>2026-05-02T13:39:19.998Z</time></trkpt><trkpt lat="45.688777170923785" lon="13.792857822304143"><ele>317.0</ele><time>2026-05-02T13:39:20.998Z</time></trkpt><trkpt lat="45.688808865732575" lon="13.793006465540055"><ele>317.0</ele><time>2026-05-02T13:39:21.998Z</time></trkpt><trkpt lat="45.6888481914553" lon="13.793174605410574"><ele>317.0</ele><time>2026-05-02T13:39:22.998Z</time></trkpt><trkpt lat="45.68887909778127" lon="13.793353645998048"><ele>317.6666666666667</ele><time>2026-05-02T13:39:23.998Z</time></trkpt><trkpt lat="45.6889277817126" lon="13.793555431971736"><ele>318.3333333333333</ele><time>2026-05-02T13:39:24.998Z</time></trkpt><trkpt lat="45.68898822478281" lon="13.793803494493865"><ele>319.0</ele><time>2026-05-02T13:39:25.998Z</time></trkpt><trkpt lat="45.68904040756489" lon="13.794025631527179"><ele>319.0</ele><time>2026-05-02T13:39:26.998Z</time></trkpt><trkpt lat="45.689072734255674" lon="13.794239452022783"><ele>319.0</ele><time>2026-05-02T13:39:27.998Z</time></trkpt><trkpt lat="45.68911643455573" lon="13.79443693794962"><ele>319.0</ele><time>2026-05-02T13:39:28.998Z</time></trkpt><trkpt lat="45.6891586901889" lon="13.794627895341694"><ele>319.0</ele><time>2026-05-02T13:39:29.998Z</time></trkpt><trkpt lat="45.689207023192246" lon="13.794827865313524"><ele>319.3333333333333</ele><time>2026-05-02T13:39:30.998Z</time></trkpt><trkpt lat="45.68923841288669" lon="13.795041242650685"><ele>319.6666666666667</ele><time>2026-05-02T13:39:31.998Z</time></trkpt><trkpt lat="45.68927981412458" lon="13.795273123375946"><ele>320.0</ele><time>2026-05-02T13:39:32.998Z</time></trkpt><trkpt lat="45.6893423550327" lon="13.795524870837635"><ele>320.0</ele><time>2026-05-02T13:39:33.998Z</time></trkpt><trkpt lat="45.68941062700365" lon="13.795806635681966"><ele>320.0</ele><time>2026-05-02T13:39:34.998Z</time></trkpt><trkpt lat="45.68946414949836" lon="13.796068425658857"><ele>320.0</ele><time>2026-05-02T13:39:35.998Z</time></trkpt><trkpt lat="45.68951443633557" lon="13.796335206554124"><ele>321.33333333333337</ele><time>2026-05-02T13:39:36.998Z</time></trkpt><trkpt lat="45.68956688385993" lon="13.796597425997845"><ele>322.6666666666667</ele><time>2026-05-02T13:39:37.998Z</time></trkpt><trkpt lat="45.689621109994874" lon="13.796863952177148"><ele>324.0</ele><time>2026-05-02T13:39:38.998Z</time></trkpt><trkpt lat="45.68967122583776" lon="13.797131976481719"><ele>324.3333333333333</ele><time>2026-05-02T13:39:39.998Z</time></trkpt><trkpt lat="45.689731329385275" lon="13.79741093577644"><ele>324.66666666666663</ele><time>2026-05-02T13:39:40.998Z</time></trkpt><trkpt lat="45.68979356812608" lon="13.797687518980089"><ele>325.0</ele><time>2026-05-02T13:39:41.998Z</time></trkpt><trkpt lat="45.689850800922294" lon="13.797967163988316"><ele>325.3333333333333</ele><time>2026-05-02T13:39:42.998Z</time></trkpt><trkpt lat="45.689909254192706" lon="13.798251559609042"><ele>325.6666666666667</ele><time>2026-05-02T13:39:43.998Z</time></trkpt><trkpt lat="45.689953604834436" lon="13.798549993969383"><ele>326.0</ele><time>2026-05-02T13:39:44.998Z</time></trkpt><trkpt lat="45.69003266798824" lon="13.798828558314622"><ele>326.0</ele><time>2026-05-02T13:39:45.998Z</time></trkpt><trkpt lat="45.69008713736411" lon="13.79910630939406"><ele>326.0</ele><time>2026-05-02T13:39:46.998Z</time></trkpt><trkpt lat="45.69014193879683" lon="13.799375471202076"><ele>326.0</ele><time>2026-05-02T13:39:47.998Z</time></trkpt><trkpt lat="45.690215045613655" lon="13.799640930564264"><ele>326.0</ele><time>2026-05-02T13:39:48.998Z</time></trkpt><trkpt lat="45.6902802078959" lon="13.799917586117122"><ele>326.0</ele><time>2026-05-02T13:39:49.998Z</time></trkpt><trkpt lat="45.69034262691009" lon="13.800195235877183"><ele>326.0</ele><time>2026-05-02T13:39:50.998Z</time></trkpt><trkpt lat="45.69040429082752" lon="13.800469938110382"><ele>325.6666666666667</ele><time>2026-05-02T13:39:51.998Z</time></trkpt><trkpt lat="45.690470858266494" lon="13.800746341747494"><ele>325.3333333333333</ele><time>2026-05-02T13:39:52.998Z</time></trkpt><trkpt lat="45.69053589205249" lon="13.801020232920662"><ele>325.0</ele><time>2026-05-02T13:39:53.998Z</time></trkpt><trkpt lat="45.6906015079266" lon="13.801299044314073"><ele>324.3333333333333</ele><time>2026-05-02T13:39:54.998Z</time></trkpt><trkpt lat="45.690665910421835" lon="13.801580305216078"><ele>323.6666666666667</ele><time>2026-05-02T13:39:55.998Z</time></trkpt><trkpt lat="45.69073165940242" lon="13.801864869000527"><ele>323.0</ele><time>2026-05-02T13:39:56.998Z</time></trkpt><trkpt lat="45.690797034906375" lon="13.802148605396695"><ele>323.0</ele><time>2026-05-02T13:39:57.998Z</time></trkpt><trkpt lat="45.69086326367611" lon="13.8024373856669"><ele>323.0</ele><time>2026-05-02T13:39:58.998Z</time></trkpt><trkpt lat="45.69092579677779" lon="13.802704274106956"><ele>323.0</ele><time>2026-05-02T13:39:59.998Z</time></trkpt><trkpt lat="45.69098265528443" lon="13.802955161881647"><ele>322.33333333333337</ele><time>2026-05-02T13:40:00.998Z</time></trkpt><trkpt lat="45.69103977493503" lon="13.803191523780528"><ele>321.6666666666667</ele><time>2026-05-02T13:40:01.998Z</time></trkpt><trkpt lat="45.691094830251" lon="13.803415660070774"><ele>321.0</ele><time>2026-05-02T13:40:02.998Z</time></trkpt><trkpt lat="45.6911478409756" lon="13.803627925855526"><ele>320.3333333333333</ele><time>2026-05-02T13:40:03.998Z</time></trkpt><trkpt lat="45.691199897008644" lon="13.803842666544735"><ele>319.66666666666663</ele><time>2026-05-02T13:40:04.998Z</time></trkpt><trkpt lat="45.69125745130778" lon="13.804072976685216"><ele>319.0</ele><time>2026-05-02T13:40:05.998Z</time></trkpt><trkpt lat="45.691318649436056" lon="13.804305494611558"><ele>317.66666666666663</ele><time>2026-05-02T13:40:06.998Z</time></trkpt><trkpt lat="45.6913770420053" lon="13.80454176186833"><ele>316.3333333333333</ele><time>2026-05-02T13:40:07.998Z</time></trkpt><trkpt lat="45.691434841192795" lon="13.804781053767377"><ele>315.0</ele><time>2026-05-02T13:40:08.998Z</time></trkpt><trkpt lat="45.691492773144056" lon="13.805024058030536"><ele>314.6666666666667</ele><time>2026-05-02T13:40:09.998Z</time></trkpt><trkpt lat="45.69155322372654" lon="13.8052681942011"><ele>314.33333333333337</ele><time>2026-05-02T13:40:10.998Z</time></trkpt><trkpt lat="45.691611289474146" lon="13.805514146228035"><ele>314.0</ele><time>2026-05-02T13:40:11.998Z</time></trkpt><trkpt lat="45.69167110650771" lon="13.80575993496792"><ele>313.33333333333337</ele><time>2026-05-02T13:40:12.998Z</time></trkpt><trkpt lat="45.69172897285369" lon="13.806005480566052"><ele>312.6666666666667</ele><time>2026-05-02T13:40:13.998Z</time></trkpt><trkpt lat="45.69178592542649" lon="13.806252220068053"><ele>312.0</ele><time>2026-05-02T13:40:14.998Z</time></trkpt><trkpt lat="45.6918456291146" lon="13.806499028152256"><ele>312.0</ele><time>2026-05-02T13:40:15.998Z</time></trkpt><trkpt lat="45.691910989468575" lon="13.8067445089881"><ele>312.0</ele><time>2026-05-02T13:40:16.998Z</time></trkpt><trkpt lat="45.69197126075089" lon="13.806988635814673"><ele>312.0</ele><time>2026-05-02T13:40:17.997Z</time></trkpt><trkpt lat="45.69202798810751" lon="13.807232413953153"><ele>311.6666666666667</ele><time>2026-05-02T13:40:18.997Z</time></trkpt><trkpt lat="45.69208728624419" lon="13.807491116861891"><ele>311.33333333333337</ele><time>2026-05-02T13:40:19.997Z</time></trkpt><trkpt lat="45.69215153137774" lon="13.807754949451043"><ele>311.0</ele><time>2026-05-02T13:40:20.997Z</time></trkpt><trkpt lat="45.69221838336186" lon="13.808024894879651"><ele>311.0</ele><time>2026-05-02T13:40:21.997Z</time></trkpt><trkpt lat="45.69228376263002" lon="13.80830835879985"><ele>311.0</ele><time>2026-05-02T13:40:22.997Z</time></trkpt><trkpt lat="45.69235634312972" lon="13.808603408274635"><ele>311.0</ele><time>2026-05-02T13:40:23.997Z</time></trkpt><trkpt lat="45.692431560371126" lon="13.808902069792984"><ele>310.5</ele><time>2026-05-02T13:40:24.997Z</time></trkpt><trkpt lat="45.6925046907789" lon="13.809213990490434"><ele>310.0</ele><time>2026-05-02T13:40:25.997Z</time></trkpt><trkpt lat="45.69257871370455" lon="13.809518335343634"><ele>309.0</ele><time>2026-05-02T13:40:26.997Z</time></trkpt><trkpt lat="45.692652175377994" lon="13.809824761639353"><ele>308.0</ele><time>2026-05-02T13:40:27.997Z</time></trkpt><trkpt lat="45.69272706568154" lon="13.810127526140734"><ele>309.33333333333337</ele><time>2026-05-02T13:40:28.997Z</time></trkpt><trkpt lat="45.692800733225305" lon="13.810421191671853"><ele>310.6666666666667</ele><time>2026-05-02T13:40:29.997Z</time></trkpt><trkpt lat="45.69287339186823" lon="13.810708751829182"><ele>312.0</ele><time>2026-05-02T13:40:30.997Z</time></trkpt><trkpt lat="45.6929273058519" lon="13.811004357853587"><ele>312.0</ele><time>2026-05-02T13:40:31.997Z</time></trkpt><trkpt lat="45.69299560144882" lon="13.81128750164072"><ele>312.0</ele><time>2026-05-02T13:40:32.997Z</time></trkpt><trkpt lat="45.693079380718274" lon="13.811567839752161"><ele>312.0</ele><time>2026-05-02T13:40:33.997Z</time></trkpt><trkpt lat="45.69314823357446" lon="13.811863053535888"><ele>312.0</ele><time>2026-05-02T13:40:34.997Z</time></trkpt><trkpt lat="45.693221140274815" lon="13.812158238359352"><ele>312.0</ele><time>2026-05-02T13:40:35.997Z</time></trkpt><trkpt lat="45.693293914980124" lon="13.812456911601993"><ele>312.0</ele><time>2026-05-02T13:40:36.997Z</time></trkpt><trkpt lat="45.69336880237682" lon="13.812769041050112"><ele>312.0</ele><time>2026-05-02T13:40:37.997Z</time></trkpt><trkpt lat="45.69344289146354" lon="13.813077873789442"><ele>312.0</ele><time>2026-05-02T13:40:38.997Z</time></trkpt><trkpt lat="45.693514952126755" lon="13.81336642449839"><ele>312.0</ele><time>2026-05-02T13:40:39.997Z</time></trkpt><trkpt lat="45.69356495625996" lon="13.813640828728355"><ele>312.0</ele><time>2026-05-02T13:40:40.997Z</time></trkpt><trkpt lat="45.69364021570757" lon="13.8138846313485"><ele>312.0</ele><time>2026-05-02T13:40:41.997Z</time></trkpt><trkpt lat="45.6936932533295" lon="13.814116213818647"><ele>312.0</ele><time>2026-05-02T13:40:42.997Z</time></trkpt><trkpt lat="45.69374384102477" lon="13.814342398018232"><ele>312.6666666666667</ele><time>2026-05-02T13:40:43.999Z</time></trkpt><trkpt lat="45.69379687528427" lon="13.814563829568074"><ele>313.33333333333337</ele><time>2026-05-02T13:40:44.999Z</time></trkpt><trkpt lat="45.693849674264115" lon="13.8147858911795"><ele>314.0</ele><time>2026-05-02T13:40:45.999Z</time></trkpt><trkpt lat="45.69390067138084" lon="13.815005837400719"><ele>314.6666666666667</ele><time>2026-05-02T13:40:46.999Z</time></trkpt><trkpt lat="45.693951071189595" lon="13.81522283180453"><ele>315.3333333333333</ele><time>2026-05-02T13:40:47.999Z</time></trkpt><trkpt lat="45.694001586213616" lon="13.815445004652304"><ele>316.0</ele><time>2026-05-02T13:40:48.999Z</time></trkpt><trkpt lat="45.694055324022294" lon="13.815672254120237"><ele>316.0</ele><time>2026-05-02T13:40:49.999Z</time></trkpt><trkpt lat="45.69411112257499" lon="13.815904188272944"><ele>316.0</ele><time>2026-05-02T13:40:50.999Z</time></trkpt><trkpt lat="45.69416782274192" lon="13.81614133615794"><ele>316.0</ele><time>2026-05-02T13:40:51.999Z</time></trkpt><trkpt lat="45.69423196099163" lon="13.816378284385705"><ele>316.3333333333333</ele><time>2026-05-02T13:40:52.999Z</time></trkpt><trkpt lat="45.69429811837439" lon="13.816616448016415"><ele>316.6666666666667</ele><time>2026-05-02T13:40:53.999Z</time></trkpt><trkpt lat="45.69437175041553" lon="13.816849490204921"><ele>317.0</ele><time>2026-05-02T13:40:54.999Z</time></trkpt><trkpt lat="45.69444526334011" lon="13.817084062385133"><ele>317.33333333333337</ele><time>2026-05-02T13:40:55.999Z</time></trkpt><trkpt lat="45.69451484502205" lon="13.817319268489618"><ele>317.6666666666667</ele><time>2026-05-02T13:40:56.999Z</time></trkpt><trkpt lat="45.694586499856186" lon="13.817556564477115"><ele>318.0</ele><time>2026-05-02T13:40:57.999Z</time></trkpt><trkpt lat="45.69465696620581" lon="13.817794731004984"><ele>318.3333333333333</ele><time>2026-05-02T13:40:58.999Z</time></trkpt><trkpt lat="45.69472819881483" lon="13.81803226925502"><ele>318.66666666666663</ele><time>2026-05-02T13:40:59.999Z</time></trkpt><trkpt lat="45.69479643307478" lon="13.818271979888753"><ele>319.0</ele><time>2026-05-02T13:41:00.999Z</time></trkpt><trkpt lat="45.69486103341451" lon="13.818516333939359"><ele>319.66666666666663</ele><time>2026-05-02T13:41:01.999Z</time></trkpt><trkpt lat="45.694929947082365" lon="13.818757024614287"><ele>320.3333333333333</ele><time>2026-05-02T13:41:02.999Z</time></trkpt><trkpt lat="45.69499874061711" lon="13.818998665972009"><ele>321.0</ele><time>2026-05-02T13:41:03.999Z</time></trkpt><trkpt lat="45.69506688906255" lon="13.81923711923799"><ele>321.3333333333333</ele><time>2026-05-02T13:41:04.999Z</time></trkpt><trkpt lat="45.695131869968705" lon="13.81947720205602"><ele>321.66666666666663</ele><time>2026-05-02T13:41:05.999Z</time></trkpt><trkpt lat="45.695198269165765" lon="13.819718591854295"><ele>322.0</ele><time>2026-05-02T13:41:06.999Z</time></trkpt><trkpt lat="45.69526376707355" lon="13.819961386197528"><ele>322.3333333333333</ele><time>2026-05-02T13:41:07.999Z</time></trkpt><trkpt lat="45.6953290666071" lon="13.820203431613978"><ele>322.6666666666667</ele><time>2026-05-02T13:41:08.999Z</time></trkpt><trkpt lat="45.69539502747309" lon="13.820445082593022"><ele>323.0</ele><time>2026-05-02T13:41:09.999Z</time></trkpt><trkpt lat="45.695459642836894" lon="13.820688098682053"><ele>323.0</ele><time>2026-05-02T13:41:10.999Z</time></trkpt><trkpt lat="45.69552164721908" lon="13.820939582132105"><ele>323.0</ele><time>2026-05-02T13:41:11.999Z</time></trkpt><trkpt lat="45.69558370832289" lon="13.821190892920926"><ele>323.0</ele><time>2026-05-02T13:41:12.999Z</time></trkpt><trkpt lat="45.69564180365381" lon="13.821444082030707"><ele>323.0</ele><time>2026-05-02T13:41:13.999Z</time></trkpt><trkpt lat="45.695702927549824" lon="13.82169530926489"><ele>323.0</ele><time>2026-05-02T13:41:14.999Z</time></trkpt><trkpt lat="45.69576683390657" lon="13.821947604991173"><ele>323.0</ele><time>2026-05-02T13:41:15.999Z</time></trkpt><trkpt lat="45.6958245774224" lon="13.822206128419015"><ele>323.0</ele><time>2026-05-02T13:41:16.999Z</time></trkpt><trkpt lat="45.69589143155998" lon="13.822464083531605"><ele>323.0</ele><time>2026-05-02T13:41:17.999Z</time></trkpt><trkpt lat="45.69595199373526" lon="13.822725796101171"><ele>323.0</ele><time>2026-05-02T13:41:18.999Z</time></trkpt><trkpt lat="45.696015620518644" lon="13.822996353044077"><ele>323.0</ele><time>2026-05-02T13:41:19.999Z</time></trkpt><trkpt lat="45.69609064975951" lon="13.823286624640973"><ele>323.0</ele><time>2026-05-02T13:41:20.999Z</time></trkpt><trkpt lat="45.6961798018376" lon="13.823589511053903"><ele>323.0</ele><time>2026-05-02T13:41:21.999Z</time></trkpt><trkpt lat="45.69629083735929" lon="13.823891591463253"><ele>323.0</ele><time>2026-05-02T13:41:22.999Z</time></trkpt><trkpt lat="45.69640404255141" lon="13.82417365973586"><ele>323.0</ele><time>2026-05-02T13:41:23.999Z</time></trkpt><trkpt lat="45.69651618419788" lon="13.82444806157486"><ele>323.0</ele><time>2026-05-02T13:41:24.999Z</time></trkpt><trkpt lat="45.69661822733449" lon="13.8247250869062"><ele>323.0</ele><time>2026-05-02T13:41:25.999Z</time></trkpt><trkpt lat="45.6967150747987" lon="13.825007327516445"><ele>323.0</ele><time>2026-05-02T13:41:26.999Z</time></trkpt><trkpt lat="45.696802966340876" lon="13.825296091399798"><ele>323.0</ele><time>2026-05-02T13:41:27.999Z</time></trkpt><trkpt lat="45.69687686051944" lon="13.82559081636812"><ele>323.0</ele><time>2026-05-02T13:41:28.999Z</time></trkpt><trkpt lat="45.69694987873608" lon="13.825884662526796"><ele>323.0</ele><time>2026-05-02T13:41:29.999Z</time></trkpt><trkpt lat="45.6970205941297" lon="13.82618040654928"><ele>323.0</ele><time>2026-05-02T13:41:30.999Z</time></trkpt><trkpt lat="45.69709202404567" lon="13.826476084213631"><ele>323.0</ele><time>2026-05-02T13:41:31.999Z</time></trkpt><trkpt lat="45.69716100383869" lon="13.82677189268631"><ele>323.0</ele><time>2026-05-02T13:41:32.999Z</time></trkpt><trkpt lat="45.69722334474194" lon="13.82704343992577"><ele>323.0</ele><time>2026-05-02T13:41:33.999Z</time></trkpt><trkpt lat="45.69727760515876" lon="13.827294459280996"><ele>323.33333333333337</ele><time>2026-05-02T13:41:34.999Z</time></trkpt><trkpt lat="45.69733140636781" lon="13.827531087445118"><ele>323.6666666666667</ele><time>2026-05-02T13:41:35.999Z</time></trkpt><trkpt lat="45.69738072155556" lon="13.827754123276831"><ele>324.0</ele><time>2026-05-02T13:41:36.999Z</time></trkpt><trkpt lat="45.69742399440036" lon="13.827955200056454"><ele>324.3333333333333</ele><time>2026-05-02T13:41:37.999Z</time></trkpt><trkpt lat="45.69746824123481" lon="13.828158328913021"><ele>324.66666666666663</ele><time>2026-05-02T13:41:38.999Z</time></trkpt><trkpt lat="45.69752012627318" lon="13.828368570845377"><ele>325.0</ele><time>2026-05-02T13:41:39.999Z</time></trkpt><trkpt lat="45.697577892872836" lon="13.828573432880043"><ele>325.66666666666663</ele><time>2026-05-02T13:41:40.999Z</time></trkpt><trkpt lat="45.69763791220481" lon="13.828776689847436"><ele>326.3333333333333</ele><time>2026-05-02T13:41:41.999Z</time></trkpt><trkpt lat="45.697697572345845" lon="13.828973575777663"><ele>327.0</ele><time>2026-05-02T13:41:42.999Z</time></trkpt><trkpt lat="45.69775727040543" lon="13.829169115882522"><ele>327.25</ele><time>2026-05-02T13:41:43.999Z</time></trkpt><trkpt lat="45.6978149033272" lon="13.829364861367266"><ele>327.5</ele><time>2026-05-02T13:41:44.999Z</time></trkpt><trkpt lat="45.69787585944899" lon="13.829558127534192"><ele>327.75</ele><time>2026-05-02T13:41:45.999Z</time></trkpt><trkpt lat="45.69793703315311" lon="13.829755650025628"><ele>328.0</ele><time>2026-05-02T13:41:46.999Z</time></trkpt><trkpt lat="45.697998741501756" lon="13.82994989890992"><ele>328.0</ele><time>2026-05-02T13:41:47.999Z</time></trkpt><trkpt lat="45.698055450254984" lon="13.830139158605256"><ele>328.0</ele><time>2026-05-02T13:41:48.999Z</time></trkpt><trkpt lat="45.698113517621586" lon="13.830326806105216"><ele>328.0</ele><time>2026-05-02T13:41:49.999Z</time></trkpt><trkpt lat="45.698169096056795" lon="13.830511358249272"><ele>328.0</ele><time>2026-05-02T13:41:50.999Z</time></trkpt><trkpt lat="45.69822090720575" lon="13.830694372399615"><ele>328.75</ele><time>2026-05-02T13:41:51.999Z</time></trkpt><trkpt lat="45.6982727538525" lon="13.830867069213651"><ele>329.5</ele><time>2026-05-02T13:41:52.999Z</time></trkpt><trkpt lat="45.69832287172419" lon="13.831033552432142"><ele>330.25</ele><time>2026-05-02T13:41:53.999Z</time></trkpt><trkpt lat="45.69837376732867" lon="13.831191941623523"><ele>331.0</ele><time>2026-05-02T13:41:54.999Z</time></trkpt><trkpt lat="45.69842098596816" lon="13.831347204898874"><ele>331.0</ele><time>2026-05-02T13:41:55.999Z</time></trkpt><trkpt lat="45.69847174075125" lon="13.831504685640915"><ele>331.0</ele><time>2026-05-02T13:41:56.999Z</time></trkpt><trkpt lat="45.698522077960305" lon="13.831669631853984"><ele>331.0</ele><time>2026-05-02T13:41:57.999Z</time></trkpt><trkpt lat="45.69857382268934" lon="13.831841173493913"><ele>331.0</ele><time>2026-05-02T13:41:58.999Z</time></trkpt><trkpt lat="45.69862822330116" lon="13.83201961153315"><ele>331.0</ele><time>2026-05-02T13:41:59.999Z</time></trkpt><trkpt lat="45.69868059437982" lon="13.832199497745316"><ele>331.0</ele><time>2026-05-02T13:42:00.999Z</time></trkpt><trkpt lat="45.698732396190806" lon="13.832385048784886"><ele>331.0</ele><time>2026-05-02T13:42:01.999Z</time></trkpt><trkpt lat="45.698790978847676" lon="13.83258147798561"><ele>331.0</ele><time>2026-05-02T13:42:02.999Z</time></trkpt><trkpt lat="45.69885086451378" lon="13.832773997826854"><ele>331.25</ele><time>2026-05-02T13:42:03.999Z</time></trkpt><trkpt lat="45.69891247401157" lon="13.832952966610044"><ele>331.5</ele><time>2026-05-02T13:42:04.999Z</time></trkpt><trkpt lat="45.69896093859795" lon="13.83312701085302"><ele>331.75</ele><time>2026-05-02T13:42:05.999Z</time></trkpt><trkpt lat="45.69899127185748" lon="13.83330136396324"><ele>332.0</ele><time>2026-05-02T13:42:06.999Z</time></trkpt><trkpt lat="45.69903329244037" lon="13.833459473653887"><ele>332.8</ele><time>2026-05-02T13:42:07.999Z</time></trkpt><trkpt lat="45.69905777000743" lon="13.83361622579008"><ele>333.6</ele><time>2026-05-02T13:42:08.999Z</time></trkpt><trkpt lat="45.69907681362584" lon="13.833769433260535"><ele>334.40000000000003</ele><time>2026-05-02T13:42:09.999Z</time></trkpt><trkpt lat="45.699096278693325" lon="13.833902490561107"><ele>335.20000000000005</ele><time>2026-05-02T13:42:10.999Z</time></trkpt><trkpt lat="45.69911792888654" lon="13.834021095749025"><ele>336.0</ele><time>2026-05-02T13:42:11.999Z</time></trkpt><trkpt lat="45.69914515238222" lon="13.834126407444495"><ele>336.0</ele><time>2026-05-02T13:42:12.999Z</time></trkpt><trkpt lat="45.69918344037198" lon="13.834213715553103"><ele>336.0</ele><time>2026-05-02T13:42:13.998Z</time></trkpt><trkpt lat="45.69922852691741" lon="13.834292161300038"><ele>336.0</ele><time>2026-05-02T13:42:14.998Z</time></trkpt><trkpt lat="45.699268468406935" lon="13.834381955789725"><ele>336.0</ele><time>2026-05-02T13:42:15.998Z</time></trkpt><trkpt lat="45.69930297072542" lon="13.83448718718039"><ele>336.0</ele><time>2026-05-02T13:42:16.998Z</time></trkpt><trkpt lat="45.69933480456788" lon="13.83460625668157"><ele>336.0</ele><time>2026-05-02T13:42:17.998Z</time></trkpt><trkpt lat="45.69937392343448" lon="13.834727626564685"><ele>337.0</ele><time>2026-05-02T13:42:18.998Z</time></trkpt><trkpt lat="45.6994191690153" lon="13.834851249578335"><ele>338.0</ele><time>2026-05-02T13:42:19.998Z</time></trkpt><trkpt lat="45.699475712224924" lon="13.83497974836801"><ele>339.0</ele><time>2026-05-02T13:42:20.998Z</time></trkpt><trkpt lat="45.699533019218656" lon="13.83511495922732"><ele>340.0</ele><time>2026-05-02T13:42:21.998Z</time></trkpt><trkpt lat="45.69959670322377" lon="13.835256061444419"><ele>341.0</ele><time>2026-05-02T13:42:22.998Z</time></trkpt><trkpt lat="45.69965664834745" lon="13.83540231501098"><ele>341.25</ele><time>2026-05-02T13:42:23.998Z</time></trkpt><trkpt lat="45.69971371487282" lon="13.835556741740383"><ele>341.5</ele><time>2026-05-02T13:42:24.998Z</time></trkpt><trkpt lat="45.69977349023889" lon="13.835713728314582"><ele>341.75</ele><time>2026-05-02T13:42:25.998Z</time></trkpt><trkpt lat="45.69983336437684" lon="13.83587396356359"><ele>342.0</ele><time>2026-05-02T13:42:26.998Z</time></trkpt><trkpt lat="45.69989117919202" lon="13.836035050341119"><ele>342.25</ele><time>2026-05-02T13:42:27.998Z</time></trkpt><trkpt lat="45.69995515368508" lon="13.83619131254682"><ele>342.5</ele><time>2026-05-02T13:42:28.998Z</time></trkpt><trkpt lat="45.70002119872762" lon="13.836350225138775"><ele>342.75</ele><time>2026-05-02T13:42:29.998Z</time></trkpt><trkpt lat="45.70008811449967" lon="13.836513202713114"><ele>343.0</ele><time>2026-05-02T13:42:30.998Z</time></trkpt><trkpt lat="45.700148689869884" lon="13.836659832152709"><ele>343.25</ele><time>2026-05-02T13:42:31.998Z</time></trkpt><trkpt lat="45.70021972961543" lon="13.836803861270914"><ele>343.5</ele><time>2026-05-02T13:42:32.998Z</time></trkpt><trkpt lat="45.70030401499841" lon="13.836986167034636"><ele>343.75</ele><time>2026-05-02T13:42:33.998Z</time></trkpt><trkpt lat="45.700378414702" lon="13.837145029227317"><ele>344.0</ele><time>2026-05-02T13:42:34.998Z</time></trkpt><trkpt lat="45.700448705684735" lon="13.837304915716894"><ele>343.75</ele><time>2026-05-02T13:42:35.998Z</time></trkpt><trkpt lat="45.70052516035648" lon="13.837454033534382"><ele>343.5</ele><time>2026-05-02T13:42:36.998Z</time></trkpt><trkpt lat="45.7006017597754" lon="13.837601013838421"><ele>343.25</ele><time>2026-05-02T13:42:37.998Z</time></trkpt><trkpt lat="45.70068523953514" lon="13.837745818929482"><ele>343.0</ele><time>2026-05-02T13:42:38.998Z</time></trkpt><trkpt lat="45.70076371451245" lon="13.83789101711523"><ele>343.0</ele><time>2026-05-02T13:42:39.998Z</time></trkpt><trkpt lat="45.7008427802624" lon="13.838035971236565"><ele>343.0</ele><time>2026-05-02T13:42:40.998Z</time></trkpt><trkpt lat="45.7009230520889" lon="13.838181983724109"><ele>343.0</ele><time>2026-05-02T13:42:41.998Z</time></trkpt><trkpt lat="45.70100007671266" lon="13.838325401712297"><ele>343.0</ele><time>2026-05-02T13:42:42.998Z</time></trkpt><trkpt lat="45.70106716889057" lon="13.83846667355322"><ele>344.0</ele><time>2026-05-02T13:42:43.998Z</time></trkpt><trkpt lat="45.70112129464452" lon="13.838611879105411"><ele>345.0</ele><time>2026-05-02T13:42:44.998Z</time></trkpt><trkpt lat="45.70117167783897" lon="13.838763519953664"><ele>346.0</ele><time>2026-05-02T13:42:45.998Z</time></trkpt><trkpt lat="45.701222808129955" lon="13.838917912496818"><ele>347.0</ele><time>2026-05-02T13:42:46.998Z</time></trkpt><trkpt lat="45.70127995866608" lon="13.839073661786179"><ele>348.0</ele><time>2026-05-02T13:42:47.998Z</time></trkpt><trkpt lat="45.70140388066464" lon="13.839396665846914"><ele>349.0</ele><time>2026-05-02T13:42:50Z</time></trkpt><trkpt lat="45.7014698640268" lon="13.839582596559255"><ele>350.0</ele><time>2026-05-02T13:42:51Z</time></trkpt><trkpt lat="45.70154472633638" lon="13.839789483901034"><ele>350.0</ele><time>2026-05-02T13:42:52Z</time></trkpt><trkpt lat="45.70163104293781" lon="13.840009529860884"><ele>350.0</ele><time>2026-05-02T13:42:53Z</time></trkpt><trkpt lat="45.701716385466234" lon="13.840245684132887"><ele>350.0</ele><time>2026-05-02T13:42:54Z</time></trkpt><trkpt lat="45.70180143252138" lon="13.840507288618701"><ele>351.0</ele><time>2026-05-02T13:42:55Z</time></trkpt><trkpt lat="45.70187233505456" lon="13.840752751784517"><ele>352.0</ele><time>2026-05-02T13:42:56Z</time></trkpt><trkpt lat="45.70193468410929" lon="13.840965978137154"><ele>353.0</ele><time>2026-05-02T13:42:57Z</time></trkpt><trkpt lat="45.702003707910066" lon="13.84117038576809"><ele>353.0</ele><time>2026-05-02T13:42:58Z</time></trkpt><trkpt lat="45.7020692256759" lon="13.841371397499502"><ele>353.0</ele><time>2026-05-02T13:42:59Z</time></trkpt><trkpt lat="45.70213127576426" lon="13.84157580217919"><ele>353.0</ele><time>2026-05-02T13:43:00Z</time></trkpt><trkpt lat="45.702187782766735" lon="13.841811155367415"><ele>353.6666666666667</ele><time>2026-05-02T13:43:01Z</time></trkpt><trkpt lat="45.70224158876411" lon="13.842033295336984"><ele>354.3333333333333</ele><time>2026-05-02T13:43:02Z</time></trkpt><trkpt lat="45.70228944299542" lon="13.842233484229752"><ele>355.0</ele><time>2026-05-02T13:43:03Z</time></trkpt><trkpt lat="45.70233465650579" lon="13.842420734779742"><ele>355.0</ele><time>2026-05-02T13:43:04Z</time></trkpt><trkpt lat="45.702378923997905" lon="13.842592079783458"><ele>355.0</ele><time>2026-05-02T13:43:05Z</time></trkpt><trkpt lat="45.702417862566264" lon="13.84275289550514"><ele>355.0</ele><time>2026-05-02T13:43:06Z</time></trkpt><trkpt lat="45.702454614139405" lon="13.842898332142845"><ele>355.0</ele><time>2026-05-02T13:43:07Z</time></trkpt><trkpt lat="45.702475824526786" lon="13.843031429964345"><ele>354.8333333333333</ele><time>2026-05-02T13:43:08Z</time></trkpt><trkpt lat="45.702478093562426" lon="13.84315727293787"><ele>354.66666666666663</ele><time>2026-05-02T13:43:09Z</time></trkpt><trkpt lat="45.70250513669999" lon="13.843260294096261"><ele>354.5</ele><time>2026-05-02T13:43:10Z</time></trkpt><trkpt lat="45.70255177395691" lon="13.843349797354204"><ele>354.3333333333333</ele><time>2026-05-02T13:43:11Z</time></trkpt><trkpt lat="45.70259670809216" lon="13.843454470617088"><ele>354.1666666666667</ele><time>2026-05-02T13:43:12Z</time></trkpt><trkpt lat="45.702635569826924" lon="13.843580897653464"><ele>354.0</ele><time>2026-05-02T13:43:13Z</time></trkpt><trkpt lat="45.70267302101664" lon="13.843728037338817"><ele>353.25</ele><time>2026-05-02T13:43:14Z</time></trkpt><trkpt lat="45.7027179809754" lon="13.843894689879065"><ele>352.5</ele><time>2026-05-02T13:43:15Z</time></trkpt><trkpt lat="45.702757965670514" lon="13.84407786792292"><ele>351.75</ele><time>2026-05-02T13:43:16Z</time></trkpt><trkpt lat="45.7028090671208" lon="13.844261512256265"><ele>351.0</ele><time>2026-05-02T13:43:17Z</time></trkpt><trkpt lat="45.702865474451" lon="13.844450802158379"><ele>351.0</ele><time>2026-05-02T13:43:18Z</time></trkpt><trkpt lat="45.702901313451214" lon="13.844654239012348"><ele>351.0</ele><time>2026-05-02T13:43:19Z</time></trkpt><trkpt lat="45.70294887958079" lon="13.84485719157001"><ele>351.0</ele><time>2026-05-02T13:43:20Z</time></trkpt><trkpt lat="45.70299450289962" lon="13.845064904719058"><ele>351.0</ele><time>2026-05-02T13:43:21Z</time></trkpt><trkpt lat="45.70303670696846" lon="13.845270055348408"><ele>351.6666666666667</ele><time>2026-05-02T13:43:22Z</time></trkpt><trkpt lat="45.70307593468817" lon="13.845474560067244"><ele>352.33333333333337</ele><time>2026-05-02T13:43:23Z</time></trkpt><trkpt lat="45.703114002061625" lon="13.84568619372953"><ele>353.0</ele><time>2026-05-02T13:43:24Z</time></trkpt><trkpt lat="45.703149356789005" lon="13.845894446103454"><ele>353.25</ele><time>2026-05-02T13:43:25Z</time></trkpt><trkpt lat="45.70318029213928" lon="13.846098860410631"><ele>353.5</ele><time>2026-05-02T13:43:26Z</time></trkpt><trkpt lat="45.7032207134685" lon="13.846292061339213"><ele>353.75</ele><time>2026-05-02T13:43:27Z</time></trkpt><trkpt lat="45.70324668588728" lon="13.846504048088326"><ele>354.0</ele><time>2026-05-02T13:43:28Z</time></trkpt><trkpt lat="45.70328121796095" lon="13.846724915653777"><ele>353.3333333333333</ele><time>2026-05-02T13:43:29Z</time></trkpt><trkpt lat="45.70331616285464" lon="13.846937826795411"><ele>352.66666666666663</ele><time>2026-05-02T13:43:30Z</time></trkpt><trkpt lat="45.70335868963213" lon="13.84714545187319"><ele>352.0</ele><time>2026-05-02T13:43:31Z</time></trkpt><trkpt lat="45.70340524462415" lon="13.8473562842066"><ele>352.0</ele><time>2026-05-02T13:43:32Z</time></trkpt><trkpt lat="45.70344853483661" lon="13.847575452915763"><ele>352.0</ele><time>2026-05-02T13:43:33Z</time></trkpt><trkpt lat="45.70348755508033" lon="13.847802629091227"><ele>352.0</ele><time>2026-05-02T13:43:34Z</time></trkpt><trkpt lat="45.70352565810766" lon="13.848031159249183"><ele>352.3333333333333</ele><time>2026-05-02T13:43:35Z</time></trkpt><trkpt lat="45.70356243227778" lon="13.848263688343701"><ele>352.6666666666667</ele><time>2026-05-02T13:43:36Z</time></trkpt><trkpt lat="45.703602921500284" lon="13.848506467581664"><ele>353.0</ele><time>2026-05-02T13:43:37Z</time></trkpt><trkpt lat="45.703644471854346" lon="13.84876095980948"><ele>353.0</ele><time>2026-05-02T13:43:38Z</time></trkpt><trkpt lat="45.7036852055169" lon="13.848999662787739"><ele>353.0</ele><time>2026-05-02T13:43:39Z</time></trkpt><trkpt lat="45.70372485578302" lon="13.849223064361452"><ele>353.0</ele><time>2026-05-02T13:43:40Z</time></trkpt><trkpt lat="45.70375992772234" lon="13.84944814363913"><ele>353.0</ele><time>2026-05-02T13:43:41Z</time></trkpt><trkpt lat="45.7037934519791" lon="13.849675716631367"><ele>353.0</ele><time>2026-05-02T13:43:42Z</time></trkpt><trkpt lat="45.70383369887467" lon="13.849907685426608"><ele>353.0</ele><time>2026-05-02T13:43:43Z</time></trkpt><trkpt lat="45.703874120275835" lon="13.850145717458949"><ele>354.0</ele><time>2026-05-02T13:43:44Z</time></trkpt><trkpt lat="45.70391665047157" lon="13.850400018018734"><ele>355.0</ele><time>2026-05-02T13:43:45Z</time></trkpt><trkpt lat="45.70395933536962" lon="13.850657015795214"><ele>356.0</ele><time>2026-05-02T13:43:45.999Z</time></trkpt><trkpt lat="45.70400015488504" lon="13.850915062282152"><ele>356.33333333333337</ele><time>2026-05-02T13:43:46.999Z</time></trkpt><trkpt lat="45.70404295426886" lon="13.851163886485015"><ele>356.6666666666667</ele><time>2026-05-02T13:43:47.999Z</time></trkpt><trkpt lat="45.70408041906421" lon="13.851394185877965"><ele>357.0</ele><time>2026-05-02T13:43:48.999Z</time></trkpt><trkpt lat="45.70411386908488" lon="13.851620331036079"><ele>356.6666666666667</ele><time>2026-05-02T13:43:49.999Z</time></trkpt><trkpt lat="45.70414191925966" lon="13.851843217734027"><ele>356.33333333333337</ele><time>2026-05-02T13:43:50.999Z</time></trkpt><trkpt lat="45.70416975956967" lon="13.852059891886523"><ele>356.0</ele><time>2026-05-02T13:43:51.999Z</time></trkpt><trkpt lat="45.70422484372163" lon="13.852478495999407"><ele>356.0</ele><time>2026-05-02T13:43:53.999Z</time></trkpt><trkpt lat="45.704253330149406" lon="13.852679476552552"><ele>356.0</ele><time>2026-05-02T13:43:54.999Z</time></trkpt><trkpt lat="45.704285163464775" lon="13.852889774063495"><ele>356.0</ele><time>2026-05-02T13:43:55.999Z</time></trkpt><trkpt lat="45.70432517088572" lon="13.853111906705749"><ele>356.0</ele><time>2026-05-02T13:43:56.999Z</time></trkpt><trkpt lat="45.70436293720829" lon="13.853339372963749"><ele>356.0</ele><time>2026-05-02T13:43:57.999Z</time></trkpt><trkpt lat="45.704394927536086" lon="13.853566025904636"><ele>356.0</ele><time>2026-05-02T13:43:58.999Z</time></trkpt><trkpt lat="45.704429633331344" lon="13.8537901735085"><ele>354.6666666666667</ele><time>2026-05-02T13:43:59.999Z</time></trkpt><trkpt lat="45.70446390883847" lon="13.854011662077694"><ele>353.3333333333333</ele><time>2026-05-02T13:44:00.999Z</time></trkpt><trkpt lat="45.70449714197153" lon="13.85423225246778"><ele>352.0</ele><time>2026-05-02T13:44:01.999Z</time></trkpt><trkpt lat="45.70452605827239" lon="13.854448460251941"><ele>351.75</ele><time>2026-05-02T13:44:02.999Z</time></trkpt><trkpt lat="45.70455500332035" lon="13.854657498320318"><ele>351.5</ele><time>2026-05-02T13:44:03.999Z</time></trkpt><trkpt lat="45.704584277639086" lon="13.854846657018607"><ele>351.25</ele><time>2026-05-02T13:44:04.999Z</time></trkpt><trkpt lat="45.704613565313764" lon="13.855028257334803"><ele>351.0</ele><time>2026-05-02T13:44:05.999Z</time></trkpt><trkpt lat="45.70463706267432" lon="13.855202159453512"><ele>351.4</ele><time>2026-05-02T13:44:06.999Z</time></trkpt><trkpt lat="45.70466081305389" lon="13.855356953484115"><ele>351.8</ele><time>2026-05-02T13:44:07.999Z</time></trkpt><trkpt lat="45.70467742198601" lon="13.85548517953218"><ele>352.2</ele><time>2026-05-02T13:44:08.999Z</time></trkpt><trkpt lat="45.70469117702363" lon="13.855579607450439"><ele>352.59999999999997</ele><time>2026-05-02T13:44:09.999Z</time></trkpt><trkpt lat="45.70470774576566" lon="13.855729624222828"><ele>353.0</ele><time>2026-05-02T13:44:11.999Z</time></trkpt><trkpt lat="45.704674039034465" lon="13.855895386510534"><ele>353.33333333333337</ele><time>2026-05-02T13:44:13.999Z</time></trkpt><trkpt lat="45.70465562432596" lon="13.85598610105284"><ele>353.6666666666667</ele><time>2026-05-02T13:44:14.999Z</time></trkpt><trkpt lat="45.704683790108064" lon="13.85607892063762"><ele>354.0</ele><time>2026-05-02T13:44:15.999Z</time></trkpt><trkpt lat="45.704743318895865" lon="13.85616187801312"><ele>354.3333333333333</ele><time>2026-05-02T13:44:16.999Z</time></trkpt><trkpt lat="45.70479697024165" lon="13.856254704825021"><ele>354.66666666666663</ele><time>2026-05-02T13:44:17.999Z</time></trkpt><trkpt lat="45.70481489107353" lon="13.856385606782244"><ele>355.0</ele><time>2026-05-02T13:44:18.999Z</time></trkpt><trkpt lat="45.70483304725539" lon="13.85652781265806"><ele>355.0</ele><time>2026-05-02T13:44:19.999Z</time></trkpt><trkpt lat="45.704858883571774" lon="13.856670262849265"><ele>355.0</ele><time>2026-05-02T13:44:20.999Z</time></trkpt><trkpt lat="45.704889441099326" lon="13.856813599000652"><ele>355.0</ele><time>2026-05-02T13:44:21.999Z</time></trkpt><trkpt lat="45.70491550617622" lon="13.856953165820872"><ele>355.0</ele><time>2026-05-02T13:44:22.999Z</time></trkpt><trkpt lat="45.70493829698237" lon="13.85708817721338"><ele>355.0</ele><time>2026-05-02T13:44:23.999Z</time></trkpt><trkpt lat="45.704959011057134" lon="13.857223958742685"><ele>355.2</ele><time>2026-05-02T13:44:24.999Z</time></trkpt><trkpt lat="45.70497731729218" lon="13.857356981090543"><ele>355.4</ele><time>2026-05-02T13:44:25.999Z</time></trkpt><trkpt lat="45.70499279733246" lon="13.857488354774457"><ele>355.6</ele><time>2026-05-02T13:44:26.999Z</time></trkpt><trkpt lat="45.7050071923291" lon="13.85761621690217"><ele>355.8</ele><time>2026-05-02T13:44:27.999Z</time></trkpt><trkpt lat="45.705001486375984" lon="13.857731609770457"><ele>356.0</ele><time>2026-05-02T13:44:28.999Z</time></trkpt><trkpt lat="45.70485946964549" lon="13.85782555294927"><ele>356.0</ele><time>2026-05-02T13:44:30.999Z</time></trkpt><trkpt lat="45.70480530622518" lon="13.85790766950188"><ele>356.0</ele><time>2026-05-02T13:44:31.999Z</time></trkpt><trkpt lat="45.70472171524791" lon="13.857904596853603"><ele>356.0</ele><time>2026-05-02T13:44:32.999Z</time></trkpt><trkpt lat="45.7046421633156" lon="13.857904321853704"><ele>356.0</ele><time>2026-05-02T13:44:33.999Z</time></trkpt><trkpt lat="45.704566246543045" lon="13.857903951459717"><ele>356.0</ele><time>2026-05-02T13:44:34.999Z</time></trkpt><trkpt lat="45.704512654428655" lon="13.857963988257639"><ele>356.0</ele><time>2026-05-02T13:44:35.999Z</time></trkpt><trkpt lat="45.70441100765505" lon="13.85799972293925"><ele>355.0</ele><time>2026-05-02T13:44:37.999Z</time></trkpt><trkpt lat="45.70432419696346" lon="13.85803037098672"><ele>354.0</ele><time>2026-05-02T13:44:39.999Z</time></trkpt><trkpt lat="45.70425638583799" lon="13.858054311371305"><ele>353.0</ele><time>2026-05-02T13:44:41.999Z</time></trkpt><trkpt lat="45.704139785661624" lon="13.858149981264"><ele>352.0</ele><time>2026-05-02T13:44:44.999Z</time></trkpt><trkpt lat="45.704370261326794" lon="13.858324899957342"><ele>352.0</ele><time>2026-05-02T13:44:45.999Z</time></trkpt><trkpt lat="45.70432962539735" lon="13.857989451957602"><ele>352.0</ele><time>2026-05-02T13:44:46.998Z</time></trkpt><trkpt lat="45.70440134473237" lon="13.857985271488097"><ele>352.0</ele><time>2026-05-02T13:44:49.998Z</time></trkpt><trkpt lat="45.70434902450661" lon="13.858079425414545"><ele>352.0</ele><time>2026-05-02T13:44:51.998Z</time></trkpt><trkpt lat="45.70429330283436" lon="13.85796822599712"><ele>352.0</ele><time>2026-05-02T13:44:53.998Z</time></trkpt><trkpt lat="45.70422844858216" lon="13.857999122209367"><ele>352.0</ele><time>2026-05-02T13:44:56.001Z</time></trkpt><trkpt lat="45.70429700438812" lon="13.858081652014492"><ele>352.0</ele><time>2026-05-02T13:44:58.001Z</time></trkpt><trkpt lat="45.704333242845195" lon="13.85797707764304"><ele>352.0</ele><time>2026-05-02T13:45:00.001Z</time></trkpt><trkpt lat="45.70441371415655" lon="13.857965541860548"><ele>352.0</ele><time>2026-05-02T13:45:03.001Z</time></trkpt><trkpt lat="45.704342384443464" lon="13.858068480475405"><ele>352.0</ele><time>2026-05-02T13:45:05.001Z</time></trkpt><trkpt lat="45.7042926109162" lon="13.858012238452252"><ele>352.0</ele><time>2026-05-02T13:45:06.001Z</time></trkpt><trkpt lat="45.70422774640308" lon="13.857952269027571"><ele>352.0</ele><time>2026-05-02T13:45:08.001Z</time></trkpt><trkpt lat="45.70424783624832" lon="13.858096595922913"><ele>352.0</ele><time>2026-05-02T13:45:10.001Z</time></trkpt><trkpt lat="45.704335476536386" lon="13.858012944918878"><ele>352.0</ele><time>2026-05-02T13:45:12.001Z</time></trkpt><trkpt lat="45.70438131850611" lon="13.857906234936173"><ele>352.0</ele><time>2026-05-02T13:45:14.001Z</time></trkpt><trkpt lat="45.704440899973605" lon="13.858033846197804"><ele>352.0</ele><time>2026-05-02T13:45:16.001Z</time></trkpt><trkpt lat="45.704343475794545" lon="13.858061628024876"><ele>352.0</ele><time>2026-05-02T13:45:18Z</time></trkpt><trkpt lat="45.704283160315974" lon="13.857965938722312"><ele>352.0</ele><time>2026-05-02T13:45:20Z</time></trkpt><trkpt lat="45.70421383598048" lon="13.857994414560295"><ele>352.0</ele><time>2026-05-02T13:45:22Z</time></trkpt><trkpt lat="45.704261857969314" lon="13.858100053816662"><ele>352.0</ele><time>2026-05-02T13:45:24Z</time></trkpt><trkpt lat="45.704332569852546" lon="13.858025559894344"><ele>352.0</ele><time>2026-05-02T13:45:26Z</time></trkpt><trkpt lat="45.70436336105197" lon="13.857934817815494"><ele>352.66666666666663</ele><time>2026-05-02T13:45:28Z</time></trkpt><trkpt lat="45.704442828631706" lon="13.857892055815885"><ele>353.3333333333333</ele><time>2026-05-02T13:45:30Z</time></trkpt><trkpt lat="45.7045263340343" lon="13.857972455816165"><ele>354.0</ele><time>2026-05-02T13:45:32Z</time></trkpt><trkpt lat="45.70459138485729" lon="13.857892903076204"><ele>354.6666666666667</ele><time>2026-05-02T13:45:34Z</time></trkpt><trkpt lat="45.704670939507714" lon="13.857877779130249"><ele>355.33333333333337</ele><time>2026-05-02T13:45:36Z</time></trkpt><trkpt lat="45.70474803382263" lon="13.857874148973364"><ele>356.0</ele><time>2026-05-02T13:45:38Z</time></trkpt><trkpt lat="45.704809289371404" lon="13.857806237278762"><ele>356.0</ele><time>2026-05-02T13:45:40Z</time></trkpt><trkpt lat="45.70488094246498" lon="13.857864932887624"><ele>356.0</ele><time>2026-05-02T13:45:42Z</time></trkpt><trkpt lat="45.70488450900635" lon="13.857745821705636"><ele>356.0</ele><time>2026-05-02T13:45:44Z</time></trkpt><trkpt lat="45.704799890862986" lon="13.857757652879206"><ele>356.0</ele><time>2026-05-02T13:45:46Z</time></trkpt><trkpt lat="45.7047480551492" lon="13.857861561937215"><ele>356.0</ele><time>2026-05-02T13:45:48Z</time></trkpt><trkpt lat="45.70465569603791" lon="13.857810939064123"><ele>356.0</ele><time>2026-05-02T13:45:50Z</time></trkpt><trkpt lat="45.704584889258285" lon="13.857881133677868"><ele>356.0</ele><time>2026-05-02T13:45:52Z</time></trkpt><trkpt lat="45.704499513643384" lon="13.85788129034722"><ele>356.0</ele><time>2026-05-02T13:45:54Z</time></trkpt><trkpt lat="45.7044533591274" lon="13.85798020490005"><ele>356.0</ele><time>2026-05-02T13:45:56Z</time></trkpt><trkpt lat="45.704372315108444" lon="13.857966731510407"><ele>356.0</ele><time>2026-05-02T13:45:58Z</time></trkpt><trkpt lat="45.70431742417304" lon="13.858041142701806"><ele>356.0</ele><time>2026-05-02T13:45:59.999Z</time></trkpt><trkpt lat="45.70423208039867" lon="13.857984227717278"><ele>356.0</ele><time>2026-05-02T13:46:01.999Z</time></trkpt><trkpt lat="45.70416482438367" lon="13.858027821051511"><ele>356.0</ele><time>2026-05-02T13:46:03.999Z</time></trkpt><trkpt lat="45.70414079382395" lon="13.858142051845928"><ele>356.0</ele><time>2026-05-02T13:46:05.999Z</time></trkpt><trkpt lat="45.70414006209533" lon="13.858254082770802"><ele>356.0</ele><time>2026-05-02T13:46:07.999Z</time></trkpt><trkpt lat="45.70419742553477" lon="13.858315605775402"><ele>356.0</ele><time>2026-05-02T13:46:09.999Z</time></trkpt><trkpt lat="45.70428417152912" lon="13.858276717793286"><ele>356.0</ele><time>2026-05-02T13:46:11.999Z</time></trkpt><trkpt lat="45.70439862669683" lon="13.858238240415295"><ele>356.0</ele><time>2026-05-02T13:46:13.999Z</time></trkpt><trkpt lat="45.704483448811985" lon="13.858174417166747"><ele>356.0</ele><time>2026-05-02T13:46:15.999Z</time></trkpt><trkpt lat="45.70456757940717" lon="13.85812361895807"><ele>356.0</ele><time>2026-05-02T13:46:17.999Z</time></trkpt><trkpt lat="45.704651721598076" lon="13.858144234995963"><ele>356.0</ele><time>2026-05-02T13:46:19.999Z</time></trkpt><trkpt lat="45.704758920341334" lon="13.85817834933019"><ele>356.0</ele><time>2026-05-02T13:46:22.999Z</time></trkpt><trkpt lat="45.70473661219969" lon="13.85803417162914"><ele>356.0</ele><time>2026-05-02T13:46:24.999Z</time></trkpt><trkpt lat="45.70463231216324" lon="13.858087651613294"><ele>356.0</ele><time>2026-05-02T13:46:26.999Z</time></trkpt><trkpt lat="45.70459575733764" lon="13.858219208889075"><ele>356.0</ele><time>2026-05-02T13:46:28.999Z</time></trkpt><trkpt lat="45.70450089865788" lon="13.858167466241225"><ele>356.0</ele><time>2026-05-02T13:46:30.999Z</time></trkpt><trkpt lat="45.70442441805478" lon="13.858228493744056"><ele>356.0</ele><time>2026-05-02T13:46:32.999Z</time></trkpt><trkpt lat="45.7043368049815" lon="13.858247612593797"><ele>356.0</ele><time>2026-05-02T13:46:34.999Z</time></trkpt><trkpt lat="45.7042501380259" lon="13.85826444795895"><ele>355.20000000000005</ele><time>2026-05-02T13:46:36.999Z</time></trkpt><trkpt lat="45.70416719397054" lon="13.8582757453893"><ele>354.40000000000003</ele><time>2026-05-02T13:46:38.999Z</time></trkpt><trkpt lat="45.704107314418806" lon="13.858178318427996"><ele>353.6</ele><time>2026-05-02T13:46:40.999Z</time></trkpt><trkpt lat="45.70420811209426" lon="13.858081668171865"><ele>352.8</ele><time>2026-05-02T13:46:42.999Z</time></trkpt><trkpt lat="45.704297084211575" lon="13.858013328847216"><ele>352.0</ele><time>2026-05-02T13:46:44.999Z</time></trkpt><trkpt lat="45.70437871064269" lon="13.858071867931745"><ele>352.0</ele><time>2026-05-02T13:46:46.999Z</time></trkpt><trkpt lat="45.704360323669974" lon="13.85794034722587"><ele>352.0</ele><time>2026-05-02T13:46:48.999Z</time></trkpt><trkpt lat="45.704272293638" lon="13.857999283053273"><ele>352.0</ele><time>2026-05-02T13:46:50.998Z</time></trkpt><trkpt lat="45.704261682177766" lon="13.858121211843011"><ele>352.0</ele><time>2026-05-02T13:46:52.998Z</time></trkpt><trkpt lat="45.70418032179322" lon="13.858046160951858"><ele>352.0</ele><time>2026-05-02T13:46:54.998Z</time></trkpt><trkpt lat="45.704269976276464" lon="13.857991736359406"><ele>352.0</ele><time>2026-05-02T13:46:56.998Z</time></trkpt><trkpt lat="45.704336205618404" lon="13.858091201678427"><ele>352.0</ele><time>2026-05-02T13:46:58.998Z</time></trkpt><trkpt lat="45.704370309909024" lon="13.857975750774763"><ele>352.0</ele><time>2026-05-02T13:47:00.998Z</time></trkpt><trkpt lat="45.70427582378529" lon="13.857996243715865"><ele>352.0</ele><time>2026-05-02T13:47:03.001Z</time></trkpt><trkpt lat="45.70434547631012" lon="13.858087755971269"><ele>352.0</ele><time>2026-05-02T13:47:05.001Z</time></trkpt><trkpt lat="45.70437255239013" lon="13.857957549232005"><ele>352.0</ele><time>2026-05-02T13:47:07.001Z</time></trkpt><trkpt lat="45.70445267336924" lon="13.85794914624153"><ele>352.0</ele><time>2026-05-02T13:47:09.001Z</time></trkpt><trkpt lat="45.70438215778834" lon="13.858051292800907"><ele>352.0</ele><time>2026-05-02T13:47:11.001Z</time></trkpt><trkpt lat="45.704322541521336" lon="13.857959658656533"><ele>352.0</ele><time>2026-05-02T13:47:13.001Z</time></trkpt><trkpt lat="45.704247988451364" lon="13.857988817526957"><ele>352.0</ele><time>2026-05-02T13:47:15.001Z</time></trkpt><trkpt lat="45.704267936841546" lon="13.858079005363106"><ele>352.0</ele><time>2026-05-02T13:47:16.001Z</time></trkpt><trkpt lat="45.70436306828649" lon="13.858024117059943"><ele>352.0</ele><time>2026-05-02T13:47:18Z</time></trkpt><trkpt lat="45.70439860218115" lon="13.857883980245521"><ele>352.0</ele><time>2026-05-02T13:47:20Z</time></trkpt><trkpt lat="45.704506520821354" lon="13.857933683643532"><ele>352.0</ele><time>2026-05-02T13:47:22Z</time></trkpt><trkpt lat="45.70448148479704" lon="13.858107254997838"><ele>352.0</ele><time>2026-05-02T13:47:24Z</time></trkpt><trkpt lat="45.70448804382112" lon="13.858213454736797"><ele>352.0</ele><time>2026-05-02T13:47:25Z</time></trkpt><trkpt lat="45.70453153845766" lon="13.858284792143053"><ele>352.8</ele><time>2026-05-02T13:47:26Z</time></trkpt><trkpt lat="45.70463503056637" lon="13.858290443752747"><ele>353.6</ele><time>2026-05-02T13:47:28Z</time></trkpt><trkpt lat="45.70469521117035" lon="13.858206303570427"><ele>354.40000000000003</ele><time>2026-05-02T13:47:30Z</time></trkpt><trkpt lat="45.70475750338324" lon="13.858192833323395"><ele>355.20000000000005</ele><time>2026-05-02T13:47:45Z</time></trkpt><trkpt lat="45.704835934751955" lon="13.858155102450143"><ele>356.0</ele><time>2026-05-02T13:47:46Z</time></trkpt><trkpt lat="45.70484139439677" lon="13.857909956434181"><ele>356.0</ele><time>2026-05-02T13:47:47Z</time></trkpt><trkpt lat="45.70486101040916" lon="13.857823067614083"><ele>356.0</ele><time>2026-05-02T13:47:50Z</time></trkpt><trkpt lat="45.704980159500415" lon="13.857784831108315"><ele>356.0</ele><time>2026-05-02T13:47:54Z</time></trkpt><trkpt lat="45.70507543229341" lon="13.858049257223652"><ele>356.0</ele><time>2026-05-02T13:47:56.999Z</time></trkpt><trkpt lat="45.7050944084915" lon="13.858187271048257"><ele>356.0</ele><time>2026-05-02T13:47:57.999Z</time></trkpt><trkpt lat="45.705123287513345" lon="13.858350364879522"><ele>356.0</ele><time>2026-05-02T13:47:58.999Z</time></trkpt><trkpt lat="45.70514802613763" lon="13.858542264602967"><ele>356.0</ele><time>2026-05-02T13:47:59.999Z</time></trkpt><trkpt lat="45.70516313984948" lon="13.858751665748471"><ele>356.0</ele><time>2026-05-02T13:48:00.999Z</time></trkpt><trkpt lat="45.70518765212551" lon="13.858941653190548"><ele>357.0</ele><time>2026-05-02T13:48:01.999Z</time></trkpt><trkpt lat="45.70519602900358" lon="13.859136381474329"><ele>358.0</ele><time>2026-05-02T13:48:02.999Z</time></trkpt><trkpt lat="45.70520318748013" lon="13.85932267392742"><ele>359.0</ele><time>2026-05-02T13:48:03.999Z</time></trkpt><trkpt lat="45.70520140816762" lon="13.859508740869542"><ele>360.0</ele><time>2026-05-02T13:48:04.999Z</time></trkpt><trkpt lat="45.70519846321887" lon="13.859696307257133"><ele>360.25</ele><time>2026-05-02T13:48:05.999Z</time></trkpt><trkpt lat="45.70521012347269" lon="13.859882784726272"><ele>360.5</ele><time>2026-05-02T13:48:06.999Z</time></trkpt><trkpt lat="45.70524595335163" lon="13.860083041889107"><ele>360.75</ele><time>2026-05-02T13:48:07.999Z</time></trkpt><trkpt lat="45.705279515649174" lon="13.860302207357266"><ele>361.0</ele><time>2026-05-02T13:48:08.999Z</time></trkpt><trkpt lat="45.705302155150626" lon="13.860527526917124"><ele>361.25</ele><time>2026-05-02T13:48:09.999Z</time></trkpt><trkpt lat="45.7053292454573" lon="13.860742323710822"><ele>361.5</ele><time>2026-05-02T13:48:10.999Z</time></trkpt><trkpt lat="45.705355850720814" lon="13.8609484576352"><ele>361.75</ele><time>2026-05-02T13:48:11.999Z</time></trkpt><trkpt lat="45.705381877271805" lon="13.861142893350495"><ele>362.0</ele><time>2026-05-02T13:48:12.999Z</time></trkpt><trkpt lat="45.705411358763655" lon="13.86132476421384"><ele>362.0</ele><time>2026-05-02T13:48:13.999Z</time></trkpt><trkpt lat="45.70544569085937" lon="13.861500898710725"><ele>362.0</ele><time>2026-05-02T13:48:14.999Z</time></trkpt><trkpt lat="45.70548499788026" lon="13.861669324577651"><ele>362.0</ele><time>2026-05-02T13:48:15.999Z</time></trkpt><trkpt lat="45.70551965484832" lon="13.8618373912271"><ele>362.0</ele><time>2026-05-02T13:48:16.999Z</time></trkpt><trkpt lat="45.705548132508774" lon="13.862006143828138"><ele>361.8</ele><time>2026-05-02T13:48:17.999Z</time></trkpt><trkpt lat="45.70558292093752" lon="13.86217527677399"><ele>361.6</ele><time>2026-05-02T13:48:18.999Z</time></trkpt><trkpt lat="45.705615813618515" lon="13.862335531636754"><ele>361.40000000000003</ele><time>2026-05-02T13:48:19.999Z</time></trkpt><trkpt lat="45.70564301253777" lon="13.86248628395968"><ele>361.20000000000005</ele><time>2026-05-02T13:48:20.999Z</time></trkpt><trkpt lat="45.70566881128325" lon="13.862622232043247"><ele>361.0</ele><time>2026-05-02T13:48:21.999Z</time></trkpt><trkpt lat="45.7056907864654" lon="13.862745667870424"><ele>361.0</ele><time>2026-05-02T13:48:22.999Z</time></trkpt><trkpt lat="45.705714625312446" lon="13.862863180510821"><ele>361.0</ele><time>2026-05-02T13:48:23.999Z</time></trkpt><trkpt lat="45.705738680808984" lon="13.862957550753281"><ele>361.0</ele><time>2026-05-02T13:48:24.999Z</time></trkpt><trkpt lat="45.70577302363642" lon="13.863092262138732"><ele>361.0</ele><time>2026-05-02T13:48:26.999Z</time></trkpt><trkpt lat="45.70578618663508" lon="13.863184077323691"><ele>361.0</ele><time>2026-05-02T13:48:28.999Z</time></trkpt><trkpt lat="45.70580237788528" lon="13.86335279628825"><ele>361.0</ele><time>2026-05-02T13:48:44.998Z</time></trkpt><trkpt lat="45.70582913917263" lon="13.863467516614595"><ele>361.0</ele><time>2026-05-02T13:48:45.998Z</time></trkpt><trkpt lat="45.70585897223353" lon="13.863582207695078"><ele>361.0</ele><time>2026-05-02T13:48:46.998Z</time></trkpt><trkpt lat="45.70589131969887" lon="13.86371764690423"><ele>361.0</ele><time>2026-05-02T13:48:47.998Z</time></trkpt><trkpt lat="45.7059222584031" lon="13.863860754092798"><ele>361.0</ele><time>2026-05-02T13:48:48.998Z</time></trkpt><trkpt lat="45.70595751308927" lon="13.864016038560424"><ele>361.0</ele><time>2026-05-02T13:48:49.998Z</time></trkpt><trkpt lat="45.70599688108394" lon="13.864194347052727"><ele>361.0</ele><time>2026-05-02T13:48:50.998Z</time></trkpt><trkpt lat="45.70604271836273" lon="13.864385431807552"><ele>361.0</ele><time>2026-05-02T13:48:51.998Z</time></trkpt><trkpt lat="45.706081184840606" lon="13.864574526304578"><ele>361.0</ele><time>2026-05-02T13:48:52.998Z</time></trkpt><trkpt lat="45.70612944976507" lon="13.864777742302621"><ele>361.0</ele><time>2026-05-02T13:48:53.998Z</time></trkpt><trkpt lat="45.70617997076737" lon="13.864992680159604"><ele>362.3333333333333</ele><time>2026-05-02T13:48:54.998Z</time></trkpt><trkpt lat="45.706229117894175" lon="13.865214030057368"><ele>363.6666666666667</ele><time>2026-05-02T13:48:55.998Z</time></trkpt><trkpt lat="45.70627102762199" lon="13.865420700796694"><ele>365.0</ele><time>2026-05-02T13:48:56.998Z</time></trkpt><trkpt lat="45.706310489230326" lon="13.865609414186167"><ele>365.0</ele><time>2026-05-02T13:48:57.998Z</time></trkpt><trkpt lat="45.706347999109525" lon="13.865783932378283"><ele>365.0</ele><time>2026-05-02T13:48:58.998Z</time></trkpt><trkpt lat="45.706385682434885" lon="13.865947711983619"><ele>365.0</ele><time>2026-05-02T13:48:59.998Z</time></trkpt><trkpt lat="45.706421272036785" lon="13.866109227781035"><ele>365.0</ele><time>2026-05-02T13:49:00.998Z</time></trkpt><trkpt lat="45.706462078668224" lon="13.866268837894468"><ele>365.25</ele><time>2026-05-02T13:49:01.998Z</time></trkpt><trkpt lat="45.7064964057728" lon="13.866433507595792"><ele>365.5</ele><time>2026-05-02T13:49:02.998Z</time></trkpt><trkpt lat="45.706529671359355" lon="13.866613240778847"><ele>365.75</ele><time>2026-05-02T13:49:03.998Z</time></trkpt><trkpt lat="45.70656921027492" lon="13.866795985416479"><ele>366.0</ele><time>2026-05-02T13:49:04.998Z</time></trkpt><trkpt lat="45.706608750078736" lon="13.866979398024414"><ele>366.5</ele><time>2026-05-02T13:49:05.998Z</time></trkpt><trkpt lat="45.70664239207792" lon="13.86714252018561"><ele>367.0</ele><time>2026-05-02T13:49:06.998Z</time></trkpt><trkpt lat="45.70667736751755" lon="13.867308664865712"><ele>367.5</ele><time>2026-05-02T13:49:08Z</time></trkpt><trkpt lat="45.706715561222566" lon="13.867478147454703"><ele>368.0</ele><time>2026-05-02T13:49:09Z</time></trkpt><trkpt lat="45.70675905928883" lon="13.867649958079545"><ele>368.5</ele><time>2026-05-02T13:49:10Z</time></trkpt><trkpt lat="45.7068083060482" lon="13.867820095607154"><ele>369.0</ele><time>2026-05-02T13:49:11Z</time></trkpt><trkpt lat="45.70685811278021" lon="13.867977713998762"><ele>369.5</ele><time>2026-05-02T13:49:12Z</time></trkpt><trkpt lat="45.706904042915035" lon="13.868133784881001"><ele>370.0</ele><time>2026-05-02T13:49:13Z</time></trkpt><trkpt lat="45.70695200246893" lon="13.868286691549237"><ele>370.0</ele><time>2026-05-02T13:49:14Z</time></trkpt><trkpt lat="45.70699998193584" lon="13.868439604576121"><ele>370.0</ele><time>2026-05-02T13:49:15Z</time></trkpt><trkpt lat="45.70705306552004" lon="13.868593836134847"><ele>370.0</ele><time>2026-05-02T13:49:16Z</time></trkpt><trkpt lat="45.707110566169504" lon="13.868748051490842"><ele>370.0</ele><time>2026-05-02T13:49:17Z</time></trkpt><trkpt lat="45.70717974672759" lon="13.868914186636593"><ele>369.6</ele><time>2026-05-02T13:49:18Z</time></trkpt><trkpt lat="45.70724346817104" lon="13.869065602791677"><ele>369.2</ele><time>2026-05-02T13:49:19Z</time></trkpt><trkpt lat="45.70728720342614" lon="13.869188260157614"><ele>368.79999999999995</ele><time>2026-05-02T13:49:20Z</time></trkpt><trkpt lat="45.70733694291774" lon="13.869316132418684"><ele>368.4</ele><time>2026-05-02T13:49:22Z</time></trkpt><trkpt lat="45.70737181452135" lon="13.869405662618076"><ele>368.0</ele><time>2026-05-02T13:49:23Z</time></trkpt><trkpt lat="45.707419280827686" lon="13.869533528022538"><ele>368.0</ele><time>2026-05-02T13:49:24Z</time></trkpt><trkpt lat="45.707474338568154" lon="13.869671991634348"><ele>368.0</ele><time>2026-05-02T13:49:25Z</time></trkpt><trkpt lat="45.70753772680369" lon="13.869806229101096"><ele>368.0</ele><time>2026-05-02T13:49:26Z</time></trkpt><trkpt lat="45.70759262683654" lon="13.869949936969553"><ele>368.0</ele><time>2026-05-02T13:49:27Z</time></trkpt><trkpt lat="45.70765286602777" lon="13.87008033087027"><ele>368.0</ele><time>2026-05-02T13:49:28Z</time></trkpt><trkpt lat="45.70771927224383" lon="13.87018659995772"><ele>368.5</ele><time>2026-05-02T13:49:29Z</time></trkpt><trkpt lat="45.70776740931006" lon="13.870295583043303"><ele>369.0</ele><time>2026-05-02T13:49:30Z</time></trkpt><trkpt lat="45.70780671003475" lon="13.870403323325947"><ele>369.5</ele><time>2026-05-02T13:49:31Z</time></trkpt><trkpt lat="45.7078539906197" lon="13.870495071192124"><ele>370.0</ele><time>2026-05-02T13:49:32Z</time></trkpt><trkpt lat="45.70790059790688" lon="13.870583062863922"><ele>370.5</ele><time>2026-05-02T13:49:33Z</time></trkpt><trkpt lat="45.707930491223756" lon="13.870681278476317"><ele>371.0</ele><time>2026-05-02T13:49:34Z</time></trkpt><trkpt lat="45.70797183994278" lon="13.870770780532869"><ele>371.0</ele><time>2026-05-02T13:49:35Z</time></trkpt><trkpt lat="45.70800905793514" lon="13.870855119056852"><ele>371.0</ele><time>2026-05-02T13:49:36Z</time></trkpt><trkpt lat="45.70804982485595" lon="13.870947362298779"><ele>371.0</ele><time>2026-05-02T13:49:38Z</time></trkpt><trkpt lat="45.70809027853317" lon="13.871041034509725"><ele>371.0</ele><time>2026-05-02T13:49:40Z</time></trkpt><trkpt lat="45.70816450908262" lon="13.871214934322309"><ele>371.0</ele><time>2026-05-02T13:49:42Z</time></trkpt><trkpt lat="45.708218167660846" lon="13.871341344494313"><ele>370.75</ele><time>2026-05-02T13:49:43Z</time></trkpt><trkpt lat="45.708297294534596" lon="13.871530945618694"><ele>370.5</ele><time>2026-05-02T13:49:44Z</time></trkpt><trkpt lat="45.7083728825239" lon="13.87171206654563"><ele>370.25</ele><time>2026-05-02T13:49:45Z</time></trkpt><trkpt lat="45.70844283231062" lon="13.871880755750807"><ele>370.0</ele><time>2026-05-02T13:49:46Z</time></trkpt><trkpt lat="45.70852331349682" lon="13.872034184029078"><ele>370.0</ele><time>2026-05-02T13:49:47Z</time></trkpt><trkpt lat="45.70858625054905" lon="13.872201367101734"><ele>370.0</ele><time>2026-05-02T13:49:48Z</time></trkpt><trkpt lat="45.70864905390117" lon="13.872349517233058"><ele>370.0</ele><time>2026-05-02T13:49:48.999Z</time></trkpt><trkpt lat="45.7087087736548" lon="13.872490057128063"><ele>370.0</ele><time>2026-05-02T13:49:49.999Z</time></trkpt><trkpt lat="45.70875796043652" lon="13.87265213986941"><ele>370.0</ele><time>2026-05-02T13:49:50.999Z</time></trkpt><trkpt lat="45.70882437234364" lon="13.872811835022745"><ele>370.0</ele><time>2026-05-02T13:49:51.999Z</time></trkpt><trkpt lat="45.708886360689" lon="13.87295961670337"><ele>370.0</ele><time>2026-05-02T13:49:52.999Z</time></trkpt><trkpt lat="45.708949419345274" lon="13.873104536436527"><ele>370.0</ele><time>2026-05-02T13:49:53.999Z</time></trkpt><trkpt lat="45.70902133104638" lon="13.873239555090484"><ele>370.0</ele><time>2026-05-02T13:49:54.999Z</time></trkpt><trkpt lat="45.70909591262859" lon="13.873375152938529"><ele>370.0</ele><time>2026-05-02T13:49:55.999Z</time></trkpt><trkpt lat="45.70917568511111" lon="13.873503483869923"><ele>370.0</ele><time>2026-05-02T13:49:56.999Z</time></trkpt><trkpt lat="45.709247108786066" lon="13.873641483165585"><ele>370.0</ele><time>2026-05-02T13:49:57.999Z</time></trkpt><trkpt lat="45.70931825525747" lon="13.873786367207806"><ele>369.75</ele><time>2026-05-02T13:49:58.999Z</time></trkpt><trkpt lat="45.709377493106174" lon="13.873943498976963"><ele>369.5</ele><time>2026-05-02T13:49:59.999Z</time></trkpt><trkpt lat="45.70943487182469" lon="13.874103678800221"><ele>369.25</ele><time>2026-05-02T13:50:00.999Z</time></trkpt><trkpt lat="45.70949344680863" lon="13.874267105463751"><ele>369.0</ele><time>2026-05-02T13:50:01.999Z</time></trkpt><trkpt lat="45.70954902366892" lon="13.874427812644507"><ele>369.0</ele><time>2026-05-02T13:50:02.999Z</time></trkpt><trkpt lat="45.70961304799956" lon="13.874586224346151"><ele>369.0</ele><time>2026-05-02T13:50:03.999Z</time></trkpt><trkpt lat="45.70967438554208" lon="13.874749018061229"><ele>369.0</ele><time>2026-05-02T13:50:04.999Z</time></trkpt><trkpt lat="45.70972986955091" lon="13.874917051057777"><ele>369.0</ele><time>2026-05-02T13:50:05.999Z</time></trkpt><trkpt lat="45.709787455994785" lon="13.8750886346993"><ele>369.0</ele><time>2026-05-02T13:50:06.999Z</time></trkpt><trkpt lat="45.70984273759763" lon="13.87524923876148"><ele>369.0</ele><time>2026-05-02T13:50:07.999Z</time></trkpt><trkpt lat="45.70990049010478" lon="13.875414278237756"><ele>369.0</ele><time>2026-05-02T13:50:08.999Z</time></trkpt><trkpt lat="45.70996274960894" lon="13.875581885523758"><ele>369.0</ele><time>2026-05-02T13:50:09.999Z</time></trkpt><trkpt lat="45.71002491239311" lon="13.875759022079952"><ele>368.5</ele><time>2026-05-02T13:50:10.999Z</time></trkpt><trkpt lat="45.710082584350644" lon="13.875941724514579"><ele>368.0</ele><time>2026-05-02T13:50:11.999Z</time></trkpt><trkpt lat="45.71014648295888" lon="13.876134054918301"><ele>367.5</ele><time>2026-05-02T13:50:12.999Z</time></trkpt><trkpt lat="45.7102055655844" lon="13.876320677513831"><ele>367.0</ele><time>2026-05-02T13:50:13.999Z</time></trkpt><trkpt lat="45.71026197287425" lon="13.87650444031126"><ele>364.75</ele><time>2026-05-02T13:50:14.999Z</time></trkpt><trkpt lat="45.71031646067062" lon="13.876685811758534"><ele>362.5</ele><time>2026-05-02T13:50:15.999Z</time></trkpt><trkpt lat="45.71037037292148" lon="13.876868354957097"><ele>360.25</ele><time>2026-05-02T13:50:16.999Z</time></trkpt><trkpt lat="45.71042610103627" lon="13.877052699792777"><ele>358.0</ele><time>2026-05-02T13:50:17.999Z</time></trkpt><trkpt lat="45.710483595676386" lon="13.877242808850545"><ele>357.75</ele><time>2026-05-02T13:50:18.999Z</time></trkpt><trkpt lat="45.71054394995365" lon="13.87743355591533"><ele>357.5</ele><time>2026-05-02T13:50:19.999Z</time></trkpt><trkpt lat="45.7106034498503" lon="13.877629980361508"><ele>357.25</ele><time>2026-05-02T13:50:20.999Z</time></trkpt><trkpt lat="45.71066537596699" lon="13.877831019244452"><ele>357.0</ele><time>2026-05-02T13:50:21.999Z</time></trkpt><trkpt lat="45.71072590724603" lon="13.878032105704348"><ele>357.0</ele><time>2026-05-02T13:50:22.999Z</time></trkpt><trkpt lat="45.71078823780866" lon="13.878235533656177"><ele>357.0</ele><time>2026-05-02T13:50:23.999Z</time></trkpt><trkpt lat="45.710857707235306" lon="13.87843911346953"><ele>357.0</ele><time>2026-05-02T13:50:24.999Z</time></trkpt><trkpt lat="45.710934947659744" lon="13.878642770291815"><ele>359.3333333333333</ele><time>2026-05-02T13:50:25.999Z</time></trkpt><trkpt lat="45.71101749314653" lon="13.878844241293892"><ele>361.66666666666663</ele><time>2026-05-02T13:50:26.999Z</time></trkpt><trkpt lat="45.711106154898026" lon="13.87904676221738"><ele>364.0</ele><time>2026-05-02T13:50:27.999Z</time></trkpt><trkpt lat="45.71121660404768" lon="13.8792506031246"><ele>359.66666666666663</ele><time>2026-05-02T13:50:28.999Z</time></trkpt><trkpt lat="45.71134732465673" lon="13.879440629812821"><ele>355.3333333333333</ele><time>2026-05-02T13:50:29.999Z</time></trkpt><trkpt lat="45.71150836351585" lon="13.879619368101785"><ele>351.0</ele><time>2026-05-02T13:50:30.999Z</time></trkpt><trkpt lat="45.71169225428674" lon="13.87978317242892"><ele>351.0</ele><time>2026-05-02T13:50:31.999Z</time></trkpt><trkpt lat="45.71186186262753" lon="13.879934928875945"><ele>351.0</ele><time>2026-05-02T13:50:32.999Z</time></trkpt><trkpt lat="45.71202051388872" lon="13.880089796218368"><ele>351.0</ele><time>2026-05-02T13:50:33.999Z</time></trkpt><trkpt lat="45.712170762084256" lon="13.880251436846843"><ele>349.3333333333333</ele><time>2026-05-02T13:50:34.998Z</time></trkpt><trkpt lat="45.71230584011063" lon="13.880417508270757"><ele>347.66666666666663</ele><time>2026-05-02T13:50:35.998Z</time></trkpt><trkpt lat="45.712432102078346" lon="13.88058279084524"><ele>346.0</ele><time>2026-05-02T13:50:36.998Z</time></trkpt><trkpt lat="45.7125415802416" lon="13.880758517306392"><ele>346.0</ele><time>2026-05-02T13:50:37.998Z</time></trkpt><trkpt lat="45.71264130200124" lon="13.880929958271253"><ele>346.0</ele><time>2026-05-02T13:50:38.998Z</time></trkpt><trkpt lat="45.71272162214222" lon="13.881096779335254"><ele>346.0</ele><time>2026-05-02T13:50:39.998Z</time></trkpt><trkpt lat="45.71279775956721" lon="13.881254969112266"><ele>346.0</ele><time>2026-05-02T13:50:40.998Z</time></trkpt><trkpt lat="45.71286758894689" lon="13.881408095855887"><ele>344.4</ele><time>2026-05-02T13:50:41.998Z</time></trkpt><trkpt lat="45.71293488025906" lon="13.881556576688627"><ele>342.8</ele><time>2026-05-02T13:50:42.998Z</time></trkpt><trkpt lat="45.71299023020684" lon="13.88168991186282"><ele>341.2</ele><time>2026-05-02T13:50:43.998Z</time></trkpt><trkpt lat="45.7130349895387" lon="13.88180607249388"><ele>339.59999999999997</ele><time>2026-05-02T13:50:44.998Z</time></trkpt><trkpt lat="45.71308123494954" lon="13.881926495991603"><ele>338.0</ele><time>2026-05-02T13:50:45.998Z</time></trkpt><trkpt lat="45.71313769440601" lon="13.882052713686852"><ele>338.0</ele><time>2026-05-02T13:50:46.998Z</time></trkpt><trkpt lat="45.71320454695404" lon="13.882186811597732"><ele>338.0</ele><time>2026-05-02T13:50:47.998Z</time></trkpt><trkpt lat="45.71328209922195" lon="13.882330512908881"><ele>338.0</ele><time>2026-05-02T13:50:48.998Z</time></trkpt><trkpt lat="45.713363598770776" lon="13.882461045693422"><ele>338.0</ele><time>2026-05-02T13:50:49.998Z</time></trkpt><trkpt lat="45.713453086320676" lon="13.882583617737325"><ele>338.75</ele><time>2026-05-02T13:50:50.998Z</time></trkpt><trkpt lat="45.71354931475455" lon="13.882706287321918"><ele>339.5</ele><time>2026-05-02T13:50:51.998Z</time></trkpt><trkpt lat="45.71365004919867" lon="13.882833250039768"><ele>340.25</ele><time>2026-05-02T13:50:52.998Z</time></trkpt><trkpt lat="45.71375439145482" lon="13.882970324817084"><ele>341.0</ele><time>2026-05-02T13:50:53.998Z</time></trkpt><trkpt lat="45.71385951295045" lon="13.883115150544151"><ele>339.6666666666667</ele><time>2026-05-02T13:50:54.998Z</time></trkpt><trkpt lat="45.71395849749235" lon="13.883279738155478"><ele>338.3333333333333</ele><time>2026-05-02T13:50:55.998Z</time></trkpt><trkpt lat="45.71404722498224" lon="13.883464683122122"><ele>337.0</ele><time>2026-05-02T13:50:56.998Z</time></trkpt><trkpt lat="45.71413314297392" lon="13.883668130587711"><ele>337.0</ele><time>2026-05-02T13:50:57.998Z</time></trkpt><trkpt lat="45.71421486701884" lon="13.883885696612568"><ele>337.0</ele><time>2026-05-02T13:50:58.998Z</time></trkpt><trkpt lat="45.71429436756602" lon="13.884096516239836"><ele>337.0</ele><time>2026-05-02T13:50:59.998Z</time></trkpt><trkpt lat="45.71438289198974" lon="13.884282837063587"><ele>337.25</ele><time>2026-05-02T13:51:00.998Z</time></trkpt><trkpt lat="45.71447312795919" lon="13.884448824473365"><ele>337.5</ele><time>2026-05-02T13:51:01.998Z</time></trkpt><trkpt lat="45.7145639744805" lon="13.884613514363219"><ele>337.75</ele><time>2026-05-02T13:51:02.998Z</time></trkpt><trkpt lat="45.71465773600566" lon="13.884781218761182"><ele>338.0</ele><time>2026-05-02T13:51:03.998Z</time></trkpt><trkpt lat="45.71474891179915" lon="13.88495179436722"><ele>336.6666666666667</ele><time>2026-05-02T13:51:04.998Z</time></trkpt><trkpt lat="45.71483729947551" lon="13.885127812765012"><ele>335.3333333333333</ele><time>2026-05-02T13:51:05.998Z</time></trkpt><trkpt lat="45.71492968519439" lon="13.885303683851415"><ele>334.0</ele><time>2026-05-02T13:51:06.998Z</time></trkpt><trkpt lat="45.715023670771764" lon="13.885482085543192"><ele>334.0</ele><time>2026-05-02T13:51:07.998Z</time></trkpt><trkpt lat="45.71512135434819" lon="13.885660387310311"><ele>334.0</ele><time>2026-05-02T13:51:08.998Z</time></trkpt><trkpt lat="45.71521306201392" lon="13.885834990002452"><ele>334.0</ele><time>2026-05-02T13:51:09.998Z</time></trkpt><trkpt lat="45.71530250704973" lon="13.886006497000093"><ele>333.5</ele><time>2026-05-02T13:51:10.998Z</time></trkpt><trkpt lat="45.71538951973253" lon="13.886175326821753"><ele>333.0</ele><time>2026-05-02T13:51:11.998Z</time></trkpt><trkpt lat="45.71547739730692" lon="13.88633844247821"><ele>332.5</ele><time>2026-05-02T13:51:12.998Z</time></trkpt><trkpt lat="45.715557023515544" lon="13.886504541300678"><ele>332.0</ele><time>2026-05-02T13:51:14Z</time></trkpt><trkpt lat="45.7156277757125" lon="13.88667533697479"><ele>331.0</ele><time>2026-05-02T13:51:15Z</time></trkpt><trkpt lat="45.715693458339764" lon="13.886853730219155"><ele>330.0</ele><time>2026-05-02T13:51:16Z</time></trkpt><trkpt lat="45.71575728656788" lon="13.887037592776696"><ele>329.0</ele><time>2026-05-02T13:51:17Z</time></trkpt><trkpt lat="45.715822434358884" lon="13.887241877402927"><ele>328.0</ele><time>2026-05-02T13:51:18Z</time></trkpt><trkpt lat="45.71589288089327" lon="13.887462996570754"><ele>328.3333333333333</ele><time>2026-05-02T13:51:19Z</time></trkpt><trkpt lat="45.71596321006403" lon="13.887686966663981"><ele>328.6666666666667</ele><time>2026-05-02T13:51:20Z</time></trkpt><trkpt lat="45.716034418107675" lon="13.887911798976727"><ele>329.0</ele><time>2026-05-02T13:51:21Z</time></trkpt><trkpt lat="45.716102122992964" lon="13.888136790159523"><ele>329.33333333333337</ele><time>2026-05-02T13:51:22Z</time></trkpt><trkpt lat="45.71617060426113" lon="13.888362653466455"><ele>329.6666666666667</ele><time>2026-05-02T13:51:23Z</time></trkpt><trkpt lat="45.71624146151057" lon="13.888588255853755"><ele>330.0</ele><time>2026-05-02T13:51:24Z</time></trkpt><trkpt lat="45.7163128259434" lon="13.888810090083034"><ele>330.6666666666667</ele><time>2026-05-02T13:51:25Z</time></trkpt><trkpt lat="45.71638460668693" lon="13.889032281783418"><ele>331.33333333333337</ele><time>2026-05-02T13:51:26Z</time></trkpt><trkpt lat="45.71644934931677" lon="13.889244830494096"><ele>332.0</ele><time>2026-05-02T13:51:27Z</time></trkpt><trkpt lat="45.716510095655444" lon="13.889442441666134"><ele>332.0</ele><time>2026-05-02T13:51:28Z</time></trkpt><trkpt lat="45.71657185477552" lon="13.889636582507338"><ele>332.0</ele><time>2026-05-02T13:51:29Z</time></trkpt><trkpt lat="45.71663362410545" lon="13.889829827788166"><ele>332.0</ele><time>2026-05-02T13:51:30Z</time></trkpt><trkpt lat="45.7166950402134" lon="13.89002067116214"><ele>332.0</ele><time>2026-05-02T13:51:31Z</time></trkpt><trkpt lat="45.716756111783916" lon="13.890211079738764"><ele>332.0</ele><time>2026-05-02T13:51:32Z</time></trkpt><trkpt lat="45.71681191612138" lon="13.890400386061248"><ele>332.0</ele><time>2026-05-02T13:51:33Z</time></trkpt><trkpt lat="45.71686994430558" lon="13.890589064888765"><ele>332.0</ele><time>2026-05-02T13:51:34Z</time></trkpt><trkpt lat="45.716928387779284" lon="13.890774241788373"><ele>332.0</ele><time>2026-05-02T13:51:35Z</time></trkpt><trkpt lat="45.71698445985578" lon="13.890958294036318"><ele>333.5</ele><time>2026-05-02T13:51:36Z</time></trkpt><trkpt lat="45.71704372629352" lon="13.891135353274056"><ele>335.0</ele><time>2026-05-02T13:51:37Z</time></trkpt><trkpt lat="45.71710112891366" lon="13.89130162893157"><ele>336.5</ele><time>2026-05-02T13:51:38Z</time></trkpt><trkpt lat="45.71716591210808" lon="13.891463368381713"><ele>338.0</ele><time>2026-05-02T13:51:39Z</time></trkpt><trkpt lat="45.71723104538306" lon="13.89163574873861"><ele>338.0</ele><time>2026-05-02T13:51:40Z</time></trkpt><trkpt lat="45.717303933435126" lon="13.89181568031675"><ele>338.0</ele><time>2026-05-02T13:51:41Z</time></trkpt><trkpt lat="45.71738408947441" lon="13.891998801189368"><ele>338.0</ele><time>2026-05-02T13:51:42Z</time></trkpt><trkpt lat="45.71747430653898" lon="13.892182106703926"><ele>338.0</ele><time>2026-05-02T13:51:43Z</time></trkpt><trkpt lat="45.717564360124705" lon="13.89236842933076"><ele>338.0</ele><time>2026-05-02T13:51:44Z</time></trkpt><trkpt lat="45.717658958647306" lon="13.892555332120128"><ele>338.0</ele><time>2026-05-02T13:51:45Z</time></trkpt><trkpt lat="45.71775961448823" lon="13.892740763000846"><ele>340.6666666666667</ele><time>2026-05-02T13:51:46Z</time></trkpt><trkpt lat="45.71786090953489" lon="13.892930778772778"><ele>343.3333333333333</ele><time>2026-05-02T13:51:47Z</time></trkpt><trkpt lat="45.717969014715756" lon="13.893117848487568"><ele>346.0</ele><time>2026-05-02T13:51:48Z</time></trkpt><trkpt lat="45.71807800675894" lon="13.893292695444073"><ele>345.66666666666663</ele><time>2026-05-02T13:51:49Z</time></trkpt><trkpt lat="45.718189527202924" lon="13.893461713952258"><ele>345.3333333333333</ele><time>2026-05-02T13:51:50Z</time></trkpt><trkpt lat="45.718299181755974" lon="13.893624878308648"><ele>345.0</ele><time>2026-05-02T13:51:51Z</time></trkpt><trkpt lat="45.71840508159035" lon="13.89378146021568"><ele>345.0</ele><time>2026-05-02T13:51:52Z</time></trkpt><trkpt lat="45.718513193726935" lon="13.893937675651568"><ele>345.0</ele><time>2026-05-02T13:51:53Z</time></trkpt><trkpt lat="45.718614914144766" lon="13.894099465132673"><ele>345.0</ele><time>2026-05-02T13:51:53.999Z</time></trkpt><trkpt lat="45.71871934783916" lon="13.894262825968736"><ele>344.25</ele><time>2026-05-02T13:51:54.999Z</time></trkpt><trkpt lat="45.718815716118954" lon="13.89442643719179"><ele>343.5</ele><time>2026-05-02T13:51:55.999Z</time></trkpt><trkpt lat="45.71890269893009" lon="13.894592264465324"><ele>342.75</ele><time>2026-05-02T13:51:56.999Z</time></trkpt><trkpt lat="45.71898883310631" lon="13.894761352531713"><ele>342.0</ele><time>2026-05-02T13:51:57.999Z</time></trkpt><trkpt lat="45.71907590734272" lon="13.89492875686357"><ele>341.5</ele><time>2026-05-02T13:51:58.999Z</time></trkpt><trkpt lat="45.71916152514871" lon="13.895100523272852"><ele>341.0</ele><time>2026-05-02T13:51:59.999Z</time></trkpt><trkpt lat="45.71925003962521" lon="13.895271585658099"><ele>340.5</ele><time>2026-05-02T13:52:00.999Z</time></trkpt><trkpt lat="45.71933956438205" lon="13.89544539053197"><ele>340.0</ele><time>2026-05-02T13:52:01.999Z</time></trkpt><trkpt lat="45.719435059231884" lon="13.895616531999522"><ele>339.66666666666663</ele><time>2026-05-02T13:52:02.999Z</time></trkpt><trkpt lat="45.71953377279803" lon="13.89579760296285"><ele>339.3333333333333</ele><time>2026-05-02T13:52:03.999Z</time></trkpt><trkpt lat="45.71963581450147" lon="13.895993442267233"><ele>339.0</ele><time>2026-05-02T13:52:04.999Z</time></trkpt><trkpt lat="45.71974090389112" lon="13.896193116011725"><ele>339.0</ele><time>2026-05-02T13:52:05.999Z</time></trkpt><trkpt lat="45.71984549359799" lon="13.896402037144165"><ele>339.0</ele><time>2026-05-02T13:52:06.999Z</time></trkpt><trkpt lat="45.719954287294485" lon="13.896613987671005"><ele>339.0</ele><time>2026-05-02T13:52:07.999Z</time></trkpt><trkpt lat="45.720063783022326" lon="13.89683291930217"><ele>340.3333333333333</ele><time>2026-05-02T13:52:08.999Z</time></trkpt><trkpt lat="45.720174241719654" lon="13.89704765560243"><ele>341.66666666666663</ele><time>2026-05-02T13:52:09.999Z</time></trkpt><trkpt lat="45.720279416711385" lon="13.897259410439428"><ele>343.0</ele><time>2026-05-02T13:52:10.999Z</time></trkpt><trkpt lat="45.72038326651945" lon="13.897470880698116"><ele>344.3333333333333</ele><time>2026-05-02T13:52:11.999Z</time></trkpt><trkpt lat="45.72048289038372" lon="13.897675892440377"><ele>345.6666666666667</ele><time>2026-05-02T13:52:12.999Z</time></trkpt><trkpt lat="45.72057383354247" lon="13.897858369121746"><ele>347.0</ele><time>2026-05-02T13:52:13.999Z</time></trkpt><trkpt lat="45.72065862031453" lon="13.89801287814857"><ele>347.0</ele><time>2026-05-02T13:52:14.999Z</time></trkpt><trkpt lat="45.72072912714676" lon="13.89813885209122"><ele>347.0</ele><time>2026-05-02T13:52:15.999Z</time></trkpt><trkpt lat="45.72078648649273" lon="13.898256872751807"><ele>347.0</ele><time>2026-05-02T13:52:16.999Z</time></trkpt><trkpt lat="45.720821173514416" lon="13.898342175983506"><ele>347.0</ele><time>2026-05-02T13:52:17.999Z</time></trkpt><trkpt lat="45.720779880898235" lon="13.898462503166128"><ele>347.0</ele><time>2026-05-02T13:52:20.999Z</time></trkpt><trkpt lat="45.72072279926816" lon="13.898558176593937"><ele>347.0</ele><time>2026-05-02T13:52:22.999Z</time></trkpt><trkpt lat="45.72065282798496" lon="13.89871156459806"><ele>347.0</ele><time>2026-05-02T13:52:24.999Z</time></trkpt><trkpt lat="45.72061716784534" lon="13.898797306000814"><ele>347.0</ele><time>2026-05-02T13:52:25.999Z</time></trkpt><trkpt lat="45.72057684846028" lon="13.898872402672648"><ele>347.0</ele><time>2026-05-02T13:52:26.999Z</time></trkpt><trkpt lat="45.720516195760354" lon="13.899007886723885"><ele>347.0</ele><time>2026-05-02T13:52:28.999Z</time></trkpt><trkpt lat="45.720473140693514" lon="13.89911979878403"><ele>347.0</ele><time>2026-05-02T13:52:30.999Z</time></trkpt><trkpt lat="45.72044168473288" lon="13.899211048706096"><ele>347.0</ele><time>2026-05-02T13:52:32.999Z</time></trkpt><trkpt lat="45.72038989383202" lon="13.899309878313707"><ele>347.0</ele><time>2026-05-02T13:52:34.999Z</time></trkpt><trkpt lat="45.720323751656366" lon="13.89942454905745"><ele>347.0</ele><time>2026-05-02T13:52:36.999Z</time></trkpt><trkpt lat="45.72028637112633" lon="13.899583945189919"><ele>347.0</ele><time>2026-05-02T13:52:38.999Z</time></trkpt><trkpt lat="45.72028601517723" lon="13.899701135033428"><ele>346.8571428571429</ele><time>2026-05-02T13:52:39.999Z</time></trkpt><trkpt lat="45.72029002895075" lon="13.899829403310964"><ele>346.71428571428567</ele><time>2026-05-02T13:52:40.999Z</time></trkpt><trkpt lat="45.720298405685945" lon="13.89993707385066"><ele>346.57142857142856</ele><time>2026-05-02T13:52:41.998Z</time></trkpt><trkpt lat="45.7202931505187" lon="13.900035315928074"><ele>346.42857142857144</ele><time>2026-05-02T13:52:42.998Z</time></trkpt><trkpt lat="45.72029050134731" lon="13.900130828957376"><ele>346.28571428571433</ele><time>2026-05-02T13:52:43.998Z</time></trkpt><trkpt lat="45.72029086440221" lon="13.900227327927473"><ele>346.1428571428571</ele><time>2026-05-02T13:52:44.998Z</time></trkpt><trkpt lat="45.72028294537676" lon="13.900322189687659"><ele>346.0</ele><time>2026-05-02T13:52:45.998Z</time></trkpt><trkpt lat="45.720282856984994" lon="13.900474300745817"><ele>345.8</ele><time>2026-05-02T13:52:47.998Z</time></trkpt><trkpt lat="45.72028998314412" lon="13.900600053424414"><ele>345.6</ele><time>2026-05-02T13:52:49.998Z</time></trkpt><trkpt lat="45.720262783154546" lon="13.900720829539878"><ele>345.4</ele><time>2026-05-02T13:52:51.998Z</time></trkpt><trkpt lat="45.720192256905285" lon="13.900834188719424"><ele>345.2</ele><time>2026-05-02T13:52:53.998Z</time></trkpt><trkpt lat="45.72010054630705" lon="13.90093065422794"><ele>345.0</ele><time>2026-05-02T13:52:55.998Z</time></trkpt><trkpt lat="45.72000735889215" lon="13.901028831340081"><ele>344.6</ele><time>2026-05-02T13:52:57.998Z</time></trkpt><trkpt lat="45.719949885465134" lon="13.901126771682298"><ele>344.2</ele><time>2026-05-02T13:52:59.998Z</time></trkpt><trkpt lat="45.71990561509637" lon="13.901250105587023"><ele>343.79999999999995</ele><time>2026-05-02T13:53:01.998Z</time></trkpt><trkpt lat="45.71986822164562" lon="13.901385437923087"><ele>343.4</ele><time>2026-05-02T13:53:03.998Z</time></trkpt><trkpt lat="45.71982596786278" lon="13.901565248941967"><ele>343.0</ele><time>2026-05-02T13:53:05.998Z</time></trkpt><trkpt lat="45.7197874520411" lon="13.90166525989597"><ele>342.7142857142857</ele><time>2026-05-02T13:53:06.998Z</time></trkpt><trkpt lat="45.7197470799028" lon="13.90175218686863"><ele>342.42857142857144</ele><time>2026-05-02T13:53:07.998Z</time></trkpt><trkpt lat="45.71970497133833" lon="13.901833959620209"><ele>342.1428571428571</ele><time>2026-05-02T13:53:08.998Z</time></trkpt><trkpt lat="45.719667689166634" lon="13.901924104886916"><ele>341.8571428571429</ele><time>2026-05-02T13:53:09.998Z</time></trkpt><trkpt lat="45.71963707144023" lon="13.902041516194245"><ele>341.57142857142856</ele><time>2026-05-02T13:53:10.998Z</time></trkpt><trkpt lat="45.71961790143628" lon="13.902146872357928"><ele>341.2857142857143</ele><time>2026-05-02T13:53:11.998Z</time></trkpt><trkpt lat="45.71959414758416" lon="13.9022393886262"><ele>341.0</ele><time>2026-05-02T13:53:12.998Z</time></trkpt><trkpt lat="45.71955093584154" lon="13.902399389457965"><ele>341.0</ele><time>2026-05-02T13:53:14.998Z</time></trkpt><trkpt lat="45.71949389194819" lon="13.902552747144343"><ele>341.0</ele><time>2026-05-02T13:53:16.998Z</time></trkpt><trkpt lat="45.71944808630038" lon="13.902627415046492"><ele>341.0</ele><time>2026-05-02T13:53:17.998Z</time></trkpt><trkpt lat="45.71940967148532" lon="13.902716768514887"><ele>341.0</ele><time>2026-05-02T13:53:18.998Z</time></trkpt><trkpt lat="45.71937629018299" lon="13.902808569566364"><ele>341.0</ele><time>2026-05-02T13:53:20Z</time></trkpt><trkpt lat="45.71934510577699" lon="13.902901750788377"><ele>341.0</ele><time>2026-05-02T13:53:21Z</time></trkpt><trkpt lat="45.71931393125858" lon="13.902993383151511"><ele>341.7142857142857</ele><time>2026-05-02T13:53:22Z</time></trkpt><trkpt lat="45.71928499884298" lon="13.903084106509704"><ele>342.42857142857144</ele><time>2026-05-02T13:53:23Z</time></trkpt><trkpt lat="45.71925706692091" lon="13.903167781784138"><ele>343.1428571428571</ele><time>2026-05-02T13:53:24Z</time></trkpt><trkpt lat="45.71922646204542" lon="13.903252506900985"><ele>343.8571428571429</ele><time>2026-05-02T13:53:25Z</time></trkpt><trkpt lat="45.71919819103357" lon="13.90334146477166"><ele>344.5714285714286</ele><time>2026-05-02T13:53:26Z</time></trkpt><trkpt lat="45.719160439932644" lon="13.903424991021213"><ele>345.2857142857143</ele><time>2026-05-02T13:53:27Z</time></trkpt><trkpt lat="45.719116603422215" lon="13.903494076937625"><ele>346.0</ele><time>2026-05-02T13:53:28Z</time></trkpt><trkpt lat="45.71905000942014" lon="13.903634636999392"><ele>346.3333333333333</ele><time>2026-05-02T13:53:30Z</time></trkpt><trkpt lat="45.719022543354114" lon="13.903753855096422"><ele>346.66666666666663</ele><time>2026-05-02T13:53:31Z</time></trkpt><trkpt lat="45.718993931053475" lon="13.903869409448543"><ele>347.0</ele><time>2026-05-02T13:53:32Z</time></trkpt><trkpt lat="45.718954525710735" lon="13.904011741689244"><ele>347.3333333333333</ele><time>2026-05-02T13:53:34Z</time></trkpt><trkpt lat="45.71890948563824" lon="13.904105608803393"><ele>347.6666666666667</ele><time>2026-05-02T13:53:36Z</time></trkpt><trkpt lat="45.718844839559175" lon="13.904184091917987"><ele>348.0</ele><time>2026-05-02T13:53:38Z</time></trkpt><trkpt lat="45.71879508151552" lon="13.90429017305826"><ele>348.0</ele><time>2026-05-02T13:53:40Z</time></trkpt><trkpt lat="45.718753386974086" lon="13.904402482707027"><ele>348.0</ele><time>2026-05-02T13:53:42Z</time></trkpt><trkpt lat="45.71868247298668" lon="13.90449796808389"><ele>348.0</ele><time>2026-05-02T13:53:44Z</time></trkpt><trkpt lat="45.71862138362711" lon="13.904585662586445"><ele>348.0</ele><time>2026-05-02T13:53:46Z</time></trkpt><trkpt lat="45.71858032605573" lon="13.904689306455557"><ele>348.0</ele><time>2026-05-02T13:53:48Z</time></trkpt><trkpt lat="45.71851843292748" lon="13.9047826638478"><ele>348.0</ele><time>2026-05-02T13:53:50Z</time></trkpt><trkpt lat="45.71843893516889" lon="13.904875305611307"><ele>348.4</ele><time>2026-05-02T13:53:52Z</time></trkpt><trkpt lat="45.71835565252831" lon="13.904960310665212"><ele>348.79999999999995</ele><time>2026-05-02T13:53:54Z</time></trkpt><trkpt lat="45.7183053636773" lon="13.905038156648425"><ele>349.2</ele><time>2026-05-02T13:53:56Z</time></trkpt><trkpt lat="45.71824756462274" lon="13.905114635014852"><ele>349.6</ele><time>2026-05-02T13:53:58Z</time></trkpt><trkpt lat="45.71816898253704" lon="13.905274289450098"><ele>350.0</ele><time>2026-05-02T13:54:01Z</time></trkpt><trkpt lat="45.71813127684571" lon="13.905386908570792"><ele>350.2</ele><time>2026-05-02T13:54:03Z</time></trkpt><trkpt lat="45.718139016113" lon="13.905493916885062"><ele>350.4</ele><time>2026-05-02T13:54:04.999Z</time></trkpt><trkpt lat="45.71810551195469" lon="13.90561415966768"><ele>350.6</ele><time>2026-05-02T13:54:06.999Z</time></trkpt><trkpt lat="45.718042663442596" lon="13.905751461240916"><ele>350.8</ele><time>2026-05-02T13:54:08.999Z</time></trkpt><trkpt lat="45.71798751106557" lon="13.905901159662914"><ele>351.0</ele><time>2026-05-02T13:54:10.999Z</time></trkpt><trkpt lat="45.71793700059226" lon="13.906035573897846"><ele>351.4</ele><time>2026-05-02T13:54:12.999Z</time></trkpt><trkpt lat="45.71787716479247" lon="13.906153018141449"><ele>351.8</ele><time>2026-05-02T13:54:14.999Z</time></trkpt><trkpt lat="45.717838030274926" lon="13.90622648700211"><ele>352.2</ele><time>2026-05-02T13:54:15.999Z</time></trkpt><trkpt lat="45.717789537766286" lon="13.906360312764136"><ele>352.59999999999997</ele><time>2026-05-02T13:54:17.999Z</time></trkpt><trkpt lat="45.71775562482125" lon="13.90648736445303"><ele>353.0</ele><time>2026-05-02T13:54:19.999Z</time></trkpt><trkpt lat="45.71769985154765" lon="13.9065970837815"><ele>353.2</ele><time>2026-05-02T13:54:21.999Z</time></trkpt><trkpt lat="45.71763732418056" lon="13.906696955337866"><ele>353.4</ele><time>2026-05-02T13:54:23.999Z</time></trkpt><trkpt lat="45.71757802096371" lon="13.906811236859738"><ele>353.59999999999997</ele><time>2026-05-02T13:54:25.999Z</time></trkpt><trkpt lat="45.7175250454032" lon="13.90694355036932"><ele>353.79999999999995</ele><time>2026-05-02T13:54:27.999Z</time></trkpt><trkpt lat="45.7174540036248" lon="13.907081963897529"><ele>354.0</ele><time>2026-05-02T13:54:29.999Z</time></trkpt><trkpt lat="45.717363123231095" lon="13.907207379563987"><ele>354.3333333333333</ele><time>2026-05-02T13:54:31.999Z</time></trkpt><trkpt lat="45.717320843399946" lon="13.907277779339298"><ele>354.6666666666667</ele><time>2026-05-02T13:54:32.999Z</time></trkpt><trkpt lat="45.71724285490691" lon="13.907378835010208"><ele>355.0</ele><time>2026-05-02T13:54:34.999Z</time></trkpt><trkpt lat="45.7171687787833" lon="13.90745454987266"><ele>355.33333333333337</ele><time>2026-05-02T13:54:36.999Z</time></trkpt><trkpt lat="45.71710038718624" lon="13.907537845062851"><ele>355.6666666666667</ele><time>2026-05-02T13:54:38.999Z</time></trkpt><trkpt lat="45.717042504627706" lon="13.90763975341175"><ele>356.0</ele><time>2026-05-02T13:54:40.999Z</time></trkpt><trkpt lat="45.71698049913133" lon="13.907772176334074"><ele>356.6</ele><time>2026-05-02T13:54:42.999Z</time></trkpt><trkpt lat="45.71692784703892" lon="13.907907185313423"><ele>357.20000000000005</ele><time>2026-05-02T13:54:44.999Z</time></trkpt><trkpt lat="45.7168845751237" lon="13.908057124640512"><ele>357.79999999999995</ele><time>2026-05-02T13:54:46.998Z</time></trkpt><trkpt lat="45.716859081670336" lon="13.908209566486667"><ele>358.4</ele><time>2026-05-02T13:54:48.998Z</time></trkpt><trkpt lat="45.7168270838069" lon="13.908364018859196"><ele>359.0</ele><time>2026-05-02T13:54:50.998Z</time></trkpt><trkpt lat="45.7167747634186" lon="13.908511976319256"><ele>360.2</ele><time>2026-05-02T13:54:52.998Z</time></trkpt><trkpt lat="45.716728779027775" lon="13.908635062834284"><ele>361.4</ele><time>2026-05-02T13:54:54.998Z</time></trkpt><trkpt lat="45.716659663777854" lon="13.908735179041125"><ele>362.6</ele><time>2026-05-02T13:54:56.998Z</time></trkpt><trkpt lat="45.71657909680046" lon="13.90884307151407"><ele>363.8</ele><time>2026-05-02T13:54:58.998Z</time></trkpt><trkpt lat="45.716532511651536" lon="13.908981466721004"><ele>365.0</ele><time>2026-05-02T13:55:00.998Z</time></trkpt><trkpt lat="45.716471043687285" lon="13.909110094594432"><ele>365.0</ele><time>2026-05-02T13:55:02.998Z</time></trkpt><trkpt lat="45.716402614090406" lon="13.909223079811557"><ele>365.0</ele><time>2026-05-02T13:55:04.998Z</time></trkpt><trkpt lat="45.7163484476571" lon="13.90935555120755"><ele>365.0</ele><time>2026-05-02T13:55:06.998Z</time></trkpt><trkpt lat="45.71628647723979" lon="13.909475206315411"><ele>365.0</ele><time>2026-05-02T13:55:08.998Z</time></trkpt><trkpt lat="45.716239705962" lon="13.90958357151573"><ele>365.0</ele><time>2026-05-02T13:55:10.998Z</time></trkpt><trkpt lat="45.71619432704836" lon="13.909684895104213"><ele>365.5</ele><time>2026-05-02T13:55:12.998Z</time></trkpt><trkpt lat="45.71618460410829" lon="13.909783658486774"><ele>366.0</ele><time>2026-05-02T13:55:15.998Z</time></trkpt><trkpt lat="45.71628434041851" lon="13.9097831016135"><ele>366.5</ele><time>2026-05-02T13:55:18.998Z</time></trkpt><trkpt lat="45.71635917917435" lon="13.909809836971608"><ele>367.0</ele><time>2026-05-02T13:55:20.998Z</time></trkpt><trkpt lat="45.7164446442292" lon="13.909838552125178"><ele>367.5</ele><time>2026-05-02T13:55:23.998Z</time></trkpt><trkpt lat="45.716529026722576" lon="13.909824297062714"><ele>368.0</ele><time>2026-05-02T13:55:26Z</time></trkpt><trkpt lat="45.716652283501844" lon="13.909805176095475"><ele>368.0</ele><time>2026-05-02T13:55:28Z</time></trkpt><trkpt lat="45.71671269292562" lon="13.909851690497963"><ele>368.0</ele><time>2026-05-02T13:55:29Z</time></trkpt><trkpt lat="45.716833991941556" lon="13.909877546187433"><ele>368.0</ele><time>2026-05-02T13:55:31Z</time></trkpt><trkpt lat="45.716933841139614" lon="13.90989629588395"><ele>368.0</ele><time>2026-05-02T13:55:33Z</time></trkpt><trkpt lat="45.71705638063023" lon="13.909890739609905"><ele>368.0</ele><time>2026-05-02T13:55:35Z</time></trkpt><trkpt lat="45.71712914251808" lon="13.909923690159294"><ele>368.0</ele><time>2026-05-02T13:55:36Z</time></trkpt><trkpt lat="45.71720175167181" lon="13.909930971499074"><ele>368.0</ele><time>2026-05-02T13:55:37Z</time></trkpt><trkpt lat="45.717279851107754" lon="13.909934359878276"><ele>368.0</ele><time>2026-05-02T13:55:38Z</time></trkpt><trkpt lat="45.717355434506835" lon="13.90993394022769"><ele>368.0</ele><time>2026-05-02T13:55:39Z</time></trkpt><trkpt lat="45.71743097399365" lon="13.909931088079073"><ele>368.0</ele><time>2026-05-02T13:55:40Z</time></trkpt><trkpt lat="45.717511620840476" lon="13.909905012732336"><ele>368.0</ele><time>2026-05-02T13:55:41Z</time></trkpt><trkpt lat="45.717581350708215" lon="13.909915121128652"><ele>368.0</ele><time>2026-05-02T13:55:42Z</time></trkpt><trkpt lat="45.717656528828726" lon="13.90991405870255"><ele>368.0</ele><time>2026-05-02T13:55:43Z</time></trkpt><trkpt lat="45.717728803182005" lon="13.909916760756412"><ele>368.0</ele><time>2026-05-02T13:55:44Z</time></trkpt><trkpt lat="45.71780751613141" lon="13.909915850484946"><ele>368.0</ele><time>2026-05-02T13:55:45Z</time></trkpt><trkpt lat="45.71788309581798" lon="13.909907575607464"><ele>368.0</ele><time>2026-05-02T13:55:46Z</time></trkpt><trkpt lat="45.717963064380605" lon="13.90991275250057"><ele>368.0</ele><time>2026-05-02T13:55:47Z</time></trkpt><trkpt lat="45.71802935056776" lon="13.909914874117375"><ele>368.0</ele><time>2026-05-02T13:55:48Z</time></trkpt><trkpt lat="45.718096428515786" lon="13.909927841755618"><ele>367.5</ele><time>2026-05-02T13:55:49Z</time></trkpt><trkpt lat="45.718174083326375" lon="13.909932126885497"><ele>367.0</ele><time>2026-05-02T13:55:50Z</time></trkpt><trkpt lat="45.718251597966244" lon="13.909929966703345"><ele>366.5</ele><time>2026-05-02T13:55:51Z</time></trkpt><trkpt lat="45.71833517064817" lon="13.909950982140499"><ele>366.0</ele><time>2026-05-02T13:55:52Z</time></trkpt><trkpt lat="45.71840848524673" lon="13.909942361413737"><ele>365.5</ele><time>2026-05-02T13:55:53Z</time></trkpt><trkpt lat="45.71848294969395" lon="13.909942735831253"><ele>365.0</ele><time>2026-05-02T13:55:54Z</time></trkpt><trkpt lat="45.718555665926154" lon="13.909941785415354"><ele>364.5</ele><time>2026-05-02T13:55:55Z</time></trkpt><trkpt lat="45.71862218942153" lon="13.909932248239974"><ele>364.0</ele><time>2026-05-02T13:55:56Z</time></trkpt><trkpt lat="45.71876491450814" lon="13.909920738968266"><ele>363.5</ele><time>2026-05-02T13:55:58Z</time></trkpt><trkpt lat="45.71883953665885" lon="13.909908381531938"><ele>363.0</ele><time>2026-05-02T13:55:59Z</time></trkpt><trkpt lat="45.71891402885999" lon="13.909910248484557"><ele>362.5</ele><time>2026-05-02T13:56:00Z</time></trkpt><trkpt lat="45.71899003199054" lon="13.90989612117143"><ele>362.0</ele><time>2026-05-02T13:56:01Z</time></trkpt><trkpt lat="45.7190641722298" lon="13.909883168214566"><ele>362.0</ele><time>2026-05-02T13:56:02Z</time></trkpt><trkpt lat="45.71913983208374" lon="13.909871846832658"><ele>362.0</ele><time>2026-05-02T13:56:03Z</time></trkpt><trkpt lat="45.71921819901704" lon="13.909862075390832"><ele>362.0</ele><time>2026-05-02T13:56:04Z</time></trkpt><trkpt lat="45.71929882902242" lon="13.909851019103602"><ele>362.0</ele><time>2026-05-02T13:56:05Z</time></trkpt><trkpt lat="45.71936848115441" lon="13.909842947415262"><ele>362.0</ele><time>2026-05-02T13:56:06Z</time></trkpt><trkpt lat="45.71944628186744" lon="13.909839123419678"><ele>362.0</ele><time>2026-05-02T13:56:06.999Z</time></trkpt><trkpt lat="45.71951157431397" lon="13.909850519932153"><ele>362.0</ele><time>2026-05-02T13:56:07.999Z</time></trkpt><trkpt lat="45.71965162643941" lon="13.909842986816953"><ele>361.83333333333337</ele><time>2026-05-02T13:56:09.999Z</time></trkpt><trkpt lat="45.71973421508267" lon="13.909838336773415"><ele>361.6666666666667</ele><time>2026-05-02T13:56:10.999Z</time></trkpt><trkpt lat="45.719834321460674" lon="13.909860502047383"><ele>361.5</ele><time>2026-05-02T13:56:11.999Z</time></trkpt><trkpt lat="45.71992056912958" lon="13.909862170212541"><ele>361.3333333333333</ele><time>2026-05-02T13:56:12.999Z</time></trkpt><trkpt lat="45.720005199061575" lon="13.909863807086282"><ele>361.16666666666663</ele><time>2026-05-02T13:56:13.999Z</time></trkpt><trkpt lat="45.72009558858712" lon="13.90986555535715"><ele>361.0</ele><time>2026-05-02T13:56:14.999Z</time></trkpt><trkpt lat="45.720201770011315" lon="13.909843696500742"><ele>360.8</ele><time>2026-05-02T13:56:15.999Z</time></trkpt><trkpt lat="45.720308103535686" lon="13.90985713559349"><ele>360.6</ele><time>2026-05-02T13:56:16.999Z</time></trkpt><trkpt lat="45.7204115635165" lon="13.909853853266746"><ele>360.4</ele><time>2026-05-02T13:56:17.999Z</time></trkpt><trkpt lat="45.72050841203876" lon="13.90985404516942"><ele>360.2</ele><time>2026-05-02T13:56:18.999Z</time></trkpt><trkpt lat="45.72060850397525" lon="13.909851773729072"><ele>360.0</ele><time>2026-05-02T13:56:19.999Z</time></trkpt><trkpt lat="45.7207071555604" lon="13.90985108918145"><ele>360.0</ele><time>2026-05-02T13:56:20.999Z</time></trkpt><trkpt lat="45.72080889764125" lon="13.909863416241668"><ele>360.0</ele><time>2026-05-02T13:56:21.999Z</time></trkpt><trkpt lat="45.72091331912021" lon="13.909859977958567"><ele>360.0</ele><time>2026-05-02T13:56:22.999Z</time></trkpt><trkpt lat="45.72101113711776" lon="13.909855610958585"><ele>360.0</ele><time>2026-05-02T13:56:23.999Z</time></trkpt><trkpt lat="45.721112779676496" lon="13.909868547794275"><ele>360.0</ele><time>2026-05-02T13:56:24.999Z</time></trkpt><trkpt lat="45.72120929874137" lon="13.909864574582496"><ele>360.2</ele><time>2026-05-02T13:56:25.999Z</time></trkpt><trkpt lat="45.72130663299518" lon="13.909863149775203"><ele>360.4</ele><time>2026-05-02T13:56:26.999Z</time></trkpt><trkpt lat="45.7214031080671" lon="13.90987522976548"><ele>360.6</ele><time>2026-05-02T13:56:27.999Z</time></trkpt><trkpt lat="45.72149922641741" lon="13.909876963004573"><ele>360.8</ele><time>2026-05-02T13:56:28.999Z</time></trkpt><trkpt lat="45.721594820766605" lon="13.909875976907786"><ele>361.0</ele><time>2026-05-02T13:56:29.999Z</time></trkpt><trkpt lat="45.72168681446627" lon="13.909870442329655"><ele>361.0</ele><time>2026-05-02T13:56:30.999Z</time></trkpt><trkpt lat="45.72177719592634" lon="13.909882671922054"><ele>361.0</ele><time>2026-05-02T13:56:31.999Z</time></trkpt><trkpt lat="45.72186648320678" lon="13.909876081561508"><ele>361.0</ele><time>2026-05-02T13:56:32.999Z</time></trkpt><trkpt lat="45.72195258543522" lon="13.909874382020977"><ele>361.0</ele><time>2026-05-02T13:56:33.999Z</time></trkpt><trkpt lat="45.72204073324794" lon="13.909874806233478"><ele>361.0</ele><time>2026-05-02T13:56:34.999Z</time></trkpt><trkpt lat="45.7221229037779" lon="13.909874775610726"><ele>361.0</ele><time>2026-05-02T13:56:35.999Z</time></trkpt><trkpt lat="45.72220022208007" lon="13.90987467679584"><ele>361.0</ele><time>2026-05-02T13:56:36.999Z</time></trkpt><trkpt lat="45.72228598989451" lon="13.909882835600781"><ele>361.0</ele><time>2026-05-02T13:56:37.999Z</time></trkpt><trkpt lat="45.72238234122559" lon="13.909895218435906"><ele>361.0</ele><time>2026-05-02T13:56:38.999Z</time></trkpt><trkpt lat="45.722467697087524" lon="13.90989977642261"><ele>361.0</ele><time>2026-05-02T13:56:39.999Z</time></trkpt><trkpt lat="45.72257125911682" lon="13.909909426277753"><ele>361.0</ele><time>2026-05-02T13:56:40.999Z</time></trkpt><trkpt lat="45.72266934848607" lon="13.909920543120844"><ele>361.0</ele><time>2026-05-02T13:56:41.999Z</time></trkpt><trkpt lat="45.72275887071401" lon="13.909932229415787"><ele>361.0</ele><time>2026-05-02T13:56:42.999Z</time></trkpt><trkpt lat="45.72284257523408" lon="13.909926533166429"><ele>361.0</ele><time>2026-05-02T13:56:43.999Z</time></trkpt><trkpt lat="45.72293424782703" lon="13.909916719768594"><ele>361.0</ele><time>2026-05-02T13:56:44.999Z</time></trkpt><trkpt lat="45.723021379930934" lon="13.909893477760004"><ele>361.0</ele><time>2026-05-02T13:56:45.999Z</time></trkpt><trkpt lat="45.72311531542454" lon="13.909852348966664"><ele>361.0</ele><time>2026-05-02T13:56:46.998Z</time></trkpt><trkpt lat="45.72321241934217" lon="13.909810656554214"><ele>361.0</ele><time>2026-05-02T13:56:47.998Z</time></trkpt><trkpt lat="45.72332551574007" lon="13.909752416915346"><ele>361.0</ele><time>2026-05-02T13:56:48.998Z</time></trkpt><trkpt lat="45.723424812996065" lon="13.90970005150714"><ele>361.0</ele><time>2026-05-02T13:56:49.998Z</time></trkpt><trkpt lat="45.72351215406728" lon="13.909653532602125"><ele>361.0</ele><time>2026-05-02T13:56:50.998Z</time></trkpt><trkpt lat="45.72361210328507" lon="13.90961951541409"><ele>361.6</ele><time>2026-05-02T13:56:51.998Z</time></trkpt><trkpt lat="45.72370567268784" lon="13.909552293799234"><ele>362.20000000000005</ele><time>2026-05-02T13:56:52.998Z</time></trkpt><trkpt lat="45.723777347197476" lon="13.909469137242771"><ele>362.79999999999995</ele><time>2026-05-02T13:56:53.998Z</time></trkpt><trkpt lat="45.72386578822328" lon="13.909408646342513"><ele>363.4</ele><time>2026-05-02T13:56:54.998Z</time></trkpt><trkpt lat="45.723947577624216" lon="13.909348195178437"><ele>364.0</ele><time>2026-05-02T13:56:55.998Z</time></trkpt><trkpt lat="45.72403807598984" lon="13.909301307491523"><ele>364.16666666666663</ele><time>2026-05-02T13:56:56.998Z</time></trkpt><trkpt lat="45.72411696040823" lon="13.909234009883418"><ele>364.3333333333333</ele><time>2026-05-02T13:56:57.998Z</time></trkpt><trkpt lat="45.724197554987306" lon="13.909192760335186"><ele>364.5</ele><time>2026-05-02T13:56:58.998Z</time></trkpt><trkpt lat="45.7242771282089" lon="13.909171128451948"><ele>364.6666666666667</ele><time>2026-05-02T13:56:59.998Z</time></trkpt><trkpt lat="45.724362911993985" lon="13.909169622338558"><ele>364.83333333333337</ele><time>2026-05-02T13:57:00.998Z</time></trkpt><trkpt lat="45.72444320618355" lon="13.909156880196356"><ele>365.0</ele><time>2026-05-02T13:57:01.998Z</time></trkpt><trkpt lat="45.72452916052125" lon="13.909129846630474"><ele>364.6666666666667</ele><time>2026-05-02T13:57:02.998Z</time></trkpt><trkpt lat="45.72461347227601" lon="13.90912967694739"><ele>364.33333333333337</ele><time>2026-05-02T13:57:03.998Z</time></trkpt><trkpt lat="45.72469555244358" lon="13.909129905356652"><ele>364.0</ele><time>2026-05-02T13:57:04.998Z</time></trkpt><trkpt lat="45.72479020820286" lon="13.909128497656228"><ele>363.6666666666667</ele><time>2026-05-02T13:57:05.998Z</time></trkpt><trkpt lat="45.72487645756084" lon="13.909124763951699"><ele>363.3333333333333</ele><time>2026-05-02T13:57:06.998Z</time></trkpt><trkpt lat="45.72496601688512" lon="13.909117626519167"><ele>363.0</ele><time>2026-05-02T13:57:07.998Z</time></trkpt><trkpt lat="45.72505806661744" lon="13.909120853632501"><ele>363.0</ele><time>2026-05-02T13:57:08.998Z</time></trkpt><trkpt lat="45.725134781173715" lon="13.909116292613271"><ele>363.0</ele><time>2026-05-02T13:57:09.998Z</time></trkpt><trkpt lat="45.725223033943344" lon="13.909117785702971"><ele>363.0</ele><time>2026-05-02T13:57:10.998Z</time></trkpt><trkpt lat="45.725310072033025" lon="13.909114904898107"><ele>363.0</ele><time>2026-05-02T13:57:11.998Z</time></trkpt><trkpt lat="45.72540123170931" lon="13.909139487351071"><ele>363.0</ele><time>2026-05-02T13:57:12.998Z</time></trkpt><trkpt lat="45.72548715155771" lon="13.909125098539254"><ele>363.0</ele><time>2026-05-02T13:57:13.998Z</time></trkpt><trkpt lat="45.725575686019646" lon="13.909145937078796"><ele>362.79999999999995</ele><time>2026-05-02T13:57:14.998Z</time></trkpt><trkpt lat="45.72567590817128" lon="13.909184557254349"><ele>362.6</ele><time>2026-05-02T13:57:15.998Z</time></trkpt><trkpt lat="45.72577199536333" lon="13.909217391811602"><ele>362.4</ele><time>2026-05-02T13:57:16.998Z</time></trkpt><trkpt lat="45.72586170484077" lon="13.9092453168076"><ele>362.20000000000005</ele><time>2026-05-02T13:57:17.998Z</time></trkpt><trkpt lat="45.725944174348356" lon="13.909299448885696"><ele>362.0</ele><time>2026-05-02T13:57:18.998Z</time></trkpt><trkpt lat="45.72608782572696" lon="13.909353855476773"><ele>361.83333333333337</ele><time>2026-05-02T13:57:20.998Z</time></trkpt><trkpt lat="45.726175827341244" lon="13.90936269517524"><ele>361.6666666666667</ele><time>2026-05-02T13:57:22.998Z</time></trkpt><trkpt lat="45.7262774765076" lon="13.909404522704062"><ele>361.5</ele><time>2026-05-02T13:57:26.998Z</time></trkpt><trkpt lat="45.726359952716784" lon="13.909438407373532"><ele>361.3333333333333</ele><time>2026-05-02T13:57:28.997Z</time></trkpt><trkpt lat="45.72643418210092" lon="13.909478288747712"><ele>361.16666666666663</ele><time>2026-05-02T13:57:33Z</time></trkpt><trkpt lat="45.72651539818046" lon="13.909495442987296"><ele>361.0</ele><time>2026-05-02T13:57:37Z</time></trkpt><trkpt lat="45.72660653201836" lon="13.909588683063198"><ele>361.0</ele><time>2026-05-02T13:57:39Z</time></trkpt><trkpt lat="45.72666784870699" lon="13.909533962583618"><ele>361.0</ele><time>2026-05-02T13:57:41Z</time></trkpt><trkpt lat="45.726634291368896" lon="13.90944706516145"><ele>361.0</ele><time>2026-05-02T13:57:43Z</time></trkpt><trkpt lat="45.72656231424499" lon="13.90948152619061"><ele>361.0</ele><time>2026-05-02T13:57:46Z</time></trkpt><trkpt lat="45.72646953143197" lon="13.909474913222216"><ele>361.0</ele><time>2026-05-02T13:57:50Z</time></trkpt><trkpt lat="45.72641606869004" lon="13.90942642246456"><ele>361.0</ele><time>2026-05-02T13:57:51Z</time></trkpt><trkpt lat="45.72631651505657" lon="13.909376520234614"><ele>361.0</ele><time>2026-05-02T13:57:53Z</time></trkpt><trkpt lat="45.726207569620854" lon="13.909335215408266"><ele>361.0</ele><time>2026-05-02T13:57:55Z</time></trkpt><trkpt lat="45.72611531251951" lon="13.90932639679739"><ele>361.0</ele><time>2026-05-02T13:57:57Z</time></trkpt><trkpt lat="45.72607161372301" lon="13.909576861913973"><ele>361.0</ele><time>2026-05-02T13:58:03Z</time></trkpt><trkpt lat="45.726151824087836" lon="13.909684929281255"><ele>361.0</ele><time>2026-05-02T13:58:05Z</time></trkpt><trkpt lat="45.726185946308625" lon="13.909821224817154"><ele>361.0</ele><time>2026-05-02T13:58:07Z</time></trkpt><trkpt lat="45.72620947433005" lon="13.909970635630211"><ele>361.0</ele><time>2026-05-02T13:58:09Z</time></trkpt><trkpt lat="45.72625332770194" lon="13.910053331690758"><ele>361.0</ele><time>2026-05-02T13:58:10Z</time></trkpt><trkpt lat="45.726305307135505" lon="13.91012511705995"><ele>361.0</ele><time>2026-05-02T13:58:11Z</time></trkpt><trkpt lat="45.72635352440782" lon="13.910202185283998"><ele>361.0</ele><time>2026-05-02T13:58:12Z</time></trkpt><trkpt lat="45.72640245905483" lon="13.910295670672712"><ele>361.3333333333333</ele><time>2026-05-02T13:58:12.999Z</time></trkpt><trkpt lat="45.72643161267073" lon="13.910405357464256"><ele>361.66666666666663</ele><time>2026-05-02T13:58:13.999Z</time></trkpt><trkpt lat="45.72647511552821" lon="13.910541438616741"><ele>362.0</ele><time>2026-05-02T13:58:14.999Z</time></trkpt><trkpt lat="45.72650619048596" lon="13.910640445487035"><ele>362.3333333333333</ele><time>2026-05-02T13:58:15.999Z</time></trkpt><trkpt lat="45.72652912906727" lon="13.910736407269678"><ele>362.6666666666667</ele><time>2026-05-02T13:58:16.999Z</time></trkpt><trkpt lat="45.72653502656151" lon="13.910839555543665"><ele>363.0</ele><time>2026-05-02T13:58:17.999Z</time></trkpt><trkpt lat="45.72655998525697" lon="13.910922527899979"><ele>363.85714285714283</ele><time>2026-05-02T13:58:18.999Z</time></trkpt><trkpt lat="45.72657790730443" lon="13.911027294035573"><ele>364.7142857142857</ele><time>2026-05-02T13:58:19.999Z</time></trkpt><trkpt lat="45.72660271042175" lon="13.911119961765472"><ele>365.57142857142856</ele><time>2026-05-02T13:58:20.999Z</time></trkpt><trkpt lat="45.72662764716314" lon="13.911222838228332"><ele>366.42857142857144</ele><time>2026-05-02T13:58:21.999Z</time></trkpt><trkpt lat="45.726653371882826" lon="13.911322550749256"><ele>367.2857142857143</ele><time>2026-05-02T13:58:22.999Z</time></trkpt><trkpt lat="45.72667707279768" lon="13.911423492927504"><ele>368.1428571428571</ele><time>2026-05-02T13:58:23.999Z</time></trkpt><trkpt lat="45.726681148223214" lon="13.911526945187479"><ele>369.0</ele><time>2026-05-02T13:58:24.999Z</time></trkpt><trkpt lat="45.726693677514504" lon="13.911707801640393"><ele>369.6666666666667</ele><time>2026-05-02T13:58:26.999Z</time></trkpt><trkpt lat="45.72668487032243" lon="13.911854699421276"><ele>370.3333333333333</ele><time>2026-05-02T13:58:28.999Z</time></trkpt><trkpt lat="45.72668241822929" lon="13.911954908100151"><ele>371.0</ele><time>2026-05-02T13:58:29.999Z</time></trkpt><trkpt lat="45.726685574458585" lon="13.912046423831839"><ele>371.66666666666663</ele><time>2026-05-02T13:58:30.999Z</time></trkpt><trkpt lat="45.72670835222603" lon="13.912148668602093"><ele>372.3333333333333</ele><time>2026-05-02T13:58:31.999Z</time></trkpt><trkpt lat="45.726706772633825" lon="13.91225915726655"><ele>373.0</ele><time>2026-05-02T13:58:32.999Z</time></trkpt><trkpt lat="45.72671567469642" lon="13.912358157761757"><ele>373.0</ele><time>2026-05-02T13:58:33.999Z</time></trkpt><trkpt lat="45.726717299459" lon="13.912453992271072"><ele>373.0</ele><time>2026-05-02T13:58:34.999Z</time></trkpt><trkpt lat="45.726715625420454" lon="13.912552558803432"><ele>373.0</ele><time>2026-05-02T13:58:35.999Z</time></trkpt><trkpt lat="45.726726735457625" lon="13.912659391525766"><ele>373.0</ele><time>2026-05-02T13:58:36.999Z</time></trkpt><trkpt lat="45.72673481476588" lon="13.912758016174813"><ele>373.0</ele><time>2026-05-02T13:58:37.999Z</time></trkpt><trkpt lat="45.72674302396769" lon="13.912853909106932"><ele>373.0</ele><time>2026-05-02T13:58:38.999Z</time></trkpt><trkpt lat="45.72677830587109" lon="13.91302848401394"><ele>373.3333333333333</ele><time>2026-05-02T13:58:40.999Z</time></trkpt><trkpt lat="45.7268034539876" lon="13.9131225123712"><ele>373.66666666666663</ele><time>2026-05-02T13:58:41.999Z</time></trkpt><trkpt lat="45.72682003558753" lon="13.913223990118661"><ele>374.0</ele><time>2026-05-02T13:58:42.999Z</time></trkpt><trkpt lat="45.72683678143633" lon="13.91333349670585"><ele>374.3333333333333</ele><time>2026-05-02T13:58:43.999Z</time></trkpt><trkpt lat="45.72684538224683" lon="13.91344324695866"><ele>374.6666666666667</ele><time>2026-05-02T13:58:44.999Z</time></trkpt><trkpt lat="45.72686203991786" lon="13.913537211650377"><ele>375.0</ele><time>2026-05-02T13:58:45.999Z</time></trkpt><trkpt lat="45.726853491492555" lon="13.913657354792688"><ele>374.8571428571429</ele><time>2026-05-02T13:58:46.999Z</time></trkpt><trkpt lat="45.72685523598291" lon="13.913757659830514"><ele>374.71428571428567</ele><time>2026-05-02T13:58:47.999Z</time></trkpt><trkpt lat="45.7268603742243" lon="13.91386522979163"><ele>374.57142857142856</ele><time>2026-05-02T13:58:48.999Z</time></trkpt><trkpt lat="45.72686690716966" lon="13.913968794217036"><ele>374.42857142857144</ele><time>2026-05-02T13:58:49.999Z</time></trkpt><trkpt lat="45.72686995163012" lon="13.914072574512568"><ele>374.28571428571433</ele><time>2026-05-02T13:58:50.998Z</time></trkpt><trkpt lat="45.72689052564516" lon="13.914180502059283"><ele>374.1428571428571</ele><time>2026-05-02T13:58:51.998Z</time></trkpt><trkpt lat="45.726898989554236" lon="13.914283987274699"><ele>374.0</ele><time>2026-05-02T13:58:52.998Z</time></trkpt><trkpt lat="45.72688930630301" lon="13.914392269125265"><ele>375.5</ele><time>2026-05-02T13:58:53.998Z</time></trkpt><trkpt lat="45.72689210699404" lon="13.914500127322462"><ele>377.0</ele><time>2026-05-02T13:58:54.998Z</time></trkpt><trkpt lat="45.72687585959768" lon="13.91460564692088"><ele>378.5</ele><time>2026-05-02T13:58:55.998Z</time></trkpt><trkpt lat="45.726875693457906" lon="13.91472328323172"><ele>380.0</ele><time>2026-05-02T13:58:56.998Z</time></trkpt><trkpt lat="45.72687249809484" lon="13.914813898600206"><ele>381.5</ele><time>2026-05-02T13:58:57.998Z</time></trkpt><trkpt lat="45.726859539569695" lon="13.91500272565804"><ele>383.0</ele><time>2026-05-02T13:58:59.998Z</time></trkpt><trkpt lat="45.7268435618509" lon="13.915105223409585"><ele>383.0</ele><time>2026-05-02T13:59:00.998Z</time></trkpt><trkpt lat="45.72682536594591" lon="13.91520320710035"><ele>383.0</ele><time>2026-05-02T13:59:01.998Z</time></trkpt><trkpt lat="45.72679653491318" lon="13.915330628975475"><ele>383.0</ele><time>2026-05-02T13:59:02.998Z</time></trkpt><trkpt lat="45.726777996685236" lon="13.915546188171819"><ele>383.0</ele><time>2026-05-02T13:59:04.998Z</time></trkpt><trkpt lat="45.726760419082865" lon="13.915659580576945"><ele>383.0</ele><time>2026-05-02T13:59:05.998Z</time></trkpt><trkpt lat="45.726743341995196" lon="13.915748804415564"><ele>383.0</ele><time>2026-05-02T13:59:06.998Z</time></trkpt><trkpt lat="45.72672830324495" lon="13.915878164652472"><ele>383.0</ele><time>2026-05-02T13:59:08.998Z</time></trkpt><trkpt lat="45.72668953412586" lon="13.91601741062859"><ele>383.0</ele><time>2026-05-02T13:59:10.998Z</time></trkpt><trkpt lat="45.72666875490894" lon="13.916171183496205"><ele>383.0</ele><time>2026-05-02T13:59:12.998Z</time></trkpt><trkpt lat="45.72664276801023" lon="13.916282837100045"><ele>383.0</ele><time>2026-05-02T13:59:13.998Z</time></trkpt><trkpt lat="45.72662673676042" lon="13.916384001210886"><ele>383.5</ele><time>2026-05-02T13:59:14.998Z</time></trkpt><trkpt lat="45.72658268759356" lon="13.91654853901017"><ele>384.0</ele><time>2026-05-02T13:59:16.998Z</time></trkpt><trkpt lat="45.72656026944662" lon="13.916655216508303"><ele>384.5</ele><time>2026-05-02T13:59:17.998Z</time></trkpt><trkpt lat="45.726538997440024" lon="13.916744432908185"><ele>385.0</ele><time>2026-05-02T13:59:18.998Z</time></trkpt><trkpt lat="45.726524198313705" lon="13.916838455031819"><ele>385.49999999999994</ele><time>2026-05-02T13:59:19.998Z</time></trkpt><trkpt lat="45.72650078777689" lon="13.916936201169795"><ele>386.0</ele><time>2026-05-02T13:59:20.998Z</time></trkpt><trkpt lat="45.72646525174972" lon="13.917032469935071"><ele>386.28571428571433</ele><time>2026-05-02T13:59:21.998Z</time></trkpt><trkpt lat="45.72643859387713" lon="13.917134772215896"><ele>386.57142857142856</ele><time>2026-05-02T13:59:22.998Z</time></trkpt><trkpt lat="45.7264119169164" lon="13.917233503712009"><ele>386.8571428571429</ele><time>2026-05-02T13:59:23.998Z</time></trkpt><trkpt lat="45.72638226288091" lon="13.917327687344306"><ele>387.14285714285717</ele><time>2026-05-02T13:59:24.998Z</time></trkpt><trkpt lat="45.72635149902024" lon="13.917427107267457"><ele>387.42857142857144</ele><time>2026-05-02T13:59:25.998Z</time></trkpt><trkpt lat="45.72631681296171" lon="13.917518957336405"><ele>387.7142857142857</ele><time>2026-05-02T13:59:26.998Z</time></trkpt><trkpt lat="45.72628721508237" lon="13.917606696942673"><ele>388.0</ele><time>2026-05-02T13:59:27.998Z</time></trkpt><trkpt lat="45.72625746164844" lon="13.917692740708981"><ele>388.1666666666667</ele><time>2026-05-02T13:59:28.998Z</time></trkpt><trkpt lat="45.726209557911304" lon="13.917843883998644"><ele>388.33333333333337</ele><time>2026-05-02T13:59:30.997Z</time></trkpt><trkpt lat="45.72617281503329" lon="13.917922775451373"><ele>388.5</ele><time>2026-05-02T13:59:32.997Z</time></trkpt><trkpt lat="45.72610536367035" lon="13.918002339370881"><ele>388.66666666666663</ele><time>2026-05-02T13:59:36.997Z</time></trkpt><trkpt lat="45.72604391319927" lon="13.918042772394193"><ele>388.8333333333333</ele><time>2026-05-02T13:59:39Z</time></trkpt><trkpt lat="45.725975371167706" lon="13.918061443200054"><ele>389.0</ele><time>2026-05-02T13:59:44Z</time></trkpt><trkpt lat="45.726042892464356" lon="13.91806841290939"><ele>389.0</ele><time>2026-05-02T14:00:01Z</time></trkpt><trkpt lat="45.72610381694846" lon="13.918002192759499"><ele>389.0</ele><time>2026-05-02T14:00:04Z</time></trkpt><trkpt lat="45.726168590398544" lon="13.917930751592682"><ele>389.0</ele><time>2026-05-02T14:00:06Z</time></trkpt><trkpt lat="45.72622995423063" lon="13.917810043098596"><ele>389.0</ele><time>2026-05-02T14:00:08Z</time></trkpt><trkpt lat="45.7262708540656" lon="13.917673713375343"><ele>389.0</ele><time>2026-05-02T14:00:10Z</time></trkpt><trkpt lat="45.726302735262074" lon="13.917545575892904"><ele>388.79999999999995</ele><time>2026-05-02T14:00:12Z</time></trkpt><trkpt lat="45.7263468524741" lon="13.917414435889636"><ele>388.59999999999997</ele><time>2026-05-02T14:00:14Z</time></trkpt><trkpt lat="45.7263911215641" lon="13.917286871243416"><ele>388.4</ele><time>2026-05-02T14:00:16Z</time></trkpt><trkpt lat="45.726431238770914" lon="13.917169433882306"><ele>388.2</ele><time>2026-05-02T14:00:17.999Z</time></trkpt><trkpt lat="45.72647183420835" lon="13.917032463787415"><ele>388.0</ele><time>2026-05-02T14:00:19.999Z</time></trkpt><trkpt lat="45.72651900387929" lon="13.916913016766323"><ele>388.0</ele><time>2026-05-02T14:00:21.999Z</time></trkpt><trkpt lat="45.726546758732624" lon="13.91676929251802"><ele>388.0</ele><time>2026-05-02T14:00:23.999Z</time></trkpt><trkpt lat="45.726573847531185" lon="13.916635206914785"><ele>388.0</ele><time>2026-05-02T14:00:25.999Z</time></trkpt><trkpt lat="45.726606324143866" lon="13.916488110369137"><ele>388.0</ele><time>2026-05-02T14:00:27.999Z</time></trkpt><trkpt lat="45.72662552078931" lon="13.91637019062522"><ele>388.0</ele><time>2026-05-02T14:00:29.999Z</time></trkpt><trkpt lat="45.726651788978955" lon="13.916239426075219"><ele>387.59999999999997</ele><time>2026-05-02T14:00:31.999Z</time></trkpt><trkpt lat="45.72667763006409" lon="13.916107259058744"><ele>387.2</ele><time>2026-05-02T14:00:33.999Z</time></trkpt><trkpt lat="45.726707449784364" lon="13.915963252999916"><ele>386.8</ele><time>2026-05-02T14:00:35.999Z</time></trkpt><trkpt lat="45.726736605548105" lon="13.9158232556455"><ele>386.4</ele><time>2026-05-02T14:00:37.999Z</time></trkpt><trkpt lat="45.726764949278014" lon="13.915675170993547"><ele>386.0</ele><time>2026-05-02T14:00:39.999Z</time></trkpt><trkpt lat="45.72679541050294" lon="13.915535821968191"><ele>385.6</ele><time>2026-05-02T14:00:41.999Z</time></trkpt><trkpt lat="45.72680529838972" lon="13.915392381166685"><ele>385.20000000000005</ele><time>2026-05-02T14:00:49.999Z</time></trkpt><trkpt lat="45.72684418571982" lon="13.915237676006404"><ele>384.79999999999995</ele><time>2026-05-02T14:00:51.999Z</time></trkpt><trkpt lat="45.72685422652736" lon="13.915089723140298"><ele>384.4</ele><time>2026-05-02T14:00:53.999Z</time></trkpt><trkpt lat="45.72687719042871" lon="13.914952863414745"><ele>384.0</ele><time>2026-05-02T14:00:55.998Z</time></trkpt><trkpt lat="45.72688357766615" lon="13.91482013172502"><ele>383.4</ele><time>2026-05-02T14:00:57.998Z</time></trkpt><trkpt lat="45.72689520048269" lon="13.914682344797042"><ele>382.79999999999995</ele><time>2026-05-02T14:00:59.998Z</time></trkpt><trkpt lat="45.726904746242006" lon="13.914541124187126"><ele>382.20000000000005</ele><time>2026-05-02T14:01:01.998Z</time></trkpt><trkpt lat="45.726902864489176" lon="13.914449447614537"><ele>381.6</ele><time>2026-05-02T14:01:02.998Z</time></trkpt><trkpt lat="45.72690548252842" lon="13.914280521127989"><ele>381.0</ele><time>2026-05-02T14:01:04.998Z</time></trkpt><trkpt lat="45.726890169268444" lon="13.914116529832004"><ele>381.0</ele><time>2026-05-02T14:01:06.998Z</time></trkpt><trkpt lat="45.72686902079582" lon="13.913929689670205"><ele>381.0</ele><time>2026-05-02T14:01:08.998Z</time></trkpt><trkpt lat="45.72686234241599" lon="13.913833465690633"><ele>381.0</ele><time>2026-05-02T14:01:09.998Z</time></trkpt><trkpt lat="45.72685501459594" lon="13.913724975975873"><ele>381.0</ele><time>2026-05-02T14:01:10.998Z</time></trkpt><trkpt lat="45.72685322517574" lon="13.913628272540045"><ele>381.0</ele><time>2026-05-02T14:01:11.998Z</time></trkpt><trkpt lat="45.7268573273112" lon="13.913535649155481"><ele>381.0</ele><time>2026-05-02T14:01:12.998Z</time></trkpt><trkpt lat="45.72685276037079" lon="13.913440142463651"><ele>379.8</ele><time>2026-05-02T14:01:13.998Z</time></trkpt><trkpt lat="45.72684743535255" lon="13.913346817692918"><ele>378.6</ele><time>2026-05-02T14:01:14.998Z</time></trkpt><trkpt lat="45.72682549892748" lon="13.913175186604297"><ele>377.4</ele><time>2026-05-02T14:01:16.998Z</time></trkpt><trkpt lat="45.726789618790384" lon="13.91300910637281"><ele>376.2</ele><time>2026-05-02T14:01:18.998Z</time></trkpt><trkpt lat="45.72675978684764" lon="13.912852432264565"><ele>375.0</ele><time>2026-05-02T14:01:20.998Z</time></trkpt><trkpt lat="45.72674419638933" lon="13.912684636531841"><ele>375.0</ele><time>2026-05-02T14:01:22.998Z</time></trkpt><trkpt lat="45.726730471476095" lon="13.912587338692756"><ele>375.0</ele><time>2026-05-02T14:01:23.998Z</time></trkpt><trkpt lat="45.726730460316475" lon="13.912488705272377"><ele>375.0</ele><time>2026-05-02T14:01:24.998Z</time></trkpt><trkpt lat="45.726720827529924" lon="13.912396314503779"><ele>375.0</ele><time>2026-05-02T14:01:25.998Z</time></trkpt><trkpt lat="45.7267182508508" lon="13.912300701537141"><ele>375.0</ele><time>2026-05-02T14:01:26.998Z</time></trkpt><trkpt lat="45.72671049795201" lon="13.912198117237839"><ele>375.0</ele><time>2026-05-02T14:01:27.998Z</time></trkpt><trkpt lat="45.72670938019871" lon="13.912107756165975"><ele>375.0</ele><time>2026-05-02T14:01:28.998Z</time></trkpt><trkpt lat="45.72670655654818" lon="13.911948801290087"><ele>374.6</ele><time>2026-05-02T14:01:30.998Z</time></trkpt><trkpt lat="45.72670163965579" lon="13.911819448438214"><ele>374.2</ele><time>2026-05-02T14:01:32.998Z</time></trkpt><trkpt lat="45.72669415482772" lon="13.91171041667004"><ele>373.79999999999995</ele><time>2026-05-02T14:01:34.997Z</time></trkpt><trkpt lat="45.7266963065893" lon="13.91154081125539"><ele>373.4</ele><time>2026-05-02T14:01:36.997Z</time></trkpt><trkpt lat="45.726672930999825" lon="13.911383258904038"><ele>373.0</ele><time>2026-05-02T14:01:38.997Z</time></trkpt><trkpt lat="45.72664474285417" lon="13.911225446865657"><ele>372.0</ele><time>2026-05-02T14:01:40.997Z</time></trkpt><trkpt lat="45.72661210486529" lon="13.911079464186276"><ele>371.0</ele><time>2026-05-02T14:01:42.997Z</time></trkpt><trkpt lat="45.72657603345447" lon="13.910929144420683"><ele>370.0</ele><time>2026-05-02T14:01:45Z</time></trkpt><trkpt lat="45.72654869805814" lon="13.91075081118076"><ele>369.0</ele><time>2026-05-02T14:01:47Z</time></trkpt><trkpt lat="45.72649386723802" lon="13.910582593475775"><ele>368.0</ele><time>2026-05-02T14:01:49Z</time></trkpt><trkpt lat="45.726470328567544" lon="13.910493180102446"><ele>367.0</ele><time>2026-05-02T14:01:50Z</time></trkpt><trkpt lat="45.726453210805936" lon="13.910385654919828"><ele>366.0</ele><time>2026-05-02T14:01:51Z</time></trkpt><trkpt lat="45.72641940398897" lon="13.910305010502526"><ele>365.0</ele><time>2026-05-02T14:01:52Z</time></trkpt><trkpt lat="45.726378428043475" lon="13.910227496593583"><ele>364.0</ele><time>2026-05-02T14:01:53Z</time></trkpt><trkpt lat="45.72635490939063" lon="13.910134146881385"><ele>363.0</ele><time>2026-05-02T14:01:54Z</time></trkpt><trkpt lat="45.72628000456931" lon="13.909996737450218"><ele>362.79999999999995</ele><time>2026-05-02T14:01:56Z</time></trkpt><trkpt lat="45.72620215254257" lon="13.909878274225118"><ele>362.6</ele><time>2026-05-02T14:01:58Z</time></trkpt><trkpt lat="45.726179471579066" lon="13.909755440874214"><ele>362.4</ele><time>2026-05-02T14:02:00Z</time></trkpt><trkpt lat="45.72615609358602" lon="13.909622995493718"><ele>362.20000000000005</ele><time>2026-05-02T14:02:02Z</time></trkpt><trkpt lat="45.72608717924367" lon="13.909495359729426"><ele>362.0</ele><time>2026-05-02T14:02:04Z</time></trkpt><trkpt lat="45.72603810937096" lon="13.909382400702892"><ele>361.83333333333337</ele><time>2026-05-02T14:02:06Z</time></trkpt><trkpt lat="45.726110770693516" lon="13.909336012273503"><ele>361.6666666666667</ele><time>2026-05-02T14:02:11Z</time></trkpt><trkpt lat="45.726220583872504" lon="13.90935684135166"><ele>361.5</ele><time>2026-05-02T14:02:41.999Z</time></trkpt><trkpt lat="45.72628671476771" lon="13.909383878096534"><ele>361.3333333333333</ele><time>2026-05-02T14:02:42.999Z</time></trkpt><trkpt lat="45.726377239919515" lon="13.909438992476211"><ele>361.16666666666663</ele><time>2026-05-02T14:02:44.999Z</time></trkpt><trkpt lat="45.72644868978916" lon="13.909480658095413"><ele>361.0</ele><time>2026-05-02T14:02:46.999Z</time></trkpt><trkpt lat="45.7265356759593" lon="13.909580873608537"><ele>361.0</ele><time>2026-05-02T14:02:48.999Z</time></trkpt><trkpt lat="45.72657550506362" lon="13.90969386947446"><ele>361.0</ele><time>2026-05-02T14:02:49.999Z</time></trkpt><trkpt lat="45.726646686151" lon="13.909795036445184"><ele>361.0</ele><time>2026-05-02T14:02:50.999Z</time></trkpt><trkpt lat="45.72669678832659" lon="13.909924597178053"><ele>361.0</ele><time>2026-05-02T14:02:51.999Z</time></trkpt><trkpt lat="45.72677164911034" lon="13.910078822336214"><ele>361.0</ele><time>2026-05-02T14:02:52.999Z</time></trkpt><trkpt lat="45.726848115567215" lon="13.910221642571331"><ele>361.25</ele><time>2026-05-02T14:02:53.999Z</time></trkpt><trkpt lat="45.72692901220377" lon="13.910376479294117"><ele>361.5</ele><time>2026-05-02T14:02:54.999Z</time></trkpt><trkpt lat="45.72701602645107" lon="13.910544663969235"><ele>361.75</ele><time>2026-05-02T14:02:55.999Z</time></trkpt><trkpt lat="45.72710998195034" lon="13.910729174454247"><ele>362.0</ele><time>2026-05-02T14:02:56.998Z</time></trkpt><trkpt lat="45.72720290544927" lon="13.910898126415638"><ele>362.6666666666667</ele><time>2026-05-02T14:02:57.998Z</time></trkpt><trkpt lat="45.727295908895975" lon="13.911070436165934"><ele>363.3333333333333</ele><time>2026-05-02T14:02:58.998Z</time></trkpt><trkpt lat="45.72739403613611" lon="13.911246472288308"><ele>364.0</ele><time>2026-05-02T14:02:59.998Z</time></trkpt><trkpt lat="45.727491338375216" lon="13.911425575084255"><ele>364.0</ele><time>2026-05-02T14:03:00.998Z</time></trkpt><trkpt lat="45.72758411124385" lon="13.911597707701725"><ele>364.0</ele><time>2026-05-02T14:03:01.998Z</time></trkpt><trkpt lat="45.727674888841136" lon="13.911773696646543"><ele>364.0</ele><time>2026-05-02T14:03:02.998Z</time></trkpt><trkpt lat="45.72777207371621" lon="13.911951394815002"><ele>364.0</ele><time>2026-05-02T14:03:03.998Z</time></trkpt><trkpt lat="45.72786669894962" lon="13.912125332696327"><ele>364.0</ele><time>2026-05-02T14:03:04.998Z</time></trkpt><trkpt lat="45.72796407898109" lon="13.912299584804055"><ele>364.0</ele><time>2026-05-02T14:03:05.998Z</time></trkpt><trkpt lat="45.728065964004436" lon="13.912475054382435"><ele>364.3333333333333</ele><time>2026-05-02T14:03:06.998Z</time></trkpt><trkpt lat="45.728162084747424" lon="13.912653423395062"><ele>364.6666666666667</ele><time>2026-05-02T14:03:07.998Z</time></trkpt><trkpt lat="45.72826026594895" lon="13.912835884225817"><ele>365.0</ele><time>2026-05-02T14:03:08.998Z</time></trkpt><trkpt lat="45.728357195738305" lon="13.913015669077602"><ele>365.0</ele><time>2026-05-02T14:03:09.998Z</time></trkpt><trkpt lat="45.72845719068574" lon="13.913188877196143"><ele>365.0</ele><time>2026-05-02T14:03:10.998Z</time></trkpt><trkpt lat="45.72855581705706" lon="13.913359813384098"><ele>365.0</ele><time>2026-05-02T14:03:11.998Z</time></trkpt><trkpt lat="45.72865286076897" lon="13.913536954814974"><ele>362.6666666666667</ele><time>2026-05-02T14:03:12.998Z</time></trkpt><trkpt lat="45.72875276806601" lon="13.913709895708937"><ele>360.3333333333333</ele><time>2026-05-02T14:03:13.998Z</time></trkpt><trkpt lat="45.72885286177422" lon="13.913885074357387"><ele>358.0</ele><time>2026-05-02T14:03:14.998Z</time></trkpt><trkpt lat="45.7289551945901" lon="13.914063505478389"><ele>358.66666666666663</ele><time>2026-05-02T14:03:15.998Z</time></trkpt><trkpt lat="45.72905485945697" lon="13.914239306841115"><ele>359.3333333333333</ele><time>2026-05-02T14:03:16.998Z</time></trkpt><trkpt lat="45.729153711125534" lon="13.91440884014737"><ele>360.0</ele><time>2026-05-02T14:03:17.998Z</time></trkpt><trkpt lat="45.72925156337414" lon="13.914572534774226"><ele>360.0</ele><time>2026-05-02T14:03:18.998Z</time></trkpt><trkpt lat="45.729342537526534" lon="13.914737489754055"><ele>360.0</ele><time>2026-05-02T14:03:19.998Z</time></trkpt><trkpt lat="45.72943216334729" lon="13.914900614095792"><ele>360.0</ele><time>2026-05-02T14:03:20.998Z</time></trkpt><trkpt lat="45.729520329601705" lon="13.915055586030912"><ele>360.0</ele><time>2026-05-02T14:03:21.998Z</time></trkpt><trkpt lat="45.729606178896226" lon="13.915195563307073"><ele>359.4</ele><time>2026-05-02T14:03:22.998Z</time></trkpt><trkpt lat="45.72968985714064" lon="13.915331525768707"><ele>358.8</ele><time>2026-05-02T14:03:23.998Z</time></trkpt><trkpt lat="45.72976548764671" lon="13.91546219038945"><ele>358.20000000000005</ele><time>2026-05-02T14:03:24.998Z</time></trkpt><trkpt lat="45.72983202359429" lon="13.915581416146352"><ele>357.6</ele><time>2026-05-02T14:03:25.998Z</time></trkpt><trkpt lat="45.72989488691077" lon="13.91568761252662"><ele>357.0</ele><time>2026-05-02T14:03:26.998Z</time></trkpt><trkpt lat="45.72995268659543" lon="13.91578798966724"><ele>357.0</ele><time>2026-05-02T14:03:27.998Z</time></trkpt><trkpt lat="45.730005573002934" lon="13.915878451260456"><ele>357.0</ele><time>2026-05-02T14:03:28.998Z</time></trkpt><trkpt lat="45.73005413398139" lon="13.915954439967587"><ele>357.0</ele><time>2026-05-02T14:03:29.998Z</time></trkpt><trkpt lat="45.730107781063516" lon="13.916072665346714"><ele>357.0</ele><time>2026-05-02T14:03:31.998Z</time></trkpt><trkpt lat="45.730027072544736" lon="13.916232339738965"><ele>357.0</ele><time>2026-05-02T14:03:34.997Z</time></trkpt><trkpt lat="45.72999275940337" lon="13.916313171128003"><ele>357.6666666666667</ele><time>2026-05-02T14:03:35.997Z</time></trkpt><trkpt lat="45.72995240885737" lon="13.916408224487247"><ele>358.3333333333333</ele><time>2026-05-02T14:03:36.997Z</time></trkpt><trkpt lat="45.72991335016713" lon="13.916494963327066"><ele>359.0</ele><time>2026-05-02T14:03:37.997Z</time></trkpt><trkpt lat="45.72987610922392" lon="13.916572995058177"><ele>359.66666666666663</ele><time>2026-05-02T14:03:38.997Z</time></trkpt><trkpt lat="45.729842477619705" lon="13.916682828985513"><ele>360.3333333333333</ele><time>2026-05-02T14:03:39.997Z</time></trkpt><trkpt lat="45.72978782324631" lon="13.916804343930416"><ele>361.0</ele><time>2026-05-02T14:03:40.997Z</time></trkpt><trkpt lat="45.72973487003261" lon="13.916941286169072"><ele>361.25</ele><time>2026-05-02T14:03:41.997Z</time></trkpt><trkpt lat="45.72967306985406" lon="13.917115834514716"><ele>361.5</ele><time>2026-05-02T14:03:42.997Z</time></trkpt><trkpt lat="45.729613092665105" lon="13.917307966464529"><ele>361.75</ele><time>2026-05-02T14:03:43.997Z</time></trkpt><trkpt lat="45.72956420929268" lon="13.9174717811683"><ele>362.0</ele><time>2026-05-02T14:03:44.997Z</time></trkpt><trkpt lat="45.72952072614107" lon="13.917651838164895"><ele>362.25</ele><time>2026-05-02T14:03:45.997Z</time></trkpt><trkpt lat="45.72950046107496" lon="13.91786689281249"><ele>362.5</ele><time>2026-05-02T14:03:46.997Z</time></trkpt><trkpt lat="45.729483421433436" lon="13.918065750015522"><ele>362.75</ele><time>2026-05-02T14:03:47.997Z</time></trkpt><trkpt lat="45.729462692687335" lon="13.9182380607204"><ele>363.0</ele><time>2026-05-02T14:03:48.997Z</time></trkpt><trkpt lat="45.72944172055168" lon="13.918399837567891"><ele>363.5</ele><time>2026-05-02T14:03:50Z</time></trkpt><trkpt lat="45.72942219883615" lon="13.918569514765704"><ele>364.0</ele><time>2026-05-02T14:03:51Z</time></trkpt><trkpt lat="45.729403939291835" lon="13.918734137020575"><ele>364.5</ele><time>2026-05-02T14:03:52Z</time></trkpt><trkpt lat="45.7293898035794" lon="13.918900601022745"><ele>365.0</ele><time>2026-05-02T14:03:53Z</time></trkpt><trkpt lat="45.729376940956286" lon="13.919072783458121"><ele>365.75</ele><time>2026-05-02T14:03:54Z</time></trkpt><trkpt lat="45.7293647444857" lon="13.919235662536183"><ele>366.5</ele><time>2026-05-02T14:03:55Z</time></trkpt><trkpt lat="45.729331160957095" lon="13.919392562732634"><ele>367.25</ele><time>2026-05-02T14:03:56Z</time></trkpt><trkpt lat="45.729308512856136" lon="13.919545496737843"><ele>368.0</ele><time>2026-05-02T14:03:57Z</time></trkpt><trkpt lat="45.72927521317414" lon="13.919713680663698"><ele>368.0</ele><time>2026-05-02T14:03:58Z</time></trkpt><trkpt lat="45.72923116020185" lon="13.919893231632281"><ele>368.0</ele><time>2026-05-02T14:03:59Z</time></trkpt><trkpt lat="45.729178376075325" lon="13.920078067596398"><ele>368.0</ele><time>2026-05-02T14:04:00Z</time></trkpt><trkpt lat="45.72912915806058" lon="13.92023039719075"><ele>368.0</ele><time>2026-05-02T14:04:01Z</time></trkpt><trkpt lat="45.72908037855149" lon="13.920370395352453"><ele>367.0</ele><time>2026-05-02T14:04:02Z</time></trkpt><trkpt lat="45.72902476118642" lon="13.920518904409152"><ele>366.0</ele><time>2026-05-02T14:04:03Z</time></trkpt><trkpt lat="45.72895421981977" lon="13.920683447418135"><ele>365.0</ele><time>2026-05-02T14:04:04Z</time></trkpt><trkpt lat="45.72887798823833" lon="13.920849021093208"><ele>364.0</ele><time>2026-05-02T14:04:05Z</time></trkpt><trkpt lat="45.72882820357333" lon="13.921004441151979"><ele>363.2</ele><time>2026-05-02T14:04:06Z</time></trkpt><trkpt lat="45.72876523710623" lon="13.921130969724157"><ele>362.4</ele><time>2026-05-02T14:04:07Z</time></trkpt><trkpt lat="45.728712917083456" lon="13.921256642457388"><ele>361.6</ele><time>2026-05-02T14:04:08Z</time></trkpt><trkpt lat="45.72865491792331" lon="13.921373125302354"><ele>360.8</ele><time>2026-05-02T14:04:09Z</time></trkpt><trkpt lat="45.72859984521362" lon="13.921496017876326"><ele>360.0</ele><time>2026-05-02T14:04:10Z</time></trkpt><trkpt lat="45.72854630545997" lon="13.921616059974617"><ele>361.2</ele><time>2026-05-02T14:04:11Z</time></trkpt><trkpt lat="45.72849116769862" lon="13.921734819395871"><ele>362.4</ele><time>2026-05-02T14:04:12Z</time></trkpt><trkpt lat="45.72843414793961" lon="13.92185380326052"><ele>363.6</ele><time>2026-05-02T14:04:13Z</time></trkpt><trkpt lat="45.728375477832984" lon="13.921971934690507"><ele>364.8</ele><time>2026-05-02T14:04:14Z</time></trkpt><trkpt lat="45.72831478356499" lon="13.922090069099548"><ele>366.0</ele><time>2026-05-02T14:04:15Z</time></trkpt><trkpt lat="45.728249017640316" lon="13.922206847193285"><ele>366.0</ele><time>2026-05-02T14:04:16Z</time></trkpt><trkpt lat="45.72818314654404" lon="13.922321178555483"><ele>366.0</ele><time>2026-05-02T14:04:17Z</time></trkpt><trkpt lat="45.728120926988666" lon="13.922438429773175"><ele>366.0</ele><time>2026-05-02T14:04:18Z</time></trkpt><trkpt lat="45.72804583438937" lon="13.922541243327656"><ele>366.0</ele><time>2026-05-02T14:04:19Z</time></trkpt><trkpt lat="45.72798093736128" lon="13.922654316657042"><ele>366.0</ele><time>2026-05-02T14:04:20Z</time></trkpt><trkpt lat="45.72791616283692" lon="13.922769113745717"><ele>366.20000000000005</ele><time>2026-05-02T14:04:21Z</time></trkpt><trkpt lat="45.727855705371425" lon="13.922881916959012"><ele>366.40000000000003</ele><time>2026-05-02T14:04:22Z</time></trkpt><trkpt lat="45.72779371515135" lon="13.92299757993752"><ele>366.6</ele><time>2026-05-02T14:04:22.999Z</time></trkpt><trkpt lat="45.72773216998839" lon="13.923111991045849"><ele>366.8</ele><time>2026-05-02T14:04:23.999Z</time></trkpt><trkpt lat="45.727665786927545" lon="13.923234199368881"><ele>367.0</ele><time>2026-05-02T14:04:24.999Z</time></trkpt><trkpt lat="45.72759991092899" lon="13.923353489626255"><ele>367.20000000000005</ele><time>2026-05-02T14:04:25.999Z</time></trkpt><trkpt lat="45.72753234556991" lon="13.92347554155833"><ele>367.4</ele><time>2026-05-02T14:04:26.999Z</time></trkpt><trkpt lat="45.727464157256" lon="13.923598718768101"><ele>367.6</ele><time>2026-05-02T14:04:27.999Z</time></trkpt><trkpt lat="45.727402925421416" lon="13.923709329667025"><ele>367.79999999999995</ele><time>2026-05-02T14:04:28.999Z</time></trkpt><trkpt lat="45.7273584100368" lon="13.923825985591693"><ele>368.0</ele><time>2026-05-02T14:04:29.999Z</time></trkpt><trkpt lat="45.72729421995661" lon="13.923905698210035"><ele>368.0</ele><time>2026-05-02T14:04:30.999Z</time></trkpt><trkpt lat="45.72724241435939" lon="13.923999281264175"><ele>368.0</ele><time>2026-05-02T14:04:31.999Z</time></trkpt><trkpt lat="45.72721276400407" lon="13.924091042981713"><ele>368.0</ele><time>2026-05-02T14:04:32.999Z</time></trkpt><trkpt lat="45.727156105551614" lon="13.924183608324896"><ele>368.0</ele><time>2026-05-02T14:04:34.999Z</time></trkpt><trkpt lat="45.7272280464576" lon="13.924368401006351"><ele>368.0</ele><time>2026-05-02T14:04:40.999Z</time></trkpt><trkpt lat="45.72732680904654" lon="13.924439673216336"><ele>367.75</ele><time>2026-05-02T14:04:42.999Z</time></trkpt><trkpt lat="45.72743305287412" lon="13.924521884224747"><ele>367.5</ele><time>2026-05-02T14:04:44.999Z</time></trkpt><trkpt lat="45.72753608592559" lon="13.924618581818649"><ele>367.25</ele><time>2026-05-02T14:04:46.999Z</time></trkpt><trkpt lat="45.72763657644504" lon="13.924724060318203"><ele>367.0</ele><time>2026-05-02T14:04:48.999Z</time></trkpt><trkpt lat="45.727746384344684" lon="13.924780974777072"><ele>367.0</ele><time>2026-05-02T14:04:50.999Z</time></trkpt><trkpt lat="45.72781550955658" lon="13.924793198940556"><ele>367.0</ele><time>2026-05-02T14:04:51.999Z</time></trkpt><trkpt lat="45.72789518290697" lon="13.924789037058636"><ele>367.0</ele><time>2026-05-02T14:04:52.999Z</time></trkpt><trkpt lat="45.72797980196668" lon="13.924776710428684"><ele>367.0</ele><time>2026-05-02T14:04:53.999Z</time></trkpt><trkpt lat="45.728063035844436" lon="13.924763111889716"><ele>367.0</ele><time>2026-05-02T14:04:54.999Z</time></trkpt><trkpt lat="45.728139656634255" lon="13.924751986421239"><ele>367.0</ele><time>2026-05-02T14:04:55.999Z</time></trkpt><trkpt lat="45.728215177259486" lon="13.924741124694597"><ele>367.0</ele><time>2026-05-02T14:04:56.999Z</time></trkpt><trkpt lat="45.72829164917563" lon="13.924735111126731"><ele>367.0</ele><time>2026-05-02T14:04:57.999Z</time></trkpt><trkpt lat="45.728368468259504" lon="13.924721170583236"><ele>367.0</ele><time>2026-05-02T14:04:58.998Z</time></trkpt><trkpt lat="45.728448455156496" lon="13.92470229402262"><ele>367.0</ele><time>2026-05-02T14:04:59.998Z</time></trkpt><trkpt lat="45.728530791470305" lon="13.924668393338312"><ele>367.0</ele><time>2026-05-02T14:05:00.998Z</time></trkpt><trkpt lat="45.72861854724474" lon="13.924623834642084"><ele>367.0</ele><time>2026-05-02T14:05:01.998Z</time></trkpt><trkpt lat="45.72870643254811" lon="13.924579367410807"><ele>367.20000000000005</ele><time>2026-05-02T14:05:02.998Z</time></trkpt><trkpt lat="45.72878813175081" lon="13.92453254433721"><ele>367.4</ele><time>2026-05-02T14:05:03.998Z</time></trkpt><trkpt lat="45.72886532812267" lon="13.924489893380489"><ele>367.6</ele><time>2026-05-02T14:05:04.998Z</time></trkpt><trkpt lat="45.728984240385216" lon="13.92442767050454"><ele>367.79999999999995</ele><time>2026-05-02T14:05:06.998Z</time></trkpt><trkpt lat="45.72907701087863" lon="13.9243694091487"><ele>368.0</ele><time>2026-05-02T14:05:08.998Z</time></trkpt><trkpt lat="45.72918706514409" lon="13.924299282764148"><ele>368.0</ele><time>2026-05-02T14:05:10.998Z</time></trkpt><trkpt lat="45.72924638286169" lon="13.924255045068843"><ele>368.0</ele><time>2026-05-02T14:05:11.998Z</time></trkpt><trkpt lat="45.729302221502444" lon="13.924208568816233"><ele>368.0</ele><time>2026-05-02T14:05:12.998Z</time></trkpt><trkpt lat="45.729355248336994" lon="13.924157113525776"><ele>368.0</ele><time>2026-05-02T14:05:13.998Z</time></trkpt><trkpt lat="45.72941908618289" lon="13.924121938400837"><ele>368.0</ele><time>2026-05-02T14:05:14.998Z</time></trkpt><trkpt lat="45.729476412550966" lon="13.924069190188629"><ele>368.0</ele><time>2026-05-02T14:05:15.998Z</time></trkpt><trkpt lat="45.729534132608606" lon="13.924024333751737"><ele>368.0</ele><time>2026-05-02T14:05:16.998Z</time></trkpt><trkpt lat="45.72959311495666" lon="13.923987623353604"><ele>367.14285714285717</ele><time>2026-05-02T14:05:17.998Z</time></trkpt><trkpt lat="45.72966234356458" lon="13.923959697066591"><ele>366.2857142857143</ele><time>2026-05-02T14:05:18.998Z</time></trkpt><trkpt lat="45.72973170423294" lon="13.923937776899363"><ele>365.42857142857144</ele><time>2026-05-02T14:05:19.998Z</time></trkpt><trkpt lat="45.72980413305396" lon="13.923919086532981"><ele>364.57142857142856</ele><time>2026-05-02T14:05:20.998Z</time></trkpt><trkpt lat="45.729876774401994" lon="13.923905036513018"><ele>363.71428571428567</ele><time>2026-05-02T14:05:21.998Z</time></trkpt><trkpt lat="45.72994894596167" lon="13.923894055928038"><ele>362.85714285714283</ele><time>2026-05-02T14:05:22.998Z</time></trkpt><trkpt lat="45.73001937667432" lon="13.923869337231203"><ele>362.0</ele><time>2026-05-02T14:05:23.998Z</time></trkpt><trkpt lat="45.73010305223222" lon="13.923884884653924"><ele>362.0</ele><time>2026-05-02T14:05:24.998Z</time></trkpt><trkpt lat="45.73018939668922" lon="13.92390067875841"><ele>362.0</ele><time>2026-05-02T14:05:25.998Z</time></trkpt><trkpt lat="45.73026864768571" lon="13.923916057302874"><ele>362.0</ele><time>2026-05-02T14:05:26.998Z</time></trkpt><trkpt lat="45.73033967412734" lon="13.923930256167138"><ele>362.0</ele><time>2026-05-02T14:05:27.998Z</time></trkpt><trkpt lat="45.73044165473774" lon="13.923983220622414"><ele>362.0</ele><time>2026-05-02T14:05:29.998Z</time></trkpt><trkpt lat="45.730504567016034" lon="13.924081032910523"><ele>362.0</ele><time>2026-05-02T14:05:31.998Z</time></trkpt><trkpt lat="45.73058746455766" lon="13.924175688697025"><ele>361.85714285714283</ele><time>2026-05-02T14:05:33.998Z</time></trkpt><trkpt lat="45.730651852779026" lon="13.924221759588312"><ele>361.71428571428567</ele><time>2026-05-02T14:05:34.997Z</time></trkpt><trkpt lat="45.73071666460382" lon="13.924291500086978"><ele>361.57142857142856</ele><time>2026-05-02T14:05:35.997Z</time></trkpt><trkpt lat="45.73077094628435" lon="13.92437407796571"><ele>361.42857142857144</ele><time>2026-05-02T14:05:36.997Z</time></trkpt><trkpt lat="45.73082962328663" lon="13.924432569287953"><ele>361.2857142857143</ele><time>2026-05-02T14:05:37.997Z</time></trkpt><trkpt lat="45.7308840437954" lon="13.924489168422202"><ele>361.14285714285717</ele><time>2026-05-02T14:05:38.997Z</time></trkpt><trkpt lat="45.73093865918357" lon="13.9245532764056"><ele>361.0</ele><time>2026-05-02T14:05:39.997Z</time></trkpt><trkpt lat="45.730993527207026" lon="13.924635126816469"><ele>360.8571428571429</ele><time>2026-05-02T14:05:40.997Z</time></trkpt><trkpt lat="45.731044279476" lon="13.924728267371918"><ele>360.71428571428567</ele><time>2026-05-02T14:05:41.997Z</time></trkpt><trkpt lat="45.73109274653409" lon="13.92482370040283"><ele>360.57142857142856</ele><time>2026-05-02T14:05:42.997Z</time></trkpt><trkpt lat="45.731140395489255" lon="13.924909841062185"><ele>360.42857142857144</ele><time>2026-05-02T14:05:43.997Z</time></trkpt><trkpt lat="45.73118587097723" lon="13.924989296582549"><ele>360.28571428571433</ele><time>2026-05-02T14:05:44.997Z</time></trkpt><trkpt lat="45.73123279033668" lon="13.925062884642324"><ele>360.1428571428571</ele><time>2026-05-02T14:05:45.997Z</time></trkpt><trkpt lat="45.73129330784546" lon="13.925100974404723"><ele>360.0</ele><time>2026-05-02T14:05:46.997Z</time></trkpt><trkpt lat="45.73140436714134" lon="13.92520192251348"><ele>360.6666666666667</ele><time>2026-05-02T14:05:48.997Z</time></trkpt><trkpt lat="45.731465692017295" lon="13.925239128846046"><ele>361.3333333333333</ele><time>2026-05-02T14:05:49.997Z</time></trkpt><trkpt lat="45.73151834112364" lon="13.925296749877157"><ele>362.0</ele><time>2026-05-02T14:05:50.997Z</time></trkpt><trkpt lat="45.731575442562395" lon="13.925337925617752"><ele>362.66666666666663</ele><time>2026-05-02T14:05:51.997Z</time></trkpt><trkpt lat="45.73168898260056" lon="13.925422694839975"><ele>363.3333333333333</ele><time>2026-05-02T14:05:53.997Z</time></trkpt><trkpt lat="45.73175354868656" lon="13.925446138929926"><ele>364.0</ele><time>2026-05-02T14:05:54.997Z</time></trkpt><trkpt lat="45.7318068776558" lon="13.925499614178115"><ele>364.0</ele><time>2026-05-02T14:05:56Z</time></trkpt><trkpt lat="45.73185845904011" lon="13.925557098027973"><ele>364.0</ele><time>2026-05-02T14:05:57Z</time></trkpt><trkpt lat="45.73192501180148" lon="13.92560418220916"><ele>364.0</ele><time>2026-05-02T14:05:58Z</time></trkpt><trkpt lat="45.73200406483658" lon="13.925646294956797"><ele>364.0</ele><time>2026-05-02T14:05:59Z</time></trkpt><trkpt lat="45.732098818595674" lon="13.925687044752515"><ele>364.0</ele><time>2026-05-02T14:06:00Z</time></trkpt><trkpt lat="45.73219078383731" lon="13.925719476377784"><ele>364.0</ele><time>2026-05-02T14:06:01Z</time></trkpt><trkpt lat="45.73226482589568" lon="13.925773078583122"><ele>362.8333333333333</ele><time>2026-05-02T14:06:02Z</time></trkpt><trkpt lat="45.73233785297717" lon="13.925803146746327"><ele>361.66666666666663</ele><time>2026-05-02T14:06:03Z</time></trkpt><trkpt lat="45.73241136130523" lon="13.925830722572961"><ele>360.5</ele><time>2026-05-02T14:06:04Z</time></trkpt><trkpt lat="45.732492724978734" lon="13.925831913524632"><ele>359.3333333333333</ele><time>2026-05-02T14:06:05Z</time></trkpt><trkpt lat="45.732567784881965" lon="13.925855915284027"><ele>358.1666666666667</ele><time>2026-05-02T14:06:06Z</time></trkpt><trkpt lat="45.732641963984904" lon="13.925861554662982"><ele>357.0</ele><time>2026-05-02T14:06:07Z</time></trkpt><trkpt lat="45.732721129502266" lon="13.925887541296662"><ele>357.40000000000003</ele><time>2026-05-02T14:06:08Z</time></trkpt><trkpt lat="45.73280157375565" lon="13.925888432321202"><ele>357.8</ele><time>2026-05-02T14:06:09Z</time></trkpt><trkpt lat="45.73287035403595" lon="13.925887853587092"><ele>358.2</ele><time>2026-05-02T14:06:10Z</time></trkpt><trkpt lat="45.73299207251733" lon="13.925889060137694"><ele>358.6</ele><time>2026-05-02T14:06:12Z</time></trkpt><trkpt lat="45.733113990466066" lon="13.925899902218571"><ele>359.0</ele><time>2026-05-02T14:06:14Z</time></trkpt><trkpt lat="45.7331840861838" lon="13.925889533777934"><ele>359.0</ele><time>2026-05-02T14:06:15Z</time></trkpt><trkpt lat="45.73325669710491" lon="13.925913651550179"><ele>359.0</ele><time>2026-05-02T14:06:16Z</time></trkpt><trkpt lat="45.733339355940345" lon="13.925940308928375"><ele>359.0</ele><time>2026-05-02T14:06:17Z</time></trkpt><trkpt lat="45.73342306279807" lon="13.925961196170324"><ele>359.0</ele><time>2026-05-02T14:06:18Z</time></trkpt><trkpt lat="45.73350309085383" lon="13.92601509670544"><ele>359.0</ele><time>2026-05-02T14:06:19Z</time></trkpt><trkpt lat="45.73359182026916" lon="13.926041910339878"><ele>359.0</ele><time>2026-05-02T14:06:20Z</time></trkpt><trkpt lat="45.73368590425431" lon="13.92604607384959"><ele>358.1666666666667</ele><time>2026-05-02T14:06:21Z</time></trkpt><trkpt lat="45.73377376719693" lon="13.926074159059619"><ele>357.33333333333337</ele><time>2026-05-02T14:06:22Z</time></trkpt><trkpt lat="45.73386157017327" lon="13.926097732149493"><ele>356.5</ele><time>2026-05-02T14:06:23Z</time></trkpt><trkpt lat="45.73394797799977" lon="13.92611458093906"><ele>355.6666666666667</ele><time>2026-05-02T14:06:24Z</time></trkpt><trkpt lat="45.734030224797216" lon="13.926122604838822"><ele>354.8333333333333</ele><time>2026-05-02T14:06:25Z</time></trkpt><trkpt lat="45.73410804970033" lon="13.92615114060263"><ele>354.0</ele><time>2026-05-02T14:06:26Z</time></trkpt><trkpt lat="45.73418493173344" lon="13.926165145915682"><ele>354.0</ele><time>2026-05-02T14:06:27Z</time></trkpt><trkpt lat="45.734264405963366" lon="13.926163965401509"><ele>354.0</ele><time>2026-05-02T14:06:27.999Z</time></trkpt><trkpt lat="45.734345357479036" lon="13.926192097507482"><ele>354.0</ele><time>2026-05-02T14:06:28.999Z</time></trkpt><trkpt lat="45.73442168282444" lon="13.926229611625486"><ele>354.0</ele><time>2026-05-02T14:06:29.999Z</time></trkpt><trkpt lat="45.734476441371655" lon="13.926293233664756"><ele>354.0</ele><time>2026-05-02T14:06:30.999Z</time></trkpt><trkpt lat="45.73457934930448" lon="13.926389409630168"><ele>354.0</ele><time>2026-05-02T14:06:32.999Z</time></trkpt><trkpt lat="45.73463782340641" lon="13.92645368855629"><ele>353.0</ele><time>2026-05-02T14:06:33.999Z</time></trkpt><trkpt lat="45.73470201002603" lon="13.926522569122222"><ele>352.0</ele><time>2026-05-02T14:06:34.999Z</time></trkpt><trkpt lat="45.73477269895901" lon="13.926595294632243"><ele>351.0</ele><time>2026-05-02T14:06:35.999Z</time></trkpt><trkpt lat="45.73484447215147" lon="13.926669135715859"><ele>350.0</ele><time>2026-05-02T14:06:36.999Z</time></trkpt><trkpt lat="45.73491974456043" lon="13.926747626074839"><ele>349.0</ele><time>2026-05-02T14:06:37.999Z</time></trkpt><trkpt lat="45.735002503050765" lon="13.926805571507977"><ele>348.0</ele><time>2026-05-02T14:06:38.999Z</time></trkpt><trkpt lat="45.735064915669" lon="13.926876428873603"><ele>348.0</ele><time>2026-05-02T14:06:39.999Z</time></trkpt><trkpt lat="45.73512740128813" lon="13.926929720658201"><ele>348.0</ele><time>2026-05-02T14:06:40.999Z</time></trkpt><trkpt lat="45.73519388445632" lon="13.926973072241992"><ele>348.0</ele><time>2026-05-02T14:06:41.999Z</time></trkpt><trkpt lat="45.7352687878105" lon="13.927007311833467"><ele>348.0</ele><time>2026-05-02T14:06:42.999Z</time></trkpt><trkpt lat="45.73536639480691" lon="13.927041986230774"><ele>348.0</ele><time>2026-05-02T14:06:43.999Z</time></trkpt><trkpt lat="45.735458673045365" lon="13.927077597920137"><ele>348.0</ele><time>2026-05-02T14:06:44.999Z</time></trkpt><trkpt lat="45.73555699685572" lon="13.927113167406052"><ele>348.1666666666667</ele><time>2026-05-02T14:06:45.999Z</time></trkpt><trkpt lat="45.73563894931306" lon="13.927140002052747"><ele>348.3333333333333</ele><time>2026-05-02T14:06:46.999Z</time></trkpt><trkpt lat="45.73571642525379" lon="13.927166310511568"><ele>348.5</ele><time>2026-05-02T14:06:47.999Z</time></trkpt><trkpt lat="45.73578513717868" lon="13.927226617690653"><ele>348.66666666666663</ele><time>2026-05-02T14:06:48.999Z</time></trkpt><trkpt lat="45.73585064573154" lon="13.927271946439818"><ele>348.8333333333333</ele><time>2026-05-02T14:06:49.999Z</time></trkpt><trkpt lat="45.735918483315025" lon="13.927316610828614"><ele>349.0</ele><time>2026-05-02T14:06:50.999Z</time></trkpt><trkpt lat="45.73598711820816" lon="13.927361898728746"><ele>349.0</ele><time>2026-05-02T14:06:51.999Z</time></trkpt><trkpt lat="45.73604717864585" lon="13.927410691032588"><ele>349.0</ele><time>2026-05-02T14:06:52.999Z</time></trkpt><trkpt lat="45.73614620059484" lon="13.927510905919664"><ele>349.0</ele><time>2026-05-02T14:06:54.999Z</time></trkpt><trkpt lat="45.73623691348688" lon="13.927604090601031"><ele>349.0</ele><time>2026-05-02T14:06:56.999Z</time></trkpt><trkpt lat="45.736324674613165" lon="13.927683740963182"><ele>349.0</ele><time>2026-05-02T14:06:58.999Z</time></trkpt><trkpt lat="45.73635242583339" lon="13.927782885804724"><ele>349.16666666666663</ele><time>2026-05-02T14:06:59.999Z</time></trkpt><trkpt lat="45.736401322136814" lon="13.927867601573686"><ele>349.3333333333333</ele><time>2026-05-02T14:07:00.999Z</time></trkpt><trkpt lat="45.736456132760395" lon="13.92795513133749"><ele>349.5</ele><time>2026-05-02T14:07:01.999Z</time></trkpt><trkpt lat="45.736518332246376" lon="13.928044051792757"><ele>349.6666666666667</ele><time>2026-05-02T14:07:02.999Z</time></trkpt><trkpt lat="45.73659483048888" lon="13.928096482276606"><ele>349.83333333333337</ele><time>2026-05-02T14:07:03.999Z</time></trkpt><trkpt lat="45.7366392543449" lon="13.92816681844991"><ele>350.0</ele><time>2026-05-02T14:07:04.998Z</time></trkpt><trkpt lat="45.736785895727714" lon="13.92818065230416"><ele>350.0</ele><time>2026-05-02T14:07:06.998Z</time></trkpt><trkpt lat="45.7368530708283" lon="13.928199027884514"><ele>350.0</ele><time>2026-05-02T14:07:07.998Z</time></trkpt><trkpt lat="45.73691540990118" lon="13.928213028689044"><ele>350.0</ele><time>2026-05-02T14:07:08.998Z</time></trkpt><trkpt lat="45.73698127218968" lon="13.928235816466403"><ele>350.0</ele><time>2026-05-02T14:07:09.998Z</time></trkpt><trkpt lat="45.7370918411991" lon="13.928265681693267"><ele>350.0</ele><time>2026-05-02T14:07:11.998Z</time></trkpt><trkpt lat="45.73720272219246" lon="13.928242745789051"><ele>350.0</ele><time>2026-05-02T14:07:13.998Z</time></trkpt><trkpt lat="45.737310422968214" lon="13.928223742049818"><ele>350.0</ele><time>2026-05-02T14:07:15.998Z</time></trkpt><trkpt lat="45.737379689770876" lon="13.928207245164161"><ele>350.0</ele><time>2026-05-02T14:07:17.998Z</time></trkpt><trkpt lat="45.73746279851234" lon="13.928226724783784"><ele>350.0</ele><time>2026-05-02T14:07:19.998Z</time></trkpt><trkpt lat="45.73755908365414" lon="13.928322612298572"><ele>350.0</ele><time>2026-05-02T14:07:21.998Z</time></trkpt><trkpt lat="45.73762220352091" lon="13.928347373540781"><ele>350.0</ele><time>2026-05-02T14:07:22.998Z</time></trkpt><trkpt lat="45.7377432283391" lon="13.92834342154993"><ele>349.83333333333337</ele><time>2026-05-02T14:07:24.998Z</time></trkpt><trkpt lat="45.73783931393184" lon="13.92834879911998"><ele>349.6666666666667</ele><time>2026-05-02T14:07:26.998Z</time></trkpt><trkpt lat="45.73790339866172" lon="13.928323611053917"><ele>349.5</ele><time>2026-05-02T14:07:29.998Z</time></trkpt><trkpt lat="45.73793828620429" lon="13.928197010695099"><ele>349.3333333333333</ele><time>2026-05-02T14:07:32.998Z</time></trkpt><trkpt lat="45.73796860185075" lon="13.928101023690424"><ele>349.16666666666663</ele><time>2026-05-02T14:07:34.998Z</time></trkpt><trkpt lat="45.73804214494607" lon="13.928121359973298"><ele>349.0</ele><time>2026-05-02T14:07:38.998Z</time></trkpt><trkpt lat="45.73808062255556" lon="13.928221783712079"><ele>349.0</ele><time>2026-05-02T14:07:39.998Z</time></trkpt><trkpt lat="45.73819887494914" lon="13.928377750188634"><ele>349.0</ele><time>2026-05-02T14:07:41.997Z</time></trkpt><trkpt lat="45.73827089704297" lon="13.928476603907042"><ele>349.0</ele><time>2026-05-02T14:07:42.997Z</time></trkpt><trkpt lat="45.738337873501905" lon="13.928599278365525"><ele>349.0</ele><time>2026-05-02T14:07:43.997Z</time></trkpt><trkpt lat="45.738418747498905" lon="13.928717546366476"><ele>349.5</ele><time>2026-05-02T14:07:44.997Z</time></trkpt><trkpt lat="45.73849440381539" lon="13.928825961447378"><ele>350.0</ele><time>2026-05-02T14:07:45.997Z</time></trkpt><trkpt lat="45.738554713531144" lon="13.928925249465868"><ele>350.5</ele><time>2026-05-02T14:07:46.997Z</time></trkpt><trkpt lat="45.73860747350481" lon="13.929008035774888"><ele>351.0</ele><time>2026-05-02T14:07:47.997Z</time></trkpt><trkpt lat="45.73865396079052" lon="13.929081448766176"><ele>351.5</ele><time>2026-05-02T14:07:48.997Z</time></trkpt><trkpt lat="45.73869806003015" lon="13.929147010113402"><ele>352.0</ele><time>2026-05-02T14:07:49.997Z</time></trkpt><trkpt lat="45.73874783241287" lon="13.929213007439959"><ele>352.40000000000003</ele><time>2026-05-02T14:07:50.997Z</time></trkpt><trkpt lat="45.7387922832562" lon="13.929286911731692"><ele>352.8</ele><time>2026-05-02T14:07:51.997Z</time></trkpt><trkpt lat="45.73883693942312" lon="13.92935689254491"><ele>353.2</ele><time>2026-05-02T14:07:52.997Z</time></trkpt><trkpt lat="45.73891977198228" lon="13.929430600874227"><ele>353.6</ele><time>2026-05-02T14:07:54.997Z</time></trkpt><trkpt lat="45.73893149506783" lon="13.929253564739506"><ele>354.0</ele><time>2026-05-02T14:07:56.997Z</time></trkpt><trkpt lat="45.73879336075399" lon="13.929174944152935"><ele>354.0</ele><time>2026-05-02T14:08:00.997Z</time></trkpt><trkpt lat="45.738732279797766" lon="13.929116961135652"><ele>354.0</ele><time>2026-05-02T14:08:02Z</time></trkpt><trkpt lat="45.73866895606635" lon="13.929039913097354"><ele>354.0</ele><time>2026-05-02T14:08:03Z</time></trkpt><trkpt lat="45.73861037327299" lon="13.928942221879778"><ele>354.0</ele><time>2026-05-02T14:08:04Z</time></trkpt><trkpt lat="45.73854422288435" lon="13.928848444319076"><ele>354.0</ele><time>2026-05-02T14:08:05Z</time></trkpt><trkpt lat="45.7384840006289" lon="13.92875444769647"><ele>354.0</ele><time>2026-05-02T14:08:06Z</time></trkpt><trkpt lat="45.73842925722216" lon="13.928669183803496"><ele>353.6666666666667</ele><time>2026-05-02T14:08:07Z</time></trkpt><trkpt lat="45.73837562356584" lon="13.928587368251373"><ele>353.3333333333333</ele><time>2026-05-02T14:08:08Z</time></trkpt><trkpt lat="45.738325021620625" lon="13.928510138916963"><ele>353.0</ele><time>2026-05-02T14:08:09Z</time></trkpt><trkpt lat="45.738279208614586" lon="13.92843614974141"><ele>352.66666666666663</ele><time>2026-05-02T14:08:10Z</time></trkpt><trkpt lat="45.73823225651232" lon="13.928364067687026"><ele>352.3333333333333</ele><time>2026-05-02T14:08:11Z</time></trkpt><trkpt lat="45.738187908571675" lon="13.928297614520948"><ele>352.0</ele><time>2026-05-02T14:08:12Z</time></trkpt><trkpt lat="45.73810474189163" lon="13.92818004177302"><ele>351.40000000000003</ele><time>2026-05-02T14:08:14Z</time></trkpt><trkpt lat="45.73805985705434" lon="13.928100468064715"><ele>350.8</ele><time>2026-05-02T14:08:16Z</time></trkpt><trkpt lat="45.73815191636202" lon="13.927963698651087"><ele>350.2</ele><time>2026-05-02T14:08:19Z</time></trkpt><trkpt lat="45.73816121939598" lon="13.92778176866661"><ele>349.6</ele><time>2026-05-02T14:08:21Z</time></trkpt><trkpt lat="45.73817106258708" lon="13.927672915466426"><ele>349.0</ele><time>2026-05-02T14:08:22Z</time></trkpt><trkpt lat="45.73818553441708" lon="13.927570808893739"><ele>349.0</ele><time>2026-05-02T14:08:23Z</time></trkpt><trkpt lat="45.73821724937842" lon="13.92743506596619"><ele>349.0</ele><time>2026-05-02T14:08:25Z</time></trkpt><trkpt lat="45.738280734609475" lon="13.927405827140532"><ele>349.0</ele><time>2026-05-02T14:08:28Z</time></trkpt><trkpt lat="45.738374675827565" lon="13.927407231629823"><ele>349.0</ele><time>2026-05-02T14:08:35.999Z</time></trkpt><trkpt lat="45.738448697727854" lon="13.927387526339801"><ele>349.0</ele><time>2026-05-02T14:08:37.999Z</time></trkpt><trkpt lat="45.73853779439157" lon="13.927367350285891"><ele>349.0</ele><time>2026-05-02T14:08:40.999Z</time></trkpt><trkpt lat="45.738610009056615" lon="13.927359468709975"><ele>349.0</ele><time>2026-05-02T14:08:43.999Z</time></trkpt><trkpt lat="45.738643635669455" lon="13.927502593794985"><ele>349.0</ele><time>2026-05-02T14:08:44.999Z</time></trkpt><trkpt lat="45.738601141142226" lon="13.927620217627732"><ele>349.0</ele><time>2026-05-02T14:08:47.999Z</time></trkpt><trkpt lat="45.73859058372768" lon="13.927717998232781"><ele>349.0</ele><time>2026-05-02T14:08:48.999Z</time></trkpt><trkpt lat="45.738598723199964" lon="13.92782019234138"><ele>349.0</ele><time>2026-05-02T14:08:49.999Z</time></trkpt><trkpt lat="45.73859188757057" lon="13.927945205054325"><ele>349.0</ele><time>2026-05-02T14:08:51.999Z</time></trkpt><trkpt lat="45.73860842999112" lon="13.928050592933156"><ele>349.6</ele><time>2026-05-02T14:08:54.999Z</time></trkpt><trkpt lat="45.73867575536107" lon="13.928122322838195"><ele>350.2</ele><time>2026-05-02T14:09:00.999Z</time></trkpt><trkpt lat="45.738745033587755" lon="13.928210970850014"><ele>350.8</ele><time>2026-05-02T14:09:02.999Z</time></trkpt><trkpt lat="45.73885021929608" lon="13.928074547384698"><ele>351.40000000000003</ele><time>2026-05-02T14:09:03.999Z</time></trkpt><trkpt lat="45.738912377980355" lon="13.92803948938419"><ele>352.0</ele><time>2026-05-02T14:09:04.999Z</time></trkpt><trkpt lat="45.738976029770924" lon="13.927997181692428"><ele>352.0</ele><time>2026-05-02T14:09:05.999Z</time></trkpt><trkpt lat="45.73903679219886" lon="13.927971945734159"><ele>352.0</ele><time>2026-05-02T14:09:06.999Z</time></trkpt><trkpt lat="45.73914889310757" lon="13.927931475931574"><ele>352.0</ele><time>2026-05-02T14:09:08.999Z</time></trkpt><trkpt lat="45.73925946184337" lon="13.92790948611649"><ele>352.0</ele><time>2026-05-02T14:09:10.998Z</time></trkpt><trkpt lat="45.73935140683965" lon="13.927880952797329"><ele>352.0</ele><time>2026-05-02T14:09:12.998Z</time></trkpt><trkpt lat="45.739459801185546" lon="13.927854681534722"><ele>352.75</ele><time>2026-05-02T14:09:14.998Z</time></trkpt><trkpt lat="45.73958071394704" lon="13.927838315539566"><ele>353.5</ele><time>2026-05-02T14:09:16.998Z</time></trkpt><trkpt lat="45.73969997916351" lon="13.927801445657078"><ele>354.25</ele><time>2026-05-02T14:09:18.998Z</time></trkpt><trkpt lat="45.73981923856665" lon="13.927786858440792"><ele>355.0</ele><time>2026-05-02T14:09:20.998Z</time></trkpt><trkpt lat="45.73993614013078" lon="13.927754946791298"><ele>355.0</ele><time>2026-05-02T14:09:22.998Z</time></trkpt><trkpt lat="45.74004430911743" lon="13.927727528293227"><ele>355.0</ele><time>2026-05-02T14:09:24.998Z</time></trkpt><trkpt lat="45.740137185200986" lon="13.927651872566926"><ele>355.0</ele><time>2026-05-02T14:09:26.998Z</time></trkpt><trkpt lat="45.74020766516788" lon="13.927548187366485"><ele>355.0</ele><time>2026-05-02T14:09:28.998Z</time></trkpt><trkpt lat="45.74028941328171" lon="13.927454707329032"><ele>355.0</ele><time>2026-05-02T14:09:30.998Z</time></trkpt><trkpt lat="45.740349629328065" lon="13.927418464401134"><ele>354.66666666666663</ele><time>2026-05-02T14:09:31.998Z</time></trkpt><trkpt lat="45.74041990049776" lon="13.927399988290059"><ele>354.3333333333333</ele><time>2026-05-02T14:09:32.998Z</time></trkpt><trkpt lat="45.7404886756288" lon="13.927367322861267"><ele>354.0</ele><time>2026-05-02T14:09:33.998Z</time></trkpt><trkpt lat="45.740566817270825" lon="13.927331289612633"><ele>353.6666666666667</ele><time>2026-05-02T14:09:34.998Z</time></trkpt><trkpt lat="45.74064448448808" lon="13.927303344993092"><ele>353.33333333333337</ele><time>2026-05-02T14:09:35.998Z</time></trkpt><trkpt lat="45.74071471088869" lon="13.927283064566188"><ele>353.0</ele><time>2026-05-02T14:09:36.998Z</time></trkpt><trkpt lat="45.74081439580631" lon="13.927272969869518"><ele>353.0</ele><time>2026-05-02T14:09:38.998Z</time></trkpt><trkpt lat="45.740892980040044" lon="13.927272969868419"><ele>353.0</ele><time>2026-05-02T14:09:40.998Z</time></trkpt><trkpt lat="45.74097914692306" lon="13.92713380624182"><ele>353.0</ele><time>2026-05-02T14:09:42.998Z</time></trkpt><trkpt lat="45.74113759405627" lon="13.927039059644082"><ele>353.0</ele><time>2026-05-02T14:09:45.998Z</time></trkpt><trkpt lat="45.74120297615856" lon="13.926977174099488"><ele>353.0</ele><time>2026-05-02T14:09:46.997Z</time></trkpt><trkpt lat="45.74126251641883" lon="13.926922296201598"><ele>353.0</ele><time>2026-05-02T14:09:47.997Z</time></trkpt><trkpt lat="45.741369012965514" lon="13.926819432185065"><ele>353.0</ele><time>2026-05-02T14:09:49.997Z</time></trkpt><trkpt lat="45.741423905210006" lon="13.926766412292386"><ele>353.0</ele><time>2026-05-02T14:09:50.997Z</time></trkpt><trkpt lat="45.741489605602304" lon="13.926702952899927"><ele>353.0</ele><time>2026-05-02T14:09:51.997Z</time></trkpt><trkpt lat="45.74156676081376" lon="13.926628429393682"><ele>353.0</ele><time>2026-05-02T14:09:52.997Z</time></trkpt><trkpt lat="45.74163523901683" lon="13.926562286952201"><ele>353.0</ele><time>2026-05-02T14:09:53.997Z</time></trkpt><trkpt lat="45.74169582611997" lon="13.926503766436234"><ele>353.0</ele><time>2026-05-02T14:09:54.997Z</time></trkpt><trkpt lat="45.741750792114814" lon="13.926450675294932"><ele>353.0</ele><time>2026-05-02T14:09:55.997Z</time></trkpt><trkpt lat="45.741797712836615" lon="13.926379374806476"><ele>353.0</ele><time>2026-05-02T14:09:56.997Z</time></trkpt><trkpt lat="45.741855247366374" lon="13.926337073054478"><ele>353.0</ele><time>2026-05-02T14:09:57.997Z</time></trkpt><trkpt lat="45.74192175802638" lon="13.926299876014982"><ele>353.0</ele><time>2026-05-02T14:09:58.997Z</time></trkpt><trkpt lat="45.741989671144154" lon="13.926261736109904"><ele>353.0</ele><time>2026-05-02T14:09:59.997Z</time></trkpt><trkpt lat="45.74205366741719" lon="13.926201238238228"><ele>353.2</ele><time>2026-05-02T14:10:00.997Z</time></trkpt><trkpt lat="45.74212180561667" lon="13.926149776578887"><ele>353.4</ele><time>2026-05-02T14:10:01.997Z</time></trkpt><trkpt lat="45.74218549422353" lon="13.926095795163151"><ele>353.59999999999997</ele><time>2026-05-02T14:10:02.997Z</time></trkpt><trkpt lat="45.74224562925782" lon="13.926042287849642"><ele>353.79999999999995</ele><time>2026-05-02T14:10:03.997Z</time></trkpt><trkpt lat="45.74234822789202" lon="13.92595002897957"><ele>354.0</ele><time>2026-05-02T14:10:05.997Z</time></trkpt><trkpt lat="45.74244497262576" lon="13.925863033844522"><ele>354.0</ele><time>2026-05-02T14:10:08Z</time></trkpt><trkpt lat="45.742476034304936" lon="13.925758666445109"><ele>354.0</ele><time>2026-05-02T14:10:09Z</time></trkpt><trkpt lat="45.74252558682526" lon="13.925607873906602"><ele>354.0</ele><time>2026-05-02T14:10:11Z</time></trkpt><trkpt lat="45.74258420913516" lon="13.925443574320983"><ele>354.0</ele><time>2026-05-02T14:10:13Z</time></trkpt><trkpt lat="45.74262475250551" lon="13.9253573434903"><ele>354.0</ele><time>2026-05-02T14:10:14Z</time></trkpt><trkpt lat="45.74264681791074" lon="13.92526080731073"><ele>354.0</ele><time>2026-05-02T14:10:15Z</time></trkpt><trkpt lat="45.742664832514336" lon="13.925153464703644"><ele>354.0</ele><time>2026-05-02T14:10:16Z</time></trkpt><trkpt lat="45.74267339262459" lon="13.92503977016014"><ele>354.0</ele><time>2026-05-02T14:10:17Z</time></trkpt><trkpt lat="45.74268247579136" lon="13.924938110239365"><ele>354.0</ele><time>2026-05-02T14:10:18Z</time></trkpt><trkpt lat="45.742694747879426" lon="13.924837150988777"><ele>354.0</ele><time>2026-05-02T14:10:19Z</time></trkpt><trkpt lat="45.74271821864305" lon="13.924741345607657"><ele>354.0</ele><time>2026-05-02T14:10:20Z</time></trkpt><trkpt lat="45.742744650605665" lon="13.924640089471714"><ele>354.0</ele><time>2026-05-02T14:10:21Z</time></trkpt><trkpt lat="45.74277488308772" lon="13.924526222049879"><ele>353.5</ele><time>2026-05-02T14:10:22Z</time></trkpt><trkpt lat="45.74280613859346" lon="13.924413519597543"><ele>353.0</ele><time>2026-05-02T14:10:23Z</time></trkpt><trkpt lat="45.74284074863295" lon="13.92429031196604"><ele>352.5</ele><time>2026-05-02T14:10:24Z</time></trkpt><trkpt lat="45.74287416503518" lon="13.924171353589099"><ele>352.0</ele><time>2026-05-02T14:10:25Z</time></trkpt><trkpt lat="45.742906234332544" lon="13.924064574219141"><ele>351.5</ele><time>2026-05-02T14:10:26Z</time></trkpt><trkpt lat="45.74294081419444" lon="13.92396021024413"><ele>351.0</ele><time>2026-05-02T14:10:27Z</time></trkpt><trkpt lat="45.742973732916965" lon="13.923860859719152"><ele>350.3333333333333</ele><time>2026-05-02T14:10:28Z</time></trkpt><trkpt lat="45.743002246356106" lon="13.923756420519837"><ele>349.6666666666667</ele><time>2026-05-02T14:10:29Z</time></trkpt><trkpt lat="45.743022407555365" lon="13.923653396197036"><ele>349.0</ele><time>2026-05-02T14:10:30Z</time></trkpt><trkpt lat="45.74301683974049" lon="13.923544558894191"><ele>348.33333333333337</ele><time>2026-05-02T14:10:31Z</time></trkpt><trkpt lat="45.743021086300004" lon="13.923372147964189"><ele>347.6666666666667</ele><time>2026-05-02T14:10:33Z</time></trkpt><trkpt lat="45.74304146017673" lon="13.92324552618253"><ele>347.0</ele><time>2026-05-02T14:10:35Z</time></trkpt><trkpt lat="45.74310635329757" lon="13.923092970025094"><ele>346.6666666666667</ele><time>2026-05-02T14:10:36.999Z</time></trkpt><trkpt lat="45.74313371528592" lon="13.923003776196262"><ele>346.33333333333337</ele><time>2026-05-02T14:10:37.999Z</time></trkpt><trkpt lat="45.74319262962501" lon="13.9228649721475"><ele>346.0</ele><time>2026-05-02T14:10:39.999Z</time></trkpt><trkpt lat="45.743242338775474" lon="13.92280582199331"><ele>345.6666666666667</ele><time>2026-05-02T14:10:41.999Z</time></trkpt><trkpt lat="45.743300479709106" lon="13.92276650626269"><ele>345.3333333333333</ele><time>2026-05-02T14:10:43.999Z</time></trkpt><trkpt lat="45.74336802028434" lon="13.922684024803116"><ele>345.0</ele><time>2026-05-02T14:10:45.999Z</time></trkpt><trkpt lat="45.74343800891137" lon="13.922598553961622"><ele>344.8</ele><time>2026-05-02T14:10:47.999Z</time></trkpt><trkpt lat="45.74351743716805" lon="13.922501555284859"><ele>344.6</ele><time>2026-05-02T14:10:49.999Z</time></trkpt><trkpt lat="45.743614872169644" lon="13.922382566657804"><ele>344.4</ele><time>2026-05-02T14:10:51.999Z</time></trkpt><trkpt lat="45.74369092475481" lon="13.922276503804188"><ele>344.2</ele><time>2026-05-02T14:10:53.999Z</time></trkpt><trkpt lat="45.743760106009404" lon="13.922182339927394"><ele>344.0</ele><time>2026-05-02T14:10:55.999Z</time></trkpt><trkpt lat="45.74381508011002" lon="13.922115054697231"><ele>344.0</ele><time>2026-05-02T14:11:00.999Z</time></trkpt><trkpt lat="45.743864732085065" lon="13.922030559530505"><ele>344.0</ele><time>2026-05-02T14:11:04.999Z</time></trkpt><trkpt lat="45.74371687242384" lon="13.921800347147167"><ele>344.0</ele><time>2026-05-02T14:11:20.998Z</time></trkpt><trkpt lat="45.743731847041325" lon="13.921912878597624"><ele>344.0</ele><time>2026-05-02T14:11:33.998Z</time></trkpt><trkpt lat="45.74374069773615" lon="13.922025959128364"><ele>344.0</ele><time>2026-05-02T14:11:35.998Z</time></trkpt><trkpt lat="45.74373865490155" lon="13.922117734221327"><ele>344.0</ele><time>2026-05-02T14:11:37.998Z</time></trkpt><trkpt lat="45.74380100200129" lon="13.922099365333997"><ele>344.0</ele><time>2026-05-02T14:11:46.998Z</time></trkpt><trkpt lat="45.743855396365674" lon="13.92201435862149"><ele>344.0</ele><time>2026-05-02T14:11:48.998Z</time></trkpt><trkpt lat="45.743932777621396" lon="13.921912220480781"><ele>344.0</ele><time>2026-05-02T14:11:50.998Z</time></trkpt><trkpt lat="45.744007127534516" lon="13.921799135421596"><ele>344.0</ele><time>2026-05-02T14:11:52.998Z</time></trkpt><trkpt lat="45.74408258608436" lon="13.921725168693367"><ele>344.0</ele><time>2026-05-02T14:11:54.997Z</time></trkpt><trkpt lat="45.74413273300892" lon="13.921603471575715"><ele>344.0</ele><time>2026-05-02T14:11:56.997Z</time></trkpt><trkpt lat="45.74417465186569" lon="13.921516578457275"><ele>344.0</ele><time>2026-05-02T14:11:58.997Z</time></trkpt><trkpt lat="45.744220660917534" lon="13.921412472622041"><ele>344.0</ele><time>2026-05-02T14:12:00.997Z</time></trkpt><trkpt lat="45.74425490507143" lon="13.921306635316853"><ele>344.0</ele><time>2026-05-02T14:12:02.997Z</time></trkpt><trkpt lat="45.744273799149994" lon="13.92118395990152"><ele>344.0</ele><time>2026-05-02T14:12:04.997Z</time></trkpt><trkpt lat="45.74428793002356" lon="13.9210662185271"><ele>344.0</ele><time>2026-05-02T14:12:06.997Z</time></trkpt><trkpt lat="45.74429538132293" lon="13.920942519927792"><ele>344.0</ele><time>2026-05-02T14:12:08.997Z</time></trkpt><trkpt lat="45.744297190053786" lon="13.920801343675814"><ele>344.0</ele><time>2026-05-02T14:12:10.997Z</time></trkpt><trkpt lat="45.74431460263454" lon="13.920655808967009"><ele>344.0</ele><time>2026-05-02T14:12:12.997Z</time></trkpt><trkpt lat="45.74433409798227" lon="13.920518947812477"><ele>344.0</ele><time>2026-05-02T14:12:15Z</time></trkpt><trkpt lat="45.744347967505405" lon="13.92039031210327"><ele>344.0</ele><time>2026-05-02T14:12:17Z</time></trkpt><trkpt lat="45.74435984643087" lon="13.920273065353177"><ele>344.0</ele><time>2026-05-02T14:12:19Z</time></trkpt><trkpt lat="45.74437577850858" lon="13.920137017071847"><ele>344.0</ele><time>2026-05-02T14:12:21Z</time></trkpt><trkpt lat="45.74441725355651" lon="13.920017504568179"><ele>344.0</ele><time>2026-05-02T14:12:23Z</time></trkpt><trkpt lat="45.74447921265976" lon="13.919885074537214"><ele>344.0</ele><time>2026-05-02T14:12:25Z</time></trkpt><trkpt lat="45.74455053566656" lon="13.919762560254147"><ele>344.4</ele><time>2026-05-02T14:12:27Z</time></trkpt><trkpt lat="45.74460740679194" lon="13.919652283150889"><ele>344.79999999999995</ele><time>2026-05-02T14:12:29Z</time></trkpt><trkpt lat="45.744629901193576" lon="13.919521295343102"><ele>345.20000000000005</ele><time>2026-05-02T14:12:31Z</time></trkpt><trkpt lat="45.74465765257833" lon="13.919393787727502"><ele>345.6</ele><time>2026-05-02T14:12:33Z</time></trkpt><trkpt lat="45.74467730092004" lon="13.919298428334326"><ele>346.0</ele><time>2026-05-02T14:12:34Z</time></trkpt><trkpt lat="45.74471339203387" lon="13.919148984168501"><ele>348.20000000000005</ele><time>2026-05-02T14:12:36Z</time></trkpt><trkpt lat="45.74473696663322" lon="13.91900618741611"><ele>350.40000000000003</ele><time>2026-05-02T14:12:38Z</time></trkpt><trkpt lat="45.7447539704135" lon="13.91891883242929"><ele>352.6</ele><time>2026-05-02T14:12:39Z</time></trkpt><trkpt lat="45.74479347479593" lon="13.91881476582291"><ele>354.8</ele><time>2026-05-02T14:12:41Z</time></trkpt><trkpt lat="45.74482829845683" lon="13.918679576300889"><ele>357.0</ele><time>2026-05-02T14:12:43Z</time></trkpt><trkpt lat="45.744856248515056" lon="13.91852078271081"><ele>357.0</ele><time>2026-05-02T14:12:44.999Z</time></trkpt><trkpt lat="45.744890410125684" lon="13.918416872870623"><ele>357.0</ele><time>2026-05-02T14:12:45.999Z</time></trkpt><trkpt lat="45.744920806183664" lon="13.918312439254306"><ele>357.0</ele><time>2026-05-02T14:12:46.999Z</time></trkpt><trkpt lat="45.74495274701701" lon="13.918205255756108"><ele>357.0</ele><time>2026-05-02T14:12:47.999Z</time></trkpt><trkpt lat="45.74498499475756" lon="13.91808401490731"><ele>357.0</ele><time>2026-05-02T14:12:48.999Z</time></trkpt><trkpt lat="45.7450089602828" lon="13.917988198719899"><ele>357.0</ele><time>2026-05-02T14:12:49.999Z</time></trkpt><trkpt lat="45.74504446177096" lon="13.917855613552955"><ele>357.5</ele><time>2026-05-02T14:12:51.999Z</time></trkpt><trkpt lat="45.745084453616144" lon="13.917754330455496"><ele>358.0</ele><time>2026-05-02T14:12:53.999Z</time></trkpt><trkpt lat="45.745117129935885" lon="13.917668425569573"><ele>358.5</ele><time>2026-05-02T14:13:06.999Z</time></trkpt><trkpt lat="45.74513615061441" lon="13.917577344099364"><ele>359.0</ele><time>2026-05-02T14:13:09.999Z</time></trkpt><trkpt lat="45.74515628670685" lon="13.917419175375882"><ele>359.5</ele><time>2026-05-02T14:13:11.999Z</time></trkpt><trkpt lat="45.745164509197814" lon="13.91732605276655"><ele>360.0</ele><time>2026-05-02T14:13:12.999Z</time></trkpt><trkpt lat="45.745180558123" lon="13.917147846423388"><ele>360.57142857142856</ele><time>2026-05-02T14:13:14.999Z</time></trkpt><trkpt lat="45.74517744277161" lon="13.917057158475776"><ele>361.14285714285717</ele><time>2026-05-02T14:13:15.999Z</time></trkpt><trkpt lat="45.74517631508338" lon="13.916960774437442"><ele>361.7142857142857</ele><time>2026-05-02T14:13:16.999Z</time></trkpt><trkpt lat="45.745173094136454" lon="13.916858901326755"><ele>362.2857142857143</ele><time>2026-05-02T14:13:17.999Z</time></trkpt><trkpt lat="45.745169388511215" lon="13.916761011993588"><ele>362.8571428571429</ele><time>2026-05-02T14:13:18.999Z</time></trkpt><trkpt lat="45.74517545025312" lon="13.916670252221135"><ele>363.42857142857144</ele><time>2026-05-02T14:13:19.999Z</time></trkpt><trkpt lat="45.74518179138185" lon="13.916562638597421"><ele>364.0</ele><time>2026-05-02T14:13:20.999Z</time></trkpt><trkpt lat="45.7451866322697" lon="13.916457599564804"><ele>364.57142857142856</ele><time>2026-05-02T14:13:21.999Z</time></trkpt><trkpt lat="45.74518885849808" lon="13.916357900287476"><ele>365.1428571428571</ele><time>2026-05-02T14:13:22.999Z</time></trkpt><trkpt lat="45.74518840872351" lon="13.916249065025713"><ele>365.7142857142857</ele><time>2026-05-02T14:13:23.999Z</time></trkpt><trkpt lat="45.74518843915873" lon="13.916153767455361"><ele>366.2857142857143</ele><time>2026-05-02T14:13:24.998Z</time></trkpt><trkpt lat="45.74519373951774" lon="13.916025915320926"><ele>366.85714285714283</ele><time>2026-05-02T14:13:25.998Z</time></trkpt><trkpt lat="45.74519947447047" lon="13.915919769742182"><ele>367.42857142857144</ele><time>2026-05-02T14:13:26.998Z</time></trkpt><trkpt lat="45.74519989498388" lon="13.915825552574233"><ele>368.0</ele><time>2026-05-02T14:13:27.998Z</time></trkpt><trkpt lat="45.74520525586917" lon="13.915734759470482"><ele>368.0</ele><time>2026-05-02T14:13:28.998Z</time></trkpt><trkpt lat="45.74521303653802" lon="13.915628167576378"><ele>368.0</ele><time>2026-05-02T14:13:29.998Z</time></trkpt><trkpt lat="45.74522230192313" lon="13.915528101403808"><ele>368.0</ele><time>2026-05-02T14:13:30.998Z</time></trkpt><trkpt lat="45.74521186042853" lon="13.915429877690102"><ele>368.0</ele><time>2026-05-02T14:13:31.998Z</time></trkpt><trkpt lat="45.745202929764844" lon="13.91533011655064"><ele>368.0</ele><time>2026-05-02T14:13:32.998Z</time></trkpt><trkpt lat="45.7451786090411" lon="13.915143007493828"><ele>368.0</ele><time>2026-05-02T14:13:34.998Z</time></trkpt><trkpt lat="45.74516462107995" lon="13.915040561152049"><ele>368.0</ele><time>2026-05-02T14:13:35.998Z</time></trkpt><trkpt lat="45.74515966475029" lon="13.91487135591866"><ele>368.0</ele><time>2026-05-02T14:13:37.998Z</time></trkpt><trkpt lat="45.74515600953327" lon="13.914776870813691"><ele>368.0</ele><time>2026-05-02T14:13:38.998Z</time></trkpt><trkpt lat="45.74515484376701" lon="13.91459582194824"><ele>368.0</ele><time>2026-05-02T14:13:40.998Z</time></trkpt><trkpt lat="45.74516200712974" lon="13.91450300576675"><ele>368.0</ele><time>2026-05-02T14:13:41.998Z</time></trkpt><trkpt lat="45.74516104474685" lon="13.914392422091348"><ele>368.0</ele><time>2026-05-02T14:13:42.998Z</time></trkpt><trkpt lat="45.745176838658935" lon="13.914280569094812"><ele>368.0</ele><time>2026-05-02T14:13:43.998Z</time></trkpt><trkpt lat="45.74519482230846" lon="13.914186652358158"><ele>368.0</ele><time>2026-05-02T14:13:44.998Z</time></trkpt><trkpt lat="45.74520692582034" lon="13.914091002261976"><ele>368.0</ele><time>2026-05-02T14:13:45.998Z</time></trkpt><trkpt lat="45.745228473187616" lon="13.913914673520372"><ele>368.0</ele><time>2026-05-02T14:13:47.998Z</time></trkpt><trkpt lat="45.745241436896805" lon="13.91373771994765"><ele>367.0</ele><time>2026-05-02T14:13:49.998Z</time></trkpt><trkpt lat="45.74525227547398" lon="13.913555665631549"><ele>366.0</ele><time>2026-05-02T14:13:51.998Z</time></trkpt><trkpt lat="45.74525171878579" lon="13.913386659192579"><ele>365.0</ele><time>2026-05-02T14:13:53.998Z</time></trkpt><trkpt lat="45.74527075319785" lon="13.913248462399592"><ele>364.0</ele><time>2026-05-02T14:13:55.998Z</time></trkpt><trkpt lat="45.74526657154328" lon="13.91306782266025"><ele>363.16666666666663</ele><time>2026-05-02T14:13:57.998Z</time></trkpt><trkpt lat="45.74527159361688" lon="13.91295730316541"><ele>362.3333333333333</ele><time>2026-05-02T14:13:58.998Z</time></trkpt><trkpt lat="45.74526937218743" lon="13.912858754089939"><ele>361.5</ele><time>2026-05-02T14:13:59.998Z</time></trkpt><trkpt lat="45.74528754399693" lon="13.91273810812908"><ele>360.6666666666667</ele><time>2026-05-02T14:14:00.998Z</time></trkpt><trkpt lat="45.74529357410581" lon="13.912631003052942"><ele>359.83333333333337</ele><time>2026-05-02T14:14:01.998Z</time></trkpt><trkpt lat="45.74530098518496" lon="13.91252395907979"><ele>359.0</ele><time>2026-05-02T14:14:02.998Z</time></trkpt><trkpt lat="45.7453090119641" lon="13.912413624397907"><ele>358.57142857142856</ele><time>2026-05-02T14:14:03.997Z</time></trkpt><trkpt lat="45.74531824737528" lon="13.912311155332585"><ele>358.14285714285717</ele><time>2026-05-02T14:14:04.997Z</time></trkpt><trkpt lat="45.74532708566977" lon="13.912219560161235"><ele>357.71428571428567</ele><time>2026-05-02T14:14:05.997Z</time></trkpt><trkpt lat="45.745339413287056" lon="13.912119113937482"><ele>357.2857142857143</ele><time>2026-05-02T14:14:06.997Z</time></trkpt><trkpt lat="45.745353072256776" lon="13.912024790234542"><ele>356.85714285714283</ele><time>2026-05-02T14:14:07.997Z</time></trkpt><trkpt lat="45.74535376395173" lon="13.911915953583893"><ele>356.4285714285714</ele><time>2026-05-02T14:14:08.997Z</time></trkpt><trkpt lat="45.74538639452226" lon="13.911814620787798"><ele>356.0</ele><time>2026-05-02T14:14:09.997Z</time></trkpt><trkpt lat="45.745405210866416" lon="13.91171116314437"><ele>356.0</ele><time>2026-05-02T14:14:10.997Z</time></trkpt><trkpt lat="45.74541251628415" lon="13.911584548949307"><ele>356.0</ele><time>2026-05-02T14:14:11.997Z</time></trkpt><trkpt lat="45.74543831067287" lon="13.911455946082777"><ele>356.0</ele><time>2026-05-02T14:14:12.997Z</time></trkpt><trkpt lat="45.74545986377733" lon="13.911345247536998"><ele>356.0</ele><time>2026-05-02T14:14:13.997Z</time></trkpt><trkpt lat="45.7454796301256" lon="13.91124415343237"><ele>356.0</ele><time>2026-05-02T14:14:14.997Z</time></trkpt><trkpt lat="45.745499530630134" lon="13.911152170748275"><ele>356.0</ele><time>2026-05-02T14:14:15.997Z</time></trkpt><trkpt lat="45.745515096349" lon="13.9110607605391"><ele>355.99999999999994</ele><time>2026-05-02T14:14:16.997Z</time></trkpt><trkpt lat="45.745527270868294" lon="13.910961548104465"><ele>356.0</ele><time>2026-05-02T14:14:17.997Z</time></trkpt><trkpt lat="45.74554577392319" lon="13.91085919267515"><ele>356.0</ele><time>2026-05-02T14:14:18.997Z</time></trkpt><trkpt lat="45.7455663636928" lon="13.910764981260106"><ele>356.0</ele><time>2026-05-02T14:14:20Z</time></trkpt><trkpt lat="45.745579674504214" lon="13.910673076311838"><ele>356.0</ele><time>2026-05-02T14:14:21Z</time></trkpt><trkpt lat="45.74554984377923" lon="13.910581252816904"><ele>355.99999999999994</ele><time>2026-05-02T14:14:22Z</time></trkpt><trkpt lat="45.74554984377835" lon="13.91048918986938"><ele>356.0</ele><time>2026-05-02T14:14:23Z</time></trkpt><trkpt lat="45.745549725406704" lon="13.910331166226031"><ele>356.5</ele><time>2026-05-02T14:14:25Z</time></trkpt><trkpt lat="45.74559542555922" lon="13.910183599105732"><ele>357.0</ele><time>2026-05-02T14:14:27Z</time></trkpt><trkpt lat="45.74560469409221" lon="13.910079310481182"><ele>357.5</ele><time>2026-05-02T14:14:28Z</time></trkpt><trkpt lat="45.74563854626649" lon="13.909964319290303"><ele>358.0</ele><time>2026-05-02T14:14:29Z</time></trkpt><trkpt lat="45.74565753430621" lon="13.909872960759168"><ele>358.5</ele><time>2026-05-02T14:14:30Z</time></trkpt><trkpt lat="45.74568573689298" lon="13.909779894659469"><ele>359.0</ele><time>2026-05-02T14:14:31Z</time></trkpt><trkpt lat="45.745721593720944" lon="13.909666320529919"><ele>359.0</ele><time>2026-05-02T14:14:32Z</time></trkpt><trkpt lat="45.745747788042614" lon="13.909569038189046"><ele>359.0</ele><time>2026-05-02T14:14:33Z</time></trkpt><trkpt lat="45.74579172269926" lon="13.909413778384"><ele>359.0</ele><time>2026-05-02T14:14:35Z</time></trkpt><trkpt lat="45.74581908938892" lon="13.909255103405604"><ele>359.0</ele><time>2026-05-02T14:14:37Z</time></trkpt><trkpt lat="45.74584224491279" lon="13.909168660285212"><ele>359.0</ele><time>2026-05-02T14:14:38Z</time></trkpt><trkpt lat="45.74588058852232" lon="13.909084310687927"><ele>359.0</ele><time>2026-05-02T14:14:39Z</time></trkpt><trkpt lat="45.74588725712403" lon="13.908993539160118"><ele>359.0</ele><time>2026-05-02T14:14:40Z</time></trkpt><trkpt lat="45.745930788732544" lon="13.908868991104297"><ele>359.0</ele><time>2026-05-02T14:14:42Z</time></trkpt><trkpt lat="45.7459326329355" lon="13.908735522413542"><ele>359.0</ele><time>2026-05-02T14:14:44Z</time></trkpt><trkpt lat="45.745950862416564" lon="13.908640348734203"><ele>359.0</ele><time>2026-05-02T14:14:46Z</time></trkpt><trkpt lat="45.745930566228736" lon="13.908535618196755"><ele>359.0</ele><time>2026-05-02T14:14:48Z</time></trkpt><trkpt lat="45.745892748354905" lon="13.908462243708273"><ele>359.0</ele><time>2026-05-02T14:14:50Z</time></trkpt><trkpt lat="45.74592390503979" lon="13.908332130482385"><ele>358.83333333333337</ele><time>2026-05-02T14:14:53.999Z</time></trkpt><trkpt lat="45.74598235662166" lon="13.908229651330599"><ele>358.6666666666667</ele><time>2026-05-02T14:14:55.999Z</time></trkpt><trkpt lat="45.746032737245365" lon="13.908138072258204"><ele>358.5</ele><time>2026-05-02T14:14:57.999Z</time></trkpt><trkpt lat="45.74607374577939" lon="13.90804447154794"><ele>358.3333333333333</ele><time>2026-05-02T14:14:59.999Z</time></trkpt><trkpt lat="45.74611705763128" lon="13.907947142926817"><ele>358.16666666666663</ele><time>2026-05-02T14:15:01.999Z</time></trkpt><trkpt lat="45.7461543702127" lon="13.90783553044869"><ele>358.0</ele><time>2026-05-02T14:15:03.999Z</time></trkpt><trkpt lat="45.746163839415054" lon="13.907717834876104"><ele>358.0</ele><time>2026-05-02T14:15:05.999Z</time></trkpt><trkpt lat="45.74618090366349" lon="13.907587892972948"><ele>358.0</ele><time>2026-05-02T14:15:07.999Z</time></trkpt><trkpt lat="45.74618009649599" lon="13.907466650554369"><ele>358.0</ele><time>2026-05-02T14:15:09.999Z</time></trkpt><trkpt lat="45.74619216559479" lon="13.907345723858477"><ele>358.0</ele><time>2026-05-02T14:15:11.999Z</time></trkpt><trkpt lat="45.7462018967055" lon="13.907220228328587"><ele>358.0</ele><time>2026-05-02T14:15:13.999Z</time></trkpt><trkpt lat="45.74621781228067" lon="13.90710550388003"><ele>358.0</ele><time>2026-05-02T14:15:15.999Z</time></trkpt><trkpt lat="45.74620976415963" lon="13.9069867484191"><ele>357.3333333333333</ele><time>2026-05-02T14:15:17.999Z</time></trkpt><trkpt lat="45.746207553963295" lon="13.906865263787584"><ele>356.66666666666663</ele><time>2026-05-02T14:15:19.999Z</time></trkpt><trkpt lat="45.74621696154539" lon="13.906750809449123"><ele>356.0</ele><time>2026-05-02T14:15:21.999Z</time></trkpt><trkpt lat="45.74620330191853" lon="13.906640321892143"><ele>355.3333333333333</ele><time>2026-05-02T14:15:23.999Z</time></trkpt><trkpt lat="45.74620263574765" lon="13.906523913200783"><ele>354.6666666666667</ele><time>2026-05-02T14:15:25.999Z</time></trkpt><trkpt lat="45.74618264640764" lon="13.906396726135858"><ele>354.0</ele><time>2026-05-02T14:15:27.999Z</time></trkpt><trkpt lat="45.74615600725467" lon="13.906254263679076"><ele>353.3333333333333</ele><time>2026-05-02T14:15:29.998Z</time></trkpt><trkpt lat="45.74613818122811" lon="13.906117914320326"><ele>352.6666666666667</ele><time>2026-05-02T14:15:31.998Z</time></trkpt><trkpt lat="45.74608743343913" lon="13.90602758691004"><ele>352.0</ele><time>2026-05-02T14:15:33.998Z</time></trkpt><trkpt lat="45.746021961571174" lon="13.905989869479845"><ele>351.33333333333337</ele><time>2026-05-02T14:15:35.998Z</time></trkpt><trkpt lat="45.745991749968795" lon="13.905867817310195"><ele>350.6666666666667</ele><time>2026-05-02T14:15:37.998Z</time></trkpt><trkpt lat="45.7459776350512" lon="13.905763678240243"><ele>350.0</ele><time>2026-05-02T14:15:38.998Z</time></trkpt><trkpt lat="45.745969816751234" lon="13.905645001821862"><ele>349.8</ele><time>2026-05-02T14:15:39.998Z</time></trkpt><trkpt lat="45.74597094924385" lon="13.905541199675312"><ele>349.6</ele><time>2026-05-02T14:15:40.998Z</time></trkpt><trkpt lat="45.74596580392812" lon="13.905370677614428"><ele>349.4</ele><time>2026-05-02T14:15:42.998Z</time></trkpt><trkpt lat="45.74597578929843" lon="13.90520725007096"><ele>349.2</ele><time>2026-05-02T14:15:44.998Z</time></trkpt><trkpt lat="45.74595190170533" lon="13.905043241531176"><ele>349.0</ele><time>2026-05-02T14:15:46.998Z</time></trkpt><trkpt lat="45.74595078264889" lon="13.90488844071757"><ele>349.0</ele><time>2026-05-02T14:15:48.998Z</time></trkpt><trkpt lat="45.745943855329976" lon="13.904731985378563"><ele>349.0</ele><time>2026-05-02T14:15:50.998Z</time></trkpt><trkpt lat="45.74591608928825" lon="13.904556684903861"><ele>349.0</ele><time>2026-05-02T14:15:52.998Z</time></trkpt><trkpt lat="45.74588048293583" lon="13.904389821449795"><ele>349.0</ele><time>2026-05-02T14:15:54.998Z</time></trkpt><trkpt lat="45.74586345838438" lon="13.904229560162227"><ele>348.5</ele><time>2026-05-02T14:15:56.998Z</time></trkpt><trkpt lat="45.745819630093685" lon="13.90406318708346"><ele>348.0</ele><time>2026-05-02T14:15:58.998Z</time></trkpt><trkpt lat="45.745797136574375" lon="13.903907604805859"><ele>347.5</ele><time>2026-05-02T14:16:00.998Z</time></trkpt><trkpt lat="45.74577353410245" lon="13.9037407720057"><ele>347.0</ele><time>2026-05-02T14:16:02.998Z</time></trkpt><trkpt lat="45.745746277504324" lon="13.903577479680967"><ele>347.40000000000003</ele><time>2026-05-02T14:16:04.998Z</time></trkpt><trkpt lat="45.745714491556626" lon="13.903411318541623"><ele>347.8</ele><time>2026-05-02T14:16:06.998Z</time></trkpt><trkpt lat="45.74568665850187" lon="13.903249358134286"><ele>348.2</ele><time>2026-05-02T14:16:08.997Z</time></trkpt><trkpt lat="45.745674822322265" lon="13.903091745238175"><ele>348.6</ele><time>2026-05-02T14:16:10.997Z</time></trkpt><trkpt lat="45.745668485295994" lon="13.902986080147087"><ele>349.0</ele><time>2026-05-02T14:16:12.997Z</time></trkpt><trkpt lat="45.74566195447137" lon="13.902857160338158"><ele>349.0</ele><time>2026-05-02T14:16:14.997Z</time></trkpt><trkpt lat="45.74569562019442" lon="13.902758657847208"><ele>349.0</ele><time>2026-05-02T14:16:15.997Z</time></trkpt><trkpt lat="45.7457202426704" lon="13.902583161089717"><ele>349.0</ele><time>2026-05-02T14:16:17.997Z</time></trkpt><trkpt lat="45.74573694467361" lon="13.902422218159945"><ele>349.0</ele><time>2026-05-02T14:16:19.997Z</time></trkpt><trkpt lat="45.74574934026649" lon="13.902269830782371"><ele>349.0</ele><time>2026-05-02T14:16:21.997Z</time></trkpt><trkpt lat="45.745772832981054" lon="13.902138633930926"><ele>349.0</ele><time>2026-05-02T14:16:23.997Z</time></trkpt><trkpt lat="45.745783392594916" lon="13.902019312413701"><ele>349.0</ele><time>2026-05-02T14:16:26Z</time></trkpt><trkpt lat="45.745776448007526" lon="13.901853636575687"><ele>349.0</ele><time>2026-05-02T14:16:28Z</time></trkpt><trkpt lat="45.745767496773226" lon="13.901757229478472"><ele>349.0</ele><time>2026-05-02T14:16:29Z</time></trkpt><trkpt lat="45.745751099650505" lon="13.901598451897268"><ele>349.0</ele><time>2026-05-02T14:16:31Z</time></trkpt><trkpt lat="45.74576111091715" lon="13.901428907349095"><ele>348.6</ele><time>2026-05-02T14:16:33Z</time></trkpt><trkpt lat="45.74577595303802" lon="13.901311146354448"><ele>348.2</ele><time>2026-05-02T14:16:34Z</time></trkpt><trkpt lat="45.745786246743165" lon="13.901204001733428"><ele>347.8</ele><time>2026-05-02T14:16:35Z</time></trkpt><trkpt lat="45.74580115174994" lon="13.901083329504143"><ele>347.40000000000003</ele><time>2026-05-02T14:16:37Z</time></trkpt><trkpt lat="45.74584041233721" lon="13.900937890268757"><ele>347.0</ele><time>2026-05-02T14:16:39Z</time></trkpt><trkpt lat="45.745867873098376" lon="13.900784232338916"><ele>347.0</ele><time>2026-05-02T14:16:41Z</time></trkpt><trkpt lat="45.74587811908545" lon="13.900689896373853"><ele>347.0</ele><time>2026-05-02T14:16:42Z</time></trkpt><trkpt lat="45.745920301937204" lon="13.900515723017136"><ele>347.0</ele><time>2026-05-02T14:16:44Z</time></trkpt><trkpt lat="45.745933897216936" lon="13.90042723730542"><ele>347.0</ele><time>2026-05-02T14:16:45Z</time></trkpt><trkpt lat="45.74594701490561" lon="13.90033641086473"><ele>347.0</ele><time>2026-05-02T14:16:46Z</time></trkpt><trkpt lat="45.74595764239095" lon="13.900245424355042"><ele>347.0</ele><time>2026-05-02T14:16:47Z</time></trkpt><trkpt lat="45.74596506867134" lon="13.900152718840559"><ele>347.0</ele><time>2026-05-02T14:16:48Z</time></trkpt><trkpt lat="45.745992910852124" lon="13.900061916318734"><ele>347.0</ele><time>2026-05-02T14:16:49Z</time></trkpt><trkpt lat="45.74600568351547" lon="13.899971504724222"><ele>347.0</ele><time>2026-05-02T14:16:50Z</time></trkpt><trkpt lat="45.746018276321486" lon="13.899882825151032"><ele>347.0</ele><time>2026-05-02T14:16:51Z</time></trkpt><trkpt lat="45.74603111396194" lon="13.899780247457807"><ele>347.0</ele><time>2026-05-02T14:16:52Z</time></trkpt><trkpt lat="45.74604404748024" lon="13.899676903777827"><ele>347.0</ele><time>2026-05-02T14:16:53Z</time></trkpt><trkpt lat="45.74605620634868" lon="13.899579749842719"><ele>347.0</ele><time>2026-05-02T14:16:54Z</time></trkpt><trkpt lat="45.74605438858725" lon="13.899471682141082"><ele>348.0</ele><time>2026-05-02T14:16:55Z</time></trkpt><trkpt lat="45.74608354614243" lon="13.899309970459257"><ele>349.0</ele><time>2026-05-02T14:16:57Z</time></trkpt><trkpt lat="45.74610428186449" lon="13.89919284739507"><ele>350.0</ele><time>2026-05-02T14:16:58.999Z</time></trkpt><trkpt lat="45.74612514187457" lon="13.899028928980655"><ele>351.0</ele><time>2026-05-02T14:17:00.999Z</time></trkpt><trkpt lat="45.7461456755297" lon="13.898876405749471"><ele>352.0</ele><time>2026-05-02T14:17:02.999Z</time></trkpt><trkpt lat="45.74615787257092" lon="13.898785525827236"><ele>352.66666666666663</ele><time>2026-05-02T14:17:03.999Z</time></trkpt><trkpt lat="45.74615609114817" lon="13.898679301279422"><ele>353.3333333333333</ele><time>2026-05-02T14:17:04.999Z</time></trkpt><trkpt lat="45.74617646692715" lon="13.898554467510294"><ele>354.0</ele><time>2026-05-02T14:17:05.999Z</time></trkpt><trkpt lat="45.74621085433141" lon="13.898451902399604"><ele>354.6666666666667</ele><time>2026-05-02T14:17:06.999Z</time></trkpt><trkpt lat="45.746230047158484" lon="13.898354331410692"><ele>355.33333333333337</ele><time>2026-05-02T14:17:07.999Z</time></trkpt><trkpt lat="45.746252635668384" lon="13.898236762688716"><ele>356.0</ele><time>2026-05-02T14:17:08.999Z</time></trkpt><trkpt lat="45.74626018573899" lon="13.898118887700878"><ele>356.0</ele><time>2026-05-02T14:17:09.999Z</time></trkpt><trkpt lat="45.7462899791706" lon="13.897983095361498"><ele>356.0</ele><time>2026-05-02T14:17:11.999Z</time></trkpt><trkpt lat="45.74631897930126" lon="13.897864159769261"><ele>356.0</ele><time>2026-05-02T14:17:14.999Z</time></trkpt><trkpt lat="45.74638097563627" lon="13.897748848402683"><ele>356.0</ele><time>2026-05-02T14:17:16.999Z</time></trkpt><trkpt lat="45.746430481370105" lon="13.89759220628827"><ele>356.0</ele><time>2026-05-02T14:17:18.999Z</time></trkpt><trkpt lat="45.7464456361978" lon="13.897498208643997"><ele>356.6</ele><time>2026-05-02T14:17:21.999Z</time></trkpt><trkpt lat="45.746434560674004" lon="13.897364507927763"><ele>357.20000000000005</ele><time>2026-05-02T14:19:04.999Z</time></trkpt><trkpt lat="45.74645763061751" lon="13.897190782043818"><ele>357.79999999999995</ele><time>2026-05-02T14:19:06.999Z</time></trkpt><trkpt lat="45.746473746732526" lon="13.89708520366793"><ele>358.4</ele><time>2026-05-02T14:19:07.999Z</time></trkpt><trkpt lat="45.746490924908336" lon="13.896987110830496"><ele>359.0</ele><time>2026-05-02T14:19:08.999Z</time></trkpt><trkpt lat="45.746508143268585" lon="13.89682986208186"><ele>358.79999999999995</ele><time>2026-05-02T14:19:10.999Z</time></trkpt><trkpt lat="45.746537713366926" lon="13.896659060314025"><ele>358.59999999999997</ele><time>2026-05-02T14:19:12.999Z</time></trkpt><trkpt lat="45.74655075948701" lon="13.896503839010892"><ele>358.4</ele><time>2026-05-02T14:19:14.999Z</time></trkpt><trkpt lat="45.7465440735131" lon="13.896384722945575"><ele>358.2</ele><time>2026-05-02T14:19:16.999Z</time></trkpt><trkpt lat="45.74651156046962" lon="13.896281677207678"><ele>358.0</ele><time>2026-05-02T14:19:18.999Z</time></trkpt><trkpt lat="45.746486429321706" lon="13.896185315045999"><ele>358.0</ele><time>2026-05-02T14:19:20.999Z</time></trkpt><trkpt lat="45.746471637933595" lon="13.896086953697655"><ele>358.0</ele><time>2026-05-02T14:19:22.999Z</time></trkpt><trkpt lat="45.74645983770692" lon="13.895948897020558"><ele>358.0</ele><time>2026-05-02T14:19:24.999Z</time></trkpt><trkpt lat="45.74646779561113" lon="13.895799848766972"><ele>358.0</ele><time>2026-05-02T14:19:26.999Z</time></trkpt><trkpt lat="45.74647612282167" lon="13.895672094181613"><ele>358.0</ele><time>2026-05-02T14:19:28.999Z</time></trkpt><trkpt lat="45.746477955452" lon="13.895533550876626"><ele>356.79999999999995</ele><time>2026-05-02T14:19:30.999Z</time></trkpt><trkpt lat="45.74649257562727" lon="13.895394976045088"><ele>355.6</ele><time>2026-05-02T14:19:32.999Z</time></trkpt><trkpt lat="45.74649784684203" lon="13.895239853921709"><ele>354.4</ele><time>2026-05-02T14:19:34.999Z</time></trkpt><trkpt lat="45.74651291796042" lon="13.895087398744272"><ele>353.20000000000005</ele><time>2026-05-02T14:19:36.999Z</time></trkpt><trkpt lat="45.74652631061591" lon="13.894918003659146"><ele>352.0</ele><time>2026-05-02T14:19:38.999Z</time></trkpt><trkpt lat="45.74654083107478" lon="13.894829694202757"><ele>351.2857142857143</ele><time>2026-05-02T14:19:39.999Z</time></trkpt><trkpt lat="45.74655966810968" lon="13.894734606039895"><ele>350.57142857142856</ele><time>2026-05-02T14:19:40.999Z</time></trkpt><trkpt lat="45.746579633849905" lon="13.89464438754398"><ele>349.8571428571429</ele><time>2026-05-02T14:19:41.998Z</time></trkpt><trkpt lat="45.74660030398511" lon="13.894552371131137"><ele>349.1428571428571</ele><time>2026-05-02T14:19:42.998Z</time></trkpt><trkpt lat="45.746616911474106" lon="13.894449771108016"><ele>348.4285714285714</ele><time>2026-05-02T14:19:43.998Z</time></trkpt><trkpt lat="45.74662948272818" lon="13.89434745039414"><ele>347.7142857142857</ele><time>2026-05-02T14:19:44.998Z</time></trkpt><trkpt lat="45.7466442370725" lon="13.894244014792363"><ele>347.0</ele><time>2026-05-02T14:19:45.998Z</time></trkpt><trkpt lat="45.74665726154467" lon="13.894145636695143"><ele>345.83333333333337</ele><time>2026-05-02T14:19:46.998Z</time></trkpt><trkpt lat="45.74667328595334" lon="13.894040157599584"><ele>344.6666666666667</ele><time>2026-05-02T14:19:47.998Z</time></trkpt><trkpt lat="45.74668323382933" lon="13.893938476526147"><ele>343.5</ele><time>2026-05-02T14:19:48.998Z</time></trkpt><trkpt lat="45.7466988632501" lon="13.893835364164342"><ele>342.3333333333333</ele><time>2026-05-02T14:19:49.998Z</time></trkpt><trkpt lat="45.746723765958166" lon="13.893730956621722"><ele>341.16666666666663</ele><time>2026-05-02T14:19:50.998Z</time></trkpt><trkpt lat="45.746757904832734" lon="13.893632047605095"><ele>340.0</ele><time>2026-05-02T14:19:51.998Z</time></trkpt><trkpt lat="45.74680702196851" lon="13.89353371111194"><ele>336.8</ele><time>2026-05-02T14:19:52.998Z</time></trkpt><trkpt lat="45.74688069481649" lon="13.893457212076294"><ele>333.6</ele><time>2026-05-02T14:19:53.998Z</time></trkpt><trkpt lat="45.74695131609947" lon="13.893357336586625"><ele>330.4</ele><time>2026-05-02T14:19:54.998Z</time></trkpt><trkpt lat="45.747023007064236" lon="13.893241792200614"><ele>327.2</ele><time>2026-05-02T14:19:55.998Z</time></trkpt><trkpt lat="45.7471119512919" lon="13.893113372844622"><ele>324.0</ele><time>2026-05-02T14:19:56.998Z</time></trkpt><trkpt lat="45.747209704220815" lon="13.892973179847727"><ele>324.0</ele><time>2026-05-02T14:19:57.998Z</time></trkpt><trkpt lat="45.74730280911417" lon="13.892847266423837"><ele>324.0</ele><time>2026-05-02T14:19:58.998Z</time></trkpt><trkpt lat="45.74741321214803" lon="13.892777293923446"><ele>324.0</ele><time>2026-05-02T14:19:59.998Z</time></trkpt><trkpt lat="45.747525552365985" lon="13.892715210808598"><ele>324.0</ele><time>2026-05-02T14:20:00.998Z</time></trkpt><trkpt lat="45.74762616971804" lon="13.892606239759383"><ele>325.75</ele><time>2026-05-02T14:20:01.998Z</time></trkpt><trkpt lat="45.74772542258791" lon="13.892519954183534"><ele>327.5</ele><time>2026-05-02T14:20:02.998Z</time></trkpt><trkpt lat="45.74780664490968" lon="13.892410318149278"><ele>329.25</ele><time>2026-05-02T14:20:03.998Z</time></trkpt><trkpt lat="45.74788254104318" lon="13.892263551024906"><ele>331.0</ele><time>2026-05-02T14:20:04.998Z</time></trkpt><trkpt lat="45.7479593766236" lon="13.892102813574244"><ele>331.0</ele><time>2026-05-02T14:20:05.998Z</time></trkpt><trkpt lat="45.74801592958301" lon="13.891927954189894"><ele>331.0</ele><time>2026-05-02T14:20:06.998Z</time></trkpt><trkpt lat="45.74807831812391" lon="13.891742538683518"><ele>331.0</ele><time>2026-05-02T14:20:07.998Z</time></trkpt><trkpt lat="45.7481419625061" lon="13.891553267537203"><ele>331.0</ele><time>2026-05-02T14:20:08.998Z</time></trkpt><trkpt lat="45.74820933382899" lon="13.89135491490431"><ele>330.5</ele><time>2026-05-02T14:20:09.998Z</time></trkpt><trkpt lat="45.74829395769043" lon="13.891154343913925"><ele>330.0</ele><time>2026-05-02T14:20:10.998Z</time></trkpt><trkpt lat="45.74838324728192" lon="13.89097746450291"><ele>329.5</ele><time>2026-05-02T14:20:11.998Z</time></trkpt><trkpt lat="45.74846220707686" lon="13.890825124282648"><ele>329.0</ele><time>2026-05-02T14:20:12.998Z</time></trkpt><trkpt lat="45.74854145200751" lon="13.8906767126523"><ele>330.0</ele><time>2026-05-02T14:20:13.998Z</time></trkpt><trkpt lat="45.74861889097396" lon="13.89055193502273"><ele>331.0</ele><time>2026-05-02T14:20:14.998Z</time></trkpt><trkpt lat="45.748713195803674" lon="13.890481452487444"><ele>332.0</ele><time>2026-05-02T14:20:15.998Z</time></trkpt><trkpt lat="45.74880281394336" lon="13.890436093563155"><ele>333.0</ele><time>2026-05-02T14:20:16.998Z</time></trkpt><trkpt lat="45.7489026143506" lon="13.890408899473721"><ele>334.0</ele><time>2026-05-02T14:20:17.998Z</time></trkpt><trkpt lat="45.74901504829677" lon="13.890364778121844"><ele>334.0</ele><time>2026-05-02T14:20:18.998Z</time></trkpt><trkpt lat="45.74912881063192" lon="13.8903009894584"><ele>334.0</ele><time>2026-05-02T14:20:19.998Z</time></trkpt><trkpt lat="45.74925599786589" lon="13.89025432646514"><ele>334.0</ele><time>2026-05-02T14:20:20.997Z</time></trkpt><trkpt lat="45.749376493717676" lon="13.890218638826465"><ele>334.0</ele><time>2026-05-02T14:20:21.997Z</time></trkpt><trkpt lat="45.74949995381776" lon="13.890186655799663"><ele>333.25</ele><time>2026-05-02T14:20:22.997Z</time></trkpt><trkpt lat="45.74962333185582" lon="13.890182681537947"><ele>332.5</ele><time>2026-05-02T14:20:23.997Z</time></trkpt><trkpt lat="45.749736171459894" lon="13.89015215705314"><ele>331.75</ele><time>2026-05-02T14:20:24.997Z</time></trkpt><trkpt lat="45.74984932596572" lon="13.890109087986177"><ele>331.0</ele><time>2026-05-02T14:20:25.997Z</time></trkpt><trkpt lat="45.749961916903764" lon="13.890079171253928"><ele>330.6</ele><time>2026-05-02T14:20:26.997Z</time></trkpt><trkpt lat="45.75007178742736" lon="13.890044504879228"><ele>330.20000000000005</ele><time>2026-05-02T14:20:27.997Z</time></trkpt><trkpt lat="45.75018275925613" lon="13.890008182078013"><ele>329.79999999999995</ele><time>2026-05-02T14:20:28.997Z</time></trkpt><trkpt lat="45.750286886252006" lon="13.889974644901084"><ele>329.4</ele><time>2026-05-02T14:20:29.997Z</time></trkpt><trkpt lat="45.750394668148594" lon="13.889938907941309"><ele>329.0</ele><time>2026-05-02T14:20:30.997Z</time></trkpt><trkpt lat="45.750503178440596" lon="13.889902114591115"><ele>329.0</ele><time>2026-05-02T14:20:31.997Z</time></trkpt><trkpt lat="45.750607130903234" lon="13.889859585928544"><ele>329.0</ele><time>2026-05-02T14:20:32.997Z</time></trkpt><trkpt lat="45.75072042713015" lon="13.88980226830174"><ele>329.0</ele><time>2026-05-02T14:20:33.997Z</time></trkpt><trkpt lat="45.75084204635123" lon="13.88973935409631"><ele>329.0</ele><time>2026-05-02T14:20:34.997Z</time></trkpt><trkpt lat="45.7509637168857" lon="13.889681413853285"><ele>329.5</ele><time>2026-05-02T14:20:35.997Z</time></trkpt><trkpt lat="45.75108233928678" lon="13.889628707602872"><ele>330.0</ele><time>2026-05-02T14:20:37Z</time></trkpt><trkpt lat="45.75120231622248" lon="13.88958165635703"><ele>330.5</ele><time>2026-05-02T14:20:38Z</time></trkpt><trkpt lat="45.751324718806686" lon="13.889531922838732"><ele>331.0</ele><time>2026-05-02T14:20:39Z</time></trkpt><trkpt lat="45.75144469096429" lon="13.889485929006261"><ele>331.0</ele><time>2026-05-02T14:20:40Z</time></trkpt><trkpt lat="45.751566425925425" lon="13.889437915987203"><ele>331.0</ele><time>2026-05-02T14:20:41Z</time></trkpt><trkpt lat="45.75169585740577" lon="13.889388317805292"><ele>331.0</ele><time>2026-05-02T14:20:42Z</time></trkpt><trkpt lat="45.751822847038945" lon="13.889339002164078"><ele>331.0</ele><time>2026-05-02T14:20:43Z</time></trkpt><trkpt lat="45.75192707851448" lon="13.889287764346102"><ele>332.5</ele><time>2026-05-02T14:20:44Z</time></trkpt><trkpt lat="45.75203057637498" lon="13.889246822535902"><ele>334.0</ele><time>2026-05-02T14:20:45Z</time></trkpt><trkpt lat="45.75223010997373" lon="13.889131766184386"><ele>335.5</ele><time>2026-05-02T14:20:47Z</time></trkpt><trkpt lat="45.752326765137866" lon="13.889075847343445"><ele>337.0</ele><time>2026-05-02T14:20:48Z</time></trkpt><trkpt lat="45.75242200376492" lon="13.889017471538278"><ele>337.0</ele><time>2026-05-02T14:20:49Z</time></trkpt><trkpt lat="45.75251710917772" lon="13.888956423721902"><ele>337.0</ele><time>2026-05-02T14:20:50Z</time></trkpt><trkpt lat="45.75261453596045" lon="13.888896261644609"><ele>337.0</ele><time>2026-05-02T14:20:51Z</time></trkpt><trkpt lat="45.752713557225974" lon="13.888840527807481"><ele>337.0</ele><time>2026-05-02T14:20:52Z</time></trkpt><trkpt lat="45.752817514106454" lon="13.888792447958643"><ele>337.0</ele><time>2026-05-02T14:20:53Z</time></trkpt><trkpt lat="45.75292213238867" lon="13.888749908044373"><ele>337.20000000000005</ele><time>2026-05-02T14:20:54Z</time></trkpt><trkpt lat="45.753024731694445" lon="13.888704269113116"><ele>337.4</ele><time>2026-05-02T14:20:55Z</time></trkpt><trkpt lat="45.753122626234344" lon="13.88866362512861"><ele>337.6</ele><time>2026-05-02T14:20:56Z</time></trkpt><trkpt lat="45.75322075392402" lon="13.88865055457324"><ele>337.79999999999995</ele><time>2026-05-02T14:20:57Z</time></trkpt><trkpt lat="45.75331425754217" lon="13.888662675430785"><ele>338.0</ele><time>2026-05-02T14:20:58Z</time></trkpt><trkpt lat="45.75341930181983" lon="13.888687498294743"><ele>338.0</ele><time>2026-05-02T14:20:59Z</time></trkpt><trkpt lat="45.753523303692134" lon="13.888707372830542"><ele>338.0</ele><time>2026-05-02T14:21:00Z</time></trkpt><trkpt lat="45.75361811175574" lon="13.888724667792527"><ele>338.0</ele><time>2026-05-02T14:21:01Z</time></trkpt><trkpt lat="45.753707250844" lon="13.888736184298997"><ele>338.0</ele><time>2026-05-02T14:21:02Z</time></trkpt><trkpt lat="45.75380100311263" lon="13.888716460503643"><ele>338.0</ele><time>2026-05-02T14:21:03Z</time></trkpt><trkpt lat="45.753900224402386" lon="13.888715744857162"><ele>338.59999999999997</ele><time>2026-05-02T14:21:04Z</time></trkpt><trkpt lat="45.754008395433516" lon="13.888703841461316"><ele>339.2</ele><time>2026-05-02T14:21:05Z</time></trkpt><trkpt lat="45.754109827900066" lon="13.888678824638998"><ele>339.8</ele><time>2026-05-02T14:21:05.999Z</time></trkpt><trkpt lat="45.754210998451065" lon="13.888649358263802"><ele>340.4</ele><time>2026-05-02T14:21:06.999Z</time></trkpt><trkpt lat="45.75431409775749" lon="13.888605430380764"><ele>341.0</ele><time>2026-05-02T14:21:07.999Z</time></trkpt><trkpt lat="45.75441402450198" lon="13.888550486790914"><ele>341.75</ele><time>2026-05-02T14:21:08.999Z</time></trkpt><trkpt lat="45.7545159973701" lon="13.888482458978157"><ele>342.5</ele><time>2026-05-02T14:21:09.999Z</time></trkpt><trkpt lat="45.754623003349025" lon="13.888417891985492"><ele>343.25</ele><time>2026-05-02T14:21:10.999Z</time></trkpt><trkpt lat="45.754733075037564" lon="13.88834265461015"><ele>344.0</ele><time>2026-05-02T14:21:11.999Z</time></trkpt><trkpt lat="45.7548350086879" lon="13.88825303839194"><ele>344.79999999999995</ele><time>2026-05-02T14:21:12.999Z</time></trkpt><trkpt lat="45.75493284745978" lon="13.888156783895418"><ele>345.59999999999997</ele><time>2026-05-02T14:21:13.999Z</time></trkpt><trkpt lat="45.75502283126905" lon="13.888061648082223"><ele>346.4</ele><time>2026-05-02T14:21:14.999Z</time></trkpt><trkpt lat="45.75510052752296" lon="13.887982171360758"><ele>347.2</ele><time>2026-05-02T14:21:15.999Z</time></trkpt><trkpt lat="45.75516842475964" lon="13.887910049173728"><ele>348.0</ele><time>2026-05-02T14:21:16.999Z</time></trkpt><trkpt lat="45.755226656980454" lon="13.887824605475554"><ele>348.25</ele><time>2026-05-02T14:21:18.999Z</time></trkpt><trkpt lat="45.755295283521654" lon="13.887796467851778"><ele>348.5</ele><time>2026-05-02T14:21:22.999Z</time></trkpt><trkpt lat="45.7554525127567" lon="13.888045821626259"><ele>348.75</ele><time>2026-05-02T14:21:26.999Z</time></trkpt><trkpt lat="45.75551717787281" lon="13.888172799182968"><ele>349.0</ele><time>2026-05-02T14:21:28.999Z</time></trkpt><trkpt lat="45.755583181674915" lon="13.888295571631208"><ele>349.0</ele><time>2026-05-02T14:21:30.999Z</time></trkpt><trkpt lat="45.75561957639721" lon="13.888371784329523"><ele>349.0</ele><time>2026-05-02T14:21:31.999Z</time></trkpt><trkpt lat="45.75565706064241" lon="13.888450549271356"><ele>349.0</ele><time>2026-05-02T14:21:32.999Z</time></trkpt><trkpt lat="45.7556881130726" lon="13.888537670778247"><ele>349.0</ele><time>2026-05-02T14:21:33.999Z</time></trkpt><trkpt lat="45.755723837217815" lon="13.888617823075268"><ele>349.0</ele><time>2026-05-02T14:21:34.999Z</time></trkpt><trkpt lat="45.755809217252214" lon="13.888734175631932"><ele>349.0</ele><time>2026-05-02T14:21:36.999Z</time></trkpt><trkpt lat="45.75589738016245" lon="13.88885081956101"><ele>348.6</ele><time>2026-05-02T14:21:38.999Z</time></trkpt><trkpt lat="45.75595678129132" lon="13.8889932934499"><ele>348.2</ele><time>2026-05-02T14:21:40.999Z</time></trkpt><trkpt lat="45.75600964773641" lon="13.889146856000917"><ele>347.8</ele><time>2026-05-02T14:21:42.999Z</time></trkpt><trkpt lat="45.75604288966681" lon="13.889255113532041"><ele>347.40000000000003</ele><time>2026-05-02T14:21:44.999Z</time></trkpt><trkpt lat="45.75609961896946" lon="13.889313904453783"><ele>347.0</ele><time>2026-05-02T14:21:47.998Z</time></trkpt><trkpt lat="45.75618771444439" lon="13.889370668900963"><ele>346.8</ele><time>2026-05-02T14:21:49.998Z</time></trkpt><trkpt lat="45.756253046988505" lon="13.889378619183976"><ele>346.6</ele><time>2026-05-02T14:21:50.998Z</time></trkpt><trkpt lat="45.756335731485045" lon="13.88937983760447"><ele>346.40000000000003</ele><time>2026-05-02T14:21:51.998Z</time></trkpt><trkpt lat="45.75645921317566" lon="13.889378776239806"><ele>346.20000000000005</ele><time>2026-05-02T14:21:53.998Z</time></trkpt><trkpt lat="45.7565595109666" lon="13.889359584145732"><ele>346.0</ele><time>2026-05-02T14:21:55.998Z</time></trkpt><trkpt lat="45.75669270562088" lon="13.889275122773432"><ele>346.0</ele><time>2026-05-02T14:21:57.998Z</time></trkpt><trkpt lat="45.75675851455997" lon="13.889235827172746"><ele>346.0</ele><time>2026-05-02T14:21:58.998Z</time></trkpt><trkpt lat="45.75682130964436" lon="13.889192085380202"><ele>346.0</ele><time>2026-05-02T14:21:59.998Z</time></trkpt><trkpt lat="45.75688488400846" lon="13.88914860974014"><ele>346.0</ele><time>2026-05-02T14:22:00.998Z</time></trkpt><trkpt lat="45.756952369802974" lon="13.889098382471518"><ele>346.0</ele><time>2026-05-02T14:22:01.998Z</time></trkpt><trkpt lat="45.75702062651026" lon="13.889045577766712"><ele>346.0</ele><time>2026-05-02T14:22:02.998Z</time></trkpt><trkpt lat="45.75707976176496" lon="13.889002301851976"><ele>346.0</ele><time>2026-05-02T14:22:03.998Z</time></trkpt><trkpt lat="45.75718722148955" lon="13.888955031486"><ele>345.0</ele><time>2026-05-02T14:22:05.998Z</time></trkpt><trkpt lat="45.757291219241736" lon="13.888977880771828"><ele>344.0</ele><time>2026-05-02T14:22:07.998Z</time></trkpt><trkpt lat="45.757376284915736" lon="13.889044897000547"><ele>343.0</ele><time>2026-05-02T14:22:09.998Z</time></trkpt><trkpt lat="45.75747573865181" lon="13.889113174690841"><ele>342.0</ele><time>2026-05-02T14:22:11.998Z</time></trkpt><trkpt lat="45.75758916237024" lon="13.889155906573235"><ele>341.0</ele><time>2026-05-02T14:22:13.998Z</time></trkpt><trkpt lat="45.75771433030933" lon="13.889148841357718"><ele>340.5</ele><time>2026-05-02T14:22:15.998Z</time></trkpt><trkpt lat="45.75783919836908" lon="13.889105673961161"><ele>340.0</ele><time>2026-05-02T14:22:17.998Z</time></trkpt><trkpt lat="45.75794983820649" lon="13.889025056652462"><ele>339.5</ele><time>2026-05-02T14:22:19.998Z</time></trkpt><trkpt lat="45.75803979008441" lon="13.888882490346788"><ele>339.0</ele><time>2026-05-02T14:22:21.998Z</time></trkpt><trkpt lat="45.75807645526991" lon="13.888803399902322"><ele>339.0</ele><time>2026-05-02T14:22:22.998Z</time></trkpt><trkpt lat="45.75811193957271" lon="13.888724040955994"><ele>339.0</ele><time>2026-05-02T14:22:23.998Z</time></trkpt><trkpt lat="45.758174687164804" lon="13.888613176031596"><ele>339.0</ele><time>2026-05-02T14:22:25.998Z</time></trkpt><trkpt lat="45.7582463709271" lon="13.888594530333929"><ele>339.0</ele><time>2026-05-02T14:22:27.997Z</time></trkpt><trkpt lat="45.75838730482475" lon="13.888646943253587"><ele>339.0</ele><time>2026-05-02T14:22:29.997Z</time></trkpt><trkpt lat="45.75846742209512" lon="13.88868640287452"><ele>338.8333333333333</ele><time>2026-05-02T14:22:30.997Z</time></trkpt><trkpt lat="45.75854095469023" lon="13.88872937975475"><ele>338.6666666666667</ele><time>2026-05-02T14:22:31.997Z</time></trkpt><trkpt lat="45.758615670919355" lon="13.888759850631041"><ele>338.5</ele><time>2026-05-02T14:22:32.997Z</time></trkpt><trkpt lat="45.758685682823774" lon="13.888785059727232"><ele>338.33333333333337</ele><time>2026-05-02T14:22:33.997Z</time></trkpt><trkpt lat="45.75874946972053" lon="13.888807518005553"><ele>338.1666666666667</ele><time>2026-05-02T14:22:34.997Z</time></trkpt><trkpt lat="45.75881214304652" lon="13.88882408229284"><ele>338.0</ele><time>2026-05-02T14:22:35.997Z</time></trkpt><trkpt lat="45.758917229987475" lon="13.888878063141357"><ele>338.0</ele><time>2026-05-02T14:22:37.997Z</time></trkpt><trkpt lat="45.75902271959443" lon="13.88897497122652"><ele>338.0</ele><time>2026-05-02T14:22:39.997Z</time></trkpt><trkpt lat="45.75908082011977" lon="13.889030762225515"><ele>338.0</ele><time>2026-05-02T14:22:40.997Z</time></trkpt><trkpt lat="45.759149407727634" lon="13.889123538276268"><ele>338.0</ele><time>2026-05-02T14:22:43Z</time></trkpt><trkpt lat="45.75918143731864" lon="13.889223202823668"><ele>338.0</ele><time>2026-05-02T14:22:45Z</time></trkpt><trkpt lat="45.75919480064275" lon="13.88936281107422"><ele>337.79999999999995</ele><time>2026-05-02T14:22:47Z</time></trkpt><trkpt lat="45.75921417047762" lon="13.889509678689192"><ele>337.6</ele><time>2026-05-02T14:22:49Z</time></trkpt><trkpt lat="45.75922532341709" lon="13.88964782411942"><ele>337.4</ele><time>2026-05-02T14:22:51Z</time></trkpt><trkpt lat="45.759260883981135" lon="13.889771542069825"><ele>337.20000000000005</ele><time>2026-05-02T14:22:53Z</time></trkpt><trkpt lat="45.75931934667226" lon="13.889846389020835"><ele>337.0</ele><time>2026-05-02T14:22:55Z</time></trkpt><trkpt lat="45.75939812644084" lon="13.889853325143081"><ele>335.6</ele><time>2026-05-02T14:22:59Z</time></trkpt><trkpt lat="45.75949604501745" lon="13.889832083272001"><ele>334.20000000000005</ele><time>2026-05-02T14:23:01Z</time></trkpt><trkpt lat="45.75959550753789" lon="13.88984154877753"><ele>332.8</ele><time>2026-05-02T14:23:03Z</time></trkpt><trkpt lat="45.75967976445424" lon="13.88985089250741"><ele>331.4</ele><time>2026-05-02T14:23:05Z</time></trkpt><trkpt lat="45.75976817308816" lon="13.889827228091757"><ele>330.0</ele><time>2026-05-02T14:23:07Z</time></trkpt><trkpt lat="45.7598488411522" lon="13.889752628646647"><ele>330.0</ele><time>2026-05-02T14:23:09Z</time></trkpt><trkpt lat="45.75993827889907" lon="13.889667899657521"><ele>330.0</ele><time>2026-05-02T14:23:11Z</time></trkpt><trkpt lat="45.7600199184343" lon="13.889607203835899"><ele>330.0</ele><time>2026-05-02T14:23:13Z</time></trkpt><trkpt lat="45.76011521853736" lon="13.889545403928727"><ele>330.0</ele><time>2026-05-02T14:23:15Z</time></trkpt><trkpt lat="45.76020709590899" lon="13.88947245517963"><ele>330.0</ele><time>2026-05-02T14:23:16.999Z</time></trkpt><trkpt lat="45.76028837101602" lon="13.889385396992019"><ele>328.5</ele><time>2026-05-02T14:23:18.999Z</time></trkpt><trkpt lat="45.76037098754671" lon="13.889296826366667"><ele>327.0</ele><time>2026-05-02T14:23:20.999Z</time></trkpt><trkpt lat="45.76045053283508" lon="13.889183272908552"><ele>325.5</ele><time>2026-05-02T14:23:22.999Z</time></trkpt><trkpt lat="45.76053546444777" lon="13.889065601788218"><ele>324.0</ele><time>2026-05-02T14:23:24.999Z</time></trkpt><trkpt lat="45.760622068493085" lon="13.888923984408517"><ele>324.0</ele><time>2026-05-02T14:23:26.999Z</time></trkpt><trkpt lat="45.76067347173161" lon="13.888858147661338"><ele>324.0</ele><time>2026-05-02T14:23:27.999Z</time></trkpt><trkpt lat="45.76072140041044" lon="13.888786029357563"><ele>324.0</ele><time>2026-05-02T14:23:28.999Z</time></trkpt><trkpt lat="45.76076658910885" lon="13.88871680713237"><ele>324.0</ele><time>2026-05-02T14:23:29.999Z</time></trkpt><trkpt lat="45.76081444982859" lon="13.888647215218436"><ele>324.0</ele><time>2026-05-02T14:23:30.999Z</time></trkpt><trkpt lat="45.760857939365586" lon="13.888577663390421"><ele>324.0</ele><time>2026-05-02T14:23:31.999Z</time></trkpt><trkpt lat="45.76090861569532" lon="13.888512476894856"><ele>324.0</ele><time>2026-05-02T14:23:32.999Z</time></trkpt><trkpt lat="45.760959881402805" lon="13.888446927337089"><ele>324.5</ele><time>2026-05-02T14:23:33.999Z</time></trkpt><trkpt lat="45.761005233261294" lon="13.88838195677959"><ele>325.0</ele><time>2026-05-02T14:23:34.999Z</time></trkpt><trkpt lat="45.761092246462134" lon="13.888257080328557"><ele>325.5</ele><time>2026-05-02T14:23:36.999Z</time></trkpt><trkpt lat="45.7611715101093" lon="13.888131677891955"><ele>326.0</ele><time>2026-05-02T14:23:38.999Z</time></trkpt><trkpt lat="45.76121175929803" lon="13.888052922772124"><ele>326.5</ele><time>2026-05-02T14:23:39.999Z</time></trkpt><trkpt lat="45.76127894487274" lon="13.888016422060929"><ele>327.0</ele><time>2026-05-02T14:23:40.999Z</time></trkpt><trkpt lat="45.761371208992195" lon="13.887952416260882"><ele>325.8</ele><time>2026-05-02T14:23:42.999Z</time></trkpt><trkpt lat="45.76150531928481" lon="13.887872254803243"><ele>324.6</ele><time>2026-05-02T14:23:44.999Z</time></trkpt><trkpt lat="45.76158507095705" lon="13.887804615403317"><ele>323.40000000000003</ele><time>2026-05-02T14:23:45.999Z</time></trkpt><trkpt lat="45.76166490666191" lon="13.887749825578009"><ele>322.20000000000005</ele><time>2026-05-02T14:23:46.999Z</time></trkpt><trkpt lat="45.76173858934826" lon="13.887700015607168"><ele>321.0</ele><time>2026-05-02T14:23:47.999Z</time></trkpt><trkpt lat="45.7618097300067" lon="13.887640880831796"><ele>320.1428571428571</ele><time>2026-05-02T14:23:48.999Z</time></trkpt><trkpt lat="45.76186906857722" lon="13.887572013249159"><ele>319.2857142857143</ele><time>2026-05-02T14:23:49.999Z</time></trkpt><trkpt lat="45.76192466083002" lon="13.887495091479748"><ele>318.42857142857144</ele><time>2026-05-02T14:23:50.999Z</time></trkpt><trkpt lat="45.76197787444199" lon="13.887426954267776"><ele>317.57142857142856</ele><time>2026-05-02T14:23:51.999Z</time></trkpt><trkpt lat="45.762025985497544" lon="13.887355010517883"><ele>316.7142857142857</ele><time>2026-05-02T14:23:52.999Z</time></trkpt><trkpt lat="45.76208532219219" lon="13.88728702496598"><ele>315.85714285714283</ele><time>2026-05-02T14:23:53.999Z</time></trkpt><trkpt lat="45.76214446216679" lon="13.887224196377963"><ele>315.0</ele><time>2026-05-02T14:23:54.999Z</time></trkpt><trkpt lat="45.76220527447272" lon="13.887159959372926"><ele>315.0</ele><time>2026-05-02T14:23:55.998Z</time></trkpt><trkpt lat="45.76226820352051" lon="13.88709692520335"><ele>315.0</ele><time>2026-05-02T14:23:56.998Z</time></trkpt><trkpt lat="45.76233603168185" lon="13.887041354043271"><ele>315.0</ele><time>2026-05-02T14:23:57.998Z</time></trkpt><trkpt lat="45.76241034240664" lon="13.886996935610886"><ele>315.0</ele><time>2026-05-02T14:23:58.998Z</time></trkpt><trkpt lat="45.762488468956924" lon="13.886960274171354"><ele>315.0</ele><time>2026-05-02T14:23:59.998Z</time></trkpt><trkpt lat="45.76256219931721" lon="13.886942688438499"><ele>315.0</ele><time>2026-05-02T14:24:00.998Z</time></trkpt><trkpt lat="45.76262888185326" lon="13.886928675868445"><ele>315.6666666666667</ele><time>2026-05-02T14:24:01.998Z</time></trkpt><trkpt lat="45.76270113435577" lon="13.886914143733948"><ele>316.3333333333333</ele><time>2026-05-02T14:24:02.998Z</time></trkpt><trkpt lat="45.76276944583549" lon="13.88691191688289"><ele>317.0</ele><time>2026-05-02T14:24:03.998Z</time></trkpt><trkpt lat="45.76283230697589" lon="13.886917367819015"><ele>317.66666666666663</ele><time>2026-05-02T14:24:04.998Z</time></trkpt><trkpt lat="45.76292823582724" lon="13.886921374665613"><ele>318.3333333333333</ele><time>2026-05-02T14:24:06.998Z</time></trkpt><trkpt lat="45.76301790444082" lon="13.886905739595731"><ele>319.0</ele><time>2026-05-02T14:24:08.998Z</time></trkpt><trkpt lat="45.76314620404036" lon="13.886871575705847"><ele>319.0</ele><time>2026-05-02T14:24:10.998Z</time></trkpt><trkpt lat="45.76326412933842" lon="13.886836028903181"><ele>319.0</ele><time>2026-05-02T14:24:12.998Z</time></trkpt><trkpt lat="45.76332798507543" lon="13.8868073723975"><ele>319.0</ele><time>2026-05-02T14:24:13.998Z</time></trkpt><trkpt lat="45.763392534230654" lon="13.886761165474248"><ele>319.0</ele><time>2026-05-02T14:24:14.998Z</time></trkpt><trkpt lat="45.763457950858964" lon="13.886691955426087"><ele>319.0</ele><time>2026-05-02T14:24:15.998Z</time></trkpt><trkpt lat="45.76352805957658" lon="13.88660512083588"><ele>319.0</ele><time>2026-05-02T14:24:16.998Z</time></trkpt><trkpt lat="45.76358711920308" lon="13.88653363236957"><ele>318.5714285714286</ele><time>2026-05-02T14:24:17.998Z</time></trkpt><trkpt lat="45.763648171765816" lon="13.88647087088411"><ele>318.1428571428571</ele><time>2026-05-02T14:24:18.998Z</time></trkpt><trkpt lat="45.76371173089897" lon="13.886407752232573"><ele>317.7142857142857</ele><time>2026-05-02T14:24:19.998Z</time></trkpt><trkpt lat="45.763770408763435" lon="13.886342297919974"><ele>317.28571428571433</ele><time>2026-05-02T14:24:20.998Z</time></trkpt><trkpt lat="45.763825721966526" lon="13.88627707334833"><ele>316.8571428571429</ele><time>2026-05-02T14:24:21.998Z</time></trkpt><trkpt lat="45.76388598529858" lon="13.886214783993173"><ele>316.42857142857144</ele><time>2026-05-02T14:24:22.998Z</time></trkpt><trkpt lat="45.763950456749164" lon="13.886166079171373"><ele>316.0</ele><time>2026-05-02T14:24:23.998Z</time></trkpt><trkpt lat="45.76402138144259" lon="13.886138878177821"><ele>316.0</ele><time>2026-05-02T14:24:24.998Z</time></trkpt><trkpt lat="45.764104936593135" lon="13.886132401240848"><ele>316.0</ele><time>2026-05-02T14:24:25.998Z</time></trkpt><trkpt lat="45.76418780119886" lon="13.886128277839392"><ele>316.0</ele><time>2026-05-02T14:24:26.998Z</time></trkpt><trkpt lat="45.76426090403527" lon="13.88612639098567"><ele>316.0</ele><time>2026-05-02T14:24:27.998Z</time></trkpt><trkpt lat="45.76433069046163" lon="13.886115558349772"><ele>316.0</ele><time>2026-05-02T14:24:28.998Z</time></trkpt><trkpt lat="45.764435160141325" lon="13.886026266052085"><ele>316.0</ele><time>2026-05-02T14:24:30.998Z</time></trkpt><trkpt lat="45.764481007766726" lon="13.885946031089995"><ele>317.00000000000006</ele><time>2026-05-02T14:24:31.998Z</time></trkpt><trkpt lat="45.7645339859807" lon="13.885844790364922"><ele>318.0</ele><time>2026-05-02T14:24:32.998Z</time></trkpt><trkpt lat="45.76458208135768" lon="13.885757817679716"><ele>319.0</ele><time>2026-05-02T14:24:33.998Z</time></trkpt><trkpt lat="45.76462275135156" lon="13.885679949740549"><ele>320.0</ele><time>2026-05-02T14:24:34.998Z</time></trkpt><trkpt lat="45.76466459399007" lon="13.885601841962872"><ele>321.0</ele><time>2026-05-02T14:24:35.998Z</time></trkpt><trkpt lat="45.764706804037765" lon="13.885525095966322"><ele>322.00000000000006</ele><time>2026-05-02T14:24:36.997Z</time></trkpt><trkpt lat="45.76474370651323" lon="13.885445967660521"><ele>323.0</ele><time>2026-05-02T14:24:37.997Z</time></trkpt><trkpt lat="45.764774846302686" lon="13.885366548813813"><ele>323.00000000000006</ele><time>2026-05-02T14:24:38.997Z</time></trkpt><trkpt lat="45.76480173010756" lon="13.885272949063719"><ele>323.0</ele><time>2026-05-02T14:24:39.997Z</time></trkpt><trkpt lat="45.76482363055103" lon="13.885183940047131"><ele>323.0</ele><time>2026-05-02T14:24:40.997Z</time></trkpt><trkpt lat="45.76484605851517" lon="13.885090068425548"><ele>323.0</ele><time>2026-05-02T14:24:41.997Z</time></trkpt><trkpt lat="45.76486192400388" lon="13.8849894379759"><ele>323.0</ele><time>2026-05-02T14:24:42.997Z</time></trkpt><trkpt lat="45.76487626606258" lon="13.884889046944211"><ele>323.00000000000006</ele><time>2026-05-02T14:24:43.997Z</time></trkpt><trkpt lat="45.76488348518225" lon="13.884792206226392"><ele>323.0</ele><time>2026-05-02T14:24:44.997Z</time></trkpt><trkpt lat="45.76489286997699" lon="13.884698091616862"><ele>323.1666666666667</ele><time>2026-05-02T14:24:45.997Z</time></trkpt><trkpt lat="45.7649063231472" lon="13.884602513453522"><ele>323.33333333333337</ele><time>2026-05-02T14:24:46.997Z</time></trkpt><trkpt lat="45.76491716018916" lon="13.8845116042586"><ele>323.5</ele><time>2026-05-02T14:24:47.997Z</time></trkpt><trkpt lat="45.764915645584296" lon="13.884359730843155"><ele>323.6666666666667</ele><time>2026-05-02T14:24:50Z</time></trkpt><trkpt lat="45.76494789872982" lon="13.884236182668758"><ele>323.8333333333333</ele><time>2026-05-02T14:24:52Z</time></trkpt><trkpt lat="45.7649886914916" lon="13.884091547481226"><ele>324.0</ele><time>2026-05-02T14:24:54Z</time></trkpt><trkpt lat="45.76501510469839" lon="13.883911262611404"><ele>324.0</ele><time>2026-05-02T14:24:56Z</time></trkpt><trkpt lat="45.76503117671737" lon="13.883814261071219"><ele>324.0</ele><time>2026-05-02T14:24:57Z</time></trkpt><trkpt lat="45.76505009627998" lon="13.883714280427002"><ele>324.0</ele><time>2026-05-02T14:24:58Z</time></trkpt><trkpt lat="45.76508199460795" lon="13.883560430677845"><ele>324.0</ele><time>2026-05-02T14:25:00Z</time></trkpt><trkpt lat="45.76512213371088" lon="13.883450885906107"><ele>324.0</ele><time>2026-05-02T14:25:02Z</time></trkpt><trkpt lat="45.76518167890375" lon="13.883372193988746"><ele>324.0</ele><time>2026-05-02T14:25:04Z</time></trkpt><trkpt lat="45.76526161108131" lon="13.883361116852129"><ele>324.3333333333333</ele><time>2026-05-02T14:25:06Z</time></trkpt><trkpt lat="45.76532443799556" lon="13.883370253256903"><ele>324.6666666666667</ele><time>2026-05-02T14:25:22Z</time></trkpt><trkpt lat="45.765425070287854" lon="13.883455446730773"><ele>325.0</ele><time>2026-05-02T14:25:24Z</time></trkpt><trkpt lat="45.76548296231094" lon="13.883497479534086"><ele>325.33333333333337</ele><time>2026-05-02T14:25:26Z</time></trkpt><trkpt lat="45.76557227646562" lon="13.883523012101193"><ele>325.6666666666667</ele><time>2026-05-02T14:25:28.999Z</time></trkpt><trkpt lat="45.76566800808178" lon="13.883583183532519"><ele>326.0</ele><time>2026-05-02T14:25:30.999Z</time></trkpt><trkpt lat="45.76575006991769" lon="13.883642753295614"><ele>326.0</ele><time>2026-05-02T14:25:32.999Z</time></trkpt><trkpt lat="45.76579927818108" lon="13.883726394101583"><ele>326.0</ele><time>2026-05-02T14:25:34.999Z</time></trkpt><trkpt lat="45.76582341732112" lon="13.883838294437316"><ele>326.0</ele><time>2026-05-02T14:25:36.999Z</time></trkpt><trkpt lat="45.76583817001138" lon="13.884034607567862"><ele>326.0</ele><time>2026-05-02T14:25:38.999Z</time></trkpt><trkpt lat="45.765834123060785" lon="13.88416651149043"><ele>326.0</ele><time>2026-05-02T14:25:39.999Z</time></trkpt><trkpt lat="45.76586228748355" lon="13.884297106463892"><ele>326.20000000000005</ele><time>2026-05-02T14:25:40.999Z</time></trkpt><trkpt lat="45.765900600155874" lon="13.884424372882059"><ele>326.40000000000003</ele><time>2026-05-02T14:25:41.999Z</time></trkpt><trkpt lat="45.76596461213119" lon="13.884562046956539"><ele>326.6</ele><time>2026-05-02T14:25:42.999Z</time></trkpt><trkpt lat="45.76601352545882" lon="13.88470772275059"><ele>326.8</ele><time>2026-05-02T14:25:43.999Z</time></trkpt><trkpt lat="45.76605119315414" lon="13.88483396867155"><ele>327.0</ele><time>2026-05-02T14:25:44.999Z</time></trkpt><trkpt lat="45.766089390022486" lon="13.884958148421786"><ele>328.40000000000003</ele><time>2026-05-02T14:25:45.999Z</time></trkpt><trkpt lat="45.76613394470592" lon="13.885085188562028"><ele>329.8</ele><time>2026-05-02T14:25:46.999Z</time></trkpt><trkpt lat="45.76618128145578" lon="13.885196684371033"><ele>331.2</ele><time>2026-05-02T14:25:47.999Z</time></trkpt><trkpt lat="45.76624016947747" lon="13.885313414045822"><ele>332.6</ele><time>2026-05-02T14:25:48.999Z</time></trkpt><trkpt lat="45.76628512155028" lon="13.885434116983438"><ele>334.0</ele><time>2026-05-02T14:25:49.999Z</time></trkpt><trkpt lat="45.76636799999843" lon="13.885585434189508"><ele>334.0</ele><time>2026-05-02T14:25:51.999Z</time></trkpt><trkpt lat="45.76645890781641" lon="13.885694094304368"><ele>334.0</ele><time>2026-05-02T14:25:53.999Z</time></trkpt><trkpt lat="45.7664814988114" lon="13.885821941306771"><ele>334.0</ele><time>2026-05-02T14:25:55.999Z</time></trkpt><trkpt lat="45.76651622215505" lon="13.885954783900027"><ele>334.0</ele><time>2026-05-02T14:26:07.998Z</time></trkpt><trkpt lat="45.76649378584198" lon="13.886140142252735"><ele>334.0</ele><time>2026-05-02T14:26:09.998Z</time></trkpt><trkpt lat="45.766481041815815" lon="13.886257119342973"><ele>334.0</ele><time>2026-05-02T14:26:10.998Z</time></trkpt><trkpt lat="45.766465276144714" lon="13.886391976227177"><ele>334.0</ele><time>2026-05-02T14:26:11.998Z</time></trkpt><trkpt lat="45.76644802543728" lon="13.88654054876175"><ele>334.0</ele><time>2026-05-02T14:26:12.998Z</time></trkpt><trkpt lat="45.76643072063549" lon="13.886689587138708"><ele>334.0</ele><time>2026-05-02T14:26:13.998Z</time></trkpt><trkpt lat="45.76641280904376" lon="13.886825435828355"><ele>334.0</ele><time>2026-05-02T14:26:14.998Z</time></trkpt><trkpt lat="45.76639545704144" lon="13.886948980255985"><ele>334.0</ele><time>2026-05-02T14:26:15.998Z</time></trkpt><trkpt lat="45.766379222894386" lon="13.887064565689078"><ele>334.0</ele><time>2026-05-02T14:26:16.998Z</time></trkpt><trkpt lat="45.76636238357815" lon="13.887184459863079"><ele>334.0</ele><time>2026-05-02T14:26:17.998Z</time></trkpt><trkpt lat="45.76634558028485" lon="13.88730409755077"><ele>334.0</ele><time>2026-05-02T14:26:18.998Z</time></trkpt><trkpt lat="45.766329046858196" lon="13.887421813828121"><ele>334.0</ele><time>2026-05-02T14:26:19.998Z</time></trkpt><trkpt lat="45.766312861247634" lon="13.887537075930359"><ele>334.0</ele><time>2026-05-02T14:26:20.998Z</time></trkpt><trkpt lat="45.7663132439479" lon="13.887647352117522"><ele>334.0</ele><time>2026-05-02T14:26:21.998Z</time></trkpt><trkpt lat="45.76628845670965" lon="13.887778372057118"><ele>334.0</ele><time>2026-05-02T14:26:23.998Z</time></trkpt><trkpt lat="45.766292765440596" lon="13.887678225269518"><ele>334.0</ele><time>2026-05-02T14:26:34.998Z</time></trkpt><trkpt lat="45.7663390229584" lon="13.887552195246192"><ele>334.0</ele><time>2026-05-02T14:26:35.998Z</time></trkpt><trkpt lat="45.76636222405962" lon="13.887410173099996"><ele>334.0</ele><time>2026-05-02T14:26:36.998Z</time></trkpt><trkpt lat="45.766388608438135" lon="13.887240395321667"><ele>334.0</ele><time>2026-05-02T14:26:37.998Z</time></trkpt><trkpt lat="45.76642087673037" lon="13.887028253053737"><ele>334.0</ele><time>2026-05-02T14:26:38.998Z</time></trkpt><trkpt lat="45.766455737564016" lon="13.88678250970829"><ele>334.0</ele><time>2026-05-02T14:26:39.998Z</time></trkpt><trkpt lat="45.76648144661395" lon="13.886589111820033"><ele>334.0</ele><time>2026-05-02T14:26:40.998Z</time></trkpt><trkpt lat="45.76650382295947" lon="13.886418665673284"><ele>334.0</ele><time>2026-05-02T14:26:41.998Z</time></trkpt><trkpt lat="45.76652607240085" lon="13.886263910309507"><ele>334.0</ele><time>2026-05-02T14:26:42.998Z</time></trkpt><trkpt lat="45.7665407985368" lon="13.886120437817622"><ele>334.0</ele><time>2026-05-02T14:26:43.998Z</time></trkpt><trkpt lat="45.76654349733202" lon="13.886003474969373"><ele>334.0</ele><time>2026-05-02T14:26:44.998Z</time></trkpt><trkpt lat="45.766529568299624" lon="13.885870659912609"><ele>334.0</ele><time>2026-05-02T14:26:46.997Z</time></trkpt><trkpt lat="45.766635330393484" lon="13.886010250468335"><ele>334.0</ele><time>2026-05-02T14:26:52.997Z</time></trkpt><trkpt lat="45.76669912058151" lon="13.886113976352211"><ele>334.0</ele><time>2026-05-02T14:26:55Z</time></trkpt><trkpt lat="45.76675055092869" lon="13.886172717853203"><ele>334.0</ele><time>2026-05-02T14:26:57Z</time></trkpt><trkpt lat="45.76680592744227" lon="13.886258256982764"><ele>334.0</ele><time>2026-05-02T14:26:59Z</time></trkpt><trkpt lat="45.76684283473175" lon="13.886354694587832"><ele>334.66666666666663</ele><time>2026-05-02T14:27:01Z</time></trkpt><trkpt lat="45.766883747912416" lon="13.88642357374427"><ele>335.3333333333333</ele><time>2026-05-02T14:27:03Z</time></trkpt><trkpt lat="45.76693470058333" lon="13.886509354823234"><ele>336.0</ele><time>2026-05-02T14:27:05Z</time></trkpt><trkpt lat="45.76699095536863" lon="13.88660406225029"><ele>336.6666666666667</ele><time>2026-05-02T14:27:07Z</time></trkpt><trkpt lat="45.76705473791038" lon="13.886709962127814"><ele>337.33333333333337</ele><time>2026-05-02T14:27:09Z</time></trkpt><trkpt lat="45.76713476018368" lon="13.886810330173367"><ele>338.0</ele><time>2026-05-02T14:27:11Z</time></trkpt><trkpt lat="45.76720124995838" lon="13.886923328877126"><ele>338.59999999999997</ele><time>2026-05-02T14:27:13Z</time></trkpt><trkpt lat="45.767294883283405" lon="13.886996224638525"><ele>339.2</ele><time>2026-05-02T14:27:15Z</time></trkpt><trkpt lat="45.76739763072694" lon="13.88708882835599"><ele>339.8</ele><time>2026-05-02T14:27:17Z</time></trkpt><trkpt lat="45.767458303967274" lon="13.887115694540054"><ele>340.4</ele><time>2026-05-02T14:27:18Z</time></trkpt><trkpt lat="45.767545736416594" lon="13.88720938669194"><ele>341.0</ele><time>2026-05-02T14:27:20Z</time></trkpt><trkpt lat="45.76761581336379" lon="13.887268256727095"><ele>341.0</ele><time>2026-05-02T14:27:22Z</time></trkpt><trkpt lat="45.76768603418052" lon="13.887336505587022"><ele>341.0</ele><time>2026-05-02T14:27:24Z</time></trkpt><trkpt lat="45.76779051515066" lon="13.887483410955682"><ele>341.0</ele><time>2026-05-02T14:27:26Z</time></trkpt><trkpt lat="45.76783998094602" lon="13.887582795458906"><ele>341.0</ele><time>2026-05-02T14:27:27Z</time></trkpt><trkpt lat="45.76788089675695" lon="13.887673535451121"><ele>341.0</ele><time>2026-05-02T14:27:28Z</time></trkpt><trkpt lat="45.76792369204903" lon="13.887772887074348"><ele>339.1428571428571</ele><time>2026-05-02T14:27:29Z</time></trkpt><trkpt lat="45.76796377026505" lon="13.88786593084392"><ele>337.2857142857143</ele><time>2026-05-02T14:27:30Z</time></trkpt><trkpt lat="45.76802008565935" lon="13.887955223452169"><ele>335.42857142857144</ele><time>2026-05-02T14:27:31Z</time></trkpt><trkpt lat="45.768055368335865" lon="13.888048567687113"><ele>333.57142857142856</ele><time>2026-05-02T14:27:31.999Z</time></trkpt><trkpt lat="45.768089694709644" lon="13.888137748599219"><ele>331.7142857142857</ele><time>2026-05-02T14:27:32.999Z</time></trkpt><trkpt lat="45.7681175260486" lon="13.888229743067196"><ele>329.85714285714283</ele><time>2026-05-02T14:27:33.999Z</time></trkpt><trkpt lat="45.76814885987158" lon="13.888314993203958"><ele>328.0</ele><time>2026-05-02T14:27:34.999Z</time></trkpt><trkpt lat="45.76821250487962" lon="13.888405144852348"><ele>327.79999999999995</ele><time>2026-05-02T14:27:35.999Z</time></trkpt><trkpt lat="45.76829169942688" lon="13.888495540494587"><ele>327.6</ele><time>2026-05-02T14:27:36.999Z</time></trkpt><trkpt lat="45.76838336504573" lon="13.888581075737996"><ele>327.4</ele><time>2026-05-02T14:27:37.999Z</time></trkpt><trkpt lat="45.768495036301736" lon="13.888643778113773"><ele>327.20000000000005</ele><time>2026-05-02T14:27:38.999Z</time></trkpt><trkpt lat="45.76858522634098" lon="13.888704371392048"><ele>327.0</ele><time>2026-05-02T14:27:39.999Z</time></trkpt><trkpt lat="45.76866726478878" lon="13.888766860751057"><ele>327.3333333333333</ele><time>2026-05-02T14:27:40.999Z</time></trkpt><trkpt lat="45.76874174571673" lon="13.888824369390157"><ele>327.6666666666667</ele><time>2026-05-02T14:27:41.999Z</time></trkpt><trkpt lat="45.768802308285295" lon="13.888903403149767"><ele>328.0</ele><time>2026-05-02T14:27:42.999Z</time></trkpt><trkpt lat="45.76886049570595" lon="13.888957188306836"><ele>328.33333333333337</ele><time>2026-05-02T14:27:43.999Z</time></trkpt><trkpt lat="45.768922594562646" lon="13.889012251127312"><ele>328.6666666666667</ele><time>2026-05-02T14:27:44.999Z</time></trkpt><trkpt lat="45.768991047048075" lon="13.889053585610641"><ele>329.0</ele><time>2026-05-02T14:27:45.999Z</time></trkpt><trkpt lat="45.76905182477403" lon="13.889115014406512"><ele>329.0</ele><time>2026-05-02T14:27:46.999Z</time></trkpt><trkpt lat="45.769113710765524" lon="13.889166222984876"><ele>329.0</ele><time>2026-05-02T14:27:47.999Z</time></trkpt><trkpt lat="45.76918457898381" lon="13.889213149693141"><ele>329.0</ele><time>2026-05-02T14:27:48.999Z</time></trkpt><trkpt lat="45.76925167693725" lon="13.8892472490959"><ele>329.0</ele><time>2026-05-02T14:27:49.999Z</time></trkpt><trkpt lat="45.76931572071999" lon="13.889286373865431"><ele>329.0</ele><time>2026-05-02T14:27:50.999Z</time></trkpt><trkpt lat="45.769377502600484" lon="13.889336545439793"><ele>329.0</ele><time>2026-05-02T14:27:51.999Z</time></trkpt><trkpt lat="45.76944329596903" lon="13.889380566565833"><ele>329.0</ele><time>2026-05-02T14:27:52.999Z</time></trkpt><trkpt lat="45.76949718905058" lon="13.889449181408313"><ele>329.79999999999995</ele><time>2026-05-02T14:27:53.999Z</time></trkpt><trkpt lat="45.76955791000695" lon="13.889496678175089"><ele>330.59999999999997</ele><time>2026-05-02T14:27:54.999Z</time></trkpt><trkpt lat="45.76962626598001" lon="13.889550301900176"><ele>331.4</ele><time>2026-05-02T14:27:55.999Z</time></trkpt><trkpt lat="45.76971601991735" lon="13.889622322890895"><ele>332.2</ele><time>2026-05-02T14:27:57.999Z</time></trkpt><trkpt lat="45.76981268079982" lon="13.889681879385513"><ele>333.0</ele><time>2026-05-02T14:27:59.999Z</time></trkpt><trkpt lat="45.76989773005941" lon="13.889786657596368"><ele>333.0</ele><time>2026-05-02T14:28:01.999Z</time></trkpt><trkpt lat="45.76994273936987" lon="13.889858747288024"><ele>333.0</ele><time>2026-05-02T14:28:02.999Z</time></trkpt><trkpt lat="45.77000793790782" lon="13.889900899745294"><ele>333.0</ele><time>2026-05-02T14:28:03.999Z</time></trkpt><trkpt lat="45.77008591874567" lon="13.889949773422286"><ele>333.0</ele><time>2026-05-02T14:28:04.999Z</time></trkpt><trkpt lat="45.770187230464" lon="13.890002034329775"><ele>333.0</ele><time>2026-05-02T14:28:05.999Z</time></trkpt><trkpt lat="45.77029407398616" lon="13.890057885474784"><ele>333.0</ele><time>2026-05-02T14:28:06.999Z</time></trkpt><trkpt lat="45.77038143305339" lon="13.89010510423371"><ele>333.0</ele><time>2026-05-02T14:28:07.999Z</time></trkpt><trkpt lat="45.77044911021411" lon="13.890136776421159"><ele>333.0</ele><time>2026-05-02T14:28:08.999Z</time></trkpt><trkpt lat="45.77053183537502" lon="13.89015234809758"><ele>333.0</ele><time>2026-05-02T14:28:09.999Z</time></trkpt><trkpt lat="45.770601033223876" lon="13.890174660300358"><ele>333.0</ele><time>2026-05-02T14:28:10.998Z</time></trkpt><trkpt lat="45.770673789281844" lon="13.8901674611244"><ele>333.0</ele><time>2026-05-02T14:28:11.998Z</time></trkpt><trkpt lat="45.77074633776584" lon="13.89016279899309"><ele>333.0</ele><time>2026-05-02T14:28:12.998Z</time></trkpt><trkpt lat="45.77081548795078" lon="13.89015567309366"><ele>333.0</ele><time>2026-05-02T14:28:13.998Z</time></trkpt><trkpt lat="45.770881759898614" lon="13.890148353451785"><ele>333.0</ele><time>2026-05-02T14:28:14.998Z</time></trkpt><trkpt lat="45.770947098804804" lon="13.890150459312052"><ele>333.0</ele><time>2026-05-02T14:28:15.998Z</time></trkpt><trkpt lat="45.77102114537207" lon="13.890156617595322"><ele>333.0</ele><time>2026-05-02T14:28:16.998Z</time></trkpt><trkpt lat="45.77110473020111" lon="13.89015669009078"><ele>333.0</ele><time>2026-05-02T14:28:17.998Z</time></trkpt><trkpt lat="45.771187627914536" lon="13.890153238087123"><ele>333.0</ele><time>2026-05-02T14:28:18.998Z</time></trkpt><trkpt lat="45.77126938234212" lon="13.890147216355313"><ele>333.0</ele><time>2026-05-02T14:28:19.998Z</time></trkpt><trkpt lat="45.77135600979385" lon="13.890136284367"><ele>333.8333333333333</ele><time>2026-05-02T14:28:20.998Z</time></trkpt><trkpt lat="45.77142985989222" lon="13.890142446391794"><ele>334.6666666666667</ele><time>2026-05-02T14:28:21.998Z</time></trkpt><trkpt lat="45.77151549043131" lon="13.89013936237943"><ele>335.5</ele><time>2026-05-02T14:28:22.998Z</time></trkpt><trkpt lat="45.77160203668197" lon="13.890136245388806"><ele>336.33333333333337</ele><time>2026-05-02T14:28:23.998Z</time></trkpt><trkpt lat="45.77169592377564" lon="13.89013119501396"><ele>337.1666666666667</ele><time>2026-05-02T14:28:24.998Z</time></trkpt><trkpt lat="45.7717808968419" lon="13.890122827923724"><ele>338.0</ele><time>2026-05-02T14:28:25.998Z</time></trkpt><trkpt lat="45.77186179115772" lon="13.890095129498839"><ele>339.1666666666667</ele><time>2026-05-02T14:28:26.998Z</time></trkpt><trkpt lat="45.77194564735194" lon="13.89009216393129"><ele>340.33333333333337</ele><time>2026-05-02T14:28:27.998Z</time></trkpt><trkpt lat="45.77202795954476" lon="13.890083779992212"><ele>341.5</ele><time>2026-05-02T14:28:28.998Z</time></trkpt><trkpt lat="45.772117608684376" lon="13.890059443818528"><ele>342.6666666666667</ele><time>2026-05-02T14:28:29.998Z</time></trkpt><trkpt lat="45.77220662484675" lon="13.890023050864384"><ele>343.8333333333333</ele><time>2026-05-02T14:28:30.998Z</time></trkpt><trkpt lat="45.77228683494451" lon="13.890015495818268"><ele>345.0</ele><time>2026-05-02T14:28:31.998Z</time></trkpt><trkpt lat="45.772373316584165" lon="13.889982185908567"><ele>345.0</ele><time>2026-05-02T14:28:32.998Z</time></trkpt><trkpt lat="45.772453333427684" lon="13.889954203232497"><ele>345.0</ele><time>2026-05-02T14:28:33.998Z</time></trkpt><trkpt lat="45.77252918087494" lon="13.889929371419138"><ele>345.0</ele><time>2026-05-02T14:28:34.998Z</time></trkpt><trkpt lat="45.772602199211164" lon="13.889871720100471"><ele>345.0</ele><time>2026-05-02T14:28:35.998Z</time></trkpt><trkpt lat="45.77266711784141" lon="13.889834053630874"><ele>345.0</ele><time>2026-05-02T14:28:36.998Z</time></trkpt><trkpt lat="45.77272827013726" lon="13.889789048409943"><ele>345.0</ele><time>2026-05-02T14:28:37.998Z</time></trkpt><trkpt lat="45.77278002411156" lon="13.8897326237564"><ele>345.0</ele><time>2026-05-02T14:28:38.998Z</time></trkpt><trkpt lat="45.7728732769655" lon="13.889625926134174"><ele>347.0</ele><time>2026-05-02T14:28:40.998Z</time></trkpt><trkpt lat="45.77297134981573" lon="13.889571907696915"><ele>349.0</ele><time>2026-05-02T14:28:42.998Z</time></trkpt><trkpt lat="45.77310700322101" lon="13.889502450149593"><ele>351.0</ele><time>2026-05-02T14:28:44.998Z</time></trkpt><trkpt lat="45.773178362873146" lon="13.889472982196128"><ele>353.0</ele><time>2026-05-02T14:28:45.998Z</time></trkpt><trkpt lat="45.77324926257594" lon="13.88944856035224"><ele>355.0</ele><time>2026-05-02T14:28:46.998Z</time></trkpt><trkpt lat="45.77331909369716" lon="13.889429267738006"><ele>355.0</ele><time>2026-05-02T14:28:47.998Z</time></trkpt><trkpt lat="45.77340465887273" lon="13.889410575383593"><ele>355.0</ele><time>2026-05-02T14:28:48.998Z</time></trkpt><trkpt lat="45.773477466896566" lon="13.889398974982601"><ele>355.0</ele><time>2026-05-02T14:28:49.997Z</time></trkpt><trkpt lat="45.77354937663548" lon="13.88939123486795"><ele>355.0</ele><time>2026-05-02T14:28:50.997Z</time></trkpt><trkpt lat="45.77362300220438" lon="13.88938676267663"><ele>355.0</ele><time>2026-05-02T14:28:51.997Z</time></trkpt><trkpt lat="45.77369211061227" lon="13.889387482382459"><ele>355.0</ele><time>2026-05-02T14:28:52.997Z</time></trkpt><trkpt lat="45.77381190283945" lon="13.889393745174754"><ele>356.0</ele><time>2026-05-02T14:28:54.997Z</time></trkpt><trkpt lat="45.773908108529334" lon="13.889416517300413"><ele>357.0</ele><time>2026-05-02T14:28:56.997Z</time></trkpt><trkpt lat="45.774010184995774" lon="13.889460357805701"><ele>358.0</ele><time>2026-05-02T14:28:58.997Z</time></trkpt><trkpt lat="45.774128705299596" lon="13.889445848079166"><ele>359.0</ele><time>2026-05-02T14:29:01Z</time></trkpt><trkpt lat="45.77421313836924" lon="13.889391270897933"><ele>360.0</ele><time>2026-05-02T14:29:03Z</time></trkpt><trkpt lat="45.77431494015131" lon="13.889285501193834"><ele>361.0</ele><time>2026-05-02T14:29:05Z</time></trkpt><trkpt lat="45.774390622811254" lon="13.889204422389403"><ele>362.0</ele><time>2026-05-02T14:29:06Z</time></trkpt><trkpt lat="45.774449460737685" lon="13.88913340918608"><ele>363.0</ele><time>2026-05-02T14:29:07Z</time></trkpt><trkpt lat="45.77452473065194" lon="13.889098007359493"><ele>364.0</ele><time>2026-05-02T14:29:08Z</time></trkpt><trkpt lat="45.77458665455783" lon="13.889054549430066"><ele>365.0</ele><time>2026-05-02T14:29:09Z</time></trkpt><trkpt lat="45.77464686071399" lon="13.888987930779543"><ele>366.0</ele><time>2026-05-02T14:29:10Z</time></trkpt><trkpt lat="45.774728779248385" lon="13.888942800748264"><ele>366.0</ele><time>2026-05-02T14:29:11Z</time></trkpt><trkpt lat="45.774800222806384" lon="13.888901202406844"><ele>366.0</ele><time>2026-05-02T14:29:12Z</time></trkpt><trkpt lat="45.77486941513264" lon="13.888855619689583"><ele>366.0</ele><time>2026-05-02T14:29:13Z</time></trkpt><trkpt lat="45.774936315002634" lon="13.888820555449515"><ele>366.0</ele><time>2026-05-02T14:29:14Z</time></trkpt><trkpt lat="45.77499693059731" lon="13.888786655793309"><ele>366.0</ele><time>2026-05-02T14:29:15Z</time></trkpt><trkpt lat="45.77505656900691" lon="13.888757666717146"><ele>366.0</ele><time>2026-05-02T14:29:16Z</time></trkpt><trkpt lat="45.775163011276696" lon="13.888712870769462"><ele>364.3333333333333</ele><time>2026-05-02T14:29:18Z</time></trkpt><trkpt lat="45.775282604383285" lon="13.888645818325612"><ele>362.6666666666667</ele><time>2026-05-02T14:29:20Z</time></trkpt><trkpt lat="45.77536035663236" lon="13.888649336448509"><ele>361.0</ele><time>2026-05-02T14:29:21Z</time></trkpt><trkpt lat="45.775436547548495" lon="13.88863243830163"><ele>359.33333333333337</ele><time>2026-05-02T14:29:22Z</time></trkpt><trkpt lat="45.775511509253214" lon="13.888620485898779"><ele>357.6666666666667</ele><time>2026-05-02T14:29:23Z</time></trkpt><trkpt lat="45.77557961058774" lon="13.888609411800543"><ele>356.0</ele><time>2026-05-02T14:29:24Z</time></trkpt><trkpt lat="45.775703741464135" lon="13.888603313560866"><ele>356.0</ele><time>2026-05-02T14:29:26Z</time></trkpt><trkpt lat="45.77578848103891" lon="13.888598975894658"><ele>356.0</ele><time>2026-05-02T14:29:27Z</time></trkpt><trkpt lat="45.775870315352854" lon="13.888651988307325"><ele>356.0</ele><time>2026-05-02T14:29:28Z</time></trkpt><trkpt lat="45.77594875133525" lon="13.888695174294272"><ele>356.0</ele><time>2026-05-02T14:29:29Z</time></trkpt><trkpt lat="45.77602327975461" lon="13.888738259274396"><ele>356.0</ele><time>2026-05-02T14:29:30Z</time></trkpt><trkpt lat="45.77609677565689" lon="13.88877216027246"><ele>356.0</ele><time>2026-05-02T14:29:31Z</time></trkpt><trkpt lat="45.77616925739643" lon="13.888760867065367"><ele>356.1666666666667</ele><time>2026-05-02T14:29:32Z</time></trkpt><trkpt lat="45.77628243773908" lon="13.888759161238191"><ele>356.33333333333337</ele><time>2026-05-02T14:29:33.999Z</time></trkpt><trkpt lat="45.77634405226613" lon="13.888734599650883"><ele>356.5</ele><time>2026-05-02T14:29:34.999Z</time></trkpt><trkpt lat="45.77641305377164" lon="13.888720720659686"><ele>356.6666666666667</ele><time>2026-05-02T14:29:35.999Z</time></trkpt><trkpt lat="45.776469141890296" lon="13.888660372438869"><ele>356.8333333333333</ele><time>2026-05-02T14:29:36.999Z</time></trkpt><trkpt lat="45.7765302386038" lon="13.888623014205756"><ele>357.0</ele><time>2026-05-02T14:29:37.999Z</time></trkpt><trkpt lat="45.77656392513161" lon="13.888528081675593"><ele>358.6</ele><time>2026-05-02T14:29:38.999Z</time></trkpt><trkpt lat="45.77657708525084" lon="13.88842249392307"><ele>360.20000000000005</ele><time>2026-05-02T14:29:39.999Z</time></trkpt><trkpt lat="45.776633467424155" lon="13.888352400779995"><ele>361.8</ele><time>2026-05-02T14:29:40.999Z</time></trkpt><trkpt lat="45.77672090477088" lon="13.888251895313418"><ele>363.4</ele><time>2026-05-02T14:29:42.999Z</time></trkpt><trkpt lat="45.776823941571145" lon="13.888157922452528"><ele>365.0</ele><time>2026-05-02T14:29:44.999Z</time></trkpt><trkpt lat="45.77689235716637" lon="13.888119209820063"><ele>365.5</ele><time>2026-05-02T14:29:45.999Z</time></trkpt><trkpt lat="45.77697519329538" lon="13.888069730300403"><ele>366.0</ele><time>2026-05-02T14:29:46.999Z</time></trkpt><trkpt lat="45.77705711689466" lon="13.888014684912232"><ele>366.5</ele><time>2026-05-02T14:29:47.999Z</time></trkpt><trkpt lat="45.77713570783383" lon="13.887958241152171"><ele>367.0</ele><time>2026-05-02T14:29:48.999Z</time></trkpt><trkpt lat="45.777215026854684" lon="13.88792452171084"><ele>367.5</ele><time>2026-05-02T14:29:49.999Z</time></trkpt><trkpt lat="45.777288818774046" lon="13.887869426388807"><ele>368.0</ele><time>2026-05-02T14:29:50.999Z</time></trkpt><trkpt lat="45.77735719005491" lon="13.887807439309617"><ele>368.0</ele><time>2026-05-02T14:29:51.999Z</time></trkpt><trkpt lat="45.77741196185" lon="13.887750281767683"><ele>368.0</ele><time>2026-05-02T14:29:52.999Z</time></trkpt><trkpt lat="45.777510963137594" lon="13.887638677877725"><ele>368.0</ele><time>2026-05-02T14:29:54.999Z</time></trkpt><trkpt lat="45.77758766636961" lon="13.887530732388646"><ele>368.0</ele><time>2026-05-02T14:29:56.999Z</time></trkpt><trkpt lat="45.77766092483679" lon="13.887393414277835"><ele>368.0</ele><time>2026-05-02T14:29:58.999Z</time></trkpt><trkpt lat="45.777683215695134" lon="13.887290404321782"><ele>369.33333333333337</ele><time>2026-05-02T14:29:59.999Z</time></trkpt><trkpt lat="45.777690087592255" lon="13.887169921839163"><ele>370.6666666666667</ele><time>2026-05-02T14:30:00.999Z</time></trkpt><trkpt lat="45.77769646116087" lon="13.887077849161047"><ele>372.0</ele><time>2026-05-02T14:30:01.999Z</time></trkpt><trkpt lat="45.777756594256495" lon="13.886945705081141"><ele>373.3333333333333</ele><time>2026-05-02T14:30:03.999Z</time></trkpt><trkpt lat="45.777818086995616" lon="13.886889905889515"><ele>374.66666666666663</ele><time>2026-05-02T14:30:05.999Z</time></trkpt><trkpt lat="45.777900896620906" lon="13.886852180310967"><ele>376.0</ele><time>2026-05-02T14:30:07.999Z</time></trkpt><trkpt lat="45.778003649470705" lon="13.886852730148314"><ele>376.0</ele><time>2026-05-02T14:30:09.999Z</time></trkpt><trkpt lat="45.77806807620645" lon="13.886860136806588"><ele>376.0</ele><time>2026-05-02T14:30:10.999Z</time></trkpt><trkpt lat="45.778176553918826" lon="13.88688195414071"><ele>376.0</ele><time>2026-05-02T14:30:12.998Z</time></trkpt><trkpt lat="45.77826564664181" lon="13.886901255173482"><ele>376.0</ele><time>2026-05-02T14:30:14.998Z</time></trkpt><trkpt lat="45.77836303976694" lon="13.886918088853102"><ele>376.0</ele><time>2026-05-02T14:30:16.998Z</time></trkpt><trkpt lat="45.77847030805295" lon="13.886883332945551"><ele>376.5</ele><time>2026-05-02T14:30:18.998Z</time></trkpt><trkpt lat="45.77858129595006" lon="13.886804205185381"><ele>377.0</ele><time>2026-05-02T14:30:20.998Z</time></trkpt><trkpt lat="45.77863258579769" lon="13.886730841794781"><ele>377.5</ele><time>2026-05-02T14:30:21.998Z</time></trkpt><trkpt lat="45.77867345456401" lon="13.886648713929203"><ele>378.0</ele><time>2026-05-02T14:30:22.998Z</time></trkpt><trkpt lat="45.778707255702535" lon="13.886565211081487"><ele>378.5</ele><time>2026-05-02T14:30:23.998Z</time></trkpt><trkpt lat="45.778739109647816" lon="13.886427320721097"><ele>379.0</ele><time>2026-05-02T14:30:25.998Z</time></trkpt><trkpt lat="45.77873725200683" lon="13.886308886345049"><ele>380.0</ele><time>2026-05-02T14:30:28.998Z</time></trkpt><trkpt lat="45.77871821678581" lon="13.886184159620242"><ele>381.0</ele><time>2026-05-02T14:30:31.998Z</time></trkpt><trkpt lat="45.778685320197205" lon="13.886044431290378"><ele>382.0</ele><time>2026-05-02T14:30:33.998Z</time></trkpt><trkpt lat="45.778655677819025" lon="13.885886375107459"><ele>383.0</ele><time>2026-05-02T14:30:35.998Z</time></trkpt><trkpt lat="45.77864280009832" lon="13.885790096157482"><ele>384.00000000000006</ele><time>2026-05-02T14:30:36.998Z</time></trkpt><trkpt lat="45.778631774112014" lon="13.885685895265366"><ele>385.0</ele><time>2026-05-02T14:30:37.998Z</time></trkpt><trkpt lat="45.7786241714573" lon="13.885589888322704"><ele>385.50000000000006</ele><time>2026-05-02T14:30:38.998Z</time></trkpt><trkpt lat="45.77861422934348" lon="13.885499470097516"><ele>386.0</ele><time>2026-05-02T14:30:39.998Z</time></trkpt><trkpt lat="45.778596110414554" lon="13.885410693626396"><ele>386.5</ele><time>2026-05-02T14:30:40.998Z</time></trkpt><trkpt lat="45.778573065112184" lon="13.885320309554611"><ele>387.0</ele><time>2026-05-02T14:30:41.998Z</time></trkpt><trkpt lat="45.778550022220024" lon="13.885225137295187"><ele>387.50000000000006</ele><time>2026-05-02T14:30:42.998Z</time></trkpt><trkpt lat="45.7785243291817" lon="13.885083871964973"><ele>388.0</ele><time>2026-05-02T14:30:44.998Z</time></trkpt><trkpt lat="45.77858049239434" lon="13.884973970672878"><ele>388.0</ele><time>2026-05-02T14:30:48.998Z</time></trkpt><trkpt lat="45.778661388566334" lon="13.884968243795576"><ele>388.0</ele><time>2026-05-02T14:30:50.997Z</time></trkpt><trkpt lat="45.77879890492112" lon="13.88495213005258"><ele>388.0</ele><time>2026-05-02T14:30:52.997Z</time></trkpt><trkpt lat="45.778875133065014" lon="13.884955727752219"><ele>388.0</ele><time>2026-05-02T14:30:53.997Z</time></trkpt><trkpt lat="45.77896347473955" lon="13.885011226694285"><ele>388.0</ele><time>2026-05-02T14:30:54.997Z</time></trkpt><trkpt lat="45.779032667620264" lon="13.885060486441962"><ele>388.33333333333337</ele><time>2026-05-02T14:30:55.997Z</time></trkpt><trkpt lat="45.779101635653575" lon="13.885100628212944"><ele>388.6666666666667</ele><time>2026-05-02T14:30:57.997Z</time></trkpt><trkpt lat="45.77919235991037" lon="13.885134299369383"><ele>389.0</ele><time>2026-05-02T14:31:00.997Z</time></trkpt><trkpt lat="45.779298038269296" lon="13.885175838872565"><ele>389.33333333333337</ele><time>2026-05-02T14:31:02.997Z</time></trkpt><trkpt lat="45.77936730571142" lon="13.88520306608237"><ele>389.6666666666667</ele><time>2026-05-02T14:31:03.997Z</time></trkpt><trkpt lat="45.77942822990249" lon="13.88522701450717"><ele>390.0</ele><time>2026-05-02T14:31:04.997Z</time></trkpt><trkpt lat="45.77950589672076" lon="13.885270911162808"><ele>390.6666666666667</ele><time>2026-05-02T14:31:07Z</time></trkpt><trkpt lat="45.77957159693017" lon="13.885325936186153"><ele>391.33333333333337</ele><time>2026-05-02T14:31:11Z</time></trkpt><trkpt lat="45.77962106389154" lon="13.885434777351755"><ele>392.0</ele><time>2026-05-02T14:31:13Z</time></trkpt><trkpt lat="45.77968475716171" lon="13.885536693688213"><ele>392.6666666666667</ele><time>2026-05-02T14:31:15Z</time></trkpt><trkpt lat="45.77977670083049" lon="13.885522617988277"><ele>393.33333333333337</ele><time>2026-05-02T14:31:16Z</time></trkpt><trkpt lat="45.779836209162276" lon="13.885552520545945"><ele>394.0</ele><time>2026-05-02T14:31:17Z</time></trkpt><trkpt lat="45.77995835878068" lon="13.885604389057072"><ele>394.00000000000006</ele><time>2026-05-02T14:31:19Z</time></trkpt><trkpt lat="45.78008671001294" lon="13.885663201821902"><ele>394.0</ele><time>2026-05-02T14:31:21Z</time></trkpt><trkpt lat="45.78015025945156" lon="13.885690855086906"><ele>394.0</ele><time>2026-05-02T14:31:22Z</time></trkpt><trkpt lat="45.78021467595508" lon="13.88571261428808"><ele>394.0</ele><time>2026-05-02T14:31:23Z</time></trkpt><trkpt lat="45.78028338368732" lon="13.88573534271632"><ele>394.00000000000006</ele><time>2026-05-02T14:31:24Z</time></trkpt><trkpt lat="45.78035238924399" lon="13.885757673702098"><ele>394.0</ele><time>2026-05-02T14:31:25Z</time></trkpt><trkpt lat="45.78045580368988" lon="13.885789715192024"><ele>395.00000000000006</ele><time>2026-05-02T14:31:27Z</time></trkpt><trkpt lat="45.78053684385731" lon="13.885816589683184"><ele>396.0</ele><time>2026-05-02T14:31:29Z</time></trkpt><trkpt lat="45.780613112091174" lon="13.88584303819792"><ele>397.0</ele><time>2026-05-02T14:31:32Z</time></trkpt><trkpt lat="45.78068845439198" lon="13.885846063533275"><ele>398.0</ele><time>2026-05-02T14:31:34Z</time></trkpt><trkpt lat="45.780761513539744" lon="13.885842576682236"><ele>399.00000000000006</ele><time>2026-05-02T14:31:37Z</time></trkpt><trkpt lat="45.78083590172447" lon="13.885844247077307"><ele>400.0</ele><time>2026-05-02T14:31:40Z</time></trkpt><trkpt lat="45.7808914300938" lon="13.88590873134743"><ele>399.33333333333337</ele><time>2026-05-02T14:31:42Z</time></trkpt><trkpt lat="45.780930548701825" lon="13.885992245264994"><ele>398.6666666666667</ele><time>2026-05-02T14:31:43.999Z</time></trkpt><trkpt lat="45.780973093061945" lon="13.886082925961787"><ele>398.0</ele><time>2026-05-02T14:31:46.999Z</time></trkpt><trkpt lat="45.78108138884869" lon="13.886131967928558"><ele>397.33333333333337</ele><time>2026-05-02T14:31:54.999Z</time></trkpt><trkpt lat="45.78116455873485" lon="13.886175032534881"><ele>396.6666666666667</ele><time>2026-05-02T14:31:56.999Z</time></trkpt><trkpt lat="45.78124980026243" lon="13.886203504558416"><ele>396.0</ele><time>2026-05-02T14:31:58.999Z</time></trkpt><trkpt lat="45.781336190712786" lon="13.88623896418109"><ele>395.1666666666667</ele><time>2026-05-02T14:32:00.999Z</time></trkpt><trkpt lat="45.781413542567904" lon="13.886254649190201"><ele>394.33333333333337</ele><time>2026-05-02T14:32:02.999Z</time></trkpt><trkpt lat="45.781489733303744" lon="13.886277875624053"><ele>393.5</ele><time>2026-05-02T14:32:04.999Z</time></trkpt><trkpt lat="45.7815960569446" lon="13.88627366044188"><ele>392.6666666666667</ele><time>2026-05-02T14:32:06.999Z</time></trkpt><trkpt lat="45.781673712151814" lon="13.886252691196521"><ele>391.83333333333337</ele><time>2026-05-02T14:32:07.999Z</time></trkpt><trkpt lat="45.78173752955293" lon="13.886225765166024"><ele>391.0</ele><time>2026-05-02T14:32:08.999Z</time></trkpt><trkpt lat="45.78180630796967" lon="13.886202724145308"><ele>389.75</ele><time>2026-05-02T14:32:09.999Z</time></trkpt><trkpt lat="45.78191560718601" lon="13.886132385330573"><ele>388.5</ele><time>2026-05-02T14:32:11.999Z</time></trkpt><trkpt lat="45.78202090137816" lon="13.886041854726576"><ele>387.25</ele><time>2026-05-02T14:32:13.999Z</time></trkpt><trkpt lat="45.782126443506854" lon="13.886030608310348"><ele>386.0</ele><time>2026-05-02T14:32:15.999Z</time></trkpt><trkpt lat="45.7822248023685" lon="13.886103946430683"><ele>385.99999999999994</ele><time>2026-05-02T14:32:17.999Z</time></trkpt><trkpt lat="45.78229288695995" lon="13.886185702792677"><ele>386.0</ele><time>2026-05-02T14:32:19.999Z</time></trkpt><trkpt lat="45.78232104071818" lon="13.886320223743539"><ele>386.0</ele><time>2026-05-02T14:32:26.998Z</time></trkpt><trkpt lat="45.78236243122085" lon="13.886440478509295"><ele>386.0</ele><time>2026-05-02T14:32:28.998Z</time></trkpt><trkpt lat="45.782403539410645" lon="13.886539528976849"><ele>385.99999999999994</ele><time>2026-05-02T14:32:30.998Z</time></trkpt><trkpt lat="45.7824450205144" lon="13.886633862586645"><ele>386.0</ele><time>2026-05-02T14:32:32.998Z</time></trkpt><trkpt lat="45.7824922926565" lon="13.886710525856307"><ele>385.49999999999994</ele><time>2026-05-02T14:32:34.998Z</time></trkpt><trkpt lat="45.78255320753386" lon="13.886767635963889"><ele>385.0</ele><time>2026-05-02T14:32:36.998Z</time></trkpt><trkpt lat="45.782631287064646" lon="13.886813428309518"><ele>384.5</ele><time>2026-05-02T14:32:39.998Z</time></trkpt><trkpt lat="45.78269257861065" lon="13.886883853402782"><ele>384.0</ele><time>2026-05-02T14:32:45.998Z</time></trkpt><trkpt lat="45.782712802798216" lon="13.886999315753348"><ele>383.5</ele><time>2026-05-02T14:32:52.998Z</time></trkpt><trkpt lat="45.78274694373142" lon="13.88712767581102"><ele>383.0</ele><time>2026-05-02T14:32:54.998Z</time></trkpt><trkpt lat="45.78276708676622" lon="13.887237249464071"><ele>380.83333333333337</ele><time>2026-05-02T14:32:56.998Z</time></trkpt><trkpt lat="45.7827903668985" lon="13.887361730039698"><ele>378.6666666666667</ele><time>2026-05-02T14:32:58.998Z</time></trkpt><trkpt lat="45.78280558321531" lon="13.887501723454967"><ele>376.5</ele><time>2026-05-02T14:33:00.997Z</time></trkpt><trkpt lat="45.78283391039586" lon="13.887617742583316"><ele>374.3333333333333</ele><time>2026-05-02T14:33:02.997Z</time></trkpt><trkpt lat="45.78284407215116" lon="13.887724175839622"><ele>372.16666666666663</ele><time>2026-05-02T14:33:04.997Z</time></trkpt><trkpt lat="45.78285979450149" lon="13.88783226990217"><ele>370.0</ele><time>2026-05-02T14:33:06.997Z</time></trkpt><trkpt lat="45.78286273646272" lon="13.88793547526376"><ele>369.4285714285714</ele><time>2026-05-02T14:33:08.997Z</time></trkpt><trkpt lat="45.782865414943934" lon="13.888033341270456"><ele>368.85714285714283</ele><time>2026-05-02T14:33:10.997Z</time></trkpt><trkpt lat="45.78286978282437" lon="13.888128295930331"><ele>368.2857142857143</ele><time>2026-05-02T14:33:13Z</time></trkpt><trkpt lat="45.78289402983882" lon="13.88822988091781"><ele>367.71428571428567</ele><time>2026-05-02T14:33:16Z</time></trkpt><trkpt lat="45.782955810722946" lon="13.88826752104291"><ele>367.14285714285717</ele><time>2026-05-02T14:33:21Z</time></trkpt><trkpt lat="45.78301911941468" lon="13.888263940658176"><ele>366.57142857142856</ele><time>2026-05-02T14:33:23Z</time></trkpt><trkpt lat="45.7830923581672" lon="13.888254913048392"><ele>366.0</ele><time>2026-05-02T14:33:25Z</time></trkpt><trkpt lat="45.78317406173759" lon="13.888240693624068"><ele>366.0</ele><time>2026-05-02T14:33:28Z</time></trkpt><trkpt lat="45.783268582366645" lon="13.888227724246693"><ele>366.0</ele><time>2026-05-02T14:33:31Z</time></trkpt><trkpt lat="45.783350385298014" lon="13.888211277219234"><ele>366.0</ele><time>2026-05-02T14:33:33Z</time></trkpt><trkpt lat="45.78344101380677" lon="13.888200098939357"><ele>366.0</ele><time>2026-05-02T14:33:35Z</time></trkpt><trkpt lat="45.78352122044765" lon="13.888185807355619"><ele>366.0</ele><time>2026-05-02T14:33:37Z</time></trkpt><trkpt lat="45.78360751894908" lon="13.888192973836912"><ele>366.0</ele><time>2026-05-02T14:33:39Z</time></trkpt><trkpt lat="45.78369037932803" lon="13.888203308553399"><ele>364.0</ele><time>2026-05-02T14:33:41Z</time></trkpt><trkpt lat="45.78376313577776" lon="13.888195626815689"><ele>362.0</ele><time>2026-05-02T14:33:43Z</time></trkpt><trkpt lat="45.78383809801878" lon="13.888184714109748"><ele>360.0</ele><time>2026-05-02T14:33:44.999Z</time></trkpt><trkpt lat="45.7839246312133" lon="13.888155852605601"><ele>358.0</ele><time>2026-05-02T14:33:46.999Z</time></trkpt><trkpt lat="45.784007668070196" lon="13.88810473023449"><ele>356.0</ele><time>2026-05-02T14:33:48.999Z</time></trkpt><trkpt lat="45.78409730476991" lon="13.888011593111674"><ele>354.0</ele><time>2026-05-02T14:33:50.999Z</time></trkpt><trkpt lat="45.78417131385741" lon="13.887904781677264"><ele>354.0</ele><time>2026-05-02T14:33:52.999Z</time></trkpt><trkpt lat="45.78425744750606" lon="13.887792376594835"><ele>354.0</ele><time>2026-05-02T14:33:54.999Z</time></trkpt><trkpt lat="45.784311265695436" lon="13.887727445019332"><ele>354.0</ele><time>2026-05-02T14:33:55.999Z</time></trkpt><trkpt lat="45.78440979169184" lon="13.887629654335756"><ele>354.0</ele><time>2026-05-02T14:33:57.999Z</time></trkpt><trkpt lat="45.78446438643621" lon="13.887577889110815"><ele>354.0</ele><time>2026-05-02T14:33:58.999Z</time></trkpt><trkpt lat="45.78452895226389" lon="13.88753029856974"><ele>354.0</ele><time>2026-05-02T14:33:59.999Z</time></trkpt><trkpt lat="45.78463921201692" lon="13.887469622831253"><ele>353.3333333333333</ele><time>2026-05-02T14:34:01.999Z</time></trkpt><trkpt lat="45.78470340581987" lon="13.88744465745776"><ele>352.6666666666667</ele><time>2026-05-02T14:34:02.999Z</time></trkpt><trkpt lat="45.78477038454565" lon="13.8874219012499"><ele>352.0</ele><time>2026-05-02T14:34:03.999Z</time></trkpt><trkpt lat="45.784832340638204" lon="13.887404364056525"><ele>351.33333333333337</ele><time>2026-05-02T14:34:04.999Z</time></trkpt><trkpt lat="45.78492697800786" lon="13.8873702021864"><ele>350.6666666666667</ele><time>2026-05-02T14:34:06.999Z</time></trkpt><trkpt lat="45.78504139666709" lon="13.887325499958319"><ele>350.0</ele><time>2026-05-02T14:34:08.999Z</time></trkpt><trkpt lat="45.78511991474492" lon="13.887281472179545"><ele>350.0</ele><time>2026-05-02T14:34:10.999Z</time></trkpt><trkpt lat="45.78519427281362" lon="13.887215478863679"><ele>350.0</ele><time>2026-05-02T14:34:17.999Z</time></trkpt><trkpt lat="45.78524809215724" lon="13.887167183673322"><ele>350.0</ele><time>2026-05-02T14:34:18.999Z</time></trkpt><trkpt lat="45.78532590858986" lon="13.887111825633063"><ele>350.0</ele><time>2026-05-02T14:34:20.999Z</time></trkpt><trkpt lat="45.785401910257626" lon="13.887058943352105"><ele>350.0</ele><time>2026-05-02T14:34:22.998Z</time></trkpt><trkpt lat="45.78547173752956" lon="13.886985075372344"><ele>350.0</ele><time>2026-05-02T14:34:24.998Z</time></trkpt><trkpt lat="45.785564707206476" lon="13.886862231853389"><ele>350.0</ele><time>2026-05-02T14:34:26.998Z</time></trkpt><trkpt lat="45.78562684958247" lon="13.88679535778343"><ele>350.0</ele><time>2026-05-02T14:34:27.998Z</time></trkpt><trkpt lat="45.78570474659952" lon="13.886716146818207"><ele>350.0</ele><time>2026-05-02T14:34:28.998Z</time></trkpt><trkpt lat="45.78580099190506" lon="13.886629327116793"><ele>350.0</ele><time>2026-05-02T14:34:29.998Z</time></trkpt><trkpt lat="45.7858875266865" lon="13.886560459706203"><ele>350.0</ele><time>2026-05-02T14:34:30.998Z</time></trkpt><trkpt lat="45.78596571671652" lon="13.886499384110373"><ele>349.6666666666667</ele><time>2026-05-02T14:34:31.998Z</time></trkpt><trkpt lat="45.786045388410365" lon="13.886441534675312"><ele>349.33333333333337</ele><time>2026-05-02T14:34:32.998Z</time></trkpt><trkpt lat="45.786123577890585" lon="13.886384188974779"><ele>349.0</ele><time>2026-05-02T14:34:33.998Z</time></trkpt><trkpt lat="45.786196981454665" lon="13.886319969531298"><ele>348.6666666666667</ele><time>2026-05-02T14:34:34.998Z</time></trkpt><trkpt lat="45.78626973425055" lon="13.886258530132254"><ele>348.3333333333333</ele><time>2026-05-02T14:34:35.998Z</time></trkpt><trkpt lat="45.78633891411634" lon="13.886208115942475"><ele>348.0</ele><time>2026-05-02T14:34:36.998Z</time></trkpt><trkpt lat="45.78640760277618" lon="13.886160300988893"><ele>348.0</ele><time>2026-05-02T14:34:37.998Z</time></trkpt><trkpt lat="45.78647485871913" lon="13.886111119192005"><ele>348.0</ele><time>2026-05-02T14:34:38.998Z</time></trkpt><trkpt lat="45.78654958224344" lon="13.886057465956856"><ele>348.0</ele><time>2026-05-02T14:34:39.998Z</time></trkpt><trkpt lat="45.78662126891778" lon="13.886003956485155"><ele>348.0</ele><time>2026-05-02T14:34:40.998Z</time></trkpt><trkpt lat="45.78668724249353" lon="13.885952918958669"><ele>348.0</ele><time>2026-05-02T14:34:41.998Z</time></trkpt><trkpt lat="45.786761391040606" lon="13.885896880080859"><ele>348.0</ele><time>2026-05-02T14:34:42.998Z</time></trkpt><trkpt lat="45.78683581744471" lon="13.885837193739583"><ele>347.4</ele><time>2026-05-02T14:34:43.998Z</time></trkpt><trkpt lat="45.78691534580289" lon="13.885786957870485"><ele>346.79999999999995</ele><time>2026-05-02T14:34:44.998Z</time></trkpt><trkpt lat="45.78698241720943" lon="13.88574193525546"><ele>346.2</ele><time>2026-05-02T14:34:45.998Z</time></trkpt><trkpt lat="45.78708240570361" lon="13.885666544125586"><ele>345.6</ele><time>2026-05-02T14:34:47.998Z</time></trkpt><trkpt lat="45.787145009636234" lon="13.885574373220468"><ele>345.0</ele><time>2026-05-02T14:34:49.998Z</time></trkpt><trkpt lat="45.78719412251201" lon="13.885448697554152"><ele>345.0</ele><time>2026-05-02T14:34:51.998Z</time></trkpt><trkpt lat="45.78721731266756" lon="13.885351473698314"><ele>345.0</ele><time>2026-05-02T14:34:52.998Z</time></trkpt><trkpt lat="45.787229890410046" lon="13.885237972973401"><ele>345.0</ele><time>2026-05-02T14:34:53.998Z</time></trkpt><trkpt lat="45.78725217259109" lon="13.885105960610034"><ele>345.0</ele><time>2026-05-02T14:34:54.998Z</time></trkpt><trkpt lat="45.787273509497446" lon="13.88499292467556"><ele>345.0</ele><time>2026-05-02T14:34:55.998Z</time></trkpt><trkpt lat="45.787299406897986" lon="13.884881767666446"><ele>345.0</ele><time>2026-05-02T14:34:56.998Z</time></trkpt><trkpt lat="45.787328998755406" lon="13.884778260986511"><ele>345.0</ele><time>2026-05-02T14:34:57.998Z</time></trkpt><trkpt lat="45.787353750799404" lon="13.884675714469441"><ele>345.0</ele><time>2026-05-02T14:34:58.998Z</time></trkpt><trkpt lat="45.78737344051239" lon="13.884576975151635"><ele>345.0</ele><time>2026-05-02T14:34:59.998Z</time></trkpt><trkpt lat="45.787389153639865" lon="13.88447946487063"><ele>345.0</ele><time>2026-05-02T14:35:00.997Z</time></trkpt><trkpt lat="45.7874020936656" lon="13.884386653828907"><ele>345.0</ele><time>2026-05-02T14:35:01.997Z</time></trkpt><trkpt lat="45.78741584906505" lon="13.884292013486434"><ele>345.0</ele><time>2026-05-02T14:35:02.997Z</time></trkpt><trkpt lat="45.78742504316602" lon="13.88419604400308"><ele>345.0</ele><time>2026-05-02T14:35:03.997Z</time></trkpt><trkpt lat="45.78742619493838" lon="13.8841045784495"><ele>345.0</ele><time>2026-05-02T14:35:04.997Z</time></trkpt><trkpt lat="45.78742803394928" lon="13.883998328475704"><ele>345.0</ele><time>2026-05-02T14:35:05.997Z</time></trkpt><trkpt lat="45.787415220459536" lon="13.883891077341776"><ele>345.0</ele><time>2026-05-02T14:35:06.997Z</time></trkpt><trkpt lat="45.787406115322106" lon="13.883790036679166"><ele>345.0</ele><time>2026-05-02T14:35:07.997Z</time></trkpt><trkpt lat="45.78738290413861" lon="13.88370598488073"><ele>345.0</ele><time>2026-05-02T14:35:08.997Z</time></trkpt><trkpt lat="45.78736884644258" lon="13.883534424874389"><ele>345.0</ele><time>2026-05-02T14:35:10.997Z</time></trkpt><trkpt lat="45.7873986965816" lon="13.883396864718458"><ele>345.0</ele><time>2026-05-02T14:35:12.997Z</time></trkpt><trkpt lat="45.78747778616722" lon="13.883278632325576"><ele>345.0</ele><time>2026-05-02T14:35:14.997Z</time></trkpt><trkpt lat="45.78756702792602" lon="13.88319160740368"><ele>345.0</ele><time>2026-05-02T14:35:16.997Z</time></trkpt><trkpt lat="45.7876594078764" lon="13.883126172566833"><ele>345.0</ele><time>2026-05-02T14:35:19Z</time></trkpt><trkpt lat="45.78778018463477" lon="13.883129705373975"><ele>345.0</ele><time>2026-05-02T14:35:21Z</time></trkpt><trkpt lat="45.78787415014468" lon="13.883148573932871"><ele>345.1666666666667</ele><time>2026-05-02T14:35:22Z</time></trkpt><trkpt lat="45.787950914866364" lon="13.883173806318483"><ele>345.3333333333333</ele><time>2026-05-02T14:35:23Z</time></trkpt><trkpt lat="45.78802234813765" lon="13.883207232397744"><ele>345.5</ele><time>2026-05-02T14:35:24Z</time></trkpt><trkpt lat="45.78808830414055" lon="13.883257297080533"><ele>345.66666666666663</ele><time>2026-05-02T14:35:25Z</time></trkpt><trkpt lat="45.78815655701965" lon="13.883308842337904"><ele>345.8333333333333</ele><time>2026-05-02T14:35:26Z</time></trkpt><trkpt lat="45.78823916699543" lon="13.883386564893552"><ele>346.0</ele><time>2026-05-02T14:35:27Z</time></trkpt><trkpt lat="45.7883048661097" lon="13.88346483201851"><ele>346.0</ele><time>2026-05-02T14:35:28Z</time></trkpt><trkpt lat="45.7883764697923" lon="13.88353523729271"><ele>346.0</ele><time>2026-05-02T14:35:29Z</time></trkpt><trkpt lat="45.78845169477742" lon="13.883592471295284"><ele>346.0</ele><time>2026-05-02T14:35:30Z</time></trkpt><trkpt lat="45.78852912655019" lon="13.883626842538206"><ele>346.0</ele><time>2026-05-02T14:35:31Z</time></trkpt><trkpt lat="45.788609231763665" lon="13.883653626290927"><ele>346.0</ele><time>2026-05-02T14:35:32Z</time></trkpt><trkpt lat="45.788701745662664" lon="13.883679749438029"><ele>346.0</ele><time>2026-05-02T14:35:33Z</time></trkpt><trkpt lat="45.78877493882029" lon="13.883697822115515"><ele>346.3333333333333</ele><time>2026-05-02T14:35:34Z</time></trkpt><trkpt lat="45.788846731971326" lon="13.883703613908292"><ele>346.66666666666663</ele><time>2026-05-02T14:35:35Z</time></trkpt><trkpt lat="45.78892212834011" lon="13.883700153540644"><ele>347.0</ele><time>2026-05-02T14:35:36Z</time></trkpt><trkpt lat="45.78899871610501" lon="13.883690290817274"><ele>347.3333333333333</ele><time>2026-05-02T14:35:37Z</time></trkpt><trkpt lat="45.78906428059717" lon="13.883683957315071"><ele>347.6666666666667</ele><time>2026-05-02T14:35:38Z</time></trkpt><trkpt lat="45.78917911373243" lon="13.88365752989275"><ele>348.0</ele><time>2026-05-02T14:35:40Z</time></trkpt><trkpt lat="45.7892439161619" lon="13.883644086611172"><ele>347.79999999999995</ele><time>2026-05-02T14:35:41Z</time></trkpt><trkpt lat="45.78937616353907" lon="13.883589016013769"><ele>347.6</ele><time>2026-05-02T14:35:43Z</time></trkpt><trkpt lat="45.78945587483063" lon="13.88356175283145"><ele>347.4</ele><time>2026-05-02T14:35:44Z</time></trkpt><trkpt lat="45.789526092450515" lon="13.883527152665055"><ele>347.20000000000005</ele><time>2026-05-02T14:35:45Z</time></trkpt><trkpt lat="45.78961128788109" lon="13.883467305847812"><ele>347.0</ele><time>2026-05-02T14:35:46Z</time></trkpt><trkpt lat="45.78970400379156" lon="13.883415282764073"><ele>347.0</ele><time>2026-05-02T14:35:47Z</time></trkpt><trkpt lat="45.78978938651997" lon="13.88336098297316"><ele>347.0</ele><time>2026-05-02T14:35:48Z</time></trkpt><trkpt lat="45.78987044008205" lon="13.88331572988569"><ele>347.0</ele><time>2026-05-02T14:35:49Z</time></trkpt><trkpt lat="45.789944648962916" lon="13.88327977152076"><ele>347.0</ele><time>2026-05-02T14:35:50Z</time></trkpt><trkpt lat="45.79001291227903" lon="13.883221372748393"><ele>347.0</ele><time>2026-05-02T14:35:51Z</time></trkpt><trkpt lat="45.79007939201379" lon="13.88317494958506"><ele>347.0</ele><time>2026-05-02T14:35:52Z</time></trkpt><trkpt lat="45.79018959933708" lon="13.883115154586953"><ele>346.83333333333337</ele><time>2026-05-02T14:35:53.999Z</time></trkpt><trkpt lat="45.79027352483976" lon="13.883065480107993"><ele>346.6666666666667</ele><time>2026-05-02T14:35:55.999Z</time></trkpt><trkpt lat="45.7903444563194" lon="13.882954696041502"><ele>346.5</ele><time>2026-05-02T14:35:57.999Z</time></trkpt><trkpt lat="45.7903708858433" lon="13.8828715705791"><ele>346.3333333333333</ele><time>2026-05-02T14:35:58.999Z</time></trkpt><trkpt lat="45.79039344278234" lon="13.882770911365553"><ele>346.16666666666663</ele><time>2026-05-02T14:35:59.999Z</time></trkpt><trkpt lat="45.790425388695155" lon="13.882654353964936"><ele>346.0</ele><time>2026-05-02T14:36:00.999Z</time></trkpt><trkpt lat="45.79045201918017" lon="13.882547175706366"><ele>346.0</ele><time>2026-05-02T14:36:01.999Z</time></trkpt><trkpt lat="45.7904742997717" lon="13.88246250511176"><ele>346.0</ele><time>2026-05-02T14:36:02.999Z</time></trkpt><trkpt lat="45.79052786290251" lon="13.882315835963308"><ele>346.0</ele><time>2026-05-02T14:36:04.999Z</time></trkpt><trkpt lat="45.790606801845534" lon="13.882241455019193"><ele>346.0</ele><time>2026-05-02T14:36:06.999Z</time></trkpt><trkpt lat="45.79066273452721" lon="13.882191606139434"><ele>346.0</ele><time>2026-05-02T14:36:07.999Z</time></trkpt><trkpt lat="45.79072047730292" lon="13.882149285438151"><ele>346.0</ele><time>2026-05-02T14:36:08.999Z</time></trkpt><trkpt lat="45.79077267066637" lon="13.882092970921063"><ele>346.0</ele><time>2026-05-02T14:36:09.999Z</time></trkpt><trkpt lat="45.790818239136065" lon="13.882027817924227"><ele>346.0</ele><time>2026-05-02T14:36:10.999Z</time></trkpt><trkpt lat="45.790864058423956" lon="13.881942149409726"><ele>346.0</ele><time>2026-05-02T14:36:11.999Z</time></trkpt><trkpt lat="45.790878726124824" lon="13.881844553374448"><ele>346.0</ele><time>2026-05-02T14:36:12.999Z</time></trkpt><trkpt lat="45.790905044729186" lon="13.88174098996594"><ele>346.0</ele><time>2026-05-02T14:36:13.999Z</time></trkpt><trkpt lat="45.790939428060376" lon="13.881639648434103"><ele>346.0</ele><time>2026-05-02T14:36:14.999Z</time></trkpt><trkpt lat="45.790956545805365" lon="13.881544500953895"><ele>346.0</ele><time>2026-05-02T14:36:15.999Z</time></trkpt><trkpt lat="45.79098211093065" lon="13.881444189989777"><ele>346.5</ele><time>2026-05-02T14:36:16.999Z</time></trkpt><trkpt lat="45.79102978172712" lon="13.88128093825103"><ele>347.0</ele><time>2026-05-02T14:36:18.999Z</time></trkpt><trkpt lat="45.791056560214756" lon="13.881188918852038"><ele>347.5</ele><time>2026-05-02T14:36:19.999Z</time></trkpt><trkpt lat="45.79107299982681" lon="13.881095266530188"><ele>348.0</ele><time>2026-05-02T14:36:20.999Z</time></trkpt><trkpt lat="45.79108029813463" lon="13.88099716332669"><ele>348.5</ele><time>2026-05-02T14:36:21.999Z</time></trkpt><trkpt lat="45.79107949787409" lon="13.880893880179398"><ele>349.0</ele><time>2026-05-02T14:36:22.999Z</time></trkpt><trkpt lat="45.791069489768255" lon="13.880789411128616"><ele>349.0</ele><time>2026-05-02T14:36:23.999Z</time></trkpt><trkpt lat="45.7910520660829" lon="13.880675119160392"><ele>349.0</ele><time>2026-05-02T14:36:24.999Z</time></trkpt><trkpt lat="45.79104766983242" lon="13.880565568593406"><ele>349.0</ele><time>2026-05-02T14:36:25.999Z</time></trkpt><trkpt lat="45.79104003880576" lon="13.880469899321133"><ele>349.0</ele><time>2026-05-02T14:36:26.999Z</time></trkpt><trkpt lat="45.791050018461995" lon="13.880367781979938"><ele>349.0</ele><time>2026-05-02T14:36:27.999Z</time></trkpt><trkpt lat="45.791091670234486" lon="13.880164111095166"><ele>349.0</ele><time>2026-05-02T14:36:29.999Z</time></trkpt><trkpt lat="45.79111345550672" lon="13.880039220111552"><ele>350.3333333333333</ele><time>2026-05-02T14:36:30.999Z</time></trkpt><trkpt lat="45.791155554710706" lon="13.879931428074665"><ele>351.66666666666663</ele><time>2026-05-02T14:36:31.998Z</time></trkpt><trkpt lat="45.791201076802295" lon="13.879806655398639"><ele>353.0</ele><time>2026-05-02T14:36:32.998Z</time></trkpt><trkpt lat="45.79124172638344" lon="13.87969687968526"><ele>354.3333333333333</ele><time>2026-05-02T14:36:33.998Z</time></trkpt><trkpt lat="45.79126537344662" lon="13.879602187752862"><ele>355.6666666666667</ele><time>2026-05-02T14:36:34.998Z</time></trkpt><trkpt lat="45.791314473064915" lon="13.879510888870312"><ele>357.0</ele><time>2026-05-02T14:36:35.998Z</time></trkpt><trkpt lat="45.79135523732274" lon="13.879411694188763"><ele>357.0</ele><time>2026-05-02T14:36:36.998Z</time></trkpt><trkpt lat="45.791408011810155" lon="13.879313890668413"><ele>357.0</ele><time>2026-05-02T14:36:37.998Z</time></trkpt><trkpt lat="45.79146913930947" lon="13.879221220877662"><ele>357.0</ele><time>2026-05-02T14:36:38.998Z</time></trkpt><trkpt lat="45.79152956458729" lon="13.879127863318867"><ele>357.0</ele><time>2026-05-02T14:36:39.998Z</time></trkpt><trkpt lat="45.79159684714941" lon="13.879043389901964"><ele>357.0</ele><time>2026-05-02T14:36:40.998Z</time></trkpt><trkpt lat="45.79166897101795" lon="13.878949848358479"><ele>356.3333333333333</ele><time>2026-05-02T14:36:41.998Z</time></trkpt><trkpt lat="45.79173315117293" lon="13.878868619456513"><ele>355.6666666666667</ele><time>2026-05-02T14:36:42.998Z</time></trkpt><trkpt lat="45.791799052336415" lon="13.878789296990803"><ele>355.0</ele><time>2026-05-02T14:36:43.998Z</time></trkpt><trkpt lat="45.791865581641524" lon="13.878707803008098"><ele>354.33333333333337</ele><time>2026-05-02T14:36:44.998Z</time></trkpt><trkpt lat="45.79193189943151" lon="13.878633550297678"><ele>353.6666666666667</ele><time>2026-05-02T14:36:45.998Z</time></trkpt><trkpt lat="45.79199228176291" lon="13.878559167404042"><ele>353.0</ele><time>2026-05-02T14:36:46.998Z</time></trkpt><trkpt lat="45.79205650763128" lon="13.878490222658721"><ele>355.5</ele><time>2026-05-02T14:36:47.998Z</time></trkpt><trkpt lat="45.792115810232126" lon="13.878422734399852"><ele>358.0</ele><time>2026-05-02T14:36:48.998Z</time></trkpt><trkpt lat="45.79217829896392" lon="13.878352290281855"><ele>360.5</ele><time>2026-05-02T14:36:49.998Z</time></trkpt><trkpt lat="45.792245289081954" lon="13.878282027405849"><ele>363.0</ele><time>2026-05-02T14:36:50.998Z</time></trkpt><trkpt lat="45.792314815020454" lon="13.878200381543236"><ele>365.5</ele><time>2026-05-02T14:36:51.998Z</time></trkpt><trkpt lat="45.792388575022684" lon="13.87811862289917"><ele>368.0</ele><time>2026-05-02T14:36:52.998Z</time></trkpt><trkpt lat="45.79245879000957" lon="13.878032743050385"><ele>368.0</ele><time>2026-05-02T14:36:53.998Z</time></trkpt><trkpt lat="45.792518857658465" lon="13.877944830432911"><ele>368.0</ele><time>2026-05-02T14:36:54.998Z</time></trkpt><trkpt lat="45.79257607454018" lon="13.877874209952179"><ele>368.0</ele><time>2026-05-02T14:36:55.998Z</time></trkpt><trkpt lat="45.79262607555968" lon="13.877795626417761"><ele>368.0</ele><time>2026-05-02T14:36:56.998Z</time></trkpt><trkpt lat="45.79266612029787" lon="13.877711101643177"><ele>368.0</ele><time>2026-05-02T14:36:57.998Z</time></trkpt><trkpt lat="45.792696012582" lon="13.877624078618291"><ele>368.0</ele><time>2026-05-02T14:36:58.998Z</time></trkpt><trkpt lat="45.79271375553249" lon="13.877446508833419"><ele>368.0</ele><time>2026-05-02T14:37:00.998Z</time></trkpt><trkpt lat="45.792710213086515" lon="13.877334294308678"><ele>368.0</ele><time>2026-05-02T14:37:01.998Z</time></trkpt><trkpt lat="45.79270181140852" lon="13.877226348811982"><ele>368.0</ele><time>2026-05-02T14:37:02.998Z</time></trkpt><trkpt lat="45.79270816741543" lon="13.8771060276496"><ele>368.0</ele><time>2026-05-02T14:37:03.998Z</time></trkpt><trkpt lat="45.7927158213681" lon="13.876977456803738"><ele>368.0</ele><time>2026-05-02T14:37:04.998Z</time></trkpt><trkpt lat="45.79272447691923" lon="13.876878790066705"><ele>368.0</ele><time>2026-05-02T14:37:05.998Z</time></trkpt><trkpt lat="45.79275590497524" lon="13.876727960846235"><ele>368.0</ele><time>2026-05-02T14:37:07.998Z</time></trkpt><trkpt lat="45.79274406182996" lon="13.87659953734951"><ele>368.0</ele><time>2026-05-02T14:37:09.998Z</time></trkpt><trkpt lat="45.79267450018443" lon="13.876441121482697"><ele>368.0</ele><time>2026-05-02T14:37:11.997Z</time></trkpt><trkpt lat="45.792597090116054" lon="13.876324868477393"><ele>368.0</ele><time>2026-05-02T14:37:12.997Z</time></trkpt><trkpt lat="45.792530207383784" lon="13.876212346589432"><ele>368.0</ele><time>2026-05-02T14:37:13.997Z</time></trkpt><trkpt lat="45.79247255033058" lon="13.876126189855803"><ele>370.59999999999997</ele><time>2026-05-02T14:37:14.997Z</time></trkpt><trkpt lat="45.79241236293022" lon="13.876032675723655"><ele>373.2</ele><time>2026-05-02T14:37:15.997Z</time></trkpt><trkpt lat="45.79233683932973" lon="13.875913344823225"><ele>375.8</ele><time>2026-05-02T14:37:16.997Z</time></trkpt><trkpt lat="45.792259136194765" lon="13.875806775077562"><ele>378.4</ele><time>2026-05-02T14:37:17.997Z</time></trkpt><trkpt lat="45.79218615109284" lon="13.875726674036487"><ele>381.0</ele><time>2026-05-02T14:37:18.997Z</time></trkpt><trkpt lat="45.792131536002856" lon="13.875656001879992"><ele>381.0</ele><time>2026-05-02T14:37:19.997Z</time></trkpt><trkpt lat="45.79204771061345" lon="13.875536086345184"><ele>381.0</ele><time>2026-05-02T14:37:21.997Z</time></trkpt><trkpt lat="45.79198957180401" lon="13.87540303700689"><ele>381.0</ele><time>2026-05-02T14:37:23.997Z</time></trkpt><trkpt lat="45.79196094848064" lon="13.875225670438358"><ele>381.0</ele><time>2026-05-02T14:37:26Z</time></trkpt><trkpt lat="45.79195755610624" lon="13.875100083842174"><ele>381.0</ele><time>2026-05-02T14:37:27Z</time></trkpt><trkpt lat="45.79196300018194" lon="13.874961710025886"><ele>380.8</ele><time>2026-05-02T14:37:28Z</time></trkpt><trkpt lat="45.791967584286354" lon="13.874818291189586"><ele>380.6</ele><time>2026-05-02T14:37:29Z</time></trkpt><trkpt lat="45.79197929853257" lon="13.874678957587774"><ele>380.4</ele><time>2026-05-02T14:37:30Z</time></trkpt><trkpt lat="45.791979160564765" lon="13.874529092982222"><ele>380.2</ele><time>2026-05-02T14:37:31Z</time></trkpt><trkpt lat="45.79198680142072" lon="13.874402462260855"><ele>380.0</ele><time>2026-05-02T14:37:32Z</time></trkpt><trkpt lat="45.79199666998248" lon="13.8742730170038"><ele>380.4</ele><time>2026-05-02T14:37:33Z</time></trkpt><trkpt lat="45.792003635624894" lon="13.874151234998815"><ele>380.8</ele><time>2026-05-02T14:37:34Z</time></trkpt><trkpt lat="45.792020319212476" lon="13.87402489274965"><ele>381.20000000000005</ele><time>2026-05-02T14:37:35Z</time></trkpt><trkpt lat="45.79203480446588" lon="13.873903003836446"><ele>381.6</ele><time>2026-05-02T14:37:36Z</time></trkpt><trkpt lat="45.79205884993835" lon="13.873735638966835"><ele>382.0</ele><time>2026-05-02T14:37:38Z</time></trkpt><trkpt lat="45.79208097716692" lon="13.87363744777545"><ele>382.0</ele><time>2026-05-02T14:37:39Z</time></trkpt><trkpt lat="45.792113551813046" lon="13.873529844594792"><ele>382.0</ele><time>2026-05-02T14:37:40Z</time></trkpt><trkpt lat="45.79215672965683" lon="13.873425588303128"><ele>382.0</ele><time>2026-05-02T14:37:41Z</time></trkpt><trkpt lat="45.792180057104424" lon="13.873306940084344"><ele>382.0</ele><time>2026-05-02T14:37:42Z</time></trkpt><trkpt lat="45.79219885324551" lon="13.873186810270944"><ele>382.0</ele><time>2026-05-02T14:37:43Z</time></trkpt><trkpt lat="45.79222090904667" lon="13.873076789365632"><ele>382.0</ele><time>2026-05-02T14:37:44Z</time></trkpt><trkpt lat="45.7922732355958" lon="13.872924453493537"><ele>382.6</ele><time>2026-05-02T14:37:46Z</time></trkpt><trkpt lat="45.79234669710454" lon="13.872830969881624"><ele>383.20000000000005</ele><time>2026-05-02T14:37:48Z</time></trkpt><trkpt lat="45.79241539063947" lon="13.872743285456343"><ele>383.8</ele><time>2026-05-02T14:37:50Z</time></trkpt><trkpt lat="45.79248156999286" lon="13.872648982217942"><ele>384.4</ele><time>2026-05-02T14:37:52Z</time></trkpt><trkpt lat="45.79254134673072" lon="13.872534670307973"><ele>385.0</ele><time>2026-05-02T14:37:54Z</time></trkpt><trkpt lat="45.7925972137535" lon="13.872370218874146"><ele>385.00000000000006</ele><time>2026-05-02T14:37:56Z</time></trkpt><trkpt lat="45.79260765263659" lon="13.872263500917645"><ele>385.0</ele><time>2026-05-02T14:37:57Z</time></trkpt><trkpt lat="45.792609850753394" lon="13.87215306379841"><ele>385.0</ele><time>2026-05-02T14:37:58Z</time></trkpt><trkpt lat="45.79261357916977" lon="13.8720524190207"><ele>385.0</ele><time>2026-05-02T14:37:59Z</time></trkpt><trkpt lat="45.792640666689756" lon="13.871893124296323"><ele>385.00000000000006</ele><time>2026-05-02T14:38:01Z</time></trkpt><trkpt lat="45.792660665967475" lon="13.871793228963211"><ele>385.0</ele><time>2026-05-02T14:38:01.999Z</time></trkpt><trkpt lat="45.792693552293706" lon="13.871703813505201"><ele>382.50000000000006</ele><time>2026-05-02T14:38:02.999Z</time></trkpt><trkpt lat="45.7927387684857" lon="13.871607518630164"><ele>380.0</ele><time>2026-05-02T14:38:03.999Z</time></trkpt><trkpt lat="45.79278538382628" lon="13.871538863789066"><ele>377.5</ele><time>2026-05-02T14:38:04.999Z</time></trkpt><trkpt lat="45.792835066450756" lon="13.871470326055466"><ele>375.0</ele><time>2026-05-02T14:38:05.999Z</time></trkpt><trkpt lat="45.79291672558584" lon="13.871338445726824"><ele>372.5</ele><time>2026-05-02T14:38:07.999Z</time></trkpt><trkpt lat="45.792974950107144" lon="13.871269614124177"><ele>370.0</ele><time>2026-05-02T14:38:08.999Z</time></trkpt><trkpt lat="45.79303703333325" lon="13.8712056560174"><ele>370.0</ele><time>2026-05-02T14:38:09.999Z</time></trkpt><trkpt lat="45.79309711048881" lon="13.871148397054233"><ele>370.0</ele><time>2026-05-02T14:38:10.999Z</time></trkpt><trkpt lat="45.79316121888637" lon="13.871095120400655"><ele>370.0</ele><time>2026-05-02T14:38:11.999Z</time></trkpt><trkpt lat="45.79323025468338" lon="13.871047505334989"><ele>370.0</ele><time>2026-05-02T14:38:12.999Z</time></trkpt><trkpt lat="45.793322857695465" lon="13.871000295185837"><ele>370.0</ele><time>2026-05-02T14:38:13.999Z</time></trkpt><trkpt lat="45.793402484772734" lon="13.870964035243595"><ele>370.0</ele><time>2026-05-02T14:38:14.999Z</time></trkpt><trkpt lat="45.79346968761487" lon="13.870922624159642"><ele>370.8333333333333</ele><time>2026-05-02T14:38:15.999Z</time></trkpt><trkpt lat="45.79353084436582" lon="13.870866929442052"><ele>371.66666666666663</ele><time>2026-05-02T14:38:16.999Z</time></trkpt><trkpt lat="45.79359356026372" lon="13.870811221809246"><ele>372.5</ele><time>2026-05-02T14:38:17.999Z</time></trkpt><trkpt lat="45.79363858298064" lon="13.870740460322097"><ele>373.3333333333333</ele><time>2026-05-02T14:38:18.999Z</time></trkpt><trkpt lat="45.7936945864766" lon="13.870671727595647"><ele>374.1666666666667</ele><time>2026-05-02T14:38:19.999Z</time></trkpt><trkpt lat="45.79378987597472" lon="13.870579597853745"><ele>375.0</ele><time>2026-05-02T14:38:21.999Z</time></trkpt><trkpt lat="45.793902241823254" lon="13.870472127838772"><ele>375.0</ele><time>2026-05-02T14:38:23.999Z</time></trkpt><trkpt lat="45.79397183369555" lon="13.870415880708789"><ele>375.0</ele><time>2026-05-02T14:38:24.999Z</time></trkpt><trkpt lat="45.794034171012186" lon="13.870366102660004"><ele>375.0</ele><time>2026-05-02T14:38:25.999Z</time></trkpt><trkpt lat="45.794105526037484" lon="13.870328614337344"><ele>375.0</ele><time>2026-05-02T14:38:26.999Z</time></trkpt><trkpt lat="45.79417255428221" lon="13.870282955751183"><ele>375.0</ele><time>2026-05-02T14:38:27.999Z</time></trkpt><trkpt lat="45.79423422566882" lon="13.870246290520367"><ele>375.0</ele><time>2026-05-02T14:38:28.999Z</time></trkpt><trkpt lat="45.79430727469884" lon="13.870229572373916"><ele>375.0</ele><time>2026-05-02T14:38:29.999Z</time></trkpt><trkpt lat="45.79437683003498" lon="13.870225253461706"><ele>373.7142857142857</ele><time>2026-05-02T14:38:30.999Z</time></trkpt><trkpt lat="45.79444872992329" lon="13.870235765562168"><ele>372.4285714285714</ele><time>2026-05-02T14:38:31.999Z</time></trkpt><trkpt lat="45.79450716137304" lon="13.87027446906084"><ele>371.1428571428571</ele><time>2026-05-02T14:38:32.999Z</time></trkpt><trkpt lat="45.79457778015839" lon="13.870326088180125"><ele>369.8571428571429</ele><time>2026-05-02T14:38:33.999Z</time></trkpt><trkpt lat="45.79464871593216" lon="13.87037476962532"><ele>368.57142857142856</ele><time>2026-05-02T14:38:34.999Z</time></trkpt><trkpt lat="45.794723733325505" lon="13.870436995217435"><ele>367.2857142857143</ele><time>2026-05-02T14:38:35.999Z</time></trkpt><trkpt lat="45.79478382193845" lon="13.870479007824413"><ele>366.0</ele><time>2026-05-02T14:38:36.999Z</time></trkpt><trkpt lat="45.79485237812216" lon="13.870514048446868"><ele>366.0</ele><time>2026-05-02T14:38:37.999Z</time></trkpt><trkpt lat="45.7949154026457" lon="13.870542973811874"><ele>366.0</ele><time>2026-05-02T14:38:38.999Z</time></trkpt><trkpt lat="45.79498003174521" lon="13.870541331239636"><ele>366.0</ele><time>2026-05-02T14:38:39.998Z</time></trkpt><trkpt lat="45.79509502895795" lon="13.870483225483444"><ele>366.0</ele><time>2026-05-02T14:38:41.998Z</time></trkpt><trkpt lat="45.79514644496213" lon="13.870420673237955"><ele>366.0</ele><time>2026-05-02T14:38:42.998Z</time></trkpt><trkpt lat="45.795201023355425" lon="13.870338648163473"><ele>366.0</ele><time>2026-05-02T14:38:43.998Z</time></trkpt><trkpt lat="45.795278862185455" lon="13.870198144097042"><ele>365.8333333333333</ele><time>2026-05-02T14:38:45.998Z</time></trkpt><trkpt lat="45.79532305318813" lon="13.87012989603247"><ele>365.6666666666667</ele><time>2026-05-02T14:38:46.998Z</time></trkpt><trkpt lat="45.79540678195843" lon="13.869984734299136"><ele>365.5</ele><time>2026-05-02T14:38:48.998Z</time></trkpt><trkpt lat="45.79544958055459" lon="13.869897427476396"><ele>365.33333333333337</ele><time>2026-05-02T14:38:49.998Z</time></trkpt><trkpt lat="45.7954964186089" lon="13.869804312554315"><ele>365.1666666666667</ele><time>2026-05-02T14:38:50.998Z</time></trkpt><trkpt lat="45.79553841849342" lon="13.86971605594286"><ele>365.0</ele><time>2026-05-02T14:38:51.998Z</time></trkpt><trkpt lat="45.795581574851305" lon="13.869603922183455"><ele>364.8</ele><time>2026-05-02T14:38:52.998Z</time></trkpt><trkpt lat="45.795620537486116" lon="13.869504929755143"><ele>364.6</ele><time>2026-05-02T14:38:53.998Z</time></trkpt><trkpt lat="45.79566943650451" lon="13.869424200396677"><ele>364.4</ele><time>2026-05-02T14:38:54.998Z</time></trkpt><trkpt lat="45.79573205960892" lon="13.869273745999806"><ele>364.2</ele><time>2026-05-02T14:38:56.998Z</time></trkpt><trkpt lat="45.79576731869308" lon="13.869191975621273"><ele>364.0</ele><time>2026-05-02T14:38:57.998Z</time></trkpt><trkpt lat="45.79582437522925" lon="13.86901963381439"><ele>364.0</ele><time>2026-05-02T14:38:59.998Z</time></trkpt><trkpt lat="45.79585440965752" lon="13.868922882622229"><ele>364.0</ele><time>2026-05-02T14:39:00.998Z</time></trkpt><trkpt lat="45.79587743054826" lon="13.86881595747308"><ele>364.0</ele><time>2026-05-02T14:39:01.998Z</time></trkpt><trkpt lat="45.795883973355814" lon="13.868717790583236"><ele>364.0</ele><time>2026-05-02T14:39:02.998Z</time></trkpt><trkpt lat="45.79589158711375" lon="13.868618589977167"><ele>364.0</ele><time>2026-05-02T14:39:03.998Z</time></trkpt><trkpt lat="45.79590851164762" lon="13.86852923383838"><ele>364.0</ele><time>2026-05-02T14:39:04.998Z</time></trkpt><trkpt lat="45.795912217636676" lon="13.868433138970602"><ele>364.0</ele><time>2026-05-02T14:39:05.998Z</time></trkpt><trkpt lat="45.79593516461021" lon="13.868337520970915"><ele>363.5</ele><time>2026-05-02T14:39:06.998Z</time></trkpt><trkpt lat="45.79595740197256" lon="13.868241032790907"><ele>363.0</ele><time>2026-05-02T14:39:07.998Z</time></trkpt><trkpt lat="45.79597761350489" lon="13.868143312375087"><ele>362.5</ele><time>2026-05-02T14:39:08.998Z</time></trkpt><trkpt lat="45.79600914486974" lon="13.868059705888184"><ele>362.0</ele><time>2026-05-02T14:39:09.998Z</time></trkpt><trkpt lat="45.79603601302791" lon="13.8679693284295"><ele>361.5</ele><time>2026-05-02T14:39:10.998Z</time></trkpt><trkpt lat="45.79607111203829" lon="13.867805019470882"><ele>361.0</ele><time>2026-05-02T14:39:12.998Z</time></trkpt><trkpt lat="45.796078137225145" lon="13.867697596654114"><ele>358.0</ele><time>2026-05-02T14:39:13.998Z</time></trkpt><trkpt lat="45.79608869989838" lon="13.867595370069191"><ele>355.0</ele><time>2026-05-02T14:39:14.998Z</time></trkpt><trkpt lat="45.79610430641891" lon="13.867507365550741"><ele>352.0</ele><time>2026-05-02T14:39:15.998Z</time></trkpt><trkpt lat="45.79612836952772" lon="13.867402716701436"><ele>349.0</ele><time>2026-05-02T14:39:16.997Z</time></trkpt><trkpt lat="45.7961417181098" lon="13.867299518593008"><ele>346.0</ele><time>2026-05-02T14:39:17.997Z</time></trkpt><trkpt lat="45.796152853133385" lon="13.867186229325773"><ele>343.0</ele><time>2026-05-02T14:39:18.997Z</time></trkpt><trkpt lat="45.79617678918351" lon="13.867091922185756"><ele>340.0</ele><time>2026-05-02T14:39:19.997Z</time></trkpt><trkpt lat="45.79617973976674" lon="13.866968726150604"><ele>340.0</ele><time>2026-05-02T14:39:20.997Z</time></trkpt><trkpt lat="45.796182507011316" lon="13.866846181102044"><ele>340.0</ele><time>2026-05-02T14:39:21.997Z</time></trkpt><trkpt lat="45.796181964678304" lon="13.86672171960781"><ele>340.0</ele><time>2026-05-02T14:39:22.997Z</time></trkpt><trkpt lat="45.796184489974756" lon="13.86645640182422"><ele>340.0</ele><time>2026-05-02T14:39:25.997Z</time></trkpt><trkpt lat="45.79621133690415" lon="13.8663727679488"><ele>340.0</ele><time>2026-05-02T14:39:28.997Z</time></trkpt><trkpt lat="45.796297844381336" lon="13.866371028724528"><ele>339.8</ele><time>2026-05-02T14:39:31Z</time></trkpt><trkpt lat="45.796384517864254" lon="13.866434091542638"><ele>339.6</ele><time>2026-05-02T14:39:33Z</time></trkpt><trkpt lat="45.796483319233765" lon="13.866408677048778"><ele>339.4</ele><time>2026-05-02T14:39:35Z</time></trkpt><trkpt lat="45.796608087930096" lon="13.866329149316874"><ele>339.2</ele><time>2026-05-02T14:39:37Z</time></trkpt><trkpt lat="45.79667355906524" lon="13.866295956253328"><ele>339.0</ele><time>2026-05-02T14:39:38Z</time></trkpt><trkpt lat="45.79674306036506" lon="13.866259767061294"><ele>339.0</ele><time>2026-05-02T14:39:39Z</time></trkpt><trkpt lat="45.79681994783777" lon="13.866207086318024"><ele>339.0</ele><time>2026-05-02T14:39:40Z</time></trkpt><trkpt lat="45.796898146953644" lon="13.866141112540737"><ele>339.0</ele><time>2026-05-02T14:39:41Z</time></trkpt><trkpt lat="45.79696869810099" lon="13.866064298923684"><ele>339.0</ele><time>2026-05-02T14:39:42Z</time></trkpt><trkpt lat="45.79704034207145" lon="13.86599133563371"><ele>339.0</ele><time>2026-05-02T14:39:43Z</time></trkpt><trkpt lat="45.79710585528547" lon="13.865925217968202"><ele>339.0</ele><time>2026-05-02T14:39:44Z</time></trkpt><trkpt lat="45.797175892731175" lon="13.86586861903304"><ele>339.1666666666667</ele><time>2026-05-02T14:39:45Z</time></trkpt><trkpt lat="45.79724927513152" lon="13.865816117164725"><ele>339.3333333333333</ele><time>2026-05-02T14:39:46Z</time></trkpt><trkpt lat="45.7973242763574" lon="13.86577955712142"><ele>339.5</ele><time>2026-05-02T14:39:47Z</time></trkpt><trkpt lat="45.79739679783541" lon="13.865748494044725"><ele>339.66666666666663</ele><time>2026-05-02T14:39:48Z</time></trkpt><trkpt lat="45.797467782644034" lon="13.86572472027788"><ele>339.8333333333333</ele><time>2026-05-02T14:39:49Z</time></trkpt><trkpt lat="45.7975553892174" lon="13.865695241915532"><ele>340.0</ele><time>2026-05-02T14:39:50Z</time></trkpt><trkpt lat="45.79766135361286" lon="13.865666415918076"><ele>341.4</ele><time>2026-05-02T14:39:51Z</time></trkpt><trkpt lat="45.79778182580904" lon="13.865634493926745"><ele>342.8</ele><time>2026-05-02T14:39:52Z</time></trkpt><trkpt lat="45.79789022874664" lon="13.865619586606051"><ele>344.20000000000005</ele><time>2026-05-02T14:39:53Z</time></trkpt><trkpt lat="45.797992743788306" lon="13.86559551261111"><ele>345.6</ele><time>2026-05-02T14:39:54Z</time></trkpt><trkpt lat="45.79809075902062" lon="13.865569440964869"><ele>347.0</ele><time>2026-05-02T14:39:55Z</time></trkpt><trkpt lat="45.798182628977045" lon="13.865545012352559"><ele>347.0</ele><time>2026-05-02T14:39:56Z</time></trkpt><trkpt lat="45.79827743853948" lon="13.86551971017355"><ele>347.0</ele><time>2026-05-02T14:39:57Z</time></trkpt><trkpt lat="45.79836209016927" lon="13.865489746806823"><ele>347.0</ele><time>2026-05-02T14:39:58Z</time></trkpt><trkpt lat="45.79844772469287" lon="13.865465154742258"><ele>347.0</ele><time>2026-05-02T14:39:59Z</time></trkpt><trkpt lat="45.79853517442078" lon="13.865441144439755"><ele>347.0</ele><time>2026-05-02T14:40:00Z</time></trkpt><trkpt lat="45.79863049273173" lon="13.865422763528764"><ele>346.8</ele><time>2026-05-02T14:40:01Z</time></trkpt><trkpt lat="45.79873634701663" lon="13.86540055873156"><ele>346.6</ele><time>2026-05-02T14:40:02Z</time></trkpt><trkpt lat="45.79883492915912" lon="13.865381026336104"><ele>346.40000000000003</ele><time>2026-05-02T14:40:03Z</time></trkpt><trkpt lat="45.79892601319459" lon="13.865360826333182"><ele>346.20000000000005</ele><time>2026-05-02T14:40:04Z</time></trkpt><trkpt lat="45.799016622556174" lon="13.865337016707555"><ele>346.0</ele><time>2026-05-02T14:40:05Z</time></trkpt><trkpt lat="45.7990999275347" lon="13.865305327415706"><ele>346.0</ele><time>2026-05-02T14:40:06Z</time></trkpt><trkpt lat="45.79916998235886" lon="13.865273726422114"><ele>346.0</ele><time>2026-05-02T14:40:07Z</time></trkpt><trkpt lat="45.79923968613089" lon="13.865247344747974"><ele>346.0</ele><time>2026-05-02T14:40:08Z</time></trkpt><trkpt lat="45.799304062885696" lon="13.865215376940707"><ele>346.0</ele><time>2026-05-02T14:40:08.999Z</time></trkpt><trkpt lat="45.799373951010885" lon="13.865170198767517"><ele>346.0</ele><time>2026-05-02T14:40:09.999Z</time></trkpt><trkpt lat="45.799433484641575" lon="13.865133943646883"><ele>346.0</ele><time>2026-05-02T14:40:10.999Z</time></trkpt><trkpt lat="45.79953084173641" lon="13.865033816472994"><ele>346.6</ele><time>2026-05-02T14:40:12.999Z</time></trkpt><trkpt lat="45.799598732861824" lon="13.864885081685248"><ele>347.20000000000005</ele><time>2026-05-02T14:40:14.999Z</time></trkpt><trkpt lat="45.799621096001125" lon="13.864798272656662"><ele>347.79999999999995</ele><time>2026-05-02T14:40:15.999Z</time></trkpt><trkpt lat="45.79962339331826" lon="13.864621218946278"><ele>348.4</ele><time>2026-05-02T14:40:17.999Z</time></trkpt><trkpt lat="45.79961446624939" lon="13.864472585879437"><ele>349.0</ele><time>2026-05-02T14:40:19.999Z</time></trkpt><trkpt lat="45.799626934937656" lon="13.864347686158128"><ele>349.25</ele><time>2026-05-02T14:40:21.999Z</time></trkpt><trkpt lat="45.79968049503241" lon="13.864224847295656"><ele>349.5</ele><time>2026-05-02T14:40:23.999Z</time></trkpt><trkpt lat="45.79976045084023" lon="13.864094636098406"><ele>349.75</ele><time>2026-05-02T14:40:25.999Z</time></trkpt><trkpt lat="45.799844329387504" lon="13.86397896796519"><ele>350.0</ele><time>2026-05-02T14:40:27.999Z</time></trkpt><trkpt lat="45.79993175012405" lon="13.863861864902573"><ele>350.0</ele><time>2026-05-02T14:40:29.999Z</time></trkpt><trkpt lat="45.79998434389329" lon="13.863804772418392"><ele>350.0</ele><time>2026-05-02T14:40:30.999Z</time></trkpt><trkpt lat="45.800075738328225" lon="13.863698885005896"><ele>350.0</ele><time>2026-05-02T14:40:32.999Z</time></trkpt><trkpt lat="45.80017352944958" lon="13.863581323796984"><ele>350.0</ele><time>2026-05-02T14:40:34.999Z</time></trkpt><trkpt lat="45.80023575230211" lon="13.863536790083966"><ele>350.0</ele><time>2026-05-02T14:40:35.999Z</time></trkpt><trkpt lat="45.800306014454286" lon="13.863512945674849"><ele>349.0</ele><time>2026-05-02T14:40:36.999Z</time></trkpt><trkpt lat="45.800375771634144" lon="13.863496781907655"><ele>348.0</ele><time>2026-05-02T14:40:37.999Z</time></trkpt><trkpt lat="45.80044013329966" lon="13.863473340782113"><ele>347.0</ele><time>2026-05-02T14:40:38.999Z</time></trkpt><trkpt lat="45.80055089248058" lon="13.863414572543778"><ele>346.0</ele><time>2026-05-02T14:40:40.999Z</time></trkpt><trkpt lat="45.80064682694356" lon="13.86327874696976"><ele>345.0</ele><time>2026-05-02T14:40:42.999Z</time></trkpt><trkpt lat="45.800694896033164" lon="13.863195397719574"><ele>345.0</ele><time>2026-05-02T14:40:43.999Z</time></trkpt><trkpt lat="45.800742494614376" lon="13.863102395767806"><ele>345.0</ele><time>2026-05-02T14:40:44.998Z</time></trkpt><trkpt lat="45.80080098952394" lon="13.862997719930206"><ele>345.0</ele><time>2026-05-02T14:40:45.998Z</time></trkpt><trkpt lat="45.80085919280826" lon="13.862886723961807"><ele>345.0</ele><time>2026-05-02T14:40:46.998Z</time></trkpt><trkpt lat="45.80090567406395" lon="13.862792611403918"><ele>345.0</ele><time>2026-05-02T14:40:47.998Z</time></trkpt><trkpt lat="45.80095659793418" lon="13.862720516279008"><ele>345.0</ele><time>2026-05-02T14:40:48.998Z</time></trkpt><trkpt lat="45.80102718163836" lon="13.86264498132635"><ele>344.3333333333333</ele><time>2026-05-02T14:40:49.998Z</time></trkpt><trkpt lat="45.80110433887518" lon="13.862571466584926"><ele>343.6666666666667</ele><time>2026-05-02T14:40:50.998Z</time></trkpt><trkpt lat="45.80117308863013" lon="13.86251553705197"><ele>343.0</ele><time>2026-05-02T14:40:51.998Z</time></trkpt><trkpt lat="45.80124166782444" lon="13.862458222172075"><ele>342.33333333333337</ele><time>2026-05-02T14:40:52.998Z</time></trkpt><trkpt lat="45.80131078364651" lon="13.862405975157628"><ele>341.6666666666667</ele><time>2026-05-02T14:40:53.998Z</time></trkpt><trkpt lat="45.80137392871646" lon="13.862365771689696"><ele>341.0</ele><time>2026-05-02T14:40:54.998Z</time></trkpt><trkpt lat="45.80144135713535" lon="13.86233509509991"><ele>341.0</ele><time>2026-05-02T14:40:55.998Z</time></trkpt><trkpt lat="45.80151780220943" lon="13.862314190508032"><ele>341.0</ele><time>2026-05-02T14:40:56.998Z</time></trkpt><trkpt lat="45.801606685700975" lon="13.862307079410172"><ele>341.0</ele><time>2026-05-02T14:40:57.998Z</time></trkpt><trkpt lat="45.80168531048253" lon="13.862287300429465"><ele>341.0</ele><time>2026-05-02T14:40:58.998Z</time></trkpt><trkpt lat="45.80176345150643" lon="13.862267142105411"><ele>341.0</ele><time>2026-05-02T14:40:59.998Z</time></trkpt><trkpt lat="45.801860409364835" lon="13.86221481044427"><ele>341.0</ele><time>2026-05-02T14:41:01.998Z</time></trkpt><trkpt lat="45.80191890920821" lon="13.862129464429986"><ele>338.6</ele><time>2026-05-02T14:41:03.998Z</time></trkpt><trkpt lat="45.801975582117855" lon="13.861989310445713"><ele>336.20000000000005</ele><time>2026-05-02T14:41:05.998Z</time></trkpt><trkpt lat="45.80202982474115" lon="13.861806362456939"><ele>333.79999999999995</ele><time>2026-05-02T14:41:07.998Z</time></trkpt><trkpt lat="45.80207352311774" lon="13.861700548015655"><ele>331.4</ele><time>2026-05-02T14:41:08.998Z</time></trkpt><trkpt lat="45.802118255359545" lon="13.861591192676205"><ele>329.0</ele><time>2026-05-02T14:41:09.998Z</time></trkpt><trkpt lat="45.80217306511772" lon="13.861487311328702"><ele>329.0</ele><time>2026-05-02T14:41:10.998Z</time></trkpt><trkpt lat="45.80223329583709" lon="13.861378712602079"><ele>329.0</ele><time>2026-05-02T14:41:11.998Z</time></trkpt><trkpt lat="45.802289262360276" lon="13.861273160110164"><ele>329.0</ele><time>2026-05-02T14:41:12.998Z</time></trkpt><trkpt lat="45.80235859920804" lon="13.861162327479635"><ele>329.0</ele><time>2026-05-02T14:41:13.998Z</time></trkpt><trkpt lat="45.80242726540105" lon="13.861043254256437"><ele>329.0</ele><time>2026-05-02T14:41:14.998Z</time></trkpt><trkpt lat="45.80248889303985" lon="13.860931005274336"><ele>331.6666666666667</ele><time>2026-05-02T14:41:15.998Z</time></trkpt><trkpt lat="45.80254677406637" lon="13.86082437039641"><ele>334.33333333333337</ele><time>2026-05-02T14:41:16.998Z</time></trkpt><trkpt lat="45.8025988306949" lon="13.860723707040801"><ele>337.0</ele><time>2026-05-02T14:41:17.998Z</time></trkpt><trkpt lat="45.80264141607955" lon="13.860631482834973"><ele>339.6666666666667</ele><time>2026-05-02T14:41:18.998Z</time></trkpt><trkpt lat="45.80269231722052" lon="13.860531378231752"><ele>342.3333333333333</ele><time>2026-05-02T14:41:19.998Z</time></trkpt><trkpt lat="45.802745796365066" lon="13.860432867917932"><ele>345.0</ele><time>2026-05-02T14:41:20.998Z</time></trkpt><trkpt lat="45.80279861469554" lon="13.860339852114231"><ele>342.3333333333333</ele><time>2026-05-02T14:41:21.997Z</time></trkpt><trkpt lat="45.80284981289979" lon="13.860241985415092"><ele>339.6666666666667</ele><time>2026-05-02T14:41:22.997Z</time></trkpt><trkpt lat="45.80289941864545" lon="13.860141457987059"><ele>337.0</ele><time>2026-05-02T14:41:23.997Z</time></trkpt><trkpt lat="45.80296075851533" lon="13.860044503711928"><ele>334.33333333333337</ele><time>2026-05-02T14:41:24.997Z</time></trkpt><trkpt lat="45.80301317177235" lon="13.859941735322572"><ele>331.6666666666667</ele><time>2026-05-02T14:41:25.997Z</time></trkpt><trkpt lat="45.80306290603294" lon="13.859844903654208"><ele>329.0</ele><time>2026-05-02T14:41:26.997Z</time></trkpt><trkpt lat="45.803114706047616" lon="13.8597444770227"><ele>329.0</ele><time>2026-05-02T14:41:27.997Z</time></trkpt><trkpt lat="45.803168491536326" lon="13.859643900352985"><ele>329.0</ele><time>2026-05-02T14:41:28.997Z</time></trkpt><trkpt lat="45.80322894746549" lon="13.859540666794853"><ele>329.0</ele><time>2026-05-02T14:41:29.997Z</time></trkpt><trkpt lat="45.8032766368977" lon="13.859444884910685"><ele>329.0</ele><time>2026-05-02T14:41:30.997Z</time></trkpt><trkpt lat="45.803322478492014" lon="13.859348344187694"><ele>329.0</ele><time>2026-05-02T14:41:31.997Z</time></trkpt><trkpt lat="45.80337321818648" lon="13.859257675438618"><ele>329.0</ele><time>2026-05-02T14:41:32.997Z</time></trkpt><trkpt lat="45.80342151927024" lon="13.859167383989988"><ele>331.5</ele><time>2026-05-02T14:41:33.997Z</time></trkpt><trkpt lat="45.803468473773904" lon="13.859069195327795"><ele>334.0</ele><time>2026-05-02T14:41:34.997Z</time></trkpt><trkpt lat="45.80352332182445" lon="13.85897122183422"><ele>336.5</ele><time>2026-05-02T14:41:35.997Z</time></trkpt><trkpt lat="45.80357381744086" lon="13.858879163634475"><ele>339.0</ele><time>2026-05-02T14:41:37Z</time></trkpt><trkpt lat="45.80362411789085" lon="13.858779280838334"><ele>341.5</ele><time>2026-05-02T14:41:38Z</time></trkpt><trkpt lat="45.80367791733361" lon="13.858674236644939"><ele>344.0</ele><time>2026-05-02T14:41:39Z</time></trkpt><trkpt lat="45.80373006289826" lon="13.85857582984365"><ele>341.33333333333337</ele><time>2026-05-02T14:41:40Z</time></trkpt><trkpt lat="45.80378363175961" lon="13.858465160837406"><ele>338.6666666666667</ele><time>2026-05-02T14:41:41Z</time></trkpt><trkpt lat="45.80383658927012" lon="13.858373006221559"><ele>336.0</ele><time>2026-05-02T14:41:42Z</time></trkpt><trkpt lat="45.803884895547604" lon="13.858282586699575"><ele>333.3333333333333</ele><time>2026-05-02T14:41:43Z</time></trkpt><trkpt lat="45.80392629329643" lon="13.858202710213387"><ele>330.66666666666663</ele><time>2026-05-02T14:41:44Z</time></trkpt><trkpt lat="45.8039766926799" lon="13.858060474138762"><ele>328.0</ele><time>2026-05-02T14:41:46Z</time></trkpt><trkpt lat="45.80400367768381" lon="13.857973061200845"><ele>328.0</ele><time>2026-05-02T14:41:47Z</time></trkpt><trkpt lat="45.804012315254134" lon="13.857803465253934"><ele>328.0</ele><time>2026-05-02T14:41:49Z</time></trkpt><trkpt lat="45.804008831949986" lon="13.857710963744825"><ele>328.0</ele><time>2026-05-02T14:41:50Z</time></trkpt><trkpt lat="45.803983337717284" lon="13.857523812314025"><ele>328.0</ele><time>2026-05-02T14:41:52Z</time></trkpt><trkpt lat="45.80395270555344" lon="13.857363607709459"><ele>328.0</ele><time>2026-05-02T14:41:54Z</time></trkpt><trkpt lat="45.80393546850712" lon="13.857271081376695"><ele>329.16666666666663</ele><time>2026-05-02T14:41:55Z</time></trkpt><trkpt lat="45.803924806457545" lon="13.857170855113718"><ele>330.3333333333333</ele><time>2026-05-02T14:41:56Z</time></trkpt><trkpt lat="45.80391932663144" lon="13.857070252940568"><ele>331.5</ele><time>2026-05-02T14:41:57Z</time></trkpt><trkpt lat="45.8039278311265" lon="13.856966678676113"><ele>332.6666666666667</ele><time>2026-05-02T14:41:58Z</time></trkpt><trkpt lat="45.803948252844656" lon="13.85684536230899"><ele>333.83333333333337</ele><time>2026-05-02T14:41:59Z</time></trkpt><trkpt lat="45.803962499366996" lon="13.85672419009791"><ele>335.0</ele><time>2026-05-02T14:42:00Z</time></trkpt><trkpt lat="45.80397286038722" lon="13.856604294323533"><ele>335.0</ele><time>2026-05-02T14:42:01Z</time></trkpt><trkpt lat="45.80399342758592" lon="13.856471999328487"><ele>335.0</ele><time>2026-05-02T14:42:02Z</time></trkpt><trkpt lat="45.80400775019276" lon="13.856358104454372"><ele>335.0</ele><time>2026-05-02T14:42:03Z</time></trkpt><trkpt lat="45.80402190472241" lon="13.856250791622532"><ele>335.0</ele><time>2026-05-02T14:42:04Z</time></trkpt><trkpt lat="45.80403873974857" lon="13.85613188441668"><ele>335.0</ele><time>2026-05-02T14:42:05Z</time></trkpt><trkpt lat="45.804052369578166" lon="13.856007673876022"><ele>335.0</ele><time>2026-05-02T14:42:06Z</time></trkpt><trkpt lat="45.80406469151948" lon="13.855900362071282"><ele>335.1428571428571</ele><time>2026-05-02T14:42:07Z</time></trkpt><trkpt lat="45.80407468167353" lon="13.855799243880549"><ele>335.2857142857143</ele><time>2026-05-02T14:42:08Z</time></trkpt><trkpt lat="45.80407976390323" lon="13.855704769065909"><ele>335.42857142857144</ele><time>2026-05-02T14:42:09Z</time></trkpt><trkpt lat="45.80408515632332" lon="13.85559769543781"><ele>335.57142857142856</ele><time>2026-05-02T14:42:10Z</time></trkpt><trkpt lat="45.80409275260383" lon="13.855493525749178"><ele>335.7142857142857</ele><time>2026-05-02T14:42:11Z</time></trkpt><trkpt lat="45.804110126162165" lon="13.855383743007282"><ele>335.85714285714283</ele><time>2026-05-02T14:42:11.999Z</time></trkpt><trkpt lat="45.804122292364845" lon="13.855273705120448"><ele>336.0</ele><time>2026-05-02T14:42:12.999Z</time></trkpt><trkpt lat="45.80413640199951" lon="13.855171822687188"><ele>335.6666666666667</ele><time>2026-05-02T14:42:13.999Z</time></trkpt><trkpt lat="45.80414444579014" lon="13.855067430056318"><ele>335.3333333333333</ele><time>2026-05-02T14:42:14.999Z</time></trkpt><trkpt lat="45.80415827626301" lon="13.854963559544496"><ele>335.0</ele><time>2026-05-02T14:42:15.999Z</time></trkpt><trkpt lat="45.80416505555817" lon="13.854854698976059"><ele>334.66666666666663</ele><time>2026-05-02T14:42:16.999Z</time></trkpt><trkpt lat="45.804179089368105" lon="13.854739703547082"><ele>334.3333333333333</ele><time>2026-05-02T14:42:17.999Z</time></trkpt><trkpt lat="45.804188218434874" lon="13.854622726936487"><ele>334.0</ele><time>2026-05-02T14:42:18.999Z</time></trkpt><trkpt lat="45.80420098989719" lon="13.854515104023587"><ele>334.0</ele><time>2026-05-02T14:42:19.999Z</time></trkpt><trkpt lat="45.80421082345565" lon="13.854417439833146"><ele>334.0</ele><time>2026-05-02T14:42:20.999Z</time></trkpt><trkpt lat="45.80423001443164" lon="13.854248134795721"><ele>334.0</ele><time>2026-05-02T14:42:22.999Z</time></trkpt><trkpt lat="45.80423804120712" lon="13.85410488895602"><ele>334.0</ele><time>2026-05-02T14:42:24.999Z</time></trkpt><trkpt lat="45.80424084131117" lon="13.853980852860763"><ele>334.0</ele><time>2026-05-02T14:42:26.999Z</time></trkpt><trkpt lat="45.80425223846634" lon="13.853842378103716"><ele>332.6</ele><time>2026-05-02T14:42:28.999Z</time></trkpt><trkpt lat="45.80427967313474" lon="13.853701708258715"><ele>331.2</ele><time>2026-05-02T14:42:30.999Z</time></trkpt><trkpt lat="45.80430493682138" lon="13.85357455139134"><ele>329.8</ele><time>2026-05-02T14:42:32.999Z</time></trkpt><trkpt lat="45.80438374037116" lon="13.853474882223612"><ele>328.40000000000003</ele><time>2026-05-02T14:42:34.999Z</time></trkpt><trkpt lat="45.804475393389154" lon="13.853350588941936"><ele>327.0</ele><time>2026-05-02T14:42:36.999Z</time></trkpt><trkpt lat="45.804522093538154" lon="13.853280075153377"><ele>326.57142857142856</ele><time>2026-05-02T14:42:37.999Z</time></trkpt><trkpt lat="45.80457306462593" lon="13.853223075236304"><ele>326.14285714285717</ele><time>2026-05-02T14:42:38.999Z</time></trkpt><trkpt lat="45.80464748777465" lon="13.853182213931646"><ele>325.7142857142857</ele><time>2026-05-02T14:42:39.999Z</time></trkpt><trkpt lat="45.804723707864284" lon="13.853153915894135"><ele>325.2857142857143</ele><time>2026-05-02T14:42:40.999Z</time></trkpt><trkpt lat="45.804795767209626" lon="13.853123363301023"><ele>324.85714285714283</ele><time>2026-05-02T14:42:41.999Z</time></trkpt><trkpt lat="45.80486801989425" lon="13.853107460033367"><ele>324.42857142857144</ele><time>2026-05-02T14:42:42.999Z</time></trkpt><trkpt lat="45.80493975206264" lon="13.853095444149664"><ele>324.0</ele><time>2026-05-02T14:42:43.999Z</time></trkpt><trkpt lat="45.805013602110456" lon="13.853094957803116"><ele>324.0</ele><time>2026-05-02T14:42:44.999Z</time></trkpt><trkpt lat="45.80508905346597" lon="13.853093179347892"><ele>324.0</ele><time>2026-05-02T14:42:45.999Z</time></trkpt><trkpt lat="45.80515461738625" lon="13.853104590088645"><ele>324.0</ele><time>2026-05-02T14:42:46.998Z</time></trkpt><trkpt lat="45.80528392830976" lon="13.853144788555515"><ele>324.0</ele><time>2026-05-02T14:42:48.998Z</time></trkpt><trkpt lat="45.805348389438095" lon="13.853166423407192"><ele>324.0</ele><time>2026-05-02T14:42:49.998Z</time></trkpt><trkpt lat="45.805468215696386" lon="13.853205687367199"><ele>323.0</ele><time>2026-05-02T14:42:51.998Z</time></trkpt><trkpt lat="45.80553105382911" lon="13.853212722677608"><ele>322.0</ele><time>2026-05-02T14:42:52.998Z</time></trkpt><trkpt lat="45.805641907372646" lon="13.85321347503323"><ele>321.0</ele><time>2026-05-02T14:42:54.998Z</time></trkpt><trkpt lat="45.805740991742674" lon="13.853137746177376"><ele>320.0</ele><time>2026-05-02T14:42:56.998Z</time></trkpt><trkpt lat="45.8057870555046" lon="13.853072748421198"><ele>319.0</ele><time>2026-05-02T14:42:57.998Z</time></trkpt><trkpt lat="45.805834689046286" lon="13.852993599103344"><ele>318.0</ele><time>2026-05-02T14:42:58.998Z</time></trkpt><trkpt lat="45.80588273379089" lon="13.852893274361966"><ele>318.0</ele><time>2026-05-02T14:42:59.998Z</time></trkpt><trkpt lat="45.80592343352177" lon="13.852798831669865"><ele>318.0</ele><time>2026-05-02T14:43:00.998Z</time></trkpt><trkpt lat="45.80596300155768" lon="13.852714312617872"><ele>318.0</ele><time>2026-05-02T14:43:01.998Z</time></trkpt><trkpt lat="45.80599773204628" lon="13.852637073288172"><ele>318.0</ele><time>2026-05-02T14:43:02.998Z</time></trkpt><trkpt lat="45.80603225866408" lon="13.852554429283293"><ele>318.0</ele><time>2026-05-02T14:43:03.998Z</time></trkpt><trkpt lat="45.80605016973912" lon="13.85244995835825"><ele>318.0</ele><time>2026-05-02T14:43:04.998Z</time></trkpt><trkpt lat="45.80606558742243" lon="13.852320140936552"><ele>318.0</ele><time>2026-05-02T14:43:05.998Z</time></trkpt><trkpt lat="45.80607012532115" lon="13.85220324603876"><ele>318.1666666666667</ele><time>2026-05-02T14:43:06.998Z</time></trkpt><trkpt lat="45.80607140418179" lon="13.852106030702116"><ele>318.3333333333333</ele><time>2026-05-02T14:43:07.998Z</time></trkpt><trkpt lat="45.80608050385219" lon="13.851959764258245"><ele>318.5</ele><time>2026-05-02T14:43:09.998Z</time></trkpt><trkpt lat="45.80611656257889" lon="13.851787058030546"><ele>318.66666666666663</ele><time>2026-05-02T14:43:11.998Z</time></trkpt><trkpt lat="45.80614560219855" lon="13.85170232378043"><ele>318.8333333333333</ele><time>2026-05-02T14:43:12.998Z</time></trkpt><trkpt lat="45.80617836445836" lon="13.851608839173004"><ele>319.0</ele><time>2026-05-02T14:43:13.998Z</time></trkpt><trkpt lat="45.8062132236867" lon="13.851521330200521"><ele>319.0</ele><time>2026-05-02T14:43:14.998Z</time></trkpt><trkpt lat="45.806260202861225" lon="13.851363275669998"><ele>319.0</ele><time>2026-05-02T14:43:16.998Z</time></trkpt><trkpt lat="45.806263776917106" lon="13.85126533110088"><ele>319.0</ele><time>2026-05-02T14:43:17.998Z</time></trkpt><trkpt lat="45.80625539201896" lon="13.851158640477456"><ele>319.0</ele><time>2026-05-02T14:43:18.998Z</time></trkpt><trkpt lat="45.80624980602125" lon="13.851044891475484"><ele>319.0</ele><time>2026-05-02T14:43:19.998Z</time></trkpt><trkpt lat="45.80623867421845" lon="13.850944282219945"><ele>319.0</ele><time>2026-05-02T14:43:20.998Z</time></trkpt><trkpt lat="45.806221829934394" lon="13.85083948023555"><ele>317.8333333333333</ele><time>2026-05-02T14:43:21.998Z</time></trkpt><trkpt lat="45.80620594425127" lon="13.850738457716027"><ele>316.66666666666663</ele><time>2026-05-02T14:43:22.998Z</time></trkpt><trkpt lat="45.80619117682018" lon="13.850642124407205"><ele>315.5</ele><time>2026-05-02T14:43:23.997Z</time></trkpt><trkpt lat="45.80617133769643" lon="13.850545736515514"><ele>314.3333333333333</ele><time>2026-05-02T14:43:24.997Z</time></trkpt><trkpt lat="45.806150717290514" lon="13.850455772250594"><ele>313.1666666666667</ele><time>2026-05-02T14:43:25.997Z</time></trkpt><trkpt lat="45.80611158925759" lon="13.85028198707421"><ele>312.0</ele><time>2026-05-02T14:43:27.997Z</time></trkpt><trkpt lat="45.80607920114834" lon="13.850184222221756"><ele>312.1666666666667</ele><time>2026-05-02T14:43:28.997Z</time></trkpt><trkpt lat="45.80603736398175" lon="13.850085546993038"><ele>312.3333333333333</ele><time>2026-05-02T14:43:29.997Z</time></trkpt><trkpt lat="45.805994494958455" lon="13.849991524697712"><ele>312.5</ele><time>2026-05-02T14:43:30.997Z</time></trkpt><trkpt lat="45.80594807556375" lon="13.849900577683359"><ele>312.66666666666663</ele><time>2026-05-02T14:43:31.997Z</time></trkpt><trkpt lat="45.805908422681924" lon="13.849818515990735"><ele>312.8333333333333</ele><time>2026-05-02T14:43:32.997Z</time></trkpt><trkpt lat="45.80585044082615" lon="13.849685849093426"><ele>313.0</ele><time>2026-05-02T14:43:34.997Z</time></trkpt><trkpt lat="45.80582223136997" lon="13.849547589347837"><ele>313.0</ele><time>2026-05-02T14:43:36.997Z</time></trkpt><trkpt lat="45.805791462315646" lon="13.849419836206863"><ele>313.0</ele><time>2026-05-02T14:43:38.997Z</time></trkpt><trkpt lat="45.805777663181544" lon="13.84928419333146"><ele>313.0</ele><time>2026-05-02T14:43:40.997Z</time></trkpt><trkpt lat="45.80578735056093" lon="13.84912936741113"><ele>313.0</ele><time>2026-05-02T14:43:43Z</time></trkpt><trkpt lat="45.8058056370555" lon="13.848951318819848"><ele>313.0</ele><time>2026-05-02T14:43:45Z</time></trkpt><trkpt lat="45.80581450949897" lon="13.848854973495385"><ele>312.42857142857144</ele><time>2026-05-02T14:43:46Z</time></trkpt><trkpt lat="45.80581190863753" lon="13.848752907973063"><ele>311.8571428571429</ele><time>2026-05-02T14:43:47Z</time></trkpt><trkpt lat="45.80581119593552" lon="13.848642390611378"><ele>311.28571428571433</ele><time>2026-05-02T14:43:48Z</time></trkpt><trkpt lat="45.805804122768876" lon="13.848546498580285"><ele>310.7142857142857</ele><time>2026-05-02T14:43:49Z</time></trkpt><trkpt lat="45.8057938353228" lon="13.848445010312346"><ele>310.14285714285717</ele><time>2026-05-02T14:43:50Z</time></trkpt><trkpt lat="45.80578006802198" lon="13.848352768407118"><ele>309.5714285714286</ele><time>2026-05-02T14:43:51Z</time></trkpt><trkpt lat="45.80579007456458" lon="13.84825106125238"><ele>309.0</ele><time>2026-05-02T14:43:52Z</time></trkpt><trkpt lat="45.805800826156236" lon="13.84814562382898"><ele>308.0</ele><time>2026-05-02T14:43:53Z</time></trkpt><trkpt lat="45.80578627914363" lon="13.848047502901254"><ele>307.0</ele><time>2026-05-02T14:43:54Z</time></trkpt><trkpt lat="45.80578693535191" lon="13.847946834336462"><ele>306.0</ele><time>2026-05-02T14:43:55Z</time></trkpt><trkpt lat="45.805785101215584" lon="13.847788647232218"><ele>305.0</ele><time>2026-05-02T14:43:57Z</time></trkpt><trkpt lat="45.8057306315845" lon="13.847731056581347"><ele>304.0</ele><time>2026-05-02T14:48:14Z</time></trkpt><trkpt lat="45.8058159832196" lon="13.847776192599966"><ele>303.0</ele><time>2026-05-02T14:48:25Z</time></trkpt><trkpt lat="45.80576173634836" lon="13.847702346885123"><ele>301.8</ele><time>2026-05-02T14:51:57.997Z</time></trkpt><trkpt lat="45.80571566650391" lon="13.84750750240678"><ele>300.6</ele><time>2026-05-02T14:51:59.997Z</time></trkpt><trkpt lat="45.805696536007964" lon="13.84740455676139"><ele>299.4</ele><time>2026-05-02T14:52:00.997Z</time></trkpt><trkpt lat="45.80566241555259" lon="13.847284109246079"><ele>298.2</ele><time>2026-05-02T14:52:01.997Z</time></trkpt><trkpt lat="45.8056316051667" lon="13.847155391146519"><ele>297.0</ele><time>2026-05-02T14:52:02.997Z</time></trkpt><trkpt lat="45.80561330094609" lon="13.847031432934752"><ele>297.0</ele><time>2026-05-02T14:52:03.997Z</time></trkpt><trkpt lat="45.805594050509235" lon="13.846902218060134"><ele>297.0</ele><time>2026-05-02T14:52:04.997Z</time></trkpt><trkpt lat="45.805569126442904" lon="13.846779407390823"><ele>297.0</ele><time>2026-05-02T14:52:05.997Z</time></trkpt><trkpt lat="45.80556022000861" lon="13.846686517814668"><ele>297.0</ele><time>2026-05-02T14:52:06.999Z</time></trkpt><trkpt lat="45.80554710212194" lon="13.84657300332173"><ele>297.0</ele><time>2026-05-02T14:52:08.999Z</time></trkpt><trkpt lat="45.805549519838294" lon="13.846470031472746"><ele>297.0</ele><time>2026-05-02T14:52:10.999Z</time></trkpt><trkpt lat="45.80552786338047" lon="13.846340853681472"><ele>296.2</ele><time>2026-05-02T14:52:12.999Z</time></trkpt><trkpt lat="45.80551157704872" lon="13.846192146753461"><ele>295.4</ele><time>2026-05-02T14:52:14.999Z</time></trkpt><trkpt lat="45.805479674416674" lon="13.846017562574241"><ele>294.6</ele><time>2026-05-02T14:52:16.999Z</time></trkpt><trkpt lat="45.805410500479525" lon="13.845882598407194"><ele>293.8</ele><time>2026-05-02T14:52:18.999Z</time></trkpt><trkpt lat="45.8053778078716" lon="13.845804516504176"><ele>293.0</ele><time>2026-05-02T14:52:19.999Z</time></trkpt><trkpt lat="45.80534087985072" lon="13.845715436360734"><ele>292.33333333333337</ele><time>2026-05-02T14:52:20.999Z</time></trkpt><trkpt lat="45.80530833468519" lon="13.845608738675677"><ele>291.6666666666667</ele><time>2026-05-02T14:52:34.999Z</time></trkpt><trkpt lat="45.80526059741186" lon="13.845540543960404"><ele>291.0</ele><time>2026-05-02T14:52:36.999Z</time></trkpt><trkpt lat="45.80525621200127" lon="13.845415504976131"><ele>290.3333333333333</ele><time>2026-05-02T14:52:45.999Z</time></trkpt><trkpt lat="45.80528963354555" lon="13.845327687255056"><ele>289.66666666666663</ele><time>2026-05-02T14:52:47.999Z</time></trkpt><trkpt lat="45.805403494153026" lon="13.845284351414993"><ele>289.0</ele><time>2026-05-02T14:52:49.999Z</time></trkpt><trkpt lat="45.8054888703223" lon="13.845257007353686"><ele>289.0</ele><time>2026-05-02T14:52:50.999Z</time></trkpt><trkpt lat="45.80556840370138" lon="13.845222566166758"><ele>289.0</ele><time>2026-05-02T14:52:51.999Z</time></trkpt><trkpt lat="45.80564593382219" lon="13.845167790213907"><ele>289.0</ele><time>2026-05-02T14:52:52.999Z</time></trkpt><trkpt lat="45.805724132046954" lon="13.845062358697671"><ele>289.0</ele><time>2026-05-02T14:52:53.999Z</time></trkpt><trkpt lat="45.80580006993905" lon="13.8449126020179"><ele>289.0</ele><time>2026-05-02T14:52:54.999Z</time></trkpt><trkpt lat="45.80587276617456" lon="13.844765501179875"><ele>288.25</ele><time>2026-05-02T14:52:55.999Z</time></trkpt><trkpt lat="45.805941879233565" lon="13.844609981851415"><ele>287.5</ele><time>2026-05-02T14:52:56.999Z</time></trkpt><trkpt lat="45.80601734160883" lon="13.844474110584512"><ele>286.75</ele><time>2026-05-02T14:52:57.999Z</time></trkpt><trkpt lat="45.80610975548849" lon="13.844372946671404"><ele>286.0</ele><time>2026-05-02T14:52:58.998Z</time></trkpt><trkpt lat="45.80621665590392" lon="13.844326713303516"><ele>285.75</ele><time>2026-05-02T14:52:59.998Z</time></trkpt><trkpt lat="45.806312342269" lon="13.844266341878992"><ele>285.5</ele><time>2026-05-02T14:53:00.998Z</time></trkpt><trkpt lat="45.80642878945209" lon="13.8443111294363"><ele>285.25</ele><time>2026-05-02T14:53:01.998Z</time></trkpt><trkpt lat="45.80653198984341" lon="13.844363988846988"><ele>285.0</ele><time>2026-05-02T14:53:02.998Z</time></trkpt><trkpt lat="45.80663122582485" lon="13.84447687143358"><ele>284.3333333333333</ele><time>2026-05-02T14:53:03.998Z</time></trkpt><trkpt lat="45.80673546004182" lon="13.84462123302483"><ele>283.66666666666663</ele><time>2026-05-02T14:53:04.998Z</time></trkpt><trkpt lat="45.80686091281369" lon="13.844795572536407"><ele>283.0</ele><time>2026-05-02T14:53:05.998Z</time></trkpt><trkpt lat="45.80699077885543" lon="13.844977016815095"><ele>282.3333333333333</ele><time>2026-05-02T14:53:06.998Z</time></trkpt><trkpt lat="45.80714573132142" lon="13.845170148506643"><ele>281.6666666666667</ele><time>2026-05-02T14:53:07.998Z</time></trkpt><trkpt lat="45.807317793675104" lon="13.84541357487496"><ele>281.0</ele><time>2026-05-02T14:53:08.998Z</time></trkpt><trkpt lat="45.807487676836104" lon="13.845655456007819"><ele>281.0</ele><time>2026-05-02T14:53:09.998Z</time></trkpt><trkpt lat="45.807649403288806" lon="13.84588784367765"><ele>281.0</ele><time>2026-05-02T14:53:10.998Z</time></trkpt><trkpt lat="45.807801155426624" lon="13.846100853836631"><ele>281.0</ele><time>2026-05-02T14:53:11.998Z</time></trkpt><trkpt lat="45.80794659651912" lon="13.846298382657622"><ele>280.33333333333337</ele><time>2026-05-02T14:53:12.998Z</time></trkpt><trkpt lat="45.808087334126206" lon="13.84648585205989"><ele>279.6666666666667</ele><time>2026-05-02T14:53:13.998Z</time></trkpt><trkpt lat="45.80822684494257" lon="13.846672218311403"><ele>279.0</ele><time>2026-05-02T14:53:14.998Z</time></trkpt><trkpt lat="45.80837745754513" lon="13.846851042002557"><ele>278.6666666666667</ele><time>2026-05-02T14:53:15.998Z</time></trkpt><trkpt lat="45.80854245559052" lon="13.847029015165624"><ele>278.33333333333337</ele><time>2026-05-02T14:53:16.998Z</time></trkpt><trkpt lat="45.80870667013022" lon="13.847194750449413"><ele>278.0</ele><time>2026-05-02T14:53:17.998Z</time></trkpt><trkpt lat="45.808871051282736" lon="13.84734977056449"><ele>278.0</ele><time>2026-05-02T14:53:18.998Z</time></trkpt><trkpt lat="45.80902809058285" lon="13.847508014469716"><ele>278.0</ele><time>2026-05-02T14:53:19.998Z</time></trkpt><trkpt lat="45.80918103424272" lon="13.847665429683852"><ele>278.0</ele><time>2026-05-02T14:53:20.998Z</time></trkpt><trkpt lat="45.809333113860724" lon="13.847817878341719"><ele>278.6666666666667</ele><time>2026-05-02T14:53:21.998Z</time></trkpt><trkpt lat="45.80949225574082" lon="13.847958941586205"><ele>279.3333333333333</ele><time>2026-05-02T14:53:22.998Z</time></trkpt><trkpt lat="45.80966125755701" lon="13.848085327809477"><ele>280.0</ele><time>2026-05-02T14:53:23.998Z</time></trkpt><trkpt lat="45.8098349935581" lon="13.848201009549644"><ele>280.0</ele><time>2026-05-02T14:53:24.998Z</time></trkpt><trkpt lat="45.81001435669575" lon="13.84830874431487"><ele>280.0</ele><time>2026-05-02T14:53:25.998Z</time></trkpt><trkpt lat="45.81019315983854" lon="13.848416945913918"><ele>280.0</ele><time>2026-05-02T14:53:26.998Z</time></trkpt><trkpt lat="45.810373221999036" lon="13.848518432250751"><ele>281.0</ele><time>2026-05-02T14:53:27.998Z</time></trkpt><trkpt lat="45.8105528134921" lon="13.848618439037246"><ele>282.0</ele><time>2026-05-02T14:53:28.998Z</time></trkpt><trkpt lat="45.810731382396526" lon="13.848720117464913"><ele>283.0</ele><time>2026-05-02T14:53:29.998Z</time></trkpt><trkpt lat="45.810909486845866" lon="13.848821932467194"><ele>285.3333333333333</ele><time>2026-05-02T14:53:30.998Z</time></trkpt><trkpt lat="45.81108994485268" lon="13.848921901898967"><ele>287.6666666666667</ele><time>2026-05-02T14:53:31.998Z</time></trkpt><trkpt lat="45.81127773368474" lon="13.849028798450053"><ele>290.0</ele><time>2026-05-02T14:53:32.998Z</time></trkpt><trkpt lat="45.81146960872448" lon="13.84913737422524"><ele>290.0</ele><time>2026-05-02T14:53:33.998Z</time></trkpt><trkpt lat="45.8116628720195" lon="13.849245737669811"><ele>290.0</ele><time>2026-05-02T14:53:34.997Z</time></trkpt><trkpt lat="45.81184995574529" lon="13.849345571321388"><ele>290.0</ele><time>2026-05-02T14:53:35.997Z</time></trkpt><trkpt lat="45.81202757835249" lon="13.849429701628786"><ele>288.33333333333337</ele><time>2026-05-02T14:53:36.997Z</time></trkpt><trkpt lat="45.81220355434535" lon="13.849503950961065"><ele>286.6666666666667</ele><time>2026-05-02T14:53:37.997Z</time></trkpt><trkpt lat="45.812381125099606" lon="13.84957230624128"><ele>285.0</ele><time>2026-05-02T14:53:38.997Z</time></trkpt><trkpt lat="45.812559756124394" lon="13.849630203143228"><ele>285.3333333333333</ele><time>2026-05-02T14:53:39.997Z</time></trkpt><trkpt lat="45.812744938673866" lon="13.849680422890755"><ele>285.66666666666663</ele><time>2026-05-02T14:53:40.997Z</time></trkpt><trkpt lat="45.81292447005344" lon="13.849734831867762"><ele>286.0</ele><time>2026-05-02T14:53:41.997Z</time></trkpt><trkpt lat="45.813099486575005" lon="13.849778248789626"><ele>286.0</ele><time>2026-05-02T14:53:42.997Z</time></trkpt><trkpt lat="45.81327323401161" lon="13.84980823355092"><ele>286.0</ele><time>2026-05-02T14:53:43.997Z</time></trkpt><trkpt lat="45.81344639450526" lon="13.849838916671068"><ele>286.0</ele><time>2026-05-02T14:53:44.997Z</time></trkpt><trkpt lat="45.8136132763148" lon="13.84985937211763"><ele>286.66666666666663</ele><time>2026-05-02T14:53:45.997Z</time></trkpt><trkpt lat="45.813784718822035" lon="13.84987158406877"><ele>287.3333333333333</ele><time>2026-05-02T14:53:46.997Z</time></trkpt><trkpt lat="45.81395454602839" lon="13.849885003082118"><ele>288.0</ele><time>2026-05-02T14:53:47.997Z</time></trkpt><trkpt lat="45.814120599223585" lon="13.849894098553023"><ele>288.0</ele><time>2026-05-02T14:53:48.997Z</time></trkpt><trkpt lat="45.814285529760326" lon="13.8498981415315"><ele>288.0</ele><time>2026-05-02T14:53:49.997Z</time></trkpt><trkpt lat="45.81444854880705" lon="13.849894280158518"><ele>288.0</ele><time>2026-05-02T14:53:50.997Z</time></trkpt><trkpt lat="45.8146095337298" lon="13.84988159716169"><ele>286.3333333333333</ele><time>2026-05-02T14:53:51.997Z</time></trkpt><trkpt lat="45.814767536343524" lon="13.849868843847156"><ele>284.66666666666663</ele><time>2026-05-02T14:53:52.997Z</time></trkpt><trkpt lat="45.81492834161614" lon="13.849847958148453"><ele>283.0</ele><time>2026-05-02T14:53:53.997Z</time></trkpt><trkpt lat="45.81508643019516" lon="13.849821270819938"><ele>281.3333333333333</ele><time>2026-05-02T14:53:54.997Z</time></trkpt><trkpt lat="45.81524636337299" lon="13.84977074035723"><ele>279.6666666666667</ele><time>2026-05-02T14:53:55.997Z</time></trkpt><trkpt lat="45.81540440362028" lon="13.849687299569263"><ele>278.0</ele><time>2026-05-02T14:53:56.997Z</time></trkpt><trkpt lat="45.81556288253921" lon="13.849572641791829"><ele>278.0</ele><time>2026-05-02T14:53:57.997Z</time></trkpt><trkpt lat="45.81571867070043" lon="13.849445476163273"><ele>278.0</ele><time>2026-05-02T14:53:58.997Z</time></trkpt><trkpt lat="45.81587070793206" lon="13.849309441208899"><ele>278.0</ele><time>2026-05-02T14:53:59.997Z</time></trkpt><trkpt lat="45.816014465653964" lon="13.849157140355846"><ele>277.33333333333337</ele><time>2026-05-02T14:54:00.997Z</time></trkpt><trkpt lat="45.816146453477565" lon="13.84899718771665"><ele>276.6666666666667</ele><time>2026-05-02T14:54:01.997Z</time></trkpt><trkpt lat="45.81627937251037" lon="13.848832497865455"><ele>276.0</ele><time>2026-05-02T14:54:02.997Z</time></trkpt><trkpt lat="45.81641022336556" lon="13.848661851747645"><ele>276.0</ele><time>2026-05-02T14:54:03.997Z</time></trkpt><trkpt lat="45.816534712742325" lon="13.848487244476544"><ele>276.0</ele><time>2026-05-02T14:54:04.997Z</time></trkpt><trkpt lat="45.81664874918814" lon="13.84831960470206"><ele>276.0</ele><time>2026-05-02T14:54:05.997Z</time></trkpt><trkpt lat="45.816752759228216" lon="13.848153622255932"><ele>276.0</ele><time>2026-05-02T14:54:06.997Z</time></trkpt><trkpt lat="45.816843694470755" lon="13.847973200462544"><ele>276.0</ele><time>2026-05-02T14:54:07.997Z</time></trkpt><trkpt lat="45.816912449826674" lon="13.847766369933966"><ele>276.0</ele><time>2026-05-02T14:54:08.997Z</time></trkpt><trkpt lat="45.81696500867375" lon="13.847539760273415"><ele>277.6666666666667</ele><time>2026-05-02T14:54:09.997Z</time></trkpt><trkpt lat="45.817002201635745" lon="13.847311498093083"><ele>279.33333333333337</ele><time>2026-05-02T14:54:10.996Z</time></trkpt><trkpt lat="45.817030655449145" lon="13.847094152151021"><ele>281.0</ele><time>2026-05-02T14:54:11.996Z</time></trkpt><trkpt lat="45.81705747109075" lon="13.846863627880762"><ele>281.33333333333337</ele><time>2026-05-02T14:54:12.999Z</time></trkpt><trkpt lat="45.81708432154322" lon="13.846636918954074"><ele>281.6666666666667</ele><time>2026-05-02T14:54:13.999Z</time></trkpt><trkpt lat="45.81711225624038" lon="13.846410290122993"><ele>282.0</ele><time>2026-05-02T14:54:14.999Z</time></trkpt><trkpt lat="45.81714369831845" lon="13.846175289440376"><ele>282.5</ele><time>2026-05-02T14:54:15.999Z</time></trkpt><trkpt lat="45.81718196349985" lon="13.845939702581234"><ele>283.0</ele><time>2026-05-02T14:54:16.999Z</time></trkpt><trkpt lat="45.81722851465481" lon="13.845742889059768"><ele>283.5</ele><time>2026-05-02T14:54:17.999Z</time></trkpt><trkpt lat="45.81728516302019" lon="13.845575992538423"><ele>284.0</ele><time>2026-05-02T14:54:18.999Z</time></trkpt><trkpt lat="45.81734849508359" lon="13.845428241506765"><ele>284.0</ele><time>2026-05-02T14:54:19.999Z</time></trkpt><trkpt lat="45.81740890177396" lon="13.845298315699567"><ele>284.0</ele><time>2026-05-02T14:54:20.999Z</time></trkpt><trkpt lat="45.81747597853499" lon="13.845191994229175"><ele>284.0</ele><time>2026-05-02T14:54:21.999Z</time></trkpt><trkpt lat="45.817549444812805" lon="13.845098240051241"><ele>284.0</ele><time>2026-05-02T14:54:22.999Z</time></trkpt><trkpt lat="45.817613053122145" lon="13.845023948628695"><ele>284.0</ele><time>2026-05-02T14:54:23.999Z</time></trkpt><trkpt lat="45.81766495229116" lon="13.844951199643742"><ele>284.59999999999997</ele><time>2026-05-02T14:54:24.999Z</time></trkpt><trkpt lat="45.817702139982686" lon="13.84487829142153"><ele>285.2</ele><time>2026-05-02T14:54:25.999Z</time></trkpt><trkpt lat="45.81761311716609" lon="13.844723177545852"><ele>285.79999999999995</ele><time>2026-05-02T14:54:27.999Z</time></trkpt><trkpt lat="45.817592555986145" lon="13.844577654313508"><ele>286.4</ele><time>2026-05-02T14:54:29.999Z</time></trkpt><trkpt lat="45.81761845250214" lon="13.84447194849717"><ele>287.0</ele><time>2026-05-02T14:54:30.999Z</time></trkpt><trkpt lat="45.81765471109132" lon="13.844374972167925"><ele>288.0</ele><time>2026-05-02T14:54:31.999Z</time></trkpt><trkpt lat="45.817714336106526" lon="13.844276620518434"><ele>289.0</ele><time>2026-05-02T14:54:32.999Z</time></trkpt><trkpt lat="45.81778255962408" lon="13.84418539469963"><ele>290.0</ele><time>2026-05-02T14:54:33.999Z</time></trkpt><trkpt lat="45.81784606205415" lon="13.844092909022384"><ele>291.0</ele><time>2026-05-02T14:54:34.999Z</time></trkpt><trkpt lat="45.817906493551064" lon="13.844001398974921"><ele>292.0</ele><time>2026-05-02T14:54:35.999Z</time></trkpt><trkpt lat="45.8179758986766" lon="13.843884523560517"><ele>292.0</ele><time>2026-05-02T14:54:36.999Z</time></trkpt><trkpt lat="45.818056711799485" lon="13.84374382891446"><ele>292.0</ele><time>2026-05-02T14:54:37.999Z</time></trkpt><trkpt lat="45.81814173521259" lon="13.843604961988547"><ele>292.0</ele><time>2026-05-02T14:54:38.999Z</time></trkpt><trkpt lat="45.81823117355635" lon="13.843447573216698"><ele>292.0</ele><time>2026-05-02T14:54:39.999Z</time></trkpt><trkpt lat="45.81834184536878" lon="13.843248876784783"><ele>292.0</ele><time>2026-05-02T14:54:40.999Z</time></trkpt><trkpt lat="45.818458604653" lon="13.843050874933756"><ele>292.0</ele><time>2026-05-02T14:54:41.999Z</time></trkpt><trkpt lat="45.81856574691363" lon="13.84287613070828"><ele>292.0</ele><time>2026-05-02T14:54:42.999Z</time></trkpt><trkpt lat="45.81866570505442" lon="13.842708046020652"><ele>293.3333333333333</ele><time>2026-05-02T14:54:43.999Z</time></trkpt><trkpt lat="45.81876401282921" lon="13.842540596578063"><ele>294.6666666666667</ele><time>2026-05-02T14:54:44.999Z</time></trkpt><trkpt lat="45.81886432541451" lon="13.842366853267354"><ele>296.0</ele><time>2026-05-02T14:54:45.999Z</time></trkpt><trkpt lat="45.818938220128345" lon="13.842185892823853"><ele>296.0</ele><time>2026-05-02T14:54:46.999Z</time></trkpt><trkpt lat="45.81899071421144" lon="13.841975071815002"><ele>296.0</ele><time>2026-05-02T14:54:47.999Z</time></trkpt><trkpt lat="45.819030710153896" lon="13.841740105013871"><ele>296.0</ele><time>2026-05-02T14:54:48.999Z</time></trkpt><trkpt lat="45.81907744633017" lon="13.841499813882589"><ele>296.33333333333337</ele><time>2026-05-02T14:54:49.999Z</time></trkpt><trkpt lat="45.819127891837276" lon="13.841258957688684"><ele>296.6666666666667</ele><time>2026-05-02T14:54:50.999Z</time></trkpt><trkpt lat="45.81917461345251" lon="13.84101720060573"><ele>297.0</ele><time>2026-05-02T14:54:51.999Z</time></trkpt><trkpt lat="45.81922724230189" lon="13.840770795004834"><ele>297.0</ele><time>2026-05-02T14:54:52.999Z</time></trkpt><trkpt lat="45.81927996503614" lon="13.840524730281187"><ele>297.0</ele><time>2026-05-02T14:54:53.999Z</time></trkpt><trkpt lat="45.81933705494823" lon="13.84027213634853"><ele>297.0</ele><time>2026-05-02T14:54:54.999Z</time></trkpt><trkpt lat="45.81939395472952" lon="13.840021345859899"><ele>297.0</ele><time>2026-05-02T14:54:55.999Z</time></trkpt><trkpt lat="45.81944574128828" lon="13.839784662945219"><ele>297.0</ele><time>2026-05-02T14:54:56.999Z</time></trkpt><trkpt lat="45.81949236854394" lon="13.839560162311816"><ele>297.0</ele><time>2026-05-02T14:54:57.999Z</time></trkpt><trkpt lat="45.819537939383025" lon="13.839345617422582"><ele>296.75</ele><time>2026-05-02T14:54:58.999Z</time></trkpt><trkpt lat="45.81958388476658" lon="13.839135849938588"><ele>296.5</ele><time>2026-05-02T14:54:59.999Z</time></trkpt><trkpt lat="45.81962838568241" lon="13.83893745153575"><ele>296.25</ele><time>2026-05-02T14:55:00.999Z</time></trkpt><trkpt lat="45.81967230220775" lon="13.838751962689624"><ele>296.0</ele><time>2026-05-02T14:55:01.999Z</time></trkpt><trkpt lat="45.8197105113813" lon="13.838579587948304"><ele>296.25</ele><time>2026-05-02T14:55:02.999Z</time></trkpt><trkpt lat="45.81973326705564" lon="13.83841448686795"><ele>296.5</ele><time>2026-05-02T14:55:03.999Z</time></trkpt><trkpt lat="45.8197410505994" lon="13.838256568491815"><ele>296.75</ele><time>2026-05-02T14:55:04.999Z</time></trkpt><trkpt lat="45.819729216734856" lon="13.838087900692244"><ele>297.0</ele><time>2026-05-02T14:55:05.999Z</time></trkpt><trkpt lat="45.81969496399737" lon="13.837915431006074"><ele>297.0</ele><time>2026-05-02T14:55:06.999Z</time></trkpt><trkpt lat="45.81966430182591" lon="13.837741529657018"><ele>297.0</ele><time>2026-05-02T14:55:07.998Z</time></trkpt><trkpt lat="45.81966871453771" lon="13.83756287652337"><ele>297.0</ele><time>2026-05-02T14:55:08.998Z</time></trkpt><trkpt lat="45.81969797109802" lon="13.837387456437146"><ele>297.0</ele><time>2026-05-02T14:55:09.998Z</time></trkpt><trkpt lat="45.819762289645766" lon="13.837230278337667"><ele>296.75</ele><time>2026-05-02T14:55:10.998Z</time></trkpt><trkpt lat="45.819815589213" lon="13.837061078919195"><ele>296.5</ele><time>2026-05-02T14:55:11.998Z</time></trkpt><trkpt lat="45.819894956876816" lon="13.836908793512995"><ele>296.25</ele><time>2026-05-02T14:55:12.998Z</time></trkpt><trkpt lat="45.8199709322244" lon="13.836748471556065"><ele>296.0</ele><time>2026-05-02T14:55:13.998Z</time></trkpt><trkpt lat="45.82004811807926" lon="13.836569718456083"><ele>297.5</ele><time>2026-05-02T14:55:14.998Z</time></trkpt><trkpt lat="45.82011634757182" lon="13.836377055594088"><ele>299.0</ele><time>2026-05-02T14:55:15.998Z</time></trkpt><trkpt lat="45.8201458319273" lon="13.836191202925193"><ele>300.5</ele><time>2026-05-02T14:55:16.998Z</time></trkpt><trkpt lat="45.820150666112426" lon="13.835981665802802"><ele>302.0</ele><time>2026-05-02T14:55:17.998Z</time></trkpt><trkpt lat="45.820137580692716" lon="13.835770963540506"><ele>299.25</ele><time>2026-05-02T14:55:18.998Z</time></trkpt><trkpt lat="45.82012199894572" lon="13.835565324074343"><ele>296.5</ele><time>2026-05-02T14:55:19.998Z</time></trkpt><trkpt lat="45.82009610700076" lon="13.835370673605796"><ele>293.75</ele><time>2026-05-02T14:55:20.998Z</time></trkpt><trkpt lat="45.82005116433745" lon="13.835174295797236"><ele>291.0</ele><time>2026-05-02T14:55:21.998Z</time></trkpt><trkpt lat="45.81999007394782" lon="13.83498688159359"><ele>291.0</ele><time>2026-05-02T14:55:22.998Z</time></trkpt><trkpt lat="45.819917139660205" lon="13.834800683353075"><ele>291.0</ele><time>2026-05-02T14:55:23.998Z</time></trkpt><trkpt lat="45.81983250478419" lon="13.834617240191417"><ele>291.0</ele><time>2026-05-02T14:55:24.998Z</time></trkpt><trkpt lat="45.81973660952656" lon="13.834445207906295"><ele>291.0</ele><time>2026-05-02T14:55:25.998Z</time></trkpt><trkpt lat="45.81963468500593" lon="13.834275301962823"><ele>291.0</ele><time>2026-05-02T14:55:26.998Z</time></trkpt><trkpt lat="45.81952218677792" lon="13.834121680814135"><ele>291.0</ele><time>2026-05-02T14:55:27.998Z</time></trkpt><trkpt lat="45.81938895692806" lon="13.833988732235929"><ele>290.3333333333333</ele><time>2026-05-02T14:55:28.998Z</time></trkpt><trkpt lat="45.819246771766835" lon="13.83386658593631"><ele>289.66666666666663</ele><time>2026-05-02T14:55:29.998Z</time></trkpt><trkpt lat="45.81911360276959" lon="13.833725624176314"><ele>289.0</ele><time>2026-05-02T14:55:30.998Z</time></trkpt><trkpt lat="45.8189866634876" lon="13.833572779485104"><ele>289.3333333333333</ele><time>2026-05-02T14:55:31.998Z</time></trkpt><trkpt lat="45.81887384015136" lon="13.833397136885036"><ele>289.6666666666667</ele><time>2026-05-02T14:55:32.998Z</time></trkpt><trkpt lat="45.81875074260346" lon="13.833226340142405"><ele>290.0</ele><time>2026-05-02T14:55:33.998Z</time></trkpt><trkpt lat="45.8185924597437" lon="13.833070428629927"><ele>288.0</ele><time>2026-05-02T14:55:34.998Z</time></trkpt><trkpt lat="45.818411249843365" lon="13.83292526041529"><ele>286.0</ele><time>2026-05-02T14:55:35.998Z</time></trkpt><trkpt lat="45.81826154092842" lon="13.832779131426696"><ele>284.0</ele><time>2026-05-02T14:55:36.998Z</time></trkpt><trkpt lat="45.81812933475803" lon="13.832613762011203"><ele>284.0</ele><time>2026-05-02T14:55:37.998Z</time></trkpt><trkpt lat="45.817998058197325" lon="13.83242098836137"><ele>284.0</ele><time>2026-05-02T14:55:38.998Z</time></trkpt><trkpt lat="45.81788611652115" lon="13.83218477418473"><ele>284.0</ele><time>2026-05-02T14:55:39.998Z</time></trkpt><trkpt lat="45.81777003063675" lon="13.831945606922671"><ele>285.0</ele><time>2026-05-02T14:55:40.998Z</time></trkpt><trkpt lat="45.81767627282233" lon="13.83173807956986"><ele>286.0</ele><time>2026-05-02T14:55:41.998Z</time></trkpt><trkpt lat="45.817596059053656" lon="13.831539619025776"><ele>287.0</ele><time>2026-05-02T14:55:42.998Z</time></trkpt><trkpt lat="45.817534554166976" lon="13.831326022213608"><ele>287.0</ele><time>2026-05-02T14:55:43.998Z</time></trkpt><trkpt lat="45.81748842132451" lon="13.831099955806561"><ele>287.0</ele><time>2026-05-02T14:55:44.998Z</time></trkpt><trkpt lat="45.81744794434556" lon="13.83085349185467"><ele>287.0</ele><time>2026-05-02T14:55:45.997Z</time></trkpt><trkpt lat="45.817395475212855" lon="13.830632065028912"><ele>287.0</ele><time>2026-05-02T14:55:46.997Z</time></trkpt><trkpt lat="45.817355163616185" lon="13.830421599466467"><ele>287.0</ele><time>2026-05-02T14:55:47.997Z</time></trkpt><trkpt lat="45.81731124682359" lon="13.830224546133968"><ele>287.0</ele><time>2026-05-02T14:55:48.997Z</time></trkpt><trkpt lat="45.817288603776326" lon="13.830011488907044"><ele>287.0</ele><time>2026-05-02T14:55:49.997Z</time></trkpt><trkpt lat="45.817278358536186" lon="13.829782407077303"><ele>286.6666666666667</ele><time>2026-05-02T14:55:50.997Z</time></trkpt><trkpt lat="45.81727012922605" lon="13.82954983103295"><ele>286.3333333333333</ele><time>2026-05-02T14:55:51.997Z</time></trkpt><trkpt lat="45.81725328143063" lon="13.829303932136897"><ele>286.0</ele><time>2026-05-02T14:55:52.997Z</time></trkpt><trkpt lat="45.817220627747496" lon="13.829019155608796"><ele>286.0</ele><time>2026-05-02T14:55:53.997Z</time></trkpt><trkpt lat="45.81718486413355" lon="13.828712304921964"><ele>286.0</ele><time>2026-05-02T14:55:54.997Z</time></trkpt><trkpt lat="45.81715276881332" lon="13.828413982941031"><ele>286.0</ele><time>2026-05-02T14:55:55.997Z</time></trkpt><trkpt lat="45.817131555030294" lon="13.828152242457234"><ele>286.0</ele><time>2026-05-02T14:55:56.997Z</time></trkpt><trkpt lat="45.817125965905454" lon="13.82788551491393"><ele>286.0</ele><time>2026-05-02T14:55:57.997Z</time></trkpt><trkpt lat="45.81714138429405" lon="13.827621922745227"><ele>286.0</ele><time>2026-05-02T14:55:58.997Z</time></trkpt><trkpt lat="45.81716766984304" lon="13.827385492057312"><ele>286.25</ele><time>2026-05-02T14:55:59.997Z</time></trkpt><trkpt lat="45.81718287440983" lon="13.82716845413638"><ele>286.5</ele><time>2026-05-02T14:56:00.997Z</time></trkpt><trkpt lat="45.8171894670281" lon="13.826966285667519"><ele>286.75</ele><time>2026-05-02T14:56:01.997Z</time></trkpt><trkpt lat="45.81718366529115" lon="13.826776850149647"><ele>287.0</ele><time>2026-05-02T14:56:02.997Z</time></trkpt><trkpt lat="45.81717251145997" lon="13.82658360296718"><ele>287.25</ele><time>2026-05-02T14:56:03.997Z</time></trkpt><trkpt lat="45.81713494962446" lon="13.826393208637944"><ele>287.5</ele><time>2026-05-02T14:56:04.997Z</time></trkpt><trkpt lat="45.81710293154118" lon="13.826190982099362"><ele>287.75</ele><time>2026-05-02T14:56:05.997Z</time></trkpt><trkpt lat="45.81706698942881" lon="13.825994425930189"><ele>288.0</ele><time>2026-05-02T14:56:06.997Z</time></trkpt><trkpt lat="45.817029233152034" lon="13.825804000042373"><ele>288.25</ele><time>2026-05-02T14:56:07.997Z</time></trkpt><trkpt lat="45.81698849685487" lon="13.825615616585166"><ele>288.5</ele><time>2026-05-02T14:56:08.997Z</time></trkpt><trkpt lat="45.816946900766645" lon="13.825412023107635"><ele>288.75</ele><time>2026-05-02T14:56:09.997Z</time></trkpt><trkpt lat="45.81690160796152" lon="13.825193298422107"><ele>289.0</ele><time>2026-05-02T14:56:10.997Z</time></trkpt><trkpt lat="45.816859526537336" lon="13.824959043996099"><ele>288.0</ele><time>2026-05-02T14:56:11.997Z</time></trkpt><trkpt lat="45.81681793543354" lon="13.824735200094366"><ele>287.0</ele><time>2026-05-02T14:56:12.997Z</time></trkpt><trkpt lat="45.81678542382946" lon="13.824537129748425"><ele>286.0</ele><time>2026-05-02T14:56:13.997Z</time></trkpt><trkpt lat="45.816758594902666" lon="13.824351993081446"><ele>285.0</ele><time>2026-05-02T14:56:14.997Z</time></trkpt><trkpt lat="45.81673644807667" lon="13.824164345437664"><ele>285.0</ele><time>2026-05-02T14:56:15.997Z</time></trkpt><trkpt lat="45.81670950206358" lon="13.823978208690063"><ele>285.0</ele><time>2026-05-02T14:56:16.997Z</time></trkpt><trkpt lat="45.81666618126574" lon="13.823805959123193"><ele>285.0</ele><time>2026-05-02T14:56:17.997Z</time></trkpt><trkpt lat="45.816595406058354" lon="13.823641658118794"><ele>285.0</ele><time>2026-05-02T14:56:18.999Z</time></trkpt><trkpt lat="45.816501303798695" lon="13.823501827387982"><ele>284.6666666666667</ele><time>2026-05-02T14:56:19.999Z</time></trkpt><trkpt lat="45.81638838907074" lon="13.823387388229483"><ele>284.33333333333337</ele><time>2026-05-02T14:56:20.999Z</time></trkpt><trkpt lat="45.81626712369607" lon="13.8232500744855"><ele>284.0</ele><time>2026-05-02T14:56:21.999Z</time></trkpt><trkpt lat="45.81616164634313" lon="13.8230762609681"><ele>284.0</ele><time>2026-05-02T14:56:22.999Z</time></trkpt><trkpt lat="45.816085713779934" lon="13.822864774377168"><ele>284.0</ele><time>2026-05-02T14:56:23.999Z</time></trkpt><trkpt lat="45.815985458727674" lon="13.822675173130072"><ele>284.0</ele><time>2026-05-02T14:56:25Z</time></trkpt><trkpt lat="45.815888965761" lon="13.822467262155616"><ele>284.0</ele><time>2026-05-02T14:56:26Z</time></trkpt><trkpt lat="45.815786292877576" lon="13.82225660693293"><ele>284.0</ele><time>2026-05-02T14:56:27Z</time></trkpt><trkpt lat="45.81568491376033" lon="13.822037289418619"><ele>284.0</ele><time>2026-05-02T14:56:28Z</time></trkpt><trkpt lat="45.81557991933733" lon="13.821825953022305"><ele>284.33333333333337</ele><time>2026-05-02T14:56:29Z</time></trkpt><trkpt lat="45.81546611625801" lon="13.82163510690633"><ele>284.6666666666667</ele><time>2026-05-02T14:56:30Z</time></trkpt><trkpt lat="45.815349601773725" lon="13.821455262700885"><ele>285.0</ele><time>2026-05-02T14:56:31Z</time></trkpt><trkpt lat="45.81525043293349" lon="13.82127508762922"><ele>285.0</ele><time>2026-05-02T14:56:32Z</time></trkpt><trkpt lat="45.815195854752474" lon="13.821068961535653"><ele>285.0</ele><time>2026-05-02T14:56:33Z</time></trkpt><trkpt lat="45.81511821612463" lon="13.820861464961798"><ele>285.0</ele><time>2026-05-02T14:56:34Z</time></trkpt><trkpt lat="45.815053760141176" lon="13.820633748627923"><ele>285.6666666666667</ele><time>2026-05-02T14:56:35Z</time></trkpt><trkpt lat="45.814990244241706" lon="13.820401183202737"><ele>286.33333333333337</ele><time>2026-05-02T14:56:36Z</time></trkpt><trkpt lat="45.81494291805153" lon="13.820144106514112"><ele>287.0</ele><time>2026-05-02T14:56:37Z</time></trkpt><trkpt lat="45.81489293769963" lon="13.819857393057047"><ele>288.0</ele><time>2026-05-02T14:56:38Z</time></trkpt><trkpt lat="45.81484306288244" lon="13.819575599134401"><ele>289.0</ele><time>2026-05-02T14:56:39Z</time></trkpt><trkpt lat="45.81481661614413" lon="13.819344994022021"><ele>290.0</ele><time>2026-05-02T14:56:39.999Z</time></trkpt><trkpt lat="45.81479584242358" lon="13.819152343065689"><ele>291.0</ele><time>2026-05-02T14:56:40.999Z</time></trkpt><trkpt lat="45.81475384833684" lon="13.818983114083638"><ele>292.0</ele><time>2026-05-02T14:56:41.999Z</time></trkpt><trkpt lat="45.8146943215631" lon="13.818825117847032"><ele>293.0</ele><time>2026-05-02T14:56:42.999Z</time></trkpt><trkpt lat="45.814647045874935" lon="13.818654291321913"><ele>294.0</ele><time>2026-05-02T14:56:43.999Z</time></trkpt><trkpt lat="45.814630251445514" lon="13.818455977945227"><ele>294.0</ele><time>2026-05-02T14:56:44.999Z</time></trkpt><trkpt lat="45.81461061998615" lon="13.818249688467015"><ele>294.0</ele><time>2026-05-02T14:56:45.999Z</time></trkpt><trkpt lat="45.81457681161755" lon="13.818043118790213"><ele>294.0</ele><time>2026-05-02T14:56:46.999Z</time></trkpt><trkpt lat="45.81456727279589" lon="13.817851786081249"><ele>294.0</ele><time>2026-05-02T14:56:47.999Z</time></trkpt><trkpt lat="45.81455399537241" lon="13.817655681336351"><ele>294.5</ele><time>2026-05-02T14:56:48.999Z</time></trkpt><trkpt lat="45.8145434658511" lon="13.817449780668202"><ele>295.0</ele><time>2026-05-02T14:56:49.999Z</time></trkpt><trkpt lat="45.81453780456277" lon="13.817249374288396"><ele>295.5</ele><time>2026-05-02T14:56:50.999Z</time></trkpt><trkpt lat="45.81451599191581" lon="13.817060943607373"><ele>296.0</ele><time>2026-05-02T14:56:51.999Z</time></trkpt><trkpt lat="45.814471085413565" lon="13.816887367930985"><ele>297.0</ele><time>2026-05-02T14:56:52.999Z</time></trkpt><trkpt lat="45.81442682344678" lon="13.816721164222985"><ele>298.0</ele><time>2026-05-02T14:56:53.999Z</time></trkpt><trkpt lat="45.81442718555896" lon="13.816544114777507"><ele>299.0</ele><time>2026-05-02T14:56:54.999Z</time></trkpt><trkpt lat="45.81441566233645" lon="13.816358911238044"><ele>300.0</ele><time>2026-05-02T14:56:55.999Z</time></trkpt><trkpt lat="45.814408029904236" lon="13.816170666741192"><ele>300.75</ele><time>2026-05-02T14:56:56.999Z</time></trkpt><trkpt lat="45.81439600543273" lon="13.815974139127722"><ele>301.5</ele><time>2026-05-02T14:56:57.999Z</time></trkpt><trkpt lat="45.814437879671154" lon="13.815788285339153"><ele>302.25</ele><time>2026-05-02T14:56:58.999Z</time></trkpt><trkpt lat="45.8144485800982" lon="13.815598920149883"><ele>303.0</ele><time>2026-05-02T14:56:59.999Z</time></trkpt><trkpt lat="45.81447355133895" lon="13.815436003027973"><ele>303.0</ele><time>2026-05-02T14:57:00.999Z</time></trkpt><trkpt lat="45.81447947362656" lon="13.815273232480456"><ele>303.0</ele><time>2026-05-02T14:57:01.999Z</time></trkpt><trkpt lat="45.814476037155245" lon="13.815099703492448"><ele>303.0</ele><time>2026-05-02T14:57:02.999Z</time></trkpt><trkpt lat="45.81447745929074" lon="13.814910551135318"><ele>303.0</ele><time>2026-05-02T14:57:03.999Z</time></trkpt><trkpt lat="45.81448198303986" lon="13.814714383552543"><ele>302.6666666666667</ele><time>2026-05-02T14:57:04.999Z</time></trkpt><trkpt lat="45.814489938770265" lon="13.814515388920816"><ele>302.33333333333337</ele><time>2026-05-02T14:57:05.999Z</time></trkpt><trkpt lat="45.81449350267242" lon="13.814300327434188"><ele>302.0</ele><time>2026-05-02T14:57:06.999Z</time></trkpt><trkpt lat="45.81446541333917" lon="13.814070649044963"><ele>301.75</ele><time>2026-05-02T14:57:07.999Z</time></trkpt><trkpt lat="45.814444410544816" lon="13.813860499027676"><ele>301.5</ele><time>2026-05-02T14:57:08.999Z</time></trkpt><trkpt lat="45.81442812223579" lon="13.813652320510913"><ele>301.25</ele><time>2026-05-02T14:57:09.999Z</time></trkpt><trkpt lat="45.814425615250215" lon="13.813441125235695"><ele>301.0</ele><time>2026-05-02T14:57:10.999Z</time></trkpt><trkpt lat="45.81442259944413" lon="13.81323236525281"><ele>301.5</ele><time>2026-05-02T14:57:11.999Z</time></trkpt><trkpt lat="45.81440787539291" lon="13.813022281903802"><ele>302.0</ele><time>2026-05-02T14:57:12.999Z</time></trkpt><trkpt lat="45.81438440260688" lon="13.81281234125849"><ele>302.5</ele><time>2026-05-02T14:57:13.999Z</time></trkpt><trkpt lat="45.81436040736784" lon="13.812602656774578"><ele>303.0</ele><time>2026-05-02T14:57:14.999Z</time></trkpt><trkpt lat="45.8143352553988" lon="13.812398642469503"><ele>304.25</ele><time>2026-05-02T14:57:15.999Z</time></trkpt><trkpt lat="45.81431706079476" lon="13.812196295925682"><ele>305.5</ele><time>2026-05-02T14:57:16.999Z</time></trkpt><trkpt lat="45.814301118998564" lon="13.812002988056253"><ele>306.75</ele><time>2026-05-02T14:57:17.999Z</time></trkpt><trkpt lat="45.814288531120965" lon="13.811818962429635"><ele>308.0</ele><time>2026-05-02T14:57:18.999Z</time></trkpt><trkpt lat="45.81428991113082" lon="13.811632797870967"><ele>308.0</ele><time>2026-05-02T14:57:19.999Z</time></trkpt><trkpt lat="45.81430176444513" lon="13.811447589119451"><ele>308.0</ele><time>2026-05-02T14:57:20.999Z</time></trkpt><trkpt lat="45.81432572671706" lon="13.811262698278366"><ele>308.0</ele><time>2026-05-02T14:57:21.999Z</time></trkpt><trkpt lat="45.81435600702945" lon="13.811069746526675"><ele>308.0</ele><time>2026-05-02T14:57:22.999Z</time></trkpt><trkpt lat="45.81439796624296" lon="13.810863676933506"><ele>308.25</ele><time>2026-05-02T14:57:23.998Z</time></trkpt><trkpt lat="45.81445375835569" lon="13.810664084343228"><ele>308.5</ele><time>2026-05-02T14:57:24.998Z</time></trkpt><trkpt lat="45.814497569768676" lon="13.810494085513602"><ele>308.75</ele><time>2026-05-02T14:57:25.998Z</time></trkpt><trkpt lat="45.814531727715746" lon="13.810348574517759"><ele>309.0</ele><time>2026-05-02T14:57:26.998Z</time></trkpt><trkpt lat="45.814562598799135" lon="13.81021580814827"><ele>310.0</ele><time>2026-05-02T14:57:27.998Z</time></trkpt><trkpt lat="45.81459157283202" lon="13.810087227310502"><ele>311.0</ele><time>2026-05-02T14:57:28.998Z</time></trkpt><trkpt lat="45.81462043461412" lon="13.80995211779055"><ele>312.0</ele><time>2026-05-02T14:57:29.998Z</time></trkpt><trkpt lat="45.814636902114565" lon="13.809812670792947"><ele>313.0</ele><time>2026-05-02T14:57:30.998Z</time></trkpt><trkpt lat="45.81464207234216" lon="13.809672030332415"><ele>314.0</ele><time>2026-05-02T14:57:31.998Z</time></trkpt><trkpt lat="45.81463847293559" lon="13.809531522109234"><ele>314.0</ele><time>2026-05-02T14:57:32.998Z</time></trkpt><trkpt lat="45.814604685676" lon="13.809410918626298"><ele>314.0</ele><time>2026-05-02T14:57:33.998Z</time></trkpt><trkpt lat="45.814586950647886" lon="13.809270201897764"><ele>314.0</ele><time>2026-05-02T14:57:34.998Z</time></trkpt><trkpt lat="45.814539464391395" lon="13.80912650273332"><ele>314.0</ele><time>2026-05-02T14:57:35.998Z</time></trkpt><trkpt lat="45.81448767731407" lon="13.808980715099505"><ele>314.0</ele><time>2026-05-02T14:57:36.998Z</time></trkpt><trkpt lat="45.81443117080136" lon="13.808838143590341"><ele>314.5</ele><time>2026-05-02T14:57:37.998Z</time></trkpt><trkpt lat="45.8143834055301" lon="13.808683587196438"><ele>315.0</ele><time>2026-05-02T14:57:38.998Z</time></trkpt><trkpt lat="45.81439684370142" lon="13.80852216055478"><ele>315.5</ele><time>2026-05-02T14:57:39.998Z</time></trkpt><trkpt lat="45.81440511878644" lon="13.808323733585912"><ele>316.0</ele><time>2026-05-02T14:57:40.998Z</time></trkpt><trkpt lat="45.814409323139664" lon="13.808115932644755"><ele>316.0</ele><time>2026-05-02T14:57:41.998Z</time></trkpt><trkpt lat="45.814425876997596" lon="13.807908668297165"><ele>316.0</ele><time>2026-05-02T14:57:42.998Z</time></trkpt><trkpt lat="45.81443601181379" lon="13.807715716699617"><ele>316.0</ele><time>2026-05-02T14:57:43.998Z</time></trkpt><trkpt lat="45.814452418125185" lon="13.807529429119885"><ele>316.0</ele><time>2026-05-02T14:57:44.998Z</time></trkpt><trkpt lat="45.814466351497344" lon="13.807350350649703"><ele>315.25</ele><time>2026-05-02T14:57:45.998Z</time></trkpt><trkpt lat="45.81450513310912" lon="13.807179978831664"><ele>314.5</ele><time>2026-05-02T14:57:46.998Z</time></trkpt><trkpt lat="45.81453504436896" lon="13.80700872996116"><ele>313.75</ele><time>2026-05-02T14:57:47.998Z</time></trkpt><trkpt lat="45.814516101150176" lon="13.806828302558026"><ele>313.0</ele><time>2026-05-02T14:57:48.998Z</time></trkpt><trkpt lat="45.81448275663497" lon="13.806633879498095"><ele>311.5</ele><time>2026-05-02T14:57:49.998Z</time></trkpt><trkpt lat="45.814459605529464" lon="13.806443702734486"><ele>310.0</ele><time>2026-05-02T14:57:50.998Z</time></trkpt><trkpt lat="45.81444406009521" lon="13.806253595912105"><ele>308.5</ele><time>2026-05-02T14:57:51.998Z</time></trkpt><trkpt lat="45.814423763039244" lon="13.806066862376547"><ele>307.0</ele><time>2026-05-02T14:57:52.998Z</time></trkpt><trkpt lat="45.81437220997352" lon="13.805870540669648"><ele>305.3333333333333</ele><time>2026-05-02T14:57:53.998Z</time></trkpt><trkpt lat="45.81432735521112" lon="13.805654271517302"><ele>303.6666666666667</ele><time>2026-05-02T14:57:54.998Z</time></trkpt><trkpt lat="45.81427451932014" lon="13.805439188751654"><ele>302.0</ele><time>2026-05-02T14:57:55.998Z</time></trkpt><trkpt lat="45.81422918168021" lon="13.805228383646629"><ele>297.6666666666667</ele><time>2026-05-02T14:57:56.998Z</time></trkpt><trkpt lat="45.81420275607865" lon="13.805001324922378"><ele>293.3333333333333</ele><time>2026-05-02T14:57:57.998Z</time></trkpt><trkpt lat="45.81419213217328" lon="13.804746845788678"><ele>289.0</ele><time>2026-05-02T14:57:58.998Z</time></trkpt><trkpt lat="45.81421055923654" lon="13.804498898725905"><ele>288.3333333333333</ele><time>2026-05-02T14:57:59.998Z</time></trkpt><trkpt lat="45.814207702174265" lon="13.804262636626936"><ele>287.6666666666667</ele><time>2026-05-02T14:58:00.998Z</time></trkpt><trkpt lat="45.81422708275369" lon="13.804046056691993"><ele>287.0</ele><time>2026-05-02T14:58:01.998Z</time></trkpt><trkpt lat="45.81423235096118" lon="13.80383520810715"><ele>287.0</ele><time>2026-05-02T14:58:02.998Z</time></trkpt><trkpt lat="45.8142039865865" lon="13.80364050800606"><ele>287.0</ele><time>2026-05-02T14:58:03.997Z</time></trkpt><trkpt lat="45.814149785057" lon="13.8034310371761"><ele>287.0</ele><time>2026-05-02T14:58:04.997Z</time></trkpt><trkpt lat="45.814084717329905" lon="13.803219571133672"><ele>286.0</ele><time>2026-05-02T14:58:05.997Z</time></trkpt><trkpt lat="45.814029285437925" lon="13.802994744696282"><ele>285.0</ele><time>2026-05-02T14:58:06.997Z</time></trkpt><trkpt lat="45.81398512410784" lon="13.80276321768953"><ele>284.0</ele><time>2026-05-02T14:58:07.997Z</time></trkpt><trkpt lat="45.81395187064638" lon="13.802546388587922"><ele>282.75</ele><time>2026-05-02T14:58:08.997Z</time></trkpt><trkpt lat="45.81390872192715" lon="13.802352540783488"><ele>281.5</ele><time>2026-05-02T14:58:09.997Z</time></trkpt><trkpt lat="45.813845107986324" lon="13.802177648215412"><ele>280.25</ele><time>2026-05-02T14:58:10.997Z</time></trkpt><trkpt lat="45.813748966136046" lon="13.802013279301269"><ele>279.0</ele><time>2026-05-02T14:58:11.997Z</time></trkpt><trkpt lat="45.81362631089185" lon="13.801860156548551"><ele>278.0</ele><time>2026-05-02T14:58:12.997Z</time></trkpt><trkpt lat="45.8135057994374" lon="13.801709414261955"><ele>277.0</ele><time>2026-05-02T14:58:13.997Z</time></trkpt><trkpt lat="45.81339353911456" lon="13.801557595576485"><ele>276.0</ele><time>2026-05-02T14:58:14.997Z</time></trkpt><trkpt lat="45.813290407691895" lon="13.801398417569176"><ele>275.6666666666667</ele><time>2026-05-02T14:58:15.997Z</time></trkpt><trkpt lat="45.813191019788185" lon="13.801232291160712"><ele>275.33333333333337</ele><time>2026-05-02T14:58:16.997Z</time></trkpt><trkpt lat="45.81310051249272" lon="13.801049838883248"><ele>275.0</ele><time>2026-05-02T14:58:17.997Z</time></trkpt><trkpt lat="45.813041140915715" lon="13.800840083692156"><ele>274.0</ele><time>2026-05-02T14:58:18.997Z</time></trkpt><trkpt lat="45.81298705223513" lon="13.80061330718012"><ele>273.0</ele><time>2026-05-02T14:58:19.997Z</time></trkpt><trkpt lat="45.812927647949444" lon="13.80037921151664"><ele>272.0</ele><time>2026-05-02T14:58:20.997Z</time></trkpt><trkpt lat="45.81286179105344" lon="13.800156176890761"><ele>270.6666666666667</ele><time>2026-05-02T14:58:21.997Z</time></trkpt><trkpt lat="45.81283980433308" lon="13.799926841746654"><ele>269.3333333333333</ele><time>2026-05-02T14:58:22.997Z</time></trkpt><trkpt lat="45.81282694971581" lon="13.799703948533224"><ele>268.0</ele><time>2026-05-02T14:58:23.997Z</time></trkpt><trkpt lat="45.81283974120951" lon="13.799471045743148"><ele>267.3333333333333</ele><time>2026-05-02T14:58:25Z</time></trkpt><trkpt lat="45.81285798155012" lon="13.799219301029883"><ele>266.6666666666667</ele><time>2026-05-02T14:58:26Z</time></trkpt><trkpt lat="45.812862712848826" lon="13.798980055126256"><ele>266.0</ele><time>2026-05-02T14:58:27Z</time></trkpt><trkpt lat="45.81285858592488" lon="13.798754624775796"><ele>266.0</ele><time>2026-05-02T14:58:28Z</time></trkpt><trkpt lat="45.812824139344606" lon="13.798523343686862"><ele>266.0</ele><time>2026-05-02T14:58:29Z</time></trkpt><trkpt lat="45.81277556958025" lon="13.798289704745233"><ele>266.0</ele><time>2026-05-02T14:58:30Z</time></trkpt><trkpt lat="45.81271586104127" lon="13.798060437407598"><ele>266.0</ele><time>2026-05-02T14:58:31Z</time></trkpt><trkpt lat="45.81266471923699" lon="13.797855490057291"><ele>266.0</ele><time>2026-05-02T14:58:32Z</time></trkpt><trkpt lat="45.81263948821681" lon="13.797667552468546"><ele>266.0</ele><time>2026-05-02T14:58:33Z</time></trkpt><trkpt lat="45.81266758448541" lon="13.797489566810617"><ele>266.0</ele><time>2026-05-02T14:58:34Z</time></trkpt><trkpt lat="45.81270467803278" lon="13.797308479684908"><ele>266.0</ele><time>2026-05-02T14:58:35Z</time></trkpt><trkpt lat="45.81272461179425" lon="13.797099219701098"><ele>266.0</ele><time>2026-05-02T14:58:36Z</time></trkpt><trkpt lat="45.812768617526096" lon="13.796888372731244"><ele>266.0</ele><time>2026-05-02T14:58:37Z</time></trkpt><trkpt lat="45.812808682418385" lon="13.796692238630607"><ele>266.0</ele><time>2026-05-02T14:58:38Z</time></trkpt><trkpt lat="45.812845204181684" lon="13.796515168451316"><ele>266.40000000000003</ele><time>2026-05-02T14:58:39Z</time></trkpt><trkpt lat="45.81287699165414" lon="13.796361249240444"><ele>266.8</ele><time>2026-05-02T14:58:40Z</time></trkpt><trkpt lat="45.812902014338796" lon="13.796227696763255"><ele>267.20000000000005</ele><time>2026-05-02T14:58:41Z</time></trkpt><trkpt lat="45.81291923509373" lon="13.796128696884821"><ele>267.6</ele><time>2026-05-02T14:58:42Z</time></trkpt><trkpt lat="45.8128654351798" lon="13.795982229644848"><ele>268.0</ele><time>2026-05-02T14:58:44Z</time></trkpt><trkpt lat="45.81280534523238" lon="13.795912802001881"><ele>268.6</ele><time>2026-05-02T14:58:45Z</time></trkpt><trkpt lat="45.81273958976315" lon="13.795830909213388"><ele>269.20000000000005</ele><time>2026-05-02T14:58:46Z</time></trkpt><trkpt lat="45.81267491803115" lon="13.795734178464256"><ele>269.8</ele><time>2026-05-02T14:58:47Z</time></trkpt><trkpt lat="45.81260717294491" lon="13.79563303180958"><ele>270.40000000000003</ele><time>2026-05-02T14:58:48Z</time></trkpt><trkpt lat="45.812528995704426" lon="13.795536810470006"><ele>271.0</ele><time>2026-05-02T14:58:49Z</time></trkpt><trkpt lat="45.812436788620744" lon="13.795425271608151"><ele>271.6</ele><time>2026-05-02T14:58:50Z</time></trkpt><trkpt lat="45.81233730691269" lon="13.7953162811427"><ele>272.20000000000005</ele><time>2026-05-02T14:58:51Z</time></trkpt><trkpt lat="45.81226233432475" lon="13.79522308066763"><ele>272.79999999999995</ele><time>2026-05-02T14:58:52Z</time></trkpt><trkpt lat="45.812205562588325" lon="13.795118685536684"><ele>273.4</ele><time>2026-05-02T14:58:53Z</time></trkpt><trkpt lat="45.81215280156831" lon="13.79498561008212"><ele>274.0</ele><time>2026-05-02T14:58:54Z</time></trkpt><trkpt lat="45.81212139756413" lon="13.794826504654507"><ele>274.25</ele><time>2026-05-02T14:58:55Z</time></trkpt><trkpt lat="45.81207367760179" lon="13.79466038190676"><ele>274.5</ele><time>2026-05-02T14:58:56Z</time></trkpt><trkpt lat="45.81201152305746" lon="13.79449585640813"><ele>274.75</ele><time>2026-05-02T14:58:56.999Z</time></trkpt><trkpt lat="45.8119583250912" lon="13.794316594180732"><ele>275.0</ele><time>2026-05-02T14:58:57.999Z</time></trkpt><trkpt lat="45.8119058923824" lon="13.794141859147478"><ele>275.25</ele><time>2026-05-02T14:58:58.999Z</time></trkpt><trkpt lat="45.811859701983" lon="13.793993285720841"><ele>275.5</ele><time>2026-05-02T14:58:59.999Z</time></trkpt><trkpt lat="45.81184158882395" lon="13.793841741257966"><ele>275.75</ele><time>2026-05-02T14:59:00.999Z</time></trkpt><trkpt lat="45.81182580022849" lon="13.793682356595706"><ele>276.0</ele><time>2026-05-02T14:59:01.999Z</time></trkpt><trkpt lat="45.81182658976777" lon="13.793506353114156"><ele>277.0</ele><time>2026-05-02T14:59:02.999Z</time></trkpt><trkpt lat="45.81181000557231" lon="13.793332220156527"><ele>278.0</ele><time>2026-05-02T14:59:03.999Z</time></trkpt><trkpt lat="45.81181748858238" lon="13.793146038651209"><ele>279.0</ele><time>2026-05-02T14:59:04.999Z</time></trkpt><trkpt lat="45.81181489401515" lon="13.792955651395465"><ele>280.0</ele><time>2026-05-02T14:59:05.999Z</time></trkpt><trkpt lat="45.8118116771312" lon="13.792773685718151"><ele>280.25</ele><time>2026-05-02T14:59:06.999Z</time></trkpt><trkpt lat="45.81180900962095" lon="13.792597029947629"><ele>280.5</ele><time>2026-05-02T14:59:07.999Z</time></trkpt><trkpt lat="45.8118024811631" lon="13.792425436483526"><ele>280.75</ele><time>2026-05-02T14:59:08.999Z</time></trkpt><trkpt lat="45.81179124691691" lon="13.792256354108241"><ele>281.0</ele><time>2026-05-02T14:59:09.999Z</time></trkpt><trkpt lat="45.81177791739312" lon="13.79208486221707"><ele>281.0</ele><time>2026-05-02T14:59:10.999Z</time></trkpt><trkpt lat="45.81175285332383" lon="13.791918403990621"><ele>281.0</ele><time>2026-05-02T14:59:11.999Z</time></trkpt><trkpt lat="45.811712941097014" lon="13.79175522775551"><ele>281.0</ele><time>2026-05-02T14:59:12.999Z</time></trkpt><trkpt lat="45.81165415186988" lon="13.791586112018853"><ele>281.0</ele><time>2026-05-02T14:59:13.999Z</time></trkpt><trkpt lat="45.81159448341964" lon="13.79142513569981"><ele>281.0</ele><time>2026-05-02T14:59:14.999Z</time></trkpt><trkpt lat="45.81153526689789" lon="13.791266664072118"><ele>281.0</ele><time>2026-05-02T14:59:15.999Z</time></trkpt><trkpt lat="45.81147837357905" lon="13.791109620894376"><ele>281.0</ele><time>2026-05-02T14:59:16.999Z</time></trkpt><trkpt lat="45.8114082846763" lon="13.79096074919417"><ele>281.0</ele><time>2026-05-02T14:59:17.999Z</time></trkpt><trkpt lat="45.811377850751015" lon="13.790784890353622"><ele>279.75</ele><time>2026-05-02T14:59:18.999Z</time></trkpt><trkpt lat="45.81133495222329" lon="13.79061524204922"><ele>278.5</ele><time>2026-05-02T14:59:19.999Z</time></trkpt><trkpt lat="45.8112963116398" lon="13.790438148743556"><ele>277.25</ele><time>2026-05-02T14:59:20.999Z</time></trkpt><trkpt lat="45.811251718735434" lon="13.790270630696666"><ele>276.0</ele><time>2026-05-02T14:59:21.999Z</time></trkpt><trkpt lat="45.811193406951524" lon="13.790120594696944"><ele>275.25</ele><time>2026-05-02T14:59:22.999Z</time></trkpt><trkpt lat="45.811110911551204" lon="13.789975072124587"><ele>274.5</ele><time>2026-05-02T14:59:23.999Z</time></trkpt><trkpt lat="45.81101048218787" lon="13.78982772145063"><ele>273.75</ele><time>2026-05-02T14:59:24.999Z</time></trkpt><trkpt lat="45.8109033976172" lon="13.789678115125733"><ele>273.0</ele><time>2026-05-02T14:59:25.999Z</time></trkpt><trkpt lat="45.81080169807394" lon="13.78954018822383"><ele>273.0</ele><time>2026-05-02T14:59:26.999Z</time></trkpt><trkpt lat="45.8106924065727" lon="13.789410086903121"><ele>273.0</ele><time>2026-05-02T14:59:27.999Z</time></trkpt><trkpt lat="45.810570896994065" lon="13.789290517388915"><ele>273.0</ele><time>2026-05-02T14:59:28.999Z</time></trkpt><trkpt lat="45.81044425230285" lon="13.789197252565096"><ele>273.0</ele><time>2026-05-02T14:59:29.999Z</time></trkpt><trkpt lat="45.810312818903014" lon="13.789093376831438"><ele>273.0</ele><time>2026-05-02T14:59:30.999Z</time></trkpt><trkpt lat="45.81019325060148" lon="13.788972900474048"><ele>273.0</ele><time>2026-05-02T14:59:31.999Z</time></trkpt><trkpt lat="45.810075549388195" lon="13.788850359135795"><ele>273.0</ele><time>2026-05-02T14:59:32.999Z</time></trkpt><trkpt lat="45.8099617272447" lon="13.788727781091445"><ele>273.0</ele><time>2026-05-02T14:59:33.999Z</time></trkpt><trkpt lat="45.809847810003355" lon="13.788597413986961"><ele>272.0</ele><time>2026-05-02T14:59:34.999Z</time></trkpt><trkpt lat="45.809727501679646" lon="13.788472278712671"><ele>271.0</ele><time>2026-05-02T14:59:35.999Z</time></trkpt><trkpt lat="45.809605029889276" lon="13.788369864130946"><ele>270.0</ele><time>2026-05-02T14:59:36.998Z</time></trkpt><trkpt lat="45.80948150522804" lon="13.78826525844838"><ele>269.0</ele><time>2026-05-02T14:59:37.998Z</time></trkpt><trkpt lat="45.80935282207645" lon="13.788144052733136"><ele>269.0</ele><time>2026-05-02T14:59:38.998Z</time></trkpt><trkpt lat="45.80922577307099" lon="13.788041353930263"><ele>269.0</ele><time>2026-05-02T14:59:39.998Z</time></trkpt><trkpt lat="45.809100399687146" lon="13.787960274465872"><ele>269.0</ele><time>2026-05-02T14:59:40.998Z</time></trkpt><trkpt lat="45.8089718681853" lon="13.787878295386285"><ele>269.0</ele><time>2026-05-02T14:59:41.998Z</time></trkpt><trkpt lat="45.80883817855828" lon="13.787787218150772"><ele>269.0</ele><time>2026-05-02T14:59:42.998Z</time></trkpt><trkpt lat="45.80871945718459" lon="13.787709812100482"><ele>269.0</ele><time>2026-05-02T14:59:43.998Z</time></trkpt><trkpt lat="45.80860652384591" lon="13.787644796307866"><ele>269.0</ele><time>2026-05-02T14:59:44.998Z</time></trkpt><trkpt lat="45.80850698340928" lon="13.787573158740335"><ele>269.0</ele><time>2026-05-02T14:59:45.998Z</time></trkpt><trkpt lat="45.80843611242303" lon="13.78744720319661"><ele>269.5</ele><time>2026-05-02T14:59:46.998Z</time></trkpt><trkpt lat="45.80835747669309" lon="13.787315908892776"><ele>270.0</ele><time>2026-05-02T14:59:47.998Z</time></trkpt><trkpt lat="45.808272856925676" lon="13.787167005606745"><ele>270.5</ele><time>2026-05-02T14:59:48.998Z</time></trkpt><trkpt lat="45.80818239039022" lon="13.787032711463782"><ele>271.0</ele><time>2026-05-02T14:59:49.998Z</time></trkpt><trkpt lat="45.80810189234359" lon="13.786890478542484"><ele>271.2</ele><time>2026-05-02T14:59:50.998Z</time></trkpt><trkpt lat="45.80803283226569" lon="13.786755919973183"><ele>271.40000000000003</ele><time>2026-05-02T14:59:51.998Z</time></trkpt><trkpt lat="45.80795377569006" lon="13.78664655565064"><ele>271.6</ele><time>2026-05-02T14:59:52.998Z</time></trkpt><trkpt lat="45.80786602198916" lon="13.786566772388868"><ele>271.8</ele><time>2026-05-02T14:59:53.998Z</time></trkpt><trkpt lat="45.80777210423792" lon="13.786502678393918"><ele>272.0</ele><time>2026-05-02T14:59:54.998Z</time></trkpt><trkpt lat="45.80766981770469" lon="13.786431872933731"><ele>271.75</ele><time>2026-05-02T14:59:55.998Z</time></trkpt><trkpt lat="45.807552155830805" lon="13.7863535638252"><ele>271.5</ele><time>2026-05-02T14:59:56.998Z</time></trkpt><trkpt lat="45.807436620970115" lon="13.786251603753355"><ele>271.25</ele><time>2026-05-02T14:59:57.998Z</time></trkpt><trkpt lat="45.80734851717462" lon="13.786120913141733"><ele>271.0</ele><time>2026-05-02T14:59:58.998Z</time></trkpt><trkpt lat="45.80725567947722" lon="13.785986341598404"><ele>270.5</ele><time>2026-05-02T14:59:59.998Z</time></trkpt><trkpt lat="45.807182659474286" lon="13.785850042379748"><ele>270.0</ele><time>2026-05-02T15:00:00.998Z</time></trkpt><trkpt lat="45.80712041061094" lon="13.785709674148091"><ele>269.5</ele><time>2026-05-02T15:00:01.998Z</time></trkpt><trkpt lat="45.80706634111105" lon="13.785550738099575"><ele>269.0</ele><time>2026-05-02T15:00:02.998Z</time></trkpt><trkpt lat="45.80700301490992" lon="13.78539743735507"><ele>269.0</ele><time>2026-05-02T15:00:03.998Z</time></trkpt><trkpt lat="45.8069592682793" lon="13.785205499142045"><ele>269.0</ele><time>2026-05-02T15:00:04.998Z</time></trkpt><trkpt lat="45.80690297705146" lon="13.785005932931407"><ele>269.0</ele><time>2026-05-02T15:00:05.998Z</time></trkpt><trkpt lat="45.80684666496054" lon="13.78480021519389"><ele>269.0</ele><time>2026-05-02T15:00:06.998Z</time></trkpt><trkpt lat="45.806798451607776" lon="13.784620004438246"><ele>269.33333333333337</ele><time>2026-05-02T15:00:07.998Z</time></trkpt><trkpt lat="45.8067865474409" lon="13.784417257023764"><ele>269.6666666666667</ele><time>2026-05-02T15:00:08.998Z</time></trkpt><trkpt lat="45.80674798160967" lon="13.784194734774982"><ele>270.0</ele><time>2026-05-02T15:00:09.998Z</time></trkpt><trkpt lat="45.80672146859103" lon="13.783935210427167"><ele>270.0</ele><time>2026-05-02T15:00:10.998Z</time></trkpt><trkpt lat="45.80670122020631" lon="13.783709054573803"><ele>270.0</ele><time>2026-05-02T15:00:11.998Z</time></trkpt><trkpt lat="45.80667711921805" lon="13.783514226207698"><ele>270.0</ele><time>2026-05-02T15:00:12.998Z</time></trkpt><trkpt lat="45.806642658852994" lon="13.783339263995712"><ele>270.0</ele><time>2026-05-02T15:00:13.998Z</time></trkpt><trkpt lat="45.80660653161363" lon="13.78319120388886"><ele>270.1666666666667</ele><time>2026-05-02T15:00:14.998Z</time></trkpt><trkpt lat="45.806584554388095" lon="13.783071748448178"><ele>270.3333333333333</ele><time>2026-05-02T15:00:15.997Z</time></trkpt><trkpt lat="45.80658096241053" lon="13.782978658426474"><ele>270.5</ele><time>2026-05-02T15:00:16.997Z</time></trkpt><trkpt lat="45.80658638718259" lon="13.78285828996641"><ele>270.66666666666663</ele><time>2026-05-02T15:00:18.997Z</time></trkpt><trkpt lat="45.80652386789953" lon="13.78287408614083"><ele>270.8333333333333</ele><time>2026-05-02T15:00:26.997Z</time></trkpt><trkpt lat="45.806473248245524" lon="13.782944120475642"><ele>271.0</ele><time>2026-05-02T15:00:33Z</time></trkpt><trkpt lat="45.806414520513925" lon="13.783069646316742"><ele>271.0</ele><time>2026-05-02T15:00:35Z</time></trkpt><trkpt lat="45.80637325143682" lon="13.783146382467386"><ele>271.0</ele><time>2026-05-02T15:00:36Z</time></trkpt><trkpt lat="45.80632789911906" lon="13.783229705331474"><ele>271.0</ele><time>2026-05-02T15:00:37Z</time></trkpt><trkpt lat="45.80626576305487" lon="13.783287715679467"><ele>271.0</ele><time>2026-05-02T15:00:38Z</time></trkpt><trkpt lat="45.806213544890134" lon="13.783359387199722"><ele>271.0</ele><time>2026-05-02T15:00:39Z</time></trkpt><trkpt lat="45.80615624405847" lon="13.78342835783402"><ele>271.0</ele><time>2026-05-02T15:00:40Z</time></trkpt><trkpt lat="45.80609902976643" lon="13.783495034490914"><ele>271.0</ele><time>2026-05-02T15:00:41Z</time></trkpt><trkpt lat="45.806041282017375" lon="13.783564531236502"><ele>271.0</ele><time>2026-05-02T15:00:42Z</time></trkpt><trkpt lat="45.80599685236843" lon="13.783647666722286"><ele>271.0</ele><time>2026-05-02T15:00:43Z</time></trkpt><trkpt lat="45.8059407783352" lon="13.783712210821959"><ele>271.0</ele><time>2026-05-02T15:00:44Z</time></trkpt><trkpt lat="45.805889215558985" lon="13.783783089135445"><ele>271.0</ele><time>2026-05-02T15:00:45Z</time></trkpt><trkpt lat="45.80584229563703" lon="13.783858763086203"><ele>271.0</ele><time>2026-05-02T15:00:46Z</time></trkpt><trkpt lat="45.80579821622022" lon="13.783940870227198"><ele>271.0</ele><time>2026-05-02T15:00:47Z</time></trkpt><trkpt lat="45.805735765086865" lon="13.783992705425959"><ele>271.0</ele><time>2026-05-02T15:00:48Z</time></trkpt><trkpt lat="45.8056777187292" lon="13.784046995224305"><ele>271.0</ele><time>2026-05-02T15:00:49Z</time></trkpt><trkpt lat="45.80562060478291" lon="13.784095038510607"><ele>271.0</ele><time>2026-05-02T15:00:50Z</time></trkpt><trkpt lat="45.80556245355372" lon="13.784148443670869"><ele>271.0</ele><time>2026-05-02T15:00:51Z</time></trkpt><trkpt lat="45.80550745835674" lon="13.784201084796518"><ele>271.0</ele><time>2026-05-02T15:00:52Z</time></trkpt><trkpt lat="45.80545381949683" lon="13.784256881773825"><ele>271.0</ele><time>2026-05-02T15:00:53Z</time></trkpt><trkpt lat="45.805403442305625" lon="13.784335265877516"><ele>271.0</ele><time>2026-05-02T15:00:54Z</time></trkpt><trkpt lat="45.80533254944448" lon="13.784384140819046"><ele>271.0</ele><time>2026-05-02T15:00:55Z</time></trkpt><trkpt lat="45.80526507527011" lon="13.784459122212365"><ele>271.3333333333333</ele><time>2026-05-02T15:00:56Z</time></trkpt><trkpt lat="45.805198859225904" lon="13.784548132206236"><ele>271.66666666666663</ele><time>2026-05-02T15:00:57Z</time></trkpt><trkpt lat="45.80515272456538" lon="13.78466034086485"><ele>272.0</ele><time>2026-05-02T15:00:58Z</time></trkpt><trkpt lat="45.80509488068654" lon="13.784761786477826"><ele>272.3333333333333</ele><time>2026-05-02T15:00:59Z</time></trkpt><trkpt lat="45.805044192257235" lon="13.784866106889167"><ele>272.6666666666667</ele><time>2026-05-02T15:01:00Z</time></trkpt><trkpt lat="45.804996821037946" lon="13.784972060248954"><ele>273.0</ele><time>2026-05-02T15:01:01Z</time></trkpt><trkpt lat="45.804961311753544" lon="13.78508302168702"><ele>273.5</ele><time>2026-05-02T15:01:02Z</time></trkpt><trkpt lat="45.80491409281057" lon="13.78518976663204"><ele>274.0</ele><time>2026-05-02T15:01:03Z</time></trkpt><trkpt lat="45.804895547965806" lon="13.785308291120128"><ele>274.5</ele><time>2026-05-02T15:01:04Z</time></trkpt><trkpt lat="45.80484856970628" lon="13.785400830731133"><ele>275.0</ele><time>2026-05-02T15:01:05Z</time></trkpt><trkpt lat="45.80482335779403" lon="13.785514625593624"><ele>275.5</ele><time>2026-05-02T15:01:06Z</time></trkpt><trkpt lat="45.8047771247091" lon="13.78561181113326"><ele>276.0</ele><time>2026-05-02T15:01:07Z</time></trkpt><trkpt lat="45.80472470364442" lon="13.785710483149256"><ele>276.0</ele><time>2026-05-02T15:01:08Z</time></trkpt><trkpt lat="45.80467378919218" lon="13.785810427411452"><ele>276.0</ele><time>2026-05-02T15:01:08.999Z</time></trkpt><trkpt lat="45.80462127585589" lon="13.785912506288483"><ele>276.0</ele><time>2026-05-02T15:01:09.999Z</time></trkpt><trkpt lat="45.80457022878628" lon="13.786016901152252"><ele>276.0</ele><time>2026-05-02T15:01:10.999Z</time></trkpt><trkpt lat="45.80452209516057" lon="13.786118646154499"><ele>276.0</ele><time>2026-05-02T15:01:11.999Z</time></trkpt><trkpt lat="45.8044749637086" lon="13.786223326500716"><ele>276.0</ele><time>2026-05-02T15:01:12.999Z</time></trkpt><trkpt lat="45.80442544916393" lon="13.78632637226403"><ele>276.3333333333333</ele><time>2026-05-02T15:01:13.999Z</time></trkpt><trkpt lat="45.80436775184271" lon="13.78642047921484"><ele>276.6666666666667</ele><time>2026-05-02T15:01:14.999Z</time></trkpt><trkpt lat="45.80431377540624" lon="13.786514567407142"><ele>277.0</ele><time>2026-05-02T15:01:15.999Z</time></trkpt><trkpt lat="45.80425784683814" lon="13.786601936333168"><ele>277.33333333333337</ele><time>2026-05-02T15:01:16.999Z</time></trkpt><trkpt lat="45.80420086213036" lon="13.786678393428451"><ele>277.6666666666667</ele><time>2026-05-02T15:01:17.999Z</time></trkpt><trkpt lat="45.804142506733534" lon="13.786756577228536"><ele>278.0</ele><time>2026-05-02T15:01:18.999Z</time></trkpt><trkpt lat="45.80409265353676" lon="13.78682361330688"><ele>278.0</ele><time>2026-05-02T15:01:19.999Z</time></trkpt><trkpt lat="45.80399492144671" lon="13.786984083199975"><ele>278.0</ele><time>2026-05-02T15:01:22.999Z</time></trkpt><trkpt lat="45.80393675717869" lon="13.787026121815607"><ele>278.0</ele><time>2026-05-02T15:01:25.999Z</time></trkpt><trkpt lat="45.80387766236183" lon="13.786859106098946"><ele>278.0</ele><time>2026-05-02T15:01:27.999Z</time></trkpt><trkpt lat="45.8037926930056" lon="13.786751483354868"><ele>278.0</ele><time>2026-05-02T15:01:29.999Z</time></trkpt><trkpt lat="45.80375805493568" lon="13.78665005678547"><ele>278.0</ele><time>2026-05-02T15:01:30.999Z</time></trkpt><trkpt lat="45.80371608549462" lon="13.786530529158242"><ele>278.0</ele><time>2026-05-02T15:01:31.999Z</time></trkpt><trkpt lat="45.8037147911075" lon="13.786399391345448"><ele>278.0</ele><time>2026-05-02T15:01:32.999Z</time></trkpt><trkpt lat="45.8036950669066" lon="13.786275933491728"><ele>278.0</ele><time>2026-05-02T15:01:33.999Z</time></trkpt><trkpt lat="45.803673473545395" lon="13.786132484383149"><ele>278.5</ele><time>2026-05-02T15:01:34.999Z</time></trkpt><trkpt lat="45.80365274667268" lon="13.78598831520477"><ele>279.0</ele><time>2026-05-02T15:01:35.999Z</time></trkpt><trkpt lat="45.803636711655976" lon="13.785856388776772"><ele>279.5</ele><time>2026-05-02T15:01:36.999Z</time></trkpt><trkpt lat="45.803626060373105" lon="13.785728720266292"><ele>280.0</ele><time>2026-05-02T15:01:37.999Z</time></trkpt><trkpt lat="45.803605678187246" lon="13.785628275799779"><ele>280.5</ele><time>2026-05-02T15:01:38.999Z</time></trkpt><trkpt lat="45.803578823734846" lon="13.785543427997817"><ele>281.0</ele><time>2026-05-02T15:01:39.999Z</time></trkpt><trkpt lat="45.80353548936924" lon="13.7854405542836"><ele>280.83333333333337</ele><time>2026-05-02T15:01:41.999Z</time></trkpt><trkpt lat="45.80349439498428" lon="13.78535740204389"><ele>280.6666666666667</ele><time>2026-05-02T15:01:45.999Z</time></trkpt><trkpt lat="45.80345109519455" lon="13.785276249732284"><ele>280.5</ele><time>2026-05-02T15:01:47.998Z</time></trkpt><trkpt lat="45.80338563089724" lon="13.785166351430872"><ele>280.3333333333333</ele><time>2026-05-02T15:01:49.998Z</time></trkpt><trkpt lat="45.80333465311811" lon="13.78510522152703"><ele>280.16666666666663</ele><time>2026-05-02T15:01:50.998Z</time></trkpt><trkpt lat="45.803281793685116" lon="13.784959808281513"><ele>280.0</ele><time>2026-05-02T15:01:52.998Z</time></trkpt><trkpt lat="45.80329811300483" lon="13.784827497053858"><ele>279.16666666666663</ele><time>2026-05-02T15:01:54.998Z</time></trkpt><trkpt lat="45.80328270629876" lon="13.784683047255049"><ele>278.3333333333333</ele><time>2026-05-02T15:01:56.998Z</time></trkpt><trkpt lat="45.80326359182675" lon="13.784576552623195"><ele>277.5</ele><time>2026-05-02T15:01:58.998Z</time></trkpt><trkpt lat="45.80321944753097" lon="13.784474958523367"><ele>276.6666666666667</ele><time>2026-05-02T15:02:00.998Z</time></trkpt><trkpt lat="45.803215234795495" lon="13.7843775790101"><ele>275.83333333333337</ele><time>2026-05-02T15:02:02.998Z</time></trkpt><trkpt lat="45.80321051161867" lon="13.78422317882501"><ele>275.0</ele><time>2026-05-02T15:02:04.998Z</time></trkpt><trkpt lat="45.80323446982869" lon="13.784050321822006"><ele>274.5</ele><time>2026-05-02T15:02:06.998Z</time></trkpt><trkpt lat="45.80325085572306" lon="13.783883218416408"><ele>274.0</ele><time>2026-05-02T15:02:08.998Z</time></trkpt><trkpt lat="45.80324104955787" lon="13.783782941103084"><ele>273.5</ele><time>2026-05-02T15:02:09.998Z</time></trkpt><trkpt lat="45.80322681606892" lon="13.78367842760359"><ele>273.0</ele><time>2026-05-02T15:02:10.998Z</time></trkpt><trkpt lat="45.803218323813006" lon="13.783585339823464"><ele>272.5</ele><time>2026-05-02T15:02:11.998Z</time></trkpt><trkpt lat="45.803208405261636" lon="13.783463974448694"><ele>272.0</ele><time>2026-05-02T15:02:13.998Z</time></trkpt><trkpt lat="45.80323628768165" lon="13.783358151323998"><ele>271.0</ele><time>2026-05-02T15:02:26.997Z</time></trkpt><trkpt lat="45.80326729451602" lon="13.783258764831292"><ele>270.0</ele><time>2026-05-02T15:02:28.997Z</time></trkpt><trkpt lat="45.8032653926633" lon="13.783117505360584"><ele>269.0</ele><time>2026-05-02T15:02:30.997Z</time></trkpt><trkpt lat="45.803261876918725" lon="13.782962866544388"><ele>268.0</ele><time>2026-05-02T15:02:32.997Z</time></trkpt><trkpt lat="45.803232797428166" lon="13.782824752009065"><ele>267.0</ele><time>2026-05-02T15:02:34.997Z</time></trkpt><trkpt lat="45.803202741054385" lon="13.782724593872242"><ele>267.0</ele><time>2026-05-02T15:02:37Z</time></trkpt><trkpt lat="45.8031874749975" lon="13.782622485955383"><ele>267.0</ele><time>2026-05-02T15:02:40Z</time></trkpt><trkpt lat="45.80320754694486" lon="13.782721842850991"><ele>267.0</ele><time>2026-05-02T15:03:11Z</time></trkpt><trkpt lat="45.803259683662" lon="13.78288228677324"><ele>267.0</ele><time>2026-05-02T15:03:13Z</time></trkpt><trkpt lat="45.80323414786514" lon="13.783021273369803"><ele>267.0</ele><time>2026-05-02T15:03:14.999Z</time></trkpt><trkpt lat="45.80323696703136" lon="13.783112219248807"><ele>267.0</ele><time>2026-05-02T15:03:15.999Z</time></trkpt><trkpt lat="45.803236002732426" lon="13.783241766487052"><ele>267.0</ele><time>2026-05-02T15:03:16.999Z</time></trkpt><trkpt lat="45.8032304520662" lon="13.7833540461395"><ele>267.0</ele><time>2026-05-02T15:03:17.999Z</time></trkpt><trkpt lat="45.80339156926278" lon="13.783486058609634"><ele>267.0</ele><time>2026-05-02T15:03:23.999Z</time></trkpt><trkpt lat="45.80345848391704" lon="13.783496341875201"><ele>267.0</ele><time>2026-05-02T15:03:24.999Z</time></trkpt><trkpt lat="45.803522481954445" lon="13.783520337526081"><ele>267.0</ele><time>2026-05-02T15:03:25.999Z</time></trkpt><trkpt lat="45.803614242279956" lon="13.78355082282499"><ele>268.6666666666667</ele><time>2026-05-02T15:03:27.999Z</time></trkpt><trkpt lat="45.80368536645479" lon="13.783566815918435"><ele>270.3333333333333</ele><time>2026-05-02T15:03:29.999Z</time></trkpt><trkpt lat="45.80376811016536" lon="13.783604255388044"><ele>272.0</ele><time>2026-05-02T15:03:32.999Z</time></trkpt><trkpt lat="45.80383635004651" lon="13.783637356065066"><ele>273.66666666666663</ele><time>2026-05-02T15:03:37.999Z</time></trkpt><trkpt lat="45.803858329312746" lon="13.783736238917971"><ele>275.3333333333333</ele><time>2026-05-02T15:03:38.999Z</time></trkpt><trkpt lat="45.80392467212009" lon="13.783744848940197"><ele>277.0</ele><time>2026-05-02T15:04:05.998Z</time></trkpt><trkpt lat="45.804009679632266" lon="13.783714836150697"><ele>277.0</ele><time>2026-05-02T15:04:07.998Z</time></trkpt><trkpt lat="45.803962361894946" lon="13.78359988486448"><ele>277.0</ele><time>2026-05-02T15:04:11.998Z</time></trkpt><trkpt lat="45.80388558883965" lon="13.783592500699147"><ele>277.0</ele><time>2026-05-02T15:04:12.998Z</time></trkpt><trkpt lat="45.80378405153985" lon="13.783576665806665"><ele>277.0</ele><time>2026-05-02T15:04:13.998Z</time></trkpt><trkpt lat="45.80369644585742" lon="13.783550536646013"><ele>277.0</ele><time>2026-05-02T15:04:14.998Z</time></trkpt><trkpt lat="45.80361493430146" lon="13.78352203086055"><ele>277.0</ele><time>2026-05-02T15:04:15.998Z</time></trkpt><trkpt lat="45.80353918702905" lon="13.78350833848598"><ele>275.0</ele><time>2026-05-02T15:04:16.998Z</time></trkpt><trkpt lat="45.803477857889185" lon="13.783466519477443"><ele>273.0</ele><time>2026-05-02T15:04:17.998Z</time></trkpt><trkpt lat="45.80336872695967" lon="13.783434835363812"><ele>271.0</ele><time>2026-05-02T15:04:19.998Z</time></trkpt><trkpt lat="45.80324531034618" lon="13.783395476469094"><ele>269.0</ele><time>2026-05-02T15:04:21.998Z</time></trkpt><trkpt lat="45.80316657539971" lon="13.783373597266657"><ele>267.0</ele><time>2026-05-02T15:04:22.998Z</time></trkpt><trkpt lat="45.803083111416896" lon="13.78335876561164"><ele>267.0</ele><time>2026-05-02T15:04:23.998Z</time></trkpt><trkpt lat="45.803011862453936" lon="13.783346018868043"><ele>267.0</ele><time>2026-05-02T15:04:24.998Z</time></trkpt><trkpt lat="45.80294462694135" lon="13.783331159396942"><ele>267.0</ele><time>2026-05-02T15:04:25.998Z</time></trkpt><trkpt lat="45.80288209766267" lon="13.783306388806922"><ele>267.0</ele><time>2026-05-02T15:04:26.998Z</time></trkpt><trkpt lat="45.80276211903418" lon="13.783224529494069"><ele>267.0</ele><time>2026-05-02T15:04:28.997Z</time></trkpt><trkpt lat="45.80269190446903" lon="13.783163357435841"><ele>267.0</ele><time>2026-05-02T15:04:29.997Z</time></trkpt><trkpt lat="45.80260129485468" lon="13.78308157831015"><ele>266.6</ele><time>2026-05-02T15:04:30.997Z</time></trkpt><trkpt lat="45.80250902127656" lon="13.782984888880922"><ele>266.2</ele><time>2026-05-02T15:04:31.997Z</time></trkpt><trkpt lat="45.80241999590395" lon="13.782906117194017"><ele>265.8</ele><time>2026-05-02T15:04:32.997Z</time></trkpt><trkpt lat="45.802341593848915" lon="13.782814689382402"><ele>265.4</ele><time>2026-05-02T15:04:33.997Z</time></trkpt><trkpt lat="45.80226264182077" lon="13.782729255432432"><ele>265.0</ele><time>2026-05-02T15:04:34.997Z</time></trkpt><trkpt lat="45.80218170910715" lon="13.782655043955211"><ele>264.5</ele><time>2026-05-02T15:04:35.997Z</time></trkpt><trkpt lat="45.80210355517779" lon="13.78258746751384"><ele>264.0</ele><time>2026-05-02T15:04:36.997Z</time></trkpt><trkpt lat="45.80202936079988" lon="13.782527128989493"><ele>263.5</ele><time>2026-05-02T15:04:37.997Z</time></trkpt><trkpt lat="45.80195802335776" lon="13.78247817137416"><ele>263.0</ele><time>2026-05-02T15:04:38.997Z</time></trkpt><trkpt lat="45.801891624979504" lon="13.782407263008443"><ele>262.5</ele><time>2026-05-02T15:04:39.997Z</time></trkpt><trkpt lat="45.80181488052883" lon="13.782384475006936"><ele>262.0</ele><time>2026-05-02T15:04:40.997Z</time></trkpt><trkpt lat="45.801745959819534" lon="13.78235625951034"><ele>261.42857142857144</ele><time>2026-05-02T15:04:41.997Z</time></trkpt><trkpt lat="45.80167560710078" lon="13.782327349993377"><ele>260.8571428571429</ele><time>2026-05-02T15:04:43Z</time></trkpt><trkpt lat="45.801603057988615" lon="13.782301425737582"><ele>260.2857142857143</ele><time>2026-05-02T15:04:44Z</time></trkpt><trkpt lat="45.80153662471063" lon="13.78228164258006"><ele>259.7142857142857</ele><time>2026-05-02T15:04:45Z</time></trkpt><trkpt lat="45.801473476175246" lon="13.782245575373203"><ele>259.1428571428571</ele><time>2026-05-02T15:04:46Z</time></trkpt><trkpt lat="45.8014104157477" lon="13.782218543940242"><ele>258.57142857142856</ele><time>2026-05-02T15:04:47Z</time></trkpt><trkpt lat="45.801347598535905" lon="13.782191282033814"><ele>258.0</ele><time>2026-05-02T15:04:48Z</time></trkpt><trkpt lat="45.80128691826659" lon="13.78215991917972"><ele>258.0</ele><time>2026-05-02T15:04:49Z</time></trkpt><trkpt lat="45.80121338027508" lon="13.782123095525492"><ele>258.0</ele><time>2026-05-02T15:04:50Z</time></trkpt><trkpt lat="45.80112181003784" lon="13.782082836535029"><ele>258.0</ele><time>2026-05-02T15:04:51Z</time></trkpt><trkpt lat="45.80103600261797" lon="13.782032829607186"><ele>258.0</ele><time>2026-05-02T15:04:52Z</time></trkpt><trkpt lat="45.800957861165855" lon="13.78200163105472"><ele>258.0</ele><time>2026-05-02T15:04:53Z</time></trkpt><trkpt lat="45.800892882559225" lon="13.781973143731987"><ele>258.0</ele><time>2026-05-02T15:04:54Z</time></trkpt><trkpt lat="45.80082505363347" lon="13.781941166287154"><ele>256.8</ele><time>2026-05-02T15:04:56Z</time></trkpt><trkpt lat="45.800860823098695" lon="13.781749111850491"><ele>255.60000000000002</ele><time>2026-05-02T15:05:00Z</time></trkpt><trkpt lat="45.80088160526107" lon="13.781654021969432"><ele>254.39999999999998</ele><time>2026-05-02T15:05:01Z</time></trkpt><trkpt lat="45.8009097287278" lon="13.781549017463169"><ele>253.2</ele><time>2026-05-02T15:05:02Z</time></trkpt><trkpt lat="45.80095513135691" lon="13.781439937483713"><ele>252.0</ele><time>2026-05-02T15:05:03Z</time></trkpt><trkpt lat="45.800988359822895" lon="13.781321360239023"><ele>251.8</ele><time>2026-05-02T15:05:04Z</time></trkpt><trkpt lat="45.801006433978735" lon="13.781204287997047"><ele>251.6</ele><time>2026-05-02T15:05:05Z</time></trkpt><trkpt lat="45.80103752442931" lon="13.781108722091004"><ele>251.40000000000003</ele><time>2026-05-02T15:05:06Z</time></trkpt><trkpt lat="45.801080993797015" lon="13.781031764705425"><ele>251.20000000000002</ele><time>2026-05-02T15:05:07Z</time></trkpt><trkpt lat="45.801169889635766" lon="13.780784248958089"><ele>251.0</ele><time>2026-05-02T15:05:10Z</time></trkpt><trkpt lat="45.80119909291126" lon="13.780702382729066"><ele>251.0</ele><time>2026-05-02T15:05:11Z</time></trkpt><trkpt lat="45.801255039413924" lon="13.780567510299589"><ele>251.0</ele><time>2026-05-02T15:05:13Z</time></trkpt><trkpt lat="45.801297782133986" lon="13.780473960369019"><ele>251.0</ele><time>2026-05-02T15:05:15.999Z</time></trkpt><trkpt lat="45.801375162049716" lon="13.780398096967696"><ele>251.0</ele><time>2026-05-02T15:05:17.999Z</time></trkpt><trkpt lat="45.80132272285646" lon="13.780107030113685"><ele>250.60000000000002</ele><time>2026-05-02T15:05:19.999Z</time></trkpt><trkpt lat="45.80135322243945" lon="13.779951045661539"><ele>250.20000000000002</ele><time>2026-05-02T15:05:21.999Z</time></trkpt><trkpt lat="45.801381842881696" lon="13.77979492645444"><ele>249.79999999999998</ele><time>2026-05-02T15:05:23.999Z</time></trkpt><trkpt lat="45.80139856824138" lon="13.779685287728208"><ele>249.39999999999998</ele><time>2026-05-02T15:05:24.999Z</time></trkpt><trkpt lat="45.80141430893525" lon="13.779571429053382"><ele>249.0</ele><time>2026-05-02T15:05:25.999Z</time></trkpt><trkpt lat="45.80142971675394" lon="13.77946795764335"><ele>249.0</ele><time>2026-05-02T15:05:26.999Z</time></trkpt><trkpt lat="45.801446821749494" lon="13.779357858812142"><ele>248.99999999999997</ele><time>2026-05-02T15:05:27.999Z</time></trkpt><trkpt lat="45.80144824868331" lon="13.779241925683698"><ele>248.99999999999997</ele><time>2026-05-02T15:05:28.999Z</time></trkpt><trkpt lat="45.801445218192754" lon="13.779137182584474"><ele>249.0</ele><time>2026-05-02T15:05:29.999Z</time></trkpt><trkpt lat="45.80139794267567" lon="13.778983505568851"><ele>249.0</ele><time>2026-05-02T15:05:31.999Z</time></trkpt><trkpt lat="45.801296814998615" lon="13.77891103661816"><ele>248.66666666666666</ele><time>2026-05-02T15:05:33.999Z</time></trkpt><trkpt lat="45.80119831948453" lon="13.778892735578511"><ele>248.33333333333331</ele><time>2026-05-02T15:05:34.999Z</time></trkpt><trkpt lat="45.80109446040178" lon="13.778863065364845"><ele>248.0</ele><time>2026-05-02T15:05:35.999Z</time></trkpt><trkpt lat="45.80101112032782" lon="13.778836537534207"><ele>247.66666666666666</ele><time>2026-05-02T15:05:36.999Z</time></trkpt><trkpt lat="45.80093919833131" lon="13.778825460826509"><ele>247.33333333333331</ele><time>2026-05-02T15:05:37.999Z</time></trkpt><trkpt lat="45.80087595156096" lon="13.778806965892567"><ele>247.0</ele><time>2026-05-02T15:05:38.999Z</time></trkpt><trkpt lat="45.800772170801366" lon="13.778761006663965"><ele>246.8</ele><time>2026-05-02T15:05:40.999Z</time></trkpt><trkpt lat="45.80067088100507" lon="13.778669521526004"><ele>246.6</ele><time>2026-05-02T15:05:42.999Z</time></trkpt><trkpt lat="45.80058377033179" lon="13.778578049018687"><ele>246.40000000000003</ele><time>2026-05-02T15:05:44.999Z</time></trkpt><trkpt lat="45.800472067106064" lon="13.778484854126772"><ele>246.20000000000002</ele><time>2026-05-02T15:05:46.999Z</time></trkpt><trkpt lat="45.800414115376846" lon="13.778430351848893"><ele>246.0</ele><time>2026-05-02T15:05:47.999Z</time></trkpt><trkpt lat="45.80035099465151" lon="13.77837548724959"><ele>245.8</ele><time>2026-05-02T15:05:48.999Z</time></trkpt><trkpt lat="45.80029248659722" lon="13.778328477031444"><ele>245.60000000000002</ele><time>2026-05-02T15:05:49.999Z</time></trkpt><trkpt lat="45.8001824004545" lon="13.778252276298854"><ele>245.4</ele><time>2026-05-02T15:05:51.998Z</time></trkpt><trkpt lat="45.800081251643505" lon="13.778172777874538"><ele>245.2</ele><time>2026-05-02T15:05:53.998Z</time></trkpt><trkpt lat="45.79996658851162" lon="13.778088891011947"><ele>245.0</ele><time>2026-05-02T15:05:55.998Z</time></trkpt><trkpt lat="45.79990785321295" lon="13.778040382784527"><ele>245.0</ele><time>2026-05-02T15:05:56.998Z</time></trkpt><trkpt lat="45.79979798195796" lon="13.777963388617676"><ele>245.0</ele><time>2026-05-02T15:05:58.998Z</time></trkpt><trkpt lat="45.79973801525061" lon="13.777915088801688"><ele>245.0</ele><time>2026-05-02T15:06:00.998Z</time></trkpt><trkpt lat="45.79966959201822" lon="13.777855122980776"><ele>245.0</ele><time>2026-05-02T15:06:02.998Z</time></trkpt><trkpt lat="45.79958936899004" lon="13.777772965998937"><ele>245.0</ele><time>2026-05-02T15:06:04.998Z</time></trkpt><trkpt lat="45.79950669414303" lon="13.777699042307965"><ele>244.83333333333334</ele><time>2026-05-02T15:06:06.998Z</time></trkpt><trkpt lat="45.799441953853574" lon="13.777643534159134"><ele>244.66666666666669</ele><time>2026-05-02T15:06:08.998Z</time></trkpt><trkpt lat="45.79937397427983" lon="13.777595564778979"><ele>244.5</ele><time>2026-05-02T15:06:10.998Z</time></trkpt><trkpt lat="45.79941414334491" lon="13.777500282335435"><ele>244.33333333333331</ele><time>2026-05-02T15:06:21.998Z</time></trkpt><trkpt lat="45.79952363355978" lon="13.777471177057025"><ele>244.16666666666666</ele><time>2026-05-02T15:06:23.998Z</time></trkpt><trkpt lat="45.79960708049886" lon="13.777440264108035"><ele>244.0</ele><time>2026-05-02T15:06:24.998Z</time></trkpt><trkpt lat="45.7996726400165" lon="13.777410414007278"><ele>244.0</ele><time>2026-05-02T15:06:25.998Z</time></trkpt><trkpt lat="45.79979555647901" lon="13.77736276571033"><ele>243.99999999999997</ele><time>2026-05-02T15:06:27.998Z</time></trkpt><trkpt lat="45.799860330923984" lon="13.777343908324358"><ele>243.99999999999997</ele><time>2026-05-02T15:06:28.998Z</time></trkpt><trkpt lat="45.79992147609989" lon="13.777298021834092"><ele>244.0</ele><time>2026-05-02T15:06:29.997Z</time></trkpt><trkpt lat="45.80002393774694" lon="13.777222587993858"><ele>244.0</ele><time>2026-05-02T15:06:31.997Z</time></trkpt><trkpt lat="45.800126812653566" lon="13.777169005401502"><ele>244.4285714285714</ele><time>2026-05-02T15:06:33.997Z</time></trkpt><trkpt lat="45.80019008888273" lon="13.777147349102252"><ele>244.85714285714283</ele><time>2026-05-02T15:06:34.997Z</time></trkpt><trkpt lat="45.800263514203415" lon="13.777123858760485"><ele>245.28571428571428</ele><time>2026-05-02T15:06:35.997Z</time></trkpt><trkpt lat="45.80032596779359" lon="13.777088147286502"><ele>245.7142857142857</ele><time>2026-05-02T15:06:36.997Z</time></trkpt><trkpt lat="45.80040260727221" lon="13.777062069472246"><ele>246.1428571428571</ele><time>2026-05-02T15:06:37.997Z</time></trkpt><trkpt lat="45.800472825380325" lon="13.777032275355733"><ele>246.57142857142858</ele><time>2026-05-02T15:06:38.997Z</time></trkpt><trkpt lat="45.800545501328585" lon="13.776999588428486"><ele>247.0</ele><time>2026-05-02T15:06:39.997Z</time></trkpt><trkpt lat="45.80067059125843" lon="13.776959341701847"><ele>246.99999999999997</ele><time>2026-05-02T15:06:41.997Z</time></trkpt><trkpt lat="45.80074567091874" lon="13.776936561572583"><ele>247.0</ele><time>2026-05-02T15:06:42.997Z</time></trkpt><trkpt lat="45.80083891702701" lon="13.776911370859672"><ele>247.0</ele><time>2026-05-02T15:06:43.997Z</time></trkpt><trkpt lat="45.800935191824635" lon="13.77686900779246"><ele>247.0</ele><time>2026-05-02T15:06:44.997Z</time></trkpt><trkpt lat="45.80101773461808" lon="13.776832136152226"><ele>246.99999999999997</ele><time>2026-05-02T15:06:45.997Z</time></trkpt><trkpt lat="45.80109391092269" lon="13.77679165096371"><ele>247.0</ele><time>2026-05-02T15:06:46.997Z</time></trkpt><trkpt lat="45.80116510466231" lon="13.776754341199926"><ele>247.33333333333331</ele><time>2026-05-02T15:06:47.997Z</time></trkpt><trkpt lat="45.801233441500294" lon="13.776724124186709"><ele>247.66666666666666</ele><time>2026-05-02T15:06:49Z</time></trkpt><trkpt lat="45.80129879668263" lon="13.776687505239122"><ele>248.0</ele><time>2026-05-02T15:06:50Z</time></trkpt><trkpt lat="45.80137426888885" lon="13.776657732324164"><ele>248.33333333333331</ele><time>2026-05-02T15:06:51Z</time></trkpt><trkpt lat="45.80145471945025" lon="13.776632243184581"><ele>248.66666666666666</ele><time>2026-05-02T15:06:52Z</time></trkpt><trkpt lat="45.8015280003772" lon="13.77661977962637"><ele>249.0</ele><time>2026-05-02T15:06:53Z</time></trkpt><trkpt lat="45.80161223395283" lon="13.776590732621374"><ele>249.0</ele><time>2026-05-02T15:06:54Z</time></trkpt><trkpt lat="45.80169012501586" lon="13.77656950263482"><ele>249.0</ele><time>2026-05-02T15:06:55Z</time></trkpt><trkpt lat="45.80177232282221" lon="13.776553493081135"><ele>249.0</ele><time>2026-05-02T15:06:56Z</time></trkpt><trkpt lat="45.8018469265741" lon="13.776541571624"><ele>249.0</ele><time>2026-05-02T15:06:57Z</time></trkpt><trkpt lat="45.80191221822829" lon="13.776526952714724"><ele>249.0</ele><time>2026-05-02T15:06:58Z</time></trkpt><trkpt lat="45.80203215179371" lon="13.776446480648252"><ele>249.0</ele><time>2026-05-02T15:07:00Z</time></trkpt><trkpt lat="45.802089918641485" lon="13.776391494365168"><ele>248.83333333333334</ele><time>2026-05-02T15:07:01Z</time></trkpt><trkpt lat="45.80215601021761" lon="13.776363066454753"><ele>248.66666666666669</ele><time>2026-05-02T15:07:02Z</time></trkpt><trkpt lat="45.802237134708555" lon="13.776348074781701"><ele>248.5</ele><time>2026-05-02T15:07:03Z</time></trkpt><trkpt lat="45.80232209492645" lon="13.776319625486128"><ele>248.33333333333334</ele><time>2026-05-02T15:07:04Z</time></trkpt><trkpt lat="45.80239603712908" lon="13.776300143558032"><ele>248.16666666666669</ele><time>2026-05-02T15:07:05Z</time></trkpt><trkpt lat="45.80247138417107" lon="13.776283687787753"><ele>248.0</ele><time>2026-05-02T15:07:06Z</time></trkpt><trkpt lat="45.8025432784279" lon="13.776271952460963"><ele>248.00000000000003</ele><time>2026-05-02T15:07:07Z</time></trkpt><trkpt lat="45.80260778435468" lon="13.776268376595945"><ele>248.0</ele><time>2026-05-02T15:07:08Z</time></trkpt><trkpt lat="45.80268113304497" lon="13.776261869250801"><ele>248.0</ele><time>2026-05-02T15:07:09Z</time></trkpt><trkpt lat="45.802755325818886" lon="13.776253933716918"><ele>248.0</ele><time>2026-05-02T15:07:10Z</time></trkpt><trkpt lat="45.80287348463891" lon="13.77620473262463"><ele>248.00000000000003</ele><time>2026-05-02T15:07:12Z</time></trkpt><trkpt lat="45.80296693197563" lon="13.776157468059395"><ele>248.0</ele><time>2026-05-02T15:07:14Z</time></trkpt><trkpt lat="45.803054889522926" lon="13.776136116602002"><ele>248.4</ele><time>2026-05-02T15:07:16Z</time></trkpt><trkpt lat="45.803134507985035" lon="13.776127278568296"><ele>248.8</ele><time>2026-05-02T15:07:18Z</time></trkpt><trkpt lat="45.80322234948419" lon="13.776160616491401"><ele>249.2</ele><time>2026-05-02T15:07:19.999Z</time></trkpt><trkpt lat="45.80330971479733" lon="13.776218599984682"><ele>249.6</ele><time>2026-05-02T15:07:21.999Z</time></trkpt><trkpt lat="45.80341272637614" lon="13.77624557943247"><ele>250.0</ele><time>2026-05-02T15:07:23.999Z</time></trkpt><trkpt lat="45.80351632836198" lon="13.77626800038518"><ele>249.99999999999997</ele><time>2026-05-02T15:07:25.999Z</time></trkpt><trkpt lat="45.803580048702536" lon="13.776280061645686"><ele>250.0</ele><time>2026-05-02T15:07:27.999Z</time></trkpt><trkpt lat="45.80365015851119" lon="13.776298676414376"><ele>250.0</ele><time>2026-05-02T15:07:30.999Z</time></trkpt><trkpt lat="45.80372839418797" lon="13.776298248445201"><ele>250.0</ele><time>2026-05-02T15:07:41.999Z</time></trkpt><trkpt lat="45.80381329112913" lon="13.776308805206694"><ele>249.99999999999997</ele><time>2026-05-02T15:07:44.999Z</time></trkpt><trkpt lat="45.8038986889408" lon="13.776335701134732"><ele>250.0</ele><time>2026-05-02T15:07:46.999Z</time></trkpt><trkpt lat="45.803979120551496" lon="13.776348348542554"><ele>250.0</ele><time>2026-05-02T15:07:48.999Z</time></trkpt><trkpt lat="45.804073458880715" lon="13.77637846167275"><ele>250.0</ele><time>2026-05-02T15:07:50.999Z</time></trkpt><trkpt lat="45.8041795310453" lon="13.776393913018232"><ele>250.0</ele><time>2026-05-02T15:07:52.999Z</time></trkpt><trkpt lat="45.80428457433141" lon="13.776433623563145"><ele>250.0</ele><time>2026-05-02T15:07:54.999Z</time></trkpt><trkpt lat="45.80438519881402" lon="13.776477709477227"><ele>250.0</ele><time>2026-05-02T15:07:56.998Z</time></trkpt><trkpt lat="45.80444725961229" lon="13.776536699939365"><ele>249.99999999999997</ele><time>2026-05-02T15:07:58.998Z</time></trkpt><trkpt lat="45.80443333852812" lon="13.776447347733805"><ele>250.0</ele><time>2026-05-02T15:08:31.998Z</time></trkpt><trkpt lat="45.80435245400033" lon="13.776459660298736"><ele>250.0</ele><time>2026-05-02T15:08:35.997Z</time></trkpt><trkpt lat="45.804275907641106" lon="13.776441649195965"><ele>250.0</ele><time>2026-05-02T15:08:37.997Z</time></trkpt><trkpt lat="45.80419572849918" lon="13.776393256560995"><ele>249.99999999999997</ele><time>2026-05-02T15:08:39.997Z</time></trkpt><trkpt lat="45.80410731519445" lon="13.776381149072526"><ele>250.0</ele><time>2026-05-02T15:08:41.997Z</time></trkpt><trkpt lat="45.80401585951812" lon="13.776370026297988"><ele>249.99999999999997</ele><time>2026-05-02T15:08:43.997Z</time></trkpt><trkpt lat="45.803932472225185" lon="13.776349425249922"><ele>250.0</ele><time>2026-05-02T15:08:45.997Z</time></trkpt><trkpt lat="45.803854376471484" lon="13.776328064082563"><ele>250.0</ele><time>2026-05-02T15:08:47.997Z</time></trkpt><trkpt lat="45.803773394543775" lon="13.776319754526728"><ele>250.0</ele><time>2026-05-02T15:08:49.997Z</time></trkpt><trkpt lat="45.803710814268925" lon="13.776244956947815"><ele>249.99999999999997</ele><time>2026-05-02T15:08:57Z</time></trkpt><trkpt lat="45.80363806546536" lon="13.776275393489433"><ele>250.0</ele><time>2026-05-02T15:08:59Z</time></trkpt><trkpt lat="45.80351322388696" lon="13.776285411141092"><ele>250.0</ele><time>2026-05-02T15:09:01Z</time></trkpt><trkpt lat="45.80340722703205" lon="13.776265561756635"><ele>250.0</ele><time>2026-05-02T15:09:02Z</time></trkpt><trkpt lat="45.8033121001407" lon="13.776171807548776"><ele>250.0</ele><time>2026-05-02T15:09:03Z</time></trkpt><trkpt lat="45.803244244796865" lon="13.776134806692985"><ele>250.0</ele><time>2026-05-02T15:09:04Z</time></trkpt><trkpt lat="45.80316406585301" lon="13.776096584922998"><ele>250.0</ele><time>2026-05-02T15:09:06Z</time></trkpt><trkpt lat="45.803076863193034" lon="13.776060841738238"><ele>249.99999999999997</ele><time>2026-05-02T15:09:08Z</time></trkpt><trkpt lat="45.80301123661356" lon="13.776037730880379"><ele>250.0</ele><time>2026-05-02T15:09:11Z</time></trkpt><trkpt lat="45.80309666200673" lon="13.776068102800233"><ele>250.0</ele><time>2026-05-02T15:09:16Z</time></trkpt><trkpt lat="45.80320595993121" lon="13.776114558570537"><ele>250.0</ele><time>2026-05-02T15:09:18Z</time></trkpt><trkpt lat="45.80327723940261" lon="13.776150593717453"><ele>249.99999999999997</ele><time>2026-05-02T15:09:19Z</time></trkpt><trkpt lat="45.8033397814596" lon="13.776198600417528"><ele>250.0</ele><time>2026-05-02T15:09:20Z</time></trkpt><trkpt lat="45.80341821399592" lon="13.776210635493621"><ele>249.99999999999997</ele><time>2026-05-02T15:09:21Z</time></trkpt><trkpt lat="45.803493784942" lon="13.776233528565788"><ele>250.0</ele><time>2026-05-02T15:09:22Z</time></trkpt><trkpt lat="45.80356003495417" lon="13.776239744423686"><ele>250.0</ele><time>2026-05-02T15:09:23Z</time></trkpt><trkpt lat="45.80364622774503" lon="13.776238772274315"><ele>250.0</ele><time>2026-05-02T15:09:25Z</time></trkpt><trkpt lat="45.80370370947287" lon="13.77630346333198"><ele>249.99999999999997</ele><time>2026-05-02T15:09:33.999Z</time></trkpt><trkpt lat="45.80375890177709" lon="13.776225273872623"><ele>250.0</ele><time>2026-05-02T15:09:35.999Z</time></trkpt><trkpt lat="45.80382567826576" lon="13.776087379141151"><ele>249.2</ele><time>2026-05-02T15:09:37.999Z</time></trkpt><trkpt lat="45.80386644475926" lon="13.776005769535315"><ele>248.4</ele><time>2026-05-02T15:09:38.999Z</time></trkpt><trkpt lat="45.803924826803716" lon="13.77589403918912"><ele>247.60000000000002</ele><time>2026-05-02T15:09:39.999Z</time></trkpt><trkpt lat="45.803989750552574" lon="13.775775835564072"><ele>246.8</ele><time>2026-05-02T15:09:40.999Z</time></trkpt><trkpt lat="45.80406535791818" lon="13.775629211469564"><ele>246.0</ele><time>2026-05-02T15:09:41.999Z</time></trkpt><trkpt lat="45.804149652171965" lon="13.775479259844868"><ele>246.0</ele><time>2026-05-02T15:09:42.999Z</time></trkpt><trkpt lat="45.80421675578625" lon="13.775348510748872"><ele>246.00000000000003</ele><time>2026-05-02T15:09:43.999Z</time></trkpt><trkpt lat="45.80427125564864" lon="13.775222054070545"><ele>246.00000000000003</ele><time>2026-05-02T15:09:44.999Z</time></trkpt><trkpt lat="45.80434702986846" lon="13.77514594383128"><ele>246.0</ele><time>2026-05-02T15:09:45.999Z</time></trkpt><trkpt lat="45.80440376913275" lon="13.775066549669663"><ele>246.0</ele><time>2026-05-02T15:09:47.999Z</time></trkpt><trkpt lat="45.804481137388706" lon="13.774958289927909"><ele>245.5</ele><time>2026-05-02T15:09:49.999Z</time></trkpt><trkpt lat="45.804497602700806" lon="13.77484125254732"><ele>245.0</ele><time>2026-05-02T15:09:50.999Z</time></trkpt><trkpt lat="45.80454382845534" lon="13.774750559978681"><ele>244.5</ele><time>2026-05-02T15:09:51.999Z</time></trkpt><trkpt lat="45.8046523722381" lon="13.774490595507901"><ele>244.0</ele><time>2026-05-02T15:09:53.999Z</time></trkpt><trkpt lat="45.80472333114629" lon="13.774363153536841"><ele>241.75</ele><time>2026-05-02T15:09:54.999Z</time></trkpt><trkpt lat="45.80480450639564" lon="13.774190551785171"><ele>239.5</ele><time>2026-05-02T15:09:55.999Z</time></trkpt><trkpt lat="45.80488549668794" lon="13.774041085821098"><ele>237.25</ele><time>2026-05-02T15:09:56.999Z</time></trkpt><trkpt lat="45.80496604280642" lon="13.773897633143303"><ele>235.0</ele><time>2026-05-02T15:09:57.999Z</time></trkpt><trkpt lat="45.805060313069944" lon="13.773784112876578"><ele>235.0</ele><time>2026-05-02T15:09:58.999Z</time></trkpt><trkpt lat="45.80514336510575" lon="13.773673549640048"><ele>235.0</ele><time>2026-05-02T15:09:59.999Z</time></trkpt><trkpt lat="45.80522578377305" lon="13.77357678411181"><ele>235.0</ele><time>2026-05-02T15:10:00.999Z</time></trkpt><trkpt lat="45.80530335995428" lon="13.77346997064725"><ele>235.0</ele><time>2026-05-02T15:10:01.999Z</time></trkpt><trkpt lat="45.805397510386086" lon="13.773394986299046"><ele>235.0</ele><time>2026-05-02T15:10:02.999Z</time></trkpt><trkpt lat="45.80549860112025" lon="13.773314022183566"><ele>233.25</ele><time>2026-05-02T15:10:03.999Z</time></trkpt><trkpt lat="45.80569876483223" lon="13.773185972616906"><ele>231.5</ele><time>2026-05-02T15:10:05.998Z</time></trkpt><trkpt lat="45.805799988864095" lon="13.773132708672396"><ele>229.75</ele><time>2026-05-02T15:10:06.998Z</time></trkpt><trkpt lat="45.80590721874995" lon="13.773087344778396"><ele>228.0</ele><time>2026-05-02T15:10:07.998Z</time></trkpt><trkpt lat="45.806016701727714" lon="13.773043940325499"><ele>226.8</ele><time>2026-05-02T15:10:08.998Z</time></trkpt><trkpt lat="45.80612182123764" lon="13.773017379728909"><ele>225.60000000000002</ele><time>2026-05-02T15:10:09.998Z</time></trkpt><trkpt lat="45.806221502591185" lon="13.772984345937791"><ele>224.39999999999998</ele><time>2026-05-02T15:10:10.998Z</time></trkpt><trkpt lat="45.8063179324222" lon="13.772953545739473"><ele>223.2</ele><time>2026-05-02T15:10:11.998Z</time></trkpt><trkpt lat="45.80642148073656" lon="13.772938845292314"><ele>222.0</ele><time>2026-05-02T15:10:12.998Z</time></trkpt><trkpt lat="45.806515362103525" lon="13.772897103333404"><ele>222.0</ele><time>2026-05-02T15:10:13.998Z</time></trkpt><trkpt lat="45.80660892676322" lon="13.772833628350115"><ele>222.0</ele><time>2026-05-02T15:10:14.998Z</time></trkpt><trkpt lat="45.806705861076" lon="13.772746366481572"><ele>222.0</ele><time>2026-05-02T15:10:15.998Z</time></trkpt><trkpt lat="45.8068002794181" lon="13.772633834826562"><ele>222.0</ele><time>2026-05-02T15:10:16.998Z</time></trkpt><trkpt lat="45.8069107484727" lon="13.772519004616877"><ele>220.25</ele><time>2026-05-02T15:10:17.998Z</time></trkpt><trkpt lat="45.80702115789214" lon="13.77240502779166"><ele>218.5</ele><time>2026-05-02T15:10:18.998Z</time></trkpt><trkpt lat="45.80712283068937" lon="13.772294692991826"><ele>216.75</ele><time>2026-05-02T15:10:19.998Z</time></trkpt><trkpt lat="45.80723293256126" lon="13.772177116687482"><ele>215.0</ele><time>2026-05-02T15:10:20.998Z</time></trkpt><trkpt lat="45.80735394646646" lon="13.772052681861556"><ele>215.0</ele><time>2026-05-02T15:10:21.998Z</time></trkpt><trkpt lat="45.80747952161734" lon="13.771929074647886"><ele>215.0</ele><time>2026-05-02T15:10:22.998Z</time></trkpt><trkpt lat="45.8075967681504" lon="13.771823587117236"><ele>215.0</ele><time>2026-05-02T15:10:23.998Z</time></trkpt><trkpt lat="45.8077106128785" lon="13.771715806473205"><ele>215.0</ele><time>2026-05-02T15:10:24.998Z</time></trkpt><trkpt lat="45.80783559692229" lon="13.771604554587263"><ele>214.5</ele><time>2026-05-02T15:10:25.998Z</time></trkpt><trkpt lat="45.80795348458911" lon="13.771502981019948"><ele>214.0</ele><time>2026-05-02T15:10:26.998Z</time></trkpt><trkpt lat="45.80808432656269" lon="13.771381735054472"><ele>213.5</ele><time>2026-05-02T15:10:27.998Z</time></trkpt><trkpt lat="45.808199631667364" lon="13.771272475787187"><ele>213.0</ele><time>2026-05-02T15:10:28.998Z</time></trkpt><trkpt lat="45.80830703632689" lon="13.7711777428323"><ele>213.0</ele><time>2026-05-02T15:10:29.998Z</time></trkpt><trkpt lat="45.808410607684614" lon="13.771078189807305"><ele>213.0</ele><time>2026-05-02T15:10:30.998Z</time></trkpt><trkpt lat="45.808513449897674" lon="13.770971331701785"><ele>213.0</ele><time>2026-05-02T15:10:31.998Z</time></trkpt><trkpt lat="45.80860095863665" lon="13.770856170308713"><ele>213.0</ele><time>2026-05-02T15:10:32.998Z</time></trkpt><trkpt lat="45.808681682041836" lon="13.770736384720621"><ele>212.75</ele><time>2026-05-02T15:10:33.998Z</time></trkpt><trkpt lat="45.80875269857542" lon="13.770598171970146"><ele>212.5</ele><time>2026-05-02T15:10:34.998Z</time></trkpt><trkpt lat="45.808816809887524" lon="13.770423065397281"><ele>212.25</ele><time>2026-05-02T15:10:35.998Z</time></trkpt><trkpt lat="45.80888074969427" lon="13.770250332030217"><ele>212.0</ele><time>2026-05-02T15:10:36.998Z</time></trkpt><trkpt lat="45.808951695851896" lon="13.770056482796706"><ele>212.5</ele><time>2026-05-02T15:10:37.998Z</time></trkpt><trkpt lat="45.80902369006604" lon="13.769888596872503"><ele>213.0</ele><time>2026-05-02T15:10:38.998Z</time></trkpt><trkpt lat="45.80909683865174" lon="13.769720166604266"><ele>213.5</ele><time>2026-05-02T15:10:39.998Z</time></trkpt><trkpt lat="45.80917215958948" lon="13.769543513212824"><ele>214.0</ele><time>2026-05-02T15:10:40.998Z</time></trkpt><trkpt lat="45.80925112300447" lon="13.769373916588682"><ele>214.33333333333331</ele><time>2026-05-02T15:10:41.998Z</time></trkpt><trkpt lat="45.80933453232896" lon="13.769217675283441"><ele>214.66666666666669</ele><time>2026-05-02T15:10:42.997Z</time></trkpt><trkpt lat="45.80945463287972" lon="13.76905856828984"><ele>215.0</ele><time>2026-05-02T15:10:43.997Z</time></trkpt><trkpt lat="45.80957210315492" lon="13.768874583695395"><ele>215.0</ele><time>2026-05-02T15:10:44.997Z</time></trkpt><trkpt lat="45.80967455913297" lon="13.768721682058322"><ele>215.0</ele><time>2026-05-02T15:10:45.997Z</time></trkpt><trkpt lat="45.80976862346031" lon="13.768587108055053"><ele>215.0</ele><time>2026-05-02T15:10:46.997Z</time></trkpt><trkpt lat="45.8098589230083" lon="13.768457920171526"><ele>215.0</ele><time>2026-05-02T15:10:47.997Z</time></trkpt><trkpt lat="45.80994446975757" lon="13.768335532006107"><ele>216.0</ele><time>2026-05-02T15:10:48.997Z</time></trkpt><trkpt lat="45.810011726849766" lon="13.768199494341909"><ele>217.0</ele><time>2026-05-02T15:10:49.997Z</time></trkpt><trkpt lat="45.81009051796299" lon="13.768083102393812"><ele>218.0</ele><time>2026-05-02T15:10:50.997Z</time></trkpt><trkpt lat="45.810159573875204" lon="13.767953349537134"><ele>219.0</ele><time>2026-05-02T15:10:51.997Z</time></trkpt><trkpt lat="45.81021729810382" lon="13.767809911762734"><ele>218.0</ele><time>2026-05-02T15:10:52.997Z</time></trkpt><trkpt lat="45.81026391565102" lon="13.767651321992801"><ele>217.0</ele><time>2026-05-02T15:10:53.997Z</time></trkpt><trkpt lat="45.81028785708695" lon="13.767462848164115"><ele>216.0</ele><time>2026-05-02T15:10:54.997Z</time></trkpt><trkpt lat="45.81032589758992" lon="13.767257460933056"><ele>215.0</ele><time>2026-05-02T15:10:55.997Z</time></trkpt><trkpt lat="45.81035807297759" lon="13.767065913101815"><ele>215.0</ele><time>2026-05-02T15:10:56.997Z</time></trkpt><trkpt lat="45.81039255857866" lon="13.76689646396158"><ele>215.0</ele><time>2026-05-02T15:10:57.997Z</time></trkpt><trkpt lat="45.810416319235344" lon="13.766732989649942"><ele>215.0</ele><time>2026-05-02T15:10:58.997Z</time></trkpt><trkpt lat="45.81043844118457" lon="13.766575123293777"><ele>215.0</ele><time>2026-05-02T15:10:59.997Z</time></trkpt><trkpt lat="45.81046496650094" lon="13.766419484979023"><ele>216.0</ele><time>2026-05-02T15:11:01Z</time></trkpt><trkpt lat="45.810488569738645" lon="13.766272155360994"><ele>217.0</ele><time>2026-05-02T15:11:02Z</time></trkpt><trkpt lat="45.81051010181497" lon="13.766136102542907"><ele>218.0</ele><time>2026-05-02T15:11:03Z</time></trkpt><trkpt lat="45.810531333754945" lon="13.766005409844663"><ele>219.0</ele><time>2026-05-02T15:11:04Z</time></trkpt><trkpt lat="45.81055027239777" lon="13.765884498573344"><ele>220.0</ele><time>2026-05-02T15:11:05Z</time></trkpt><trkpt lat="45.81056744570023" lon="13.765769882306381"><ele>220.66666666666666</ele><time>2026-05-02T15:11:06Z</time></trkpt><trkpt lat="45.81058790215155" lon="13.765647012915617"><ele>221.33333333333331</ele><time>2026-05-02T15:11:07Z</time></trkpt><trkpt lat="45.81061243793383" lon="13.76552428761379"><ele>222.0</ele><time>2026-05-02T15:11:08Z</time></trkpt><trkpt lat="45.81063355349032" lon="13.765404246885868"><ele>222.66666666666669</ele><time>2026-05-02T15:11:09Z</time></trkpt><trkpt lat="45.81065632084647" lon="13.765288536996847"><ele>223.33333333333334</ele><time>2026-05-02T15:11:10Z</time></trkpt><trkpt lat="45.810680785155256" lon="13.76517466512185"><ele>224.0</ele><time>2026-05-02T15:11:11Z</time></trkpt><trkpt lat="45.81072001344058" lon="13.76507161815834"><ele>224.66666666666669</ele><time>2026-05-02T15:11:12Z</time></trkpt><trkpt lat="45.810744676697226" lon="13.76496236266641"><ele>225.33333333333334</ele><time>2026-05-02T15:11:13Z</time></trkpt><trkpt lat="45.8107704883359" lon="13.764853216533437"><ele>226.0</ele><time>2026-05-02T15:11:14Z</time></trkpt><trkpt lat="45.81079688871379" lon="13.764742156748003"><ele>226.66666666666669</ele><time>2026-05-02T15:11:15Z</time></trkpt><trkpt lat="45.810822250723945" lon="13.76463505820893"><ele>227.33333333333334</ele><time>2026-05-02T15:11:16Z</time></trkpt><trkpt lat="45.81084728765465" lon="13.764527170224063"><ele>228.0</ele><time>2026-05-02T15:11:17Z</time></trkpt><trkpt lat="45.81087307487589" lon="13.764416049184971"><ele>228.5</ele><time>2026-05-02T15:11:18Z</time></trkpt><trkpt lat="45.8108998947417" lon="13.76430713699853"><ele>229.0</ele><time>2026-05-02T15:11:19Z</time></trkpt><trkpt lat="45.810926663605684" lon="13.764199525699857"><ele>229.5</ele><time>2026-05-02T15:11:20Z</time></trkpt><trkpt lat="45.81095308668475" lon="13.764096613733704"><ele>230.0</ele><time>2026-05-02T15:11:21Z</time></trkpt><trkpt lat="45.81098158595672" lon="13.763993901126856"><ele>230.5</ele><time>2026-05-02T15:11:22Z</time></trkpt><trkpt lat="45.811004419926924" lon="13.763884732696347"><ele>231.0</ele><time>2026-05-02T15:11:23Z</time></trkpt><trkpt lat="45.81103368649867" lon="13.763762574436265"><ele>231.0</ele><time>2026-05-02T15:11:24Z</time></trkpt><trkpt lat="45.811087150172895" lon="13.763657018800195"><ele>231.00000000000003</ele><time>2026-05-02T15:11:25Z</time></trkpt><trkpt lat="45.811134103121184" lon="13.76355216933809"><ele>231.00000000000003</ele><time>2026-05-02T15:11:26Z</time></trkpt><trkpt lat="45.81119596687935" lon="13.763441252073408"><ele>231.0</ele><time>2026-05-02T15:11:27Z</time></trkpt><trkpt lat="45.81128292286332" lon="13.763307677414904"><ele>231.0</ele><time>2026-05-02T15:11:27.999Z</time></trkpt><trkpt lat="45.811368001455946" lon="13.763178977805433"><ele>232.0</ele><time>2026-05-02T15:11:28.999Z</time></trkpt><trkpt lat="45.81144275134382" lon="13.763062966166547"><ele>233.00000000000003</ele><time>2026-05-02T15:11:29.999Z</time></trkpt><trkpt lat="45.81151340905267" lon="13.762944736486526"><ele>234.00000000000003</ele><time>2026-05-02T15:11:30.999Z</time></trkpt><trkpt lat="45.81155355521004" lon="13.76281547586608"><ele>235.0</ele><time>2026-05-02T15:11:31.999Z</time></trkpt><trkpt lat="45.81159461587088" lon="13.76268948883729"><ele>236.0</ele><time>2026-05-02T15:11:32.999Z</time></trkpt><trkpt lat="45.81162547331605" lon="13.76255674732056"><ele>237.0</ele><time>2026-05-02T15:11:33.999Z</time></trkpt><trkpt lat="45.81163315717038" lon="13.762396039532836"><ele>238.0</ele><time>2026-05-02T15:11:34.999Z</time></trkpt><trkpt lat="45.81165316590875" lon="13.762192814875496"><ele>239.0</ele><time>2026-05-02T15:11:35.999Z</time></trkpt><trkpt lat="45.811671801704456" lon="13.762005116014965"><ele>240.0</ele><time>2026-05-02T15:11:36.999Z</time></trkpt><trkpt lat="45.811690473284195" lon="13.761841728082507"><ele>240.25</ele><time>2026-05-02T15:11:37.999Z</time></trkpt><trkpt lat="45.81170520179622" lon="13.761676803800123"><ele>240.5</ele><time>2026-05-02T15:11:38.999Z</time></trkpt><trkpt lat="45.811719759230954" lon="13.761504437171018"><ele>240.75</ele><time>2026-05-02T15:11:39.999Z</time></trkpt><trkpt lat="45.81173416595982" lon="13.761342573637796"><ele>241.0</ele><time>2026-05-02T15:11:40.999Z</time></trkpt><trkpt lat="45.811768485619375" lon="13.76117203450047"><ele>242.25</ele><time>2026-05-02T15:11:41.999Z</time></trkpt><trkpt lat="45.81178657027096" lon="13.761008208204005"><ele>243.5</ele><time>2026-05-02T15:11:42.999Z</time></trkpt><trkpt lat="45.81180089928966" lon="13.760846630161371"><ele>244.75</ele><time>2026-05-02T15:11:43.999Z</time></trkpt><trkpt lat="45.81179419663684" lon="13.760680697351917"><ele>246.0</ele><time>2026-05-02T15:11:44.999Z</time></trkpt><trkpt lat="45.81179441101514" lon="13.760503425075411"><ele>246.0</ele><time>2026-05-02T15:11:45.999Z</time></trkpt><trkpt lat="45.81178807554982" lon="13.760307161592422"><ele>246.0</ele><time>2026-05-02T15:11:46.999Z</time></trkpt><trkpt lat="45.81177981364082" lon="13.76011012518063"><ele>246.0</ele><time>2026-05-02T15:11:47.999Z</time></trkpt><trkpt lat="45.811774023034914" lon="13.759937228878009"><ele>246.0</ele><time>2026-05-02T15:11:48.999Z</time></trkpt><trkpt lat="45.81176636920479" lon="13.759781587507206"><ele>246.4</ele><time>2026-05-02T15:11:49.999Z</time></trkpt><trkpt lat="45.81176183925418" lon="13.75962838266387"><ele>246.8</ele><time>2026-05-02T15:11:50.999Z</time></trkpt><trkpt lat="45.811779395302175" lon="13.759493251788848"><ele>247.20000000000002</ele><time>2026-05-02T15:11:51.999Z</time></trkpt><trkpt lat="45.81178607710398" lon="13.759359790648114"><ele>247.60000000000002</ele><time>2026-05-02T15:11:52.999Z</time></trkpt><trkpt lat="45.811798197051246" lon="13.75924829489167"><ele>248.0</ele><time>2026-05-02T15:11:53.999Z</time></trkpt><trkpt lat="45.8118160684019" lon="13.759135936165556"><ele>248.4</ele><time>2026-05-02T15:11:54.999Z</time></trkpt><trkpt lat="45.81184357511793" lon="13.7590045699236"><ele>248.8</ele><time>2026-05-02T15:11:55.999Z</time></trkpt><trkpt lat="45.81186837210498" lon="13.758849402249673"><ele>249.2</ele><time>2026-05-02T15:11:56.999Z</time></trkpt><trkpt lat="45.81191546194022" lon="13.758712882347641"><ele>249.6</ele><time>2026-05-02T15:11:57.999Z</time></trkpt><trkpt lat="45.81196177145935" lon="13.758577544500097"><ele>250.0</ele><time>2026-05-02T15:11:58.999Z</time></trkpt><trkpt lat="45.8120038801407" lon="13.75844008908946"><ele>250.0</ele><time>2026-05-02T15:11:59.999Z</time></trkpt><trkpt lat="45.812038152763364" lon="13.758293071925179"><ele>250.0</ele><time>2026-05-02T15:12:00.999Z</time></trkpt><trkpt lat="45.812060684073124" lon="13.758151030039937"><ele>250.0</ele><time>2026-05-02T15:12:01.999Z</time></trkpt><trkpt lat="45.81207173210011" lon="13.758006859830981"><ele>250.0</ele><time>2026-05-02T15:12:02.999Z</time></trkpt><trkpt lat="45.812073944308345" lon="13.757876022106899"><ele>250.0</ele><time>2026-05-02T15:12:03.999Z</time></trkpt><trkpt lat="45.81208086378106" lon="13.757744430841814"><ele>249.8</ele><time>2026-05-02T15:12:04.999Z</time></trkpt><trkpt lat="45.812088365920715" lon="13.757616711895226"><ele>249.6</ele><time>2026-05-02T15:12:05.999Z</time></trkpt><trkpt lat="45.812096158486646" lon="13.7574854037187"><ele>249.39999999999998</ele><time>2026-05-02T15:12:06.998Z</time></trkpt><trkpt lat="45.8121053318097" lon="13.757351851655711"><ele>249.2</ele><time>2026-05-02T15:12:07.998Z</time></trkpt><trkpt lat="45.81211414094597" lon="13.757220824808336"><ele>249.0</ele><time>2026-05-02T15:12:08.998Z</time></trkpt><trkpt lat="45.81212566059639" lon="13.757084204016495"><ele>249.0</ele><time>2026-05-02T15:12:09.998Z</time></trkpt><trkpt lat="45.812152381794974" lon="13.756978054968283"><ele>248.99999999999997</ele><time>2026-05-02T15:12:10.998Z</time></trkpt><trkpt lat="45.81216317179743" lon="13.756884541597097"><ele>248.99999999999997</ele><time>2026-05-02T15:12:11.998Z</time></trkpt><trkpt lat="45.8121730890512" lon="13.75669964085531"><ele>249.0</ele><time>2026-05-02T15:12:13.998Z</time></trkpt><trkpt lat="45.81219379791458" lon="13.756578020626655"><ele>249.0</ele><time>2026-05-02T15:12:14.998Z</time></trkpt><trkpt lat="45.81221920601738" lon="13.756417374068981"><ele>249.33333333333331</ele><time>2026-05-02T15:12:15.998Z</time></trkpt><trkpt lat="45.812256047440165" lon="13.756196356683605"><ele>249.66666666666666</ele><time>2026-05-02T15:12:16.998Z</time></trkpt><trkpt lat="45.812295976211054" lon="13.755969020795659"><ele>250.0</ele><time>2026-05-02T15:12:17.998Z</time></trkpt><trkpt lat="45.812330787474686" lon="13.755735651078608"><ele>250.0</ele><time>2026-05-02T15:12:18.998Z</time></trkpt><trkpt lat="45.81236006059638" lon="13.755533174933282"><ele>250.0</ele><time>2026-05-02T15:12:19.998Z</time></trkpt><trkpt lat="45.81238720353989" lon="13.755351788934608"><ele>250.0</ele><time>2026-05-02T15:12:20.998Z</time></trkpt><trkpt lat="45.81241675622932" lon="13.755185156950732"><ele>250.0</ele><time>2026-05-02T15:12:21.998Z</time></trkpt><trkpt lat="45.81244351324378" lon="13.755033634561185"><ele>249.83333333333331</ele><time>2026-05-02T15:12:22.998Z</time></trkpt><trkpt lat="45.812466542664005" lon="13.75491654371506"><ele>249.66666666666666</ele><time>2026-05-02T15:12:23.998Z</time></trkpt><trkpt lat="45.812487916098135" lon="13.75480928807572"><ele>249.5</ele><time>2026-05-02T15:12:24.998Z</time></trkpt><trkpt lat="45.81250553112183" lon="13.75471717736668"><ele>249.33333333333331</ele><time>2026-05-02T15:12:25.998Z</time></trkpt><trkpt lat="45.812529214716236" lon="13.75460563938526"><ele>249.16666666666666</ele><time>2026-05-02T15:12:27.998Z</time></trkpt><trkpt lat="45.81255275377234" lon="13.75448136942961"><ele>249.0</ele><time>2026-05-02T15:12:29.998Z</time></trkpt><trkpt lat="45.8125856314642" lon="13.754328421791048"><ele>249.0</ele><time>2026-05-02T15:12:31.998Z</time></trkpt><trkpt lat="45.81261234603025" lon="13.75420298060318"><ele>248.99999999999997</ele><time>2026-05-02T15:12:33.998Z</time></trkpt><trkpt lat="45.81264092517426" lon="13.754104290867478"><ele>248.99999999999997</ele><time>2026-05-02T15:12:47.997Z</time></trkpt><trkpt lat="45.81262809001546" lon="13.754193205391577"><ele>249.0</ele><time>2026-05-02T15:12:59.997Z</time></trkpt><trkpt lat="45.81257948601633" lon="13.754362331135866"><ele>249.0</ele><time>2026-05-02T15:13:01.997Z</time></trkpt><trkpt lat="45.81255601164293" lon="13.754514105234277"><ele>249.0</ele><time>2026-05-02T15:13:03.997Z</time></trkpt><trkpt lat="45.812528120953225" lon="13.754614884857256"><ele>249.0</ele><time>2026-05-02T15:13:05.997Z</time></trkpt><trkpt lat="45.81259732613754" lon="13.754660297254087"><ele>249.0</ele><time>2026-05-02T15:13:26Z</time></trkpt><trkpt lat="45.81266887757" lon="13.754670273323978"><ele>249.0</ele><time>2026-05-02T15:13:27Z</time></trkpt><trkpt lat="45.812776544461606" lon="13.754676259459037"><ele>249.0</ele><time>2026-05-02T15:13:28Z</time></trkpt><trkpt lat="45.812868125456745" lon="13.754680259555201"><ele>249.0</ele><time>2026-05-02T15:13:29Z</time></trkpt><trkpt lat="45.812973731677175" lon="13.754663409229378"><ele>249.0</ele><time>2026-05-02T15:13:30Z</time></trkpt><trkpt lat="45.813080343858196" lon="13.754633030058288"><ele>249.0</ele><time>2026-05-02T15:13:31Z</time></trkpt><trkpt lat="45.813207374343165" lon="13.754589774503529"><ele>249.0</ele><time>2026-05-02T15:13:32Z</time></trkpt><trkpt lat="45.813313929965766" lon="13.754563625144765"><ele>249.0</ele><time>2026-05-02T15:13:33Z</time></trkpt><trkpt lat="45.81342402664018" lon="13.754531565426072"><ele>248.6</ele><time>2026-05-02T15:13:34Z</time></trkpt><trkpt lat="45.81353637567075" lon="13.754498066342455"><ele>248.2</ele><time>2026-05-02T15:13:35Z</time></trkpt><trkpt lat="45.81364260728459" lon="13.75448284595612"><ele>247.79999999999998</ele><time>2026-05-02T15:13:36Z</time></trkpt><trkpt lat="45.81374601887006" lon="13.754485589498232"><ele>247.39999999999998</ele><time>2026-05-02T15:13:37Z</time></trkpt><trkpt lat="45.813836026627065" lon="13.754507997807737"><ele>247.0</ele><time>2026-05-02T15:13:38Z</time></trkpt><trkpt lat="45.8139133523482" lon="13.754514779296043"><ele>247.0</ele><time>2026-05-02T15:13:39Z</time></trkpt><trkpt lat="45.81398071781348" lon="13.75449652478535"><ele>247.0</ele><time>2026-05-02T15:13:40Z</time></trkpt><trkpt lat="45.814068594886926" lon="13.754394803074215"><ele>247.0</ele><time>2026-05-02T15:13:41.999Z</time></trkpt><trkpt lat="45.81409952058324" lon="13.754214452532686"><ele>247.0</ele><time>2026-05-02T15:13:43.999Z</time></trkpt><trkpt lat="45.81409105982633" lon="13.754078807757645"><ele>247.0</ele><time>2026-05-02T15:13:44.999Z</time></trkpt><trkpt lat="45.81407285420238" lon="13.75396185918993"><ele>247.49999999999997</ele><time>2026-05-02T15:13:45.999Z</time></trkpt><trkpt lat="45.81405888718984" lon="13.753872316710769"><ele>248.0</ele><time>2026-05-02T15:13:46.999Z</time></trkpt><trkpt lat="45.81407089781243" lon="13.753694973094767"><ele>248.5</ele><time>2026-05-02T15:13:48.999Z</time></trkpt><trkpt lat="45.81409431809656" lon="13.753610004091351"><ele>249.0</ele><time>2026-05-02T15:13:49.999Z</time></trkpt><trkpt lat="45.814129046658984" lon="13.753517113671432"><ele>249.49999999999997</ele><time>2026-05-02T15:13:50.999Z</time></trkpt><trkpt lat="45.81417034270847" lon="13.753410385049827"><ele>250.0</ele><time>2026-05-02T15:13:51.999Z</time></trkpt><trkpt lat="45.81420749353529" lon="13.753300562772008"><ele>251.2</ele><time>2026-05-02T15:13:52.999Z</time></trkpt><trkpt lat="45.81423090844196" lon="13.753199526067055"><ele>252.4</ele><time>2026-05-02T15:13:53.999Z</time></trkpt><trkpt lat="45.81424569278852" lon="13.753064322529454"><ele>253.60000000000002</ele><time>2026-05-02T15:13:54.999Z</time></trkpt><trkpt lat="45.81424451576474" lon="13.75291695932247"><ele>254.8</ele><time>2026-05-02T15:13:55.999Z</time></trkpt><trkpt lat="45.814242955263005" lon="13.75273848918746"><ele>256.0</ele><time>2026-05-02T15:13:56.999Z</time></trkpt><trkpt lat="45.81425011536922" lon="13.75247431400933"><ele>256.5</ele><time>2026-05-02T15:13:58.999Z</time></trkpt><trkpt lat="45.814261739689016" lon="13.752365386247007"><ele>257.0</ele><time>2026-05-02T15:13:59.999Z</time></trkpt><trkpt lat="45.81427237493288" lon="13.752223877117133"><ele>257.5</ele><time>2026-05-02T15:14:01.999Z</time></trkpt><trkpt lat="45.81425113226126" lon="13.752081733997679"><ele>258.0</ele><time>2026-05-02T15:14:06.999Z</time></trkpt><trkpt lat="45.814199727197234" lon="13.751992578677878"><ele>258.5</ele><time>2026-05-02T15:14:07.999Z</time></trkpt><trkpt lat="45.81415187155577" lon="13.751885218638286"><ele>259.0</ele><time>2026-05-02T15:14:08.999Z</time></trkpt><trkpt lat="45.81410591785717" lon="13.751764323371503"><ele>259.14285714285717</ele><time>2026-05-02T15:14:09.999Z</time></trkpt><trkpt lat="45.814075410164826" lon="13.75164684254795"><ele>259.2857142857143</ele><time>2026-05-02T15:14:10.999Z</time></trkpt><trkpt lat="45.81404996546526" lon="13.751548013930273"><ele>259.42857142857144</ele><time>2026-05-02T15:14:11.999Z</time></trkpt><trkpt lat="45.8140271592649" lon="13.751460927163455"><ele>259.57142857142856</ele><time>2026-05-02T15:14:12.999Z</time></trkpt><trkpt lat="45.81399948557502" lon="13.751372382244512"><ele>259.7142857142857</ele><time>2026-05-02T15:14:13.999Z</time></trkpt><trkpt lat="45.813964149930385" lon="13.75129422002638"><ele>259.8571428571429</ele><time>2026-05-02T15:14:14.999Z</time></trkpt><trkpt lat="45.8139206502647" lon="13.751211749720754"><ele>260.0</ele><time>2026-05-02T15:14:16.999Z</time></trkpt><trkpt lat="45.81391067915929" lon="13.751095194030576"><ele>260.6</ele><time>2026-05-02T15:14:18.999Z</time></trkpt><trkpt lat="45.81393525825624" lon="13.750990631119231"><ele>261.2</ele><time>2026-05-02T15:14:19.998Z</time></trkpt><trkpt lat="45.81397027497537" lon="13.750822786244749"><ele>261.8</ele><time>2026-05-02T15:14:20.998Z</time></trkpt><trkpt lat="45.81399829340787" lon="13.750665102563072"><ele>262.4</ele><time>2026-05-02T15:14:21.998Z</time></trkpt><trkpt lat="45.81403317523098" lon="13.750508746332537"><ele>263.0</ele><time>2026-05-02T15:14:22.998Z</time></trkpt><trkpt lat="45.8140989398547" lon="13.7503052803099"><ele>263.6666666666667</ele><time>2026-05-02T15:14:23.998Z</time></trkpt><trkpt lat="45.81420404382598" lon="13.750102352693286"><ele>264.3333333333333</ele><time>2026-05-02T15:14:24.998Z</time></trkpt><trkpt lat="45.81430823300767" lon="13.749910436407454"><ele>265.0</ele><time>2026-05-02T15:14:25.998Z</time></trkpt><trkpt lat="45.81439591734083" lon="13.749739261629971"><ele>266.0</ele><time>2026-05-02T15:14:26.998Z</time></trkpt><trkpt lat="45.814480352463484" lon="13.749593793240901"><ele>267.0</ele><time>2026-05-02T15:14:27.998Z</time></trkpt><trkpt lat="45.814588584297816" lon="13.749486889045995"><ele>268.0</ele><time>2026-05-02T15:14:28.998Z</time></trkpt><trkpt lat="45.81470966045324" lon="13.749364581654584"><ele>269.0</ele><time>2026-05-02T15:14:29.998Z</time></trkpt><trkpt lat="45.81482977124143" lon="13.74927204543715"><ele>269.0</ele><time>2026-05-02T15:14:30.998Z</time></trkpt><trkpt lat="45.814939901109796" lon="13.749202648285575"><ele>269.0</ele><time>2026-05-02T15:14:31.998Z</time></trkpt><trkpt lat="45.815045531886675" lon="13.749128265223238"><ele>269.0</ele><time>2026-05-02T15:14:32.998Z</time></trkpt><trkpt lat="45.81514511281398" lon="13.749030744311206"><ele>269.0</ele><time>2026-05-02T15:14:33.998Z</time></trkpt><trkpt lat="45.81524145249033" lon="13.7489321465939"><ele>270.25</ele><time>2026-05-02T15:14:34.998Z</time></trkpt><trkpt lat="45.81532493799039" lon="13.74881136287713"><ele>271.5</ele><time>2026-05-02T15:14:35.998Z</time></trkpt><trkpt lat="45.81543779753208" lon="13.748552782941609"><ele>272.75</ele><time>2026-05-02T15:14:37.998Z</time></trkpt><trkpt lat="45.81548713738755" lon="13.748435668034864"><ele>274.0</ele><time>2026-05-02T15:14:38.998Z</time></trkpt><trkpt lat="45.81555094657288" lon="13.748312133069872"><ele>274.0</ele><time>2026-05-02T15:14:39.998Z</time></trkpt><trkpt lat="45.81562933911501" lon="13.748203944712417"><ele>274.0</ele><time>2026-05-02T15:14:40.998Z</time></trkpt><trkpt lat="45.81571192741144" lon="13.748103291922002"><ele>274.0</ele><time>2026-05-02T15:14:41.998Z</time></trkpt><trkpt lat="45.81578167238313" lon="13.74799991009945"><ele>274.0</ele><time>2026-05-02T15:14:42.998Z</time></trkpt><trkpt lat="45.81584992668548" lon="13.74790725926777"><ele>274.0</ele><time>2026-05-02T15:14:43.998Z</time></trkpt><trkpt lat="45.81591444393404" lon="13.747818170074648"><ele>274.0</ele><time>2026-05-02T15:14:44.998Z</time></trkpt><trkpt lat="45.81597915288991" lon="13.747723083261958"><ele>274.0</ele><time>2026-05-02T15:14:45.998Z</time></trkpt><trkpt lat="45.81604283466969" lon="13.747634517286095"><ele>274.0</ele><time>2026-05-02T15:14:46.998Z</time></trkpt><trkpt lat="45.81609783454627" lon="13.747543496680095"><ele>274.0</ele><time>2026-05-02T15:14:47.998Z</time></trkpt><trkpt lat="45.81614687468144" lon="13.747446263857661"><ele>274.0</ele><time>2026-05-02T15:14:48.998Z</time></trkpt><trkpt lat="45.81618680997777" lon="13.7473458606993"><ele>274.0</ele><time>2026-05-02T15:14:49.998Z</time></trkpt><trkpt lat="45.81622201802217" lon="13.747233298813034"><ele>275.0</ele><time>2026-05-02T15:14:50.998Z</time></trkpt><trkpt lat="45.81625752071287" lon="13.747123650005332"><ele>276.0</ele><time>2026-05-02T15:14:51.998Z</time></trkpt><trkpt lat="45.81628905346213" lon="13.746995698521099"><ele>277.0</ele><time>2026-05-02T15:14:52.998Z</time></trkpt><trkpt lat="45.81631453640073" lon="13.746847723216092"><ele>278.0</ele><time>2026-05-02T15:14:53.998Z</time></trkpt><trkpt lat="45.816352743277946" lon="13.746684663072179"><ele>279.0</ele><time>2026-05-02T15:14:54.998Z</time></trkpt><trkpt lat="45.81639703071228" lon="13.746521063885535"><ele>279.0</ele><time>2026-05-02T15:14:55.998Z</time></trkpt><trkpt lat="45.81644358134627" lon="13.746346058156886"><ele>279.0</ele><time>2026-05-02T15:14:56.998Z</time></trkpt><trkpt lat="45.81650072421639" lon="13.746167484504866"><ele>279.0</ele><time>2026-05-02T15:14:57.997Z</time></trkpt><trkpt lat="45.81655168321766" lon="13.7460078855072"><ele>279.0</ele><time>2026-05-02T15:14:58.997Z</time></trkpt><trkpt lat="45.81659339019413" lon="13.745878847746184"><ele>279.5</ele><time>2026-05-02T15:14:59.997Z</time></trkpt><trkpt lat="45.81662679241161" lon="13.745766821668147"><ele>280.0</ele><time>2026-05-02T15:15:00.997Z</time></trkpt><trkpt lat="45.816659950548846" lon="13.745683776081929"><ele>280.5</ele><time>2026-05-02T15:15:01.997Z</time></trkpt><trkpt lat="45.81670079353762" lon="13.745564610406785"><ele>281.0</ele><time>2026-05-02T15:15:03.997Z</time></trkpt><trkpt lat="45.81676209738252" lon="13.745500583167752"><ele>281.5</ele><time>2026-05-02T15:15:06.997Z</time></trkpt><trkpt lat="45.816828158011916" lon="13.745488994468353"><ele>282.0</ele><time>2026-05-02T15:15:11.997Z</time></trkpt><trkpt lat="45.816888146484544" lon="13.7454520295006"><ele>282.0</ele><time>2026-05-02T15:15:14Z</time></trkpt><trkpt lat="45.81689061783901" lon="13.745358189659395"><ele>282.0</ele><time>2026-05-02T15:15:18Z</time></trkpt><trkpt lat="45.81686824991074" lon="13.745260107699348"><ele>282.0</ele><time>2026-05-02T15:19:05.998Z</time></trkpt><trkpt lat="45.8168368875502" lon="13.745164122184654"><ele>282.0</ele><time>2026-05-02T15:19:07.998Z</time></trkpt><trkpt lat="45.816725002694504" lon="13.745158217719615"><ele>282.0</ele><time>2026-05-02T15:19:14.997Z</time></trkpt><trkpt lat="45.81665998040066" lon="13.745128941650854"><ele>282.0</ele><time>2026-05-02T15:19:15.997Z</time></trkpt><trkpt lat="45.81662098645786" lon="13.745044531171304"><ele>282.0</ele><time>2026-05-02T15:19:16.997Z</time></trkpt><trkpt lat="45.816583139404536" lon="13.744909267474958"><ele>282.0</ele><time>2026-05-02T15:19:17.997Z</time></trkpt><trkpt lat="45.81652393042393" lon="13.744750033370888"><ele>282.0</ele><time>2026-05-02T15:19:18.997Z</time></trkpt><trkpt lat="45.81645115532538" lon="13.744624197758203"><ele>282.0</ele><time>2026-05-02T15:19:19.997Z</time></trkpt><trkpt lat="45.81637371129499" lon="13.744518319956146"><ele>282.0</ele><time>2026-05-02T15:19:20.997Z</time></trkpt><trkpt lat="45.81629546574671" lon="13.744412749888983"><ele>281.75</ele><time>2026-05-02T15:19:21.997Z</time></trkpt><trkpt lat="45.81621209365187" lon="13.744303876818742"><ele>281.5</ele><time>2026-05-02T15:19:22.997Z</time></trkpt><trkpt lat="45.816129814668216" lon="13.744183129579365"><ele>281.25</ele><time>2026-05-02T15:19:23.997Z</time></trkpt><trkpt lat="45.81604242981955" lon="13.744060837467194"><ele>281.0</ele><time>2026-05-02T15:19:25.001Z</time></trkpt><trkpt lat="45.81595326942414" lon="13.743933556783924"><ele>279.75</ele><time>2026-05-02T15:19:26.001Z</time></trkpt><trkpt lat="45.815858083375446" lon="13.743802556718382"><ele>278.5</ele><time>2026-05-02T15:19:27Z</time></trkpt><trkpt lat="45.815765564087606" lon="13.743667761775686"><ele>277.25</ele><time>2026-05-02T15:19:28.001Z</time></trkpt><trkpt lat="45.815658924906394" lon="13.743517197240982"><ele>276.0</ele><time>2026-05-02T15:19:29Z</time></trkpt><trkpt lat="45.8155466106341" lon="13.74335726260368"><ele>275.6666666666667</ele><time>2026-05-02T15:19:30Z</time></trkpt><trkpt lat="45.81543073636451" lon="13.743191193452105"><ele>275.33333333333337</ele><time>2026-05-02T15:19:31Z</time></trkpt><trkpt lat="45.81531991458868" lon="13.74302864261912"><ele>275.0</ele><time>2026-05-02T15:19:32Z</time></trkpt><trkpt lat="45.81521540158365" lon="13.742867759493661"><ele>274.0</ele><time>2026-05-02T15:19:33Z</time></trkpt><trkpt lat="45.815108805897715" lon="13.742723778937835"><ele>273.0</ele><time>2026-05-02T15:19:34Z</time></trkpt><trkpt lat="45.81501453475558" lon="13.742595103094242"><ele>272.0</ele><time>2026-05-02T15:19:35Z</time></trkpt><trkpt lat="45.81492451262842" lon="13.742468338527097"><ele>271.0</ele><time>2026-05-02T15:19:36Z</time></trkpt><trkpt lat="45.81483157095389" lon="13.742336397342248"><ele>271.0</ele><time>2026-05-02T15:19:37Z</time></trkpt><trkpt lat="45.81474336885997" lon="13.742196977320575"><ele>271.0</ele><time>2026-05-02T15:19:38Z</time></trkpt><trkpt lat="45.814672341024355" lon="13.742042351051188"><ele>271.0</ele><time>2026-05-02T15:19:39Z</time></trkpt><trkpt lat="45.814618537077756" lon="13.741885086609175"><ele>271.0</ele><time>2026-05-02T15:19:40Z</time></trkpt><trkpt lat="45.81457208773921" lon="13.741743334462917"><ele>271.2</ele><time>2026-05-02T15:19:41Z</time></trkpt><trkpt lat="45.814533113648245" lon="13.74160308334583"><ele>271.40000000000003</ele><time>2026-05-02T15:19:42Z</time></trkpt><trkpt lat="45.81450840803716" lon="13.74145830378885"><ele>271.6</ele><time>2026-05-02T15:19:43Z</time></trkpt><trkpt lat="45.81452500451269" lon="13.74131548802461"><ele>271.8</ele><time>2026-05-02T15:19:44Z</time></trkpt><trkpt lat="45.81453607089067" lon="13.74119661012666"><ele>272.0</ele><time>2026-05-02T15:19:45Z</time></trkpt><trkpt lat="45.81449154417852" lon="13.741102376865348"><ele>272.0</ele><time>2026-05-02T15:19:46Z</time></trkpt><trkpt lat="45.8143970974259" lon="13.7410660975292"><ele>272.0</ele><time>2026-05-02T15:19:47Z</time></trkpt><trkpt lat="45.814293284125434" lon="13.74079427516995"><ele>272.0</ele><time>2026-05-02T15:19:49Z</time></trkpt><trkpt lat="45.81426524195728" lon="13.740613864663807"><ele>272.0</ele><time>2026-05-02T15:19:50Z</time></trkpt><trkpt lat="45.81427367497503" lon="13.740430584053367"><ele>269.6666666666667</ele><time>2026-05-02T15:19:51Z</time></trkpt><trkpt lat="45.814274554161166" lon="13.740228674540624"><ele>267.3333333333333</ele><time>2026-05-02T15:19:52Z</time></trkpt><trkpt lat="45.81426809007239" lon="13.740010528307774"><ele>265.0</ele><time>2026-05-02T15:19:53Z</time></trkpt><trkpt lat="45.814275858547546" lon="13.739780088272077"><ele>265.0</ele><time>2026-05-02T15:19:54Z</time></trkpt><trkpt lat="45.8142817887302" lon="13.739547354735322"><ele>265.0</ele><time>2026-05-02T15:19:55Z</time></trkpt><trkpt lat="45.81428656622707" lon="13.739310774967604"><ele>265.0</ele><time>2026-05-02T15:19:56Z</time></trkpt><trkpt lat="45.81428224953618" lon="13.739063213912246"><ele>265.3333333333333</ele><time>2026-05-02T15:19:57Z</time></trkpt><trkpt lat="45.814267152771734" lon="13.738813906841028"><ele>265.6666666666667</ele><time>2026-05-02T15:19:58Z</time></trkpt><trkpt lat="45.814229383382774" lon="13.738561707700633"><ele>266.0</ele><time>2026-05-02T15:19:59Z</time></trkpt><trkpt lat="45.81418374232659" lon="13.738326039368218"><ele>266.0</ele><time>2026-05-02T15:20:00Z</time></trkpt><trkpt lat="45.814162662920204" lon="13.738101602345232"><ele>266.0</ele><time>2026-05-02T15:20:01Z</time></trkpt><trkpt lat="45.814162023497396" lon="13.73786519464299"><ele>266.0</ele><time>2026-05-02T15:20:02Z</time></trkpt><trkpt lat="45.814167882973706" lon="13.737630617036"><ele>266.0</ele><time>2026-05-02T15:20:03Z</time></trkpt><trkpt lat="45.814170020977244" lon="13.737398956641707"><ele>266.0</ele><time>2026-05-02T15:20:04Z</time></trkpt><trkpt lat="45.81416907726202" lon="13.73717870167004"><ele>266.0</ele><time>2026-05-02T15:20:04.999Z</time></trkpt><trkpt lat="45.81416973160012" lon="13.736966750012796"><ele>265.33333333333337</ele><time>2026-05-02T15:20:05.999Z</time></trkpt><trkpt lat="45.81416244993008" lon="13.736747906732292"><ele>264.6666666666667</ele><time>2026-05-02T15:20:06.999Z</time></trkpt><trkpt lat="45.8141404395474" lon="13.73653058420405"><ele>264.0</ele><time>2026-05-02T15:20:07.999Z</time></trkpt><trkpt lat="45.81408086525925" lon="13.73633064476278"><ele>264.0</ele><time>2026-05-02T15:20:08.999Z</time></trkpt><trkpt lat="45.81401165953358" lon="13.73613403217065"><ele>264.0</ele><time>2026-05-02T15:20:09.999Z</time></trkpt><trkpt lat="45.81394091735504" lon="13.735919519351095"><ele>264.0</ele><time>2026-05-02T15:20:10.999Z</time></trkpt><trkpt lat="45.81383730606114" lon="13.735722620120844"><ele>263.6666666666667</ele><time>2026-05-02T15:20:11.999Z</time></trkpt><trkpt lat="45.81373162304143" lon="13.735523629430325"><ele>263.33333333333337</ele><time>2026-05-02T15:20:12.999Z</time></trkpt><trkpt lat="45.81362354703525" lon="13.735322072046847"><ele>263.0</ele><time>2026-05-02T15:20:13.999Z</time></trkpt><trkpt lat="45.813520209424404" lon="13.735109193130675"><ele>262.0</ele><time>2026-05-02T15:20:14.999Z</time></trkpt><trkpt lat="45.81342373598733" lon="13.734895465182113"><ele>261.0</ele><time>2026-05-02T15:20:15.999Z</time></trkpt><trkpt lat="45.81333962618718" lon="13.734684690393198"><ele>260.0</ele><time>2026-05-02T15:20:16.999Z</time></trkpt><trkpt lat="45.813255998122465" lon="13.734474731635649"><ele>259.6666666666667</ele><time>2026-05-02T15:20:17.999Z</time></trkpt><trkpt lat="45.813165576559975" lon="13.734276383605529"><ele>259.3333333333333</ele><time>2026-05-02T15:20:18.999Z</time></trkpt><trkpt lat="45.81307387102392" lon="13.734080122772513"><ele>259.0</ele><time>2026-05-02T15:20:19.999Z</time></trkpt><trkpt lat="45.812989688832054" lon="13.733883649837779"><ele>259.0</ele><time>2026-05-02T15:20:20.999Z</time></trkpt><trkpt lat="45.812908545383415" lon="13.733688261251002"><ele>259.0</ele><time>2026-05-02T15:20:21.999Z</time></trkpt><trkpt lat="45.812829990394775" lon="13.733494114313975"><ele>259.0</ele><time>2026-05-02T15:20:22.999Z</time></trkpt><trkpt lat="45.81275324069081" lon="13.733287532864399"><ele>258.66666666666663</ele><time>2026-05-02T15:20:23.999Z</time></trkpt><trkpt lat="45.8126754471822" lon="13.733074225435889"><ele>258.3333333333333</ele><time>2026-05-02T15:20:24.999Z</time></trkpt><trkpt lat="45.81258512895804" lon="13.732867152399661"><ele>258.0</ele><time>2026-05-02T15:20:25.999Z</time></trkpt><trkpt lat="45.812485595185684" lon="13.732656378001622"><ele>256.6666666666667</ele><time>2026-05-02T15:20:26.999Z</time></trkpt><trkpt lat="45.81237505091479" lon="13.732440819048126"><ele>255.33333333333334</ele><time>2026-05-02T15:20:27.999Z</time></trkpt><trkpt lat="45.81225831773429" lon="13.732217233012806"><ele>254.0</ele><time>2026-05-02T15:20:28.999Z</time></trkpt><trkpt lat="45.81213454196498" lon="13.731999510781803"><ele>254.0</ele><time>2026-05-02T15:20:29.999Z</time></trkpt><trkpt lat="45.812007093140096" lon="13.731777354108289"><ele>254.0</ele><time>2026-05-02T15:20:30.999Z</time></trkpt><trkpt lat="45.81188416953884" lon="13.731548632625621"><ele>254.0</ele><time>2026-05-02T15:20:31.999Z</time></trkpt><trkpt lat="45.81176663578238" lon="13.731311951018299"><ele>254.33333333333334</ele><time>2026-05-02T15:20:32.999Z</time></trkpt><trkpt lat="45.81165409491405" lon="13.73107573440985"><ele>254.66666666666669</ele><time>2026-05-02T15:20:33.999Z</time></trkpt><trkpt lat="45.811542609146" lon="13.730845012914276"><ele>255.0</ele><time>2026-05-02T15:20:34.999Z</time></trkpt><trkpt lat="45.81143444375548" lon="13.730617335850933"><ele>255.33333333333331</ele><time>2026-05-02T15:20:35.999Z</time></trkpt><trkpt lat="45.81132623973583" lon="13.73039071911953"><ele>255.66666666666666</ele><time>2026-05-02T15:20:36.999Z</time></trkpt><trkpt lat="45.811225673815436" lon="13.73018282685227"><ele>256.0</ele><time>2026-05-02T15:20:37.998Z</time></trkpt><trkpt lat="45.811131216861696" lon="13.729984399559896"><ele>256.66666666666663</ele><time>2026-05-02T15:20:38.998Z</time></trkpt><trkpt lat="45.811040911839605" lon="13.729785748690018"><ele>257.3333333333333</ele><time>2026-05-02T15:20:39.998Z</time></trkpt><trkpt lat="45.81095271459119" lon="13.729597353353771"><ele>258.0</ele><time>2026-05-02T15:20:40.998Z</time></trkpt><trkpt lat="45.810867784178534" lon="13.729410231101868"><ele>256.0</ele><time>2026-05-02T15:20:41.998Z</time></trkpt><trkpt lat="45.81077670961526" lon="13.729230163422677"><ele>254.0</ele><time>2026-05-02T15:20:42.998Z</time></trkpt><trkpt lat="45.810691105890584" lon="13.729056412104056"><ele>252.0</ele><time>2026-05-02T15:20:43.998Z</time></trkpt><trkpt lat="45.81060566584908" lon="13.728888267746035"><ele>250.0</ele><time>2026-05-02T15:20:44.998Z</time></trkpt><trkpt lat="45.81052605907121" lon="13.728733695663514"><ele>250.0</ele><time>2026-05-02T15:20:45.998Z</time></trkpt><trkpt lat="45.81043972579156" lon="13.728588133264894"><ele>250.0</ele><time>2026-05-02T15:20:46.998Z</time></trkpt><trkpt lat="45.810353332896966" lon="13.728445971973985"><ele>250.0</ele><time>2026-05-02T15:20:47.998Z</time></trkpt><trkpt lat="45.81026875477992" lon="13.728301006216773"><ele>250.0</ele><time>2026-05-02T15:20:48.998Z</time></trkpt><trkpt lat="45.810180406047856" lon="13.728170207507915"><ele>249.2</ele><time>2026-05-02T15:20:49.998Z</time></trkpt><trkpt lat="45.81009922036979" lon="13.728044099384439"><ele>248.4</ele><time>2026-05-02T15:20:50.998Z</time></trkpt><trkpt lat="45.81001582451785" lon="13.727921564120386"><ele>247.60000000000002</ele><time>2026-05-02T15:20:51.998Z</time></trkpt><trkpt lat="45.80994286066467" lon="13.727811121302176"><ele>246.8</ele><time>2026-05-02T15:20:52.998Z</time></trkpt><trkpt lat="45.80987572414074" lon="13.727709169631932"><ele>246.0</ele><time>2026-05-02T15:20:53.998Z</time></trkpt><trkpt lat="45.809814778613784" lon="13.727623604653456"><ele>246.0</ele><time>2026-05-02T15:20:54.998Z</time></trkpt><trkpt lat="45.80975743599983" lon="13.727559892697657"><ele>246.00000000000003</ele><time>2026-05-02T15:20:55.998Z</time></trkpt><trkpt lat="45.809700828451795" lon="13.72748348221815"><ele>246.00000000000003</ele><time>2026-05-02T15:20:57.998Z</time></trkpt><trkpt lat="45.80957320076427" lon="13.727701889703713"><ele>246.0</ele><time>2026-05-02T15:21:00.998Z</time></trkpt><trkpt lat="45.809540801151094" lon="13.727833208748455"><ele>246.0</ele><time>2026-05-02T15:21:02.998Z</time></trkpt><trkpt lat="45.8095175032871" lon="13.727964865401297"><ele>246.0</ele><time>2026-05-02T15:21:03.998Z</time></trkpt><trkpt lat="45.80948674527466" lon="13.72811995137645"><ele>246.00000000000003</ele><time>2026-05-02T15:21:04.998Z</time></trkpt><trkpt lat="45.80946376678686" lon="13.728237752846328"><ele>246.00000000000003</ele><time>2026-05-02T15:21:05.998Z</time></trkpt><trkpt lat="45.809430984815336" lon="13.728326926925504"><ele>246.0</ele><time>2026-05-02T15:21:06.998Z</time></trkpt><trkpt lat="45.80939732379252" lon="13.728485061393336"><ele>246.0</ele><time>2026-05-02T15:21:08.998Z</time></trkpt><trkpt lat="45.80936644713474" lon="13.728586619142678"><ele>245.4</ele><time>2026-05-02T15:21:09.998Z</time></trkpt><trkpt lat="45.80931641857243" lon="13.72869972228236"><ele>244.8</ele><time>2026-05-02T15:21:10.998Z</time></trkpt><trkpt lat="45.809252528642155" lon="13.728827662386912"><ele>244.20000000000002</ele><time>2026-05-02T15:21:11.998Z</time></trkpt><trkpt lat="45.809201447882614" lon="13.728927988155128"><ele>243.60000000000002</ele><time>2026-05-02T15:21:12.997Z</time></trkpt><trkpt lat="45.809152463295305" lon="13.729021872466346"><ele>243.0</ele><time>2026-05-02T15:21:13.997Z</time></trkpt><trkpt lat="45.80909659985559" lon="13.729127888168668"><ele>243.0</ele><time>2026-05-02T15:21:15.997Z</time></trkpt><trkpt lat="45.80908753624688" lon="13.72924228380788"><ele>243.0</ele><time>2026-05-02T15:21:17.997Z</time></trkpt><trkpt lat="45.809052765926516" lon="13.729330541025195"><ele>243.0</ele><time>2026-05-02T15:21:19.997Z</time></trkpt><trkpt lat="45.808980197935796" lon="13.729434140893025"><ele>243.0</ele><time>2026-05-02T15:21:21.997Z</time></trkpt><trkpt lat="45.80892909565847" lon="13.729514498604397"><ele>243.0</ele><time>2026-05-02T15:21:23.997Z</time></trkpt><trkpt lat="45.80888416923573" lon="13.729603614086544"><ele>243.0</ele><time>2026-05-02T15:21:25.997Z</time></trkpt><trkpt lat="45.80883439169084" lon="13.729708357460666"><ele>243.0</ele><time>2026-05-02T15:21:27.997Z</time></trkpt><trkpt lat="45.80879163415527" lon="13.729779777297864"><ele>243.0</ele><time>2026-05-02T15:21:28.997Z</time></trkpt><trkpt lat="45.80873971227273" lon="13.729858166812162"><ele>243.0</ele><time>2026-05-02T15:21:29.997Z</time></trkpt><trkpt lat="45.80865626799392" lon="13.729892549222113"><ele>243.0</ele><time>2026-05-02T15:21:31Z</time></trkpt><trkpt lat="45.808609375321524" lon="13.729966786837387"><ele>243.0</ele><time>2026-05-02T15:21:32Z</time></trkpt><trkpt lat="45.808562233588745" lon="13.730040367725605"><ele>243.0</ele><time>2026-05-02T15:21:33Z</time></trkpt><trkpt lat="45.80849944464201" lon="13.730133425471886"><ele>242.83333333333334</ele><time>2026-05-02T15:21:34Z</time></trkpt><trkpt lat="45.8084518878474" lon="13.730235381799003"><ele>242.66666666666669</ele><time>2026-05-02T15:21:35Z</time></trkpt><trkpt lat="45.80839921560632" lon="13.73030916261147"><ele>242.5</ele><time>2026-05-02T15:21:36Z</time></trkpt><trkpt lat="45.808349017188625" lon="13.730382978132727"><ele>242.33333333333334</ele><time>2026-05-02T15:21:37Z</time></trkpt><trkpt lat="45.80830663015782" lon="13.730457438103823"><ele>242.16666666666669</ele><time>2026-05-02T15:21:38Z</time></trkpt><trkpt lat="45.80821390102862" lon="13.730577260571016"><ele>242.0</ele><time>2026-05-02T15:21:40Z</time></trkpt><trkpt lat="45.808164044358776" lon="13.730645956629711"><ele>242.00000000000003</ele><time>2026-05-02T15:21:41Z</time></trkpt><trkpt lat="45.808108239627444" lon="13.73071588481425"><ele>242.0</ele><time>2026-05-02T15:21:42Z</time></trkpt><trkpt lat="45.80805031922852" lon="13.73078430125418"><ele>242.0</ele><time>2026-05-02T15:21:43Z</time></trkpt><trkpt lat="45.80799243082934" lon="13.730846755935612"><ele>242.0</ele><time>2026-05-02T15:21:44Z</time></trkpt><trkpt lat="45.80794562286204" lon="13.730912470260336"><ele>242.00000000000003</ele><time>2026-05-02T15:21:45Z</time></trkpt><trkpt lat="45.8078854944982" lon="13.730957776110998"><ele>242.0</ele><time>2026-05-02T15:21:46Z</time></trkpt><trkpt lat="45.80778328582761" lon="13.731026050789396"><ele>242.16666666666669</ele><time>2026-05-02T15:21:48Z</time></trkpt><trkpt lat="45.80772353233105" lon="13.731076587859587"><ele>242.33333333333334</ele><time>2026-05-02T15:21:49Z</time></trkpt><trkpt lat="45.8076514669163" lon="13.731128716819356"><ele>242.5</ele><time>2026-05-02T15:21:50Z</time></trkpt><trkpt lat="45.80759271330743" lon="13.731226967430212"><ele>242.66666666666669</ele><time>2026-05-02T15:21:51Z</time></trkpt><trkpt lat="45.80753746188406" lon="13.731301277125775"><ele>242.83333333333334</ele><time>2026-05-02T15:21:52Z</time></trkpt><trkpt lat="45.80748534618858" lon="13.731379356643163"><ele>243.0</ele><time>2026-05-02T15:21:53Z</time></trkpt><trkpt lat="45.80742920590802" lon="13.73142885845478"><ele>243.0</ele><time>2026-05-02T15:21:54Z</time></trkpt><trkpt lat="45.807334238490384" lon="13.731504397439176"><ele>243.0</ele><time>2026-05-02T15:21:56Z</time></trkpt><trkpt lat="45.80727341153938" lon="13.731537899206915"><ele>243.0</ele><time>2026-05-02T15:21:57Z</time></trkpt><trkpt lat="45.80720852861613" lon="13.731569212402846"><ele>243.0</ele><time>2026-05-02T15:21:58Z</time></trkpt><trkpt lat="45.807092412018925" lon="13.731615630670126"><ele>243.0</ele><time>2026-05-02T15:22:00Z</time></trkpt><trkpt lat="45.80702701669684" lon="13.731641985300742"><ele>243.0</ele><time>2026-05-02T15:22:00.999Z</time></trkpt><trkpt lat="45.806961343917564" lon="13.73168357760436"><ele>243.0</ele><time>2026-05-02T15:22:01.999Z</time></trkpt><trkpt lat="45.8068746236389" lon="13.731713011199426"><ele>243.0</ele><time>2026-05-02T15:22:02.999Z</time></trkpt><trkpt lat="45.80681054778364" lon="13.731742879938718"><ele>243.0</ele><time>2026-05-02T15:22:03.999Z</time></trkpt><trkpt lat="45.80669413483235" lon="13.73178185413279"><ele>243.0</ele><time>2026-05-02T15:22:05.999Z</time></trkpt><trkpt lat="45.8066341177746" lon="13.731826196909827"><ele>243.0</ele><time>2026-05-02T15:22:06.999Z</time></trkpt><trkpt lat="45.80656404146652" lon="13.731864353621754"><ele>243.0</ele><time>2026-05-02T15:22:07.999Z</time></trkpt><trkpt lat="45.80649690386131" lon="13.731902116625347"><ele>243.66666666666666</ele><time>2026-05-02T15:22:08.999Z</time></trkpt><trkpt lat="45.806438785662365" lon="13.731938943246504"><ele>244.33333333333331</ele><time>2026-05-02T15:22:09.999Z</time></trkpt><trkpt lat="45.806377456667015" lon="13.731991861424692"><ele>245.0</ele><time>2026-05-02T15:22:10.999Z</time></trkpt><trkpt lat="45.80632265240849" lon="13.732059345286826"><ele>245.66666666666666</ele><time>2026-05-02T15:22:11.999Z</time></trkpt><trkpt lat="45.80623719668885" lon="13.732169979726748"><ele>246.33333333333331</ele><time>2026-05-02T15:22:13.999Z</time></trkpt><trkpt lat="45.80618640480313" lon="13.732226410294405"><ele>247.0</ele><time>2026-05-02T15:22:14.999Z</time></trkpt><trkpt lat="45.806081215642905" lon="13.732333356306151"><ele>247.0</ele><time>2026-05-02T15:22:16.999Z</time></trkpt><trkpt lat="45.806024392149006" lon="13.732405062759687"><ele>247.0</ele><time>2026-05-02T15:22:17.999Z</time></trkpt><trkpt lat="45.805953674720335" lon="13.732419237430314"><ele>247.0</ele><time>2026-05-02T15:22:18.999Z</time></trkpt><trkpt lat="45.80582923257109" lon="13.732454926702566"><ele>247.0</ele><time>2026-05-02T15:22:20.999Z</time></trkpt><trkpt lat="45.8057095052053" lon="13.73249368824335"><ele>247.0</ele><time>2026-05-02T15:22:22.999Z</time></trkpt><trkpt lat="45.805646846677945" lon="13.732529088252493"><ele>247.39999999999998</ele><time>2026-05-02T15:22:23.999Z</time></trkpt><trkpt lat="45.805521076005206" lon="13.732566668984216"><ele>247.79999999999998</ele><time>2026-05-02T15:22:25.999Z</time></trkpt><trkpt lat="45.805442937527566" lon="13.732583760261923"><ele>248.2</ele><time>2026-05-02T15:22:26.999Z</time></trkpt><trkpt lat="45.80535820234009" lon="13.732616045321139"><ele>248.6</ele><time>2026-05-02T15:22:27.999Z</time></trkpt><trkpt lat="45.80528888393195" lon="13.732648310077133"><ele>249.0</ele><time>2026-05-02T15:22:28.999Z</time></trkpt><trkpt lat="45.80518797803192" lon="13.73271616926733"><ele>249.7142857142857</ele><time>2026-05-02T15:22:30.999Z</time></trkpt><trkpt lat="45.80513666995696" lon="13.732778884209274"><ele>250.4285714285714</ele><time>2026-05-02T15:22:31.999Z</time></trkpt><trkpt lat="45.80507589056089" lon="13.732827366504816"><ele>251.14285714285714</ele><time>2026-05-02T15:22:32.999Z</time></trkpt><trkpt lat="45.805012919316724" lon="13.732873659330503"><ele>251.85714285714283</ele><time>2026-05-02T15:22:33.999Z</time></trkpt><trkpt lat="45.80494111446832" lon="13.732945782898245"><ele>252.57142857142856</ele><time>2026-05-02T15:22:34.998Z</time></trkpt><trkpt lat="45.80487683350632" lon="13.733018093770216"><ele>253.28571428571428</ele><time>2026-05-02T15:22:35.998Z</time></trkpt><trkpt lat="45.80482170457756" lon="13.733083244168224"><ele>254.0</ele><time>2026-05-02T15:22:36.998Z</time></trkpt><trkpt lat="45.80477274611792" lon="13.733155321768457"><ele>254.0</ele><time>2026-05-02T15:22:37.998Z</time></trkpt><trkpt lat="45.80471760487411" lon="13.733223225742579"><ele>254.0</ele><time>2026-05-02T15:22:38.998Z</time></trkpt><trkpt lat="45.804658645932555" lon="13.733288044830177"><ele>254.0</ele><time>2026-05-02T15:22:39.998Z</time></trkpt><trkpt lat="45.80462193572973" lon="13.733375047109556"><ele>254.0</ele><time>2026-05-02T15:22:40.998Z</time></trkpt><trkpt lat="45.80457361962115" lon="13.73346180709725"><ele>254.0</ele><time>2026-05-02T15:22:41.998Z</time></trkpt><trkpt lat="45.8045374812786" lon="13.733552534339248"><ele>254.0</ele><time>2026-05-02T15:22:42.998Z</time></trkpt><trkpt lat="45.804505254115114" lon="13.733637137745427"><ele>254.0</ele><time>2026-05-02T15:22:43.998Z</time></trkpt><trkpt lat="45.80447053606491" lon="13.733719836624363"><ele>253.83333333333334</ele><time>2026-05-02T15:22:44.998Z</time></trkpt><trkpt lat="45.80444028321155" lon="13.73380140013793"><ele>253.66666666666669</ele><time>2026-05-02T15:22:45.998Z</time></trkpt><trkpt lat="45.80440352500873" lon="13.733893237905162"><ele>253.5</ele><time>2026-05-02T15:22:46.998Z</time></trkpt><trkpt lat="45.80435124938877" lon="13.733981003219494"><ele>253.33333333333331</ele><time>2026-05-02T15:22:47.998Z</time></trkpt><trkpt lat="45.80431945798194" lon="13.734063588408423"><ele>253.16666666666666</ele><time>2026-05-02T15:22:48.998Z</time></trkpt><trkpt lat="45.80426635138346" lon="13.734201544558758"><ele>253.0</ele><time>2026-05-02T15:22:50.998Z</time></trkpt><trkpt lat="45.804233411881086" lon="13.734286623516295"><ele>253.4</ele><time>2026-05-02T15:22:51.998Z</time></trkpt><trkpt lat="45.80418224387272" lon="13.734417695717928"><ele>253.8</ele><time>2026-05-02T15:22:53.998Z</time></trkpt><trkpt lat="45.80413243541121" lon="13.734543462655747"><ele>254.2</ele><time>2026-05-02T15:22:55.998Z</time></trkpt><trkpt lat="45.804074291933595" lon="13.734679000863073"><ele>254.6</ele><time>2026-05-02T15:22:57.998Z</time></trkpt><trkpt lat="45.80403914130377" lon="13.73475877287289"><ele>255.0</ele><time>2026-05-02T15:22:58.998Z</time></trkpt><trkpt lat="45.80397253088686" lon="13.734905579584163"><ele>255.0</ele><time>2026-05-02T15:23:00.998Z</time></trkpt><trkpt lat="45.80392610520494" lon="13.735006118375166"><ele>255.0</ele><time>2026-05-02T15:23:02.998Z</time></trkpt><trkpt lat="45.80387602756862" lon="13.73511081998393"><ele>255.0</ele><time>2026-05-02T15:23:05.998Z</time></trkpt><trkpt lat="45.803836873676495" lon="13.735185805064576"><ele>255.0</ele><time>2026-05-02T15:23:08.997Z</time></trkpt><trkpt lat="45.803768805734826" lon="13.735310442414828"><ele>255.0</ele><time>2026-05-02T15:23:11.997Z</time></trkpt><trkpt lat="45.8037148916475" lon="13.735444400867365"><ele>255.4</ele><time>2026-05-02T15:23:13.997Z</time></trkpt><trkpt lat="45.80362943700923" lon="13.73556413536392"><ele>255.8</ele><time>2026-05-02T15:23:15.997Z</time></trkpt><trkpt lat="45.80357758133272" lon="13.735657760560962"><ele>256.2</ele><time>2026-05-02T15:23:16.997Z</time></trkpt><trkpt lat="45.803524268190635" lon="13.73575848221258"><ele>256.6</ele><time>2026-05-02T15:23:17.997Z</time></trkpt><trkpt lat="45.80347476031476" lon="13.735849221538057"><ele>257.0</ele><time>2026-05-02T15:23:18.997Z</time></trkpt><trkpt lat="45.80341108931615" lon="13.735935547281349"><ele>257.0</ele><time>2026-05-02T15:23:19.997Z</time></trkpt><trkpt lat="45.80333787831258" lon="13.736016203864866"><ele>257.0</ele><time>2026-05-02T15:23:20.997Z</time></trkpt><trkpt lat="45.80327544378209" lon="13.736073539798035"><ele>257.0</ele><time>2026-05-02T15:23:21.997Z</time></trkpt><trkpt lat="45.80321701664593" lon="13.736132800358652"><ele>257.0</ele><time>2026-05-02T15:23:22.997Z</time></trkpt><trkpt lat="45.80316075972761" lon="13.736207628735686"><ele>257.0</ele><time>2026-05-02T15:23:23.997Z</time></trkpt><trkpt lat="45.80309604338704" lon="13.73627611190207"><ele>257.0</ele><time>2026-05-02T15:23:24.997Z</time></trkpt><trkpt lat="45.80303786222558" lon="13.736346009089154"><ele>257.33333333333337</ele><time>2026-05-02T15:23:25.997Z</time></trkpt><trkpt lat="45.80298480455862" lon="13.736409254792633"><ele>257.6666666666667</ele><time>2026-05-02T15:23:26.997Z</time></trkpt><trkpt lat="45.80292617800759" lon="13.736480980210953"><ele>258.0</ele><time>2026-05-02T15:23:27.997Z</time></trkpt><trkpt lat="45.80285841813802" lon="13.736570769673415"><ele>258.3333333333333</ele><time>2026-05-02T15:23:28.997Z</time></trkpt><trkpt lat="45.8027994679132" lon="13.736654168849917"><ele>258.66666666666663</ele><time>2026-05-02T15:23:29.997Z</time></trkpt><trkpt lat="45.802755437728514" lon="13.736743275364498"><ele>259.0</ele><time>2026-05-02T15:23:30.997Z</time></trkpt><trkpt lat="45.802706788440936" lon="13.736813794491225"><ele>259.3333333333333</ele><time>2026-05-02T15:23:31.997Z</time></trkpt><trkpt lat="45.802656029994374" lon="13.736887152117118"><ele>259.66666666666663</ele><time>2026-05-02T15:23:32.997Z</time></trkpt><trkpt lat="45.80260350049758" lon="13.736963851604408"><ele>260.0</ele><time>2026-05-02T15:23:33.997Z</time></trkpt><trkpt lat="45.8025549351471" lon="13.737044220639364"><ele>260.3333333333333</ele><time>2026-05-02T15:23:34.997Z</time></trkpt><trkpt lat="45.80250275686991" lon="13.737141174715875"><ele>260.6666666666667</ele><time>2026-05-02T15:23:35.997Z</time></trkpt><trkpt lat="45.802442123957036" lon="13.73726429879614"><ele>261.0</ele><time>2026-05-02T15:23:37Z</time></trkpt><trkpt lat="45.80237514288145" lon="13.73735758956216"><ele>261.0</ele><time>2026-05-02T15:23:38Z</time></trkpt><trkpt lat="45.80232271002945" lon="13.737456844554012"><ele>261.0</ele><time>2026-05-02T15:23:39Z</time></trkpt><trkpt lat="45.80227007452688" lon="13.737557879542742"><ele>261.0</ele><time>2026-05-02T15:23:40Z</time></trkpt><trkpt lat="45.80221793524748" lon="13.737659628755397"><ele>261.0</ele><time>2026-05-02T15:23:41Z</time></trkpt><trkpt lat="45.80216703793332" lon="13.737762492866848"><ele>261.0</ele><time>2026-05-02T15:23:42Z</time></trkpt><trkpt lat="45.80211676811953" lon="13.737867271757292"><ele>261.0</ele><time>2026-05-02T15:23:43Z</time></trkpt><trkpt lat="45.80207603081615" lon="13.737960901807039"><ele>259.8571428571429</ele><time>2026-05-02T15:23:44Z</time></trkpt><trkpt lat="45.802043685304255" lon="13.738044746798332"><ele>258.7142857142857</ele><time>2026-05-02T15:23:45Z</time></trkpt><trkpt lat="45.8020134694734" lon="13.73813713805795"><ele>257.57142857142856</ele><time>2026-05-02T15:23:46Z</time></trkpt><trkpt lat="45.80198840249794" lon="13.73823360519199"><ele>256.42857142857144</ele><time>2026-05-02T15:23:47Z</time></trkpt><trkpt lat="45.80198254212795" lon="13.738331710862536"><ele>255.28571428571428</ele><time>2026-05-02T15:23:48Z</time></trkpt><trkpt lat="45.801964491159126" lon="13.738425221620558"><ele>254.14285714285717</ele><time>2026-05-02T15:23:49Z</time></trkpt><trkpt lat="45.80195236833221" lon="13.738516804614202"><ele>253.00000000000003</ele><time>2026-05-02T15:23:50Z</time></trkpt><trkpt lat="45.80194469452717" lon="13.738624643715662"><ele>252.49999999999997</ele><time>2026-05-02T15:23:51Z</time></trkpt><trkpt lat="45.80194283153487" lon="13.738721930922827"><ele>252.0</ele><time>2026-05-02T15:23:52Z</time></trkpt><trkpt lat="45.80193848640147" lon="13.738891417632809"><ele>251.5</ele><time>2026-05-02T15:23:54Z</time></trkpt><trkpt lat="45.801943197614875" lon="13.738999718710986"><ele>251.0</ele><time>2026-05-02T15:23:55Z</time></trkpt><trkpt lat="45.80194432735131" lon="13.739095634696787"><ele>250.49999999999997</ele><time>2026-05-02T15:23:56Z</time></trkpt><trkpt lat="45.801918633033296" lon="13.739199929830065"><ele>250.0</ele><time>2026-05-02T15:23:57Z</time></trkpt><trkpt lat="45.80189598556114" lon="13.739291269242223"><ele>250.0</ele><time>2026-05-02T15:23:58Z</time></trkpt><trkpt lat="45.801861267737685" lon="13.739367350159945"><ele>250.0</ele><time>2026-05-02T15:23:59Z</time></trkpt><trkpt lat="45.80181266674894" lon="13.739437765852516"><ele>250.0</ele><time>2026-05-02T15:24:00Z</time></trkpt><trkpt lat="45.80177970783078" lon="13.73952472821293"><ele>250.0</ele><time>2026-05-02T15:24:01Z</time></trkpt><trkpt lat="45.80176648961191" lon="13.739622540528384"><ele>250.0</ele><time>2026-05-02T15:24:02Z</time></trkpt><trkpt lat="45.801779993469395" lon="13.739717885711352"><ele>250.0</ele><time>2026-05-02T15:24:03Z</time></trkpt><trkpt lat="45.80178153139612" lon="13.73982795955622"><ele>250.0</ele><time>2026-05-02T15:24:04Z</time></trkpt><trkpt lat="45.801794694239504" lon="13.739962003508362"><ele>250.33333333333331</ele><time>2026-05-02T15:24:05Z</time></trkpt><trkpt lat="45.80180166672661" lon="13.74007996692524"><ele>250.66666666666666</ele><time>2026-05-02T15:24:06Z</time></trkpt><trkpt lat="45.801794876275345" lon="13.74019356462953"><ele>251.0</ele><time>2026-05-02T15:24:06.999Z</time></trkpt><trkpt lat="45.80177904284798" lon="13.740303137350402"><ele>251.33333333333331</ele><time>2026-05-02T15:24:07.999Z</time></trkpt><trkpt lat="45.80175240391604" lon="13.740407766924646"><ele>251.66666666666666</ele><time>2026-05-02T15:24:08.999Z</time></trkpt><trkpt lat="45.80169755940856" lon="13.740513946050754"><ele>252.0</ele><time>2026-05-02T15:24:09.999Z</time></trkpt><trkpt lat="45.80163674504482" lon="13.7406117887647"><ele>252.0</ele><time>2026-05-02T15:24:10.999Z</time></trkpt><trkpt lat="45.80159891418385" lon="13.740728517857676"><ele>252.0</ele><time>2026-05-02T15:24:11.999Z</time></trkpt><trkpt lat="45.80158331806439" lon="13.740844269213042"><ele>252.0</ele><time>2026-05-02T15:24:12.999Z</time></trkpt><trkpt lat="45.80155831062807" lon="13.740953719795815"><ele>252.0</ele><time>2026-05-02T15:24:13.999Z</time></trkpt><trkpt lat="45.80152952949533" lon="13.741091691678054"><ele>252.0</ele><time>2026-05-02T15:24:14.999Z</time></trkpt><trkpt lat="45.80150493019377" lon="13.741209859538941"><ele>252.0</ele><time>2026-05-02T15:24:15.999Z</time></trkpt><trkpt lat="45.80148576889278" lon="13.741318237332033"><ele>251.5</ele><time>2026-05-02T15:24:16.999Z</time></trkpt><trkpt lat="45.801462598231" lon="13.741415521147081"><ele>251.0</ele><time>2026-05-02T15:24:17.999Z</time></trkpt><trkpt lat="45.801446202074295" lon="13.741503418172362"><ele>250.5</ele><time>2026-05-02T15:24:18.999Z</time></trkpt><trkpt lat="45.80139569769726" lon="13.741648572567366"><ele>250.0</ele><time>2026-05-02T15:24:20.999Z</time></trkpt><trkpt lat="45.80133270612739" lon="13.741796545982075"><ele>249.5</ele><time>2026-05-02T15:24:22.999Z</time></trkpt><trkpt lat="45.80129630948564" lon="13.741894553888537"><ele>249.0</ele><time>2026-05-02T15:24:23.999Z</time></trkpt><trkpt lat="45.80123794012099" lon="13.742009800475298"><ele>249.0</ele><time>2026-05-02T15:24:24.999Z</time></trkpt><trkpt lat="45.80118373004232" lon="13.74212209058253"><ele>249.0</ele><time>2026-05-02T15:24:25.999Z</time></trkpt><trkpt lat="45.80113975789135" lon="13.742214499585074"><ele>249.0</ele><time>2026-05-02T15:24:26.999Z</time></trkpt><trkpt lat="45.80109939361463" lon="13.742307508939966"><ele>249.0</ele><time>2026-05-02T15:24:27.999Z</time></trkpt><trkpt lat="45.80105204734268" lon="13.742395954075482"><ele>249.0</ele><time>2026-05-02T15:24:28.999Z</time></trkpt><trkpt lat="45.801003404131286" lon="13.742477888086812"><ele>249.0</ele><time>2026-05-02T15:24:29.999Z</time></trkpt><trkpt lat="45.80095952988892" lon="13.742559714543109"><ele>249.0</ele><time>2026-05-02T15:24:30.999Z</time></trkpt><trkpt lat="45.80092098875733" lon="13.742648836449497"><ele>248.99999999999997</ele><time>2026-05-02T15:24:31.999Z</time></trkpt><trkpt lat="45.8008957468003" lon="13.742760688432044"><ele>249.0</ele><time>2026-05-02T15:24:32.999Z</time></trkpt><trkpt lat="45.8009035851181" lon="13.742878348199065"><ele>249.0</ele><time>2026-05-02T15:24:33.999Z</time></trkpt><trkpt lat="45.8008967218411" lon="13.742979136280534"><ele>248.99999999999997</ele><time>2026-05-02T15:24:34.999Z</time></trkpt><trkpt lat="45.80087421569556" lon="13.743066264772326"><ele>249.0</ele><time>2026-05-02T15:24:35.999Z</time></trkpt><trkpt lat="45.800878376929376" lon="13.743163968397603"><ele>249.0</ele><time>2026-05-02T15:24:36.999Z</time></trkpt><trkpt lat="45.80085841723841" lon="13.743270693664153"><ele>249.0</ele><time>2026-05-02T15:24:37.999Z</time></trkpt><trkpt lat="45.80082533939702" lon="13.74335403796003"><ele>248.99999999999997</ele><time>2026-05-02T15:24:38.999Z</time></trkpt><trkpt lat="45.800794020534" lon="13.74351493439246"><ele>248.99999999999997</ele><time>2026-05-02T15:24:40.999Z</time></trkpt><trkpt lat="45.80076138320332" lon="13.743665707807047"><ele>249.0</ele><time>2026-05-02T15:24:42.998Z</time></trkpt><trkpt lat="45.80068377941847" lon="13.743794777928404"><ele>249.0</ele><time>2026-05-02T15:24:44.998Z</time></trkpt><trkpt lat="45.80064429873137" lon="13.743870209934462"><ele>249.0</ele><time>2026-05-02T15:24:45.998Z</time></trkpt><trkpt lat="45.80059574792602" lon="13.743963241743092"><ele>249.0</ele><time>2026-05-02T15:24:46.998Z</time></trkpt><trkpt lat="45.80054705639038" lon="13.744051661886871"><ele>249.0</ele><time>2026-05-02T15:24:47.998Z</time></trkpt><trkpt lat="45.80050237773664" lon="13.74416272436222"><ele>249.0</ele><time>2026-05-02T15:24:48.998Z</time></trkpt><trkpt lat="45.80045021372632" lon="13.744259793636612"><ele>249.0</ele><time>2026-05-02T15:24:49.998Z</time></trkpt><trkpt lat="45.80040347928047" lon="13.744347613145067"><ele>249.0</ele><time>2026-05-02T15:24:50.998Z</time></trkpt><trkpt lat="45.80036538350849" lon="13.744440643924289"><ele>249.0</ele><time>2026-05-02T15:24:51.998Z</time></trkpt><trkpt lat="45.80033489177831" lon="13.744547457503812"><ele>249.0</ele><time>2026-05-02T15:24:52.998Z</time></trkpt><trkpt lat="45.80031514383294" lon="13.744655057610927"><ele>249.0</ele><time>2026-05-02T15:24:53.998Z</time></trkpt><trkpt lat="45.8002956220875" lon="13.744752494007857"><ele>249.0</ele><time>2026-05-02T15:24:54.998Z</time></trkpt><trkpt lat="45.80030290543233" lon="13.744852533996859"><ele>249.0</ele><time>2026-05-02T15:24:55.998Z</time></trkpt><trkpt lat="45.80029655645904" lon="13.744959460654508"><ele>249.0</ele><time>2026-05-02T15:24:56.998Z</time></trkpt><trkpt lat="45.80029083485867" lon="13.74507622779617"><ele>249.0</ele><time>2026-05-02T15:24:57.998Z</time></trkpt><trkpt lat="45.80028635256928" lon="13.745174733926353"><ele>248.99999999999997</ele><time>2026-05-02T15:24:58.998Z</time></trkpt><trkpt lat="45.80026100442478" lon="13.745327145443143"><ele>248.99999999999997</ele><time>2026-05-02T15:25:00.998Z</time></trkpt><trkpt lat="45.80025137693731" lon="13.745447574801085"><ele>249.0</ele><time>2026-05-02T15:25:02.998Z</time></trkpt><trkpt lat="45.80016027109947" lon="13.745468234671282"><ele>249.0</ele><time>2026-05-02T15:25:05.998Z</time></trkpt><trkpt lat="45.80005133916031" lon="13.74553069622218"><ele>247.79999999999998</ele><time>2026-05-02T15:25:07.998Z</time></trkpt><trkpt lat="45.799961424964025" lon="13.745604577153536"><ele>246.59999999999997</ele><time>2026-05-02T15:25:09.998Z</time></trkpt><trkpt lat="45.79988134137702" lon="13.745667807152692"><ele>245.4</ele><time>2026-05-02T15:25:11.998Z</time></trkpt><trkpt lat="45.7997947664967" lon="13.745705052461329"><ele>244.2</ele><time>2026-05-02T15:25:13.998Z</time></trkpt><trkpt lat="45.79972981606388" lon="13.74573472373536"><ele>243.0</ele><time>2026-05-02T15:25:15.998Z</time></trkpt><trkpt lat="45.79963970490695" lon="13.745874473723457"><ele>243.0</ele><time>2026-05-02T15:25:17.997Z</time></trkpt><trkpt lat="45.799619929483825" lon="13.745991383377737"><ele>243.0</ele><time>2026-05-02T15:25:20.997Z</time></trkpt><trkpt lat="45.799605450730084" lon="13.74611498683798"><ele>243.0</ele><time>2026-05-02T15:25:23.997Z</time></trkpt><trkpt lat="45.79961068967412" lon="13.74623113131537"><ele>243.0</ele><time>2026-05-02T15:25:26.997Z</time></trkpt><trkpt lat="45.79960922380883" lon="13.746333351545783"><ele>243.0</ele><time>2026-05-02T15:25:28.997Z</time></trkpt><trkpt lat="45.799694514219844" lon="13.746189931581293"><ele>243.0</ele><time>2026-05-02T15:25:31.997Z</time></trkpt><trkpt lat="45.799673932363376" lon="13.74608259931449"><ele>243.0</ele><time>2026-05-02T15:25:39.997Z</time></trkpt><trkpt lat="45.799631754198295" lon="13.745961201982528"><ele>243.0</ele><time>2026-05-02T15:25:41.997Z</time></trkpt><trkpt lat="45.79963655689255" lon="13.745862064558613"><ele>243.0</ele><time>2026-05-02T15:25:44Z</time></trkpt><trkpt lat="45.7996485670824" lon="13.745743124997832"><ele>243.0</ele><time>2026-05-02T15:25:47Z</time></trkpt><trkpt lat="45.79971669787117" lon="13.745717915735474"><ele>243.0</ele><time>2026-05-02T15:26:05Z</time></trkpt><trkpt lat="45.799779340532545" lon="13.745739227858733"><ele>243.0</ele><time>2026-05-02T15:26:29.999Z</time></trkpt><trkpt lat="45.79987223034354" lon="13.745689331118202"><ele>243.0</ele><time>2026-05-02T15:26:32.999Z</time></trkpt><trkpt lat="45.799951135345246" lon="13.74562709390378"><ele>243.0</ele><time>2026-05-02T15:26:34.999Z</time></trkpt><trkpt lat="45.80002979270224" lon="13.745570343001974"><ele>243.0</ele><time>2026-05-02T15:26:36.999Z</time></trkpt><trkpt lat="45.80011634033919" lon="13.745525704007129"><ele>243.0</ele><time>2026-05-02T15:26:38.999Z</time></trkpt><trkpt lat="45.800199031305105" lon="13.74548177557329"><ele>243.5</ele><time>2026-05-02T15:26:40.999Z</time></trkpt><trkpt lat="45.80027115874562" lon="13.745425437491567"><ele>244.0</ele><time>2026-05-02T15:26:43.999Z</time></trkpt><trkpt lat="45.800309642084585" lon="13.74532570882523"><ele>244.5</ele><time>2026-05-02T15:26:46.999Z</time></trkpt><trkpt lat="45.80030086862784" lon="13.74523055909547"><ele>245.0</ele><time>2026-05-02T15:26:48.998Z</time></trkpt><trkpt lat="45.80029953331958" lon="13.745106356580225"><ele>245.5</ele><time>2026-05-02T15:26:51.998Z</time></trkpt><trkpt lat="45.800299319236835" lon="13.745009650043535"><ele>246.0</ele><time>2026-05-02T15:26:53.998Z</time></trkpt><trkpt lat="45.80030818829192" lon="13.744896696018497"><ele>246.16666666666666</ele><time>2026-05-02T15:26:55.998Z</time></trkpt><trkpt lat="45.80031878718868" lon="13.744805327623105"><ele>246.33333333333331</ele><time>2026-05-02T15:26:57.998Z</time></trkpt><trkpt lat="45.80033248652426" lon="13.744692640773172"><ele>246.5</ele><time>2026-05-02T15:26:59.998Z</time></trkpt><trkpt lat="45.80036307301346" lon="13.744580454865092"><ele>246.66666666666666</ele><time>2026-05-02T15:27:01.998Z</time></trkpt><trkpt lat="45.80037859206841" lon="13.744465741464982"><ele>246.83333333333331</ele><time>2026-05-02T15:27:03.998Z</time></trkpt><trkpt lat="45.800411397334045" lon="13.744366002231159"><ele>247.0</ele><time>2026-05-02T15:27:05.998Z</time></trkpt><trkpt lat="45.800438224709175" lon="13.744276116085937"><ele>246.99999999999997</ele><time>2026-05-02T15:27:07.998Z</time></trkpt><trkpt lat="45.800508540322454" lon="13.744177788816824"><ele>247.0</ele><time>2026-05-02T15:27:09.998Z</time></trkpt><trkpt lat="45.80056856152659" lon="13.74408053094423"><ele>247.0</ele><time>2026-05-02T15:27:11.998Z</time></trkpt><trkpt lat="45.800633960064395" lon="13.743992104617323"><ele>247.0</ele><time>2026-05-02T15:27:13.998Z</time></trkpt><trkpt lat="45.8006893045535" lon="13.743910966717294"><ele>246.99999999999997</ele><time>2026-05-02T15:27:15.998Z</time></trkpt><trkpt lat="45.800719576762084" lon="13.743801560978087"><ele>247.0</ele><time>2026-05-02T15:27:17.998Z</time></trkpt><trkpt lat="45.80075344552241" lon="13.743698641259463"><ele>246.99999999999997</ele><time>2026-05-02T15:27:19.998Z</time></trkpt><trkpt lat="45.800783733703014" lon="13.743589535010555"><ele>247.0</ele><time>2026-05-02T15:27:21.998Z</time></trkpt><trkpt lat="45.80080852460723" lon="13.743480462209556"><ele>247.0</ele><time>2026-05-02T15:27:23.997Z</time></trkpt><trkpt lat="45.80082853414001" lon="13.74336933832701"><ele>247.0</ele><time>2026-05-02T15:27:25.997Z</time></trkpt><trkpt lat="45.800849612372375" lon="13.743256030633859"><ele>246.99999999999997</ele><time>2026-05-02T15:27:27.997Z</time></trkpt><trkpt lat="45.800873480195854" lon="13.743147978393317"><ele>247.0</ele><time>2026-05-02T15:27:29.997Z</time></trkpt><trkpt lat="45.80089755616576" lon="13.743031342865645"><ele>247.39999999999998</ele><time>2026-05-02T15:27:31.997Z</time></trkpt><trkpt lat="45.800910650397924" lon="13.742909399450843"><ele>247.79999999999998</ele><time>2026-05-02T15:27:33.997Z</time></trkpt><trkpt lat="45.80092621514997" lon="13.742799406985998"><ele>248.2</ele><time>2026-05-02T15:27:35.997Z</time></trkpt><trkpt lat="45.80093300786328" lon="13.742692358013622"><ele>248.6</ele><time>2026-05-02T15:27:37.997Z</time></trkpt><trkpt lat="45.80096382875506" lon="13.74256432631309"><ele>249.0</ele><time>2026-05-02T15:27:39.997Z</time></trkpt><trkpt lat="45.80103281040068" lon="13.742424299370176"><ele>249.0</ele><time>2026-05-02T15:27:41.997Z</time></trkpt><trkpt lat="45.801076273184584" lon="13.74234495172165"><ele>248.99999999999997</ele><time>2026-05-02T15:27:42.997Z</time></trkpt><trkpt lat="45.80111979549462" lon="13.742270721362214"><ele>249.0</ele><time>2026-05-02T15:27:43.997Z</time></trkpt><trkpt lat="45.80115906150419" lon="13.742197128673292"><ele>249.0</ele><time>2026-05-02T15:27:44.997Z</time></trkpt><trkpt lat="45.801198352052694" lon="13.742126291966482"><ele>248.99999999999997</ele><time>2026-05-02T15:27:45.997Z</time></trkpt><trkpt lat="45.801233413815694" lon="13.7420475034463"><ele>249.0</ele><time>2026-05-02T15:27:46.997Z</time></trkpt><trkpt lat="45.801309169759634" lon="13.741924949365771"><ele>249.0</ele><time>2026-05-02T15:27:49Z</time></trkpt><trkpt lat="45.80137166910715" lon="13.741798709714026"><ele>248.79999999999998</ele><time>2026-05-02T15:27:51Z</time></trkpt><trkpt lat="45.80141728276725" lon="13.741673487676849"><ele>248.59999999999997</ele><time>2026-05-02T15:27:53Z</time></trkpt><trkpt lat="45.80145437420462" lon="13.741544519538246"><ele>248.4</ele><time>2026-05-02T15:27:55Z</time></trkpt><trkpt lat="45.80147810710145" lon="13.741393874814971"><ele>248.2</ele><time>2026-05-02T15:27:57Z</time></trkpt><trkpt lat="45.80149554215851" lon="13.741301592815583"><ele>248.0</ele><time>2026-05-02T15:27:58Z</time></trkpt><trkpt lat="45.80153286347773" lon="13.741131582151676"><ele>249.0</ele><time>2026-05-02T15:28:00Z</time></trkpt><trkpt lat="45.80156844477961" lon="13.740969113615316"><ele>250.0</ele><time>2026-05-02T15:28:02Z</time></trkpt><trkpt lat="45.801615125126" lon="13.740820722903717"><ele>251.0</ele><time>2026-05-02T15:28:04Z</time></trkpt><trkpt lat="45.8016483342164" lon="13.740664732492332"><ele>252.0</ele><time>2026-05-02T15:28:06Z</time></trkpt><trkpt lat="45.80172627162455" lon="13.740524987341711"><ele>252.0</ele><time>2026-05-02T15:28:08Z</time></trkpt><trkpt lat="45.80176019731285" lon="13.740448661396838"><ele>252.0</ele><time>2026-05-02T15:28:09Z</time></trkpt><trkpt lat="45.80181565369064" lon="13.740279757371335"><ele>252.0</ele><time>2026-05-02T15:28:11Z</time></trkpt><trkpt lat="45.80183217431559" lon="13.740187921733696"><ele>252.0</ele><time>2026-05-02T15:28:12Z</time></trkpt><trkpt lat="45.80183093096246" lon="13.74008261841649"><ele>252.0</ele><time>2026-05-02T15:28:13Z</time></trkpt><trkpt lat="45.80182066050858" lon="13.739969470194374"><ele>252.0</ele><time>2026-05-02T15:28:14Z</time></trkpt><trkpt lat="45.80181806808722" lon="13.739857930573319"><ele>252.39999999999998</ele><time>2026-05-02T15:28:15Z</time></trkpt><trkpt lat="45.80180399214871" lon="13.739760011077715"><ele>252.79999999999998</ele><time>2026-05-02T15:28:16Z</time></trkpt><trkpt lat="45.80179390384527" lon="13.739614053293655"><ele>253.2</ele><time>2026-05-02T15:28:18Z</time></trkpt><trkpt lat="45.80182628172051" lon="13.739484269697485"><ele>253.6</ele><time>2026-05-02T15:28:19.999Z</time></trkpt><trkpt lat="45.80189864115203" lon="13.739321392698473"><ele>254.0</ele><time>2026-05-02T15:28:21.999Z</time></trkpt><trkpt lat="45.80193237708619" lon="13.739230605784721"><ele>253.79999999999998</ele><time>2026-05-02T15:28:22.999Z</time></trkpt><trkpt lat="45.80196226976154" lon="13.739057730818148"><ele>253.59999999999997</ele><time>2026-05-02T15:28:24.999Z</time></trkpt><trkpt lat="45.80197315666087" lon="13.738880468147077"><ele>253.4</ele><time>2026-05-02T15:28:26.999Z</time></trkpt><trkpt lat="45.8019727822258" lon="13.738790062991649"><ele>253.2</ele><time>2026-05-02T15:28:27.999Z</time></trkpt><trkpt lat="45.80197415380712" lon="13.738620657140261"><ele>253.0</ele><time>2026-05-02T15:28:29.999Z</time></trkpt><trkpt lat="45.801985267458996" lon="13.738461285034136"><ele>252.99999999999997</ele><time>2026-05-02T15:28:31.999Z</time></trkpt><trkpt lat="45.802011728848335" lon="13.738290902060289"><ele>253.0</ele><time>2026-05-02T15:28:33.999Z</time></trkpt><trkpt lat="45.80201826612973" lon="13.738199998970575"><ele>253.0</ele><time>2026-05-02T15:28:34.999Z</time></trkpt><trkpt lat="45.80204591920447" lon="13.738114618031299"><ele>253.0</ele><time>2026-05-02T15:28:35.999Z</time></trkpt><trkpt lat="45.80208268407456" lon="13.738022569932967"><ele>252.99999999999997</ele><time>2026-05-02T15:28:36.999Z</time></trkpt><trkpt lat="45.80212978697784" lon="13.737935444998174"><ele>253.0</ele><time>2026-05-02T15:28:37.999Z</time></trkpt><trkpt lat="45.80217073836699" lon="13.737838238761876"><ele>252.99999999999997</ele><time>2026-05-02T15:28:38.999Z</time></trkpt><trkpt lat="45.80221514336791" lon="13.737744630641076"><ele>253.0</ele><time>2026-05-02T15:28:39.999Z</time></trkpt><trkpt lat="45.802259094713314" lon="13.737647871978153"><ele>253.0</ele><time>2026-05-02T15:28:40.999Z</time></trkpt><trkpt lat="45.80230410140992" lon="13.737550296170275"><ele>253.0</ele><time>2026-05-02T15:28:41.999Z</time></trkpt><trkpt lat="45.80234401097199" lon="13.737465475864662"><ele>252.99999999999997</ele><time>2026-05-02T15:28:42.999Z</time></trkpt><trkpt lat="45.80239153356899" lon="13.737374248526528"><ele>253.0</ele><time>2026-05-02T15:28:43.999Z</time></trkpt><trkpt lat="45.80243524845712" lon="13.737287546357013"><ele>253.8571428571429</ele><time>2026-05-02T15:28:44.999Z</time></trkpt><trkpt lat="45.80249228222816" lon="13.737219765573373"><ele>254.71428571428572</ele><time>2026-05-02T15:28:45.999Z</time></trkpt><trkpt lat="45.80254271885345" lon="13.737134241601002"><ele>255.57142857142858</ele><time>2026-05-02T15:28:46.999Z</time></trkpt><trkpt lat="45.80258675684546" lon="13.737062763588089"><ele>256.42857142857144</ele><time>2026-05-02T15:28:47.999Z</time></trkpt><trkpt lat="45.80263212291033" lon="13.736989180976904"><ele>257.2857142857143</ele><time>2026-05-02T15:28:48.999Z</time></trkpt><trkpt lat="45.80267858810069" lon="13.736914567032201"><ele>258.14285714285717</ele><time>2026-05-02T15:28:49.999Z</time></trkpt><trkpt lat="45.802727222648414" lon="13.736836691534876"><ele>259.0</ele><time>2026-05-02T15:28:50.999Z</time></trkpt><trkpt lat="45.80276675150601" lon="13.73675610548823"><ele>259.0</ele><time>2026-05-02T15:28:51.999Z</time></trkpt><trkpt lat="45.8028189633424" lon="13.73668490756979"><ele>259.0</ele><time>2026-05-02T15:28:52.999Z</time></trkpt><trkpt lat="45.80287290082028" lon="13.736610694890926"><ele>259.0</ele><time>2026-05-02T15:28:53.999Z</time></trkpt><trkpt lat="45.8029231009968" lon="13.736551388292792"><ele>259.0</ele><time>2026-05-02T15:28:54.998Z</time></trkpt><trkpt lat="45.802970870945245" lon="13.736490707036504"><ele>259.0</ele><time>2026-05-02T15:28:55.998Z</time></trkpt><trkpt lat="45.80301852142697" lon="13.73643059946868"><ele>259.0</ele><time>2026-05-02T15:28:56.998Z</time></trkpt><trkpt lat="45.80306311561308" lon="13.736365657181564"><ele>259.0</ele><time>2026-05-02T15:28:57.998Z</time></trkpt><trkpt lat="45.80314773854233" lon="13.73627561883862"><ele>259.0</ele><time>2026-05-02T15:28:59.998Z</time></trkpt><trkpt lat="45.803224589986215" lon="13.736181884703676"><ele>259.0</ele><time>2026-05-02T15:29:01.998Z</time></trkpt><trkpt lat="45.80330890124481" lon="13.736076737909215"><ele>259.0</ele><time>2026-05-02T15:29:03.998Z</time></trkpt><trkpt lat="45.80338365318721" lon="13.73595105000513"><ele>259.0</ele><time>2026-05-02T15:29:05.998Z</time></trkpt><trkpt lat="45.80347937913609" lon="13.735828884399753"><ele>259.0</ele><time>2026-05-02T15:29:07.998Z</time></trkpt><trkpt lat="45.803537116807" lon="13.73577266213368"><ele>259.0</ele><time>2026-05-02T15:29:08.998Z</time></trkpt><trkpt lat="45.803587670235515" lon="13.735700183310696"><ele>259.0</ele><time>2026-05-02T15:29:09.998Z</time></trkpt><trkpt lat="45.80363517100863" lon="13.735625142357772"><ele>259.0</ele><time>2026-05-02T15:29:10.998Z</time></trkpt><trkpt lat="45.803681733416326" lon="13.735547839904713"><ele>259.0</ele><time>2026-05-02T15:29:11.998Z</time></trkpt><trkpt lat="45.803754742281974" lon="13.735405829005302"><ele>259.0</ele><time>2026-05-02T15:29:13.998Z</time></trkpt><trkpt lat="45.80384433314631" lon="13.73528117810599"><ele>258.42857142857144</ele><time>2026-05-02T15:29:15.998Z</time></trkpt><trkpt lat="45.803891914620515" lon="13.735208406426622"><ele>257.8571428571429</ele><time>2026-05-02T15:29:16.998Z</time></trkpt><trkpt lat="45.803930472547584" lon="13.735125519385594"><ele>257.2857142857143</ele><time>2026-05-02T15:29:17.998Z</time></trkpt><trkpt lat="45.80396136643852" lon="13.735016709535188"><ele>256.7142857142857</ele><time>2026-05-02T15:29:18.998Z</time></trkpt><trkpt lat="45.804013709107565" lon="13.734945827363465"><ele>256.14285714285717</ele><time>2026-05-02T15:29:19.998Z</time></trkpt><trkpt lat="45.80403425280822" lon="13.734858489637801"><ele>255.57142857142858</ele><time>2026-05-02T15:29:20.998Z</time></trkpt><trkpt lat="45.80406843295362" lon="13.734771153716357"><ele>255.0</ele><time>2026-05-02T15:29:21.998Z</time></trkpt><trkpt lat="45.804102613934866" lon="13.73468489844585"><ele>255.0</ele><time>2026-05-02T15:29:22.998Z</time></trkpt><trkpt lat="45.80413656243279" lon="13.734599507368733"><ele>255.0</ele><time>2026-05-02T15:29:23.998Z</time></trkpt><trkpt lat="45.804174503806166" lon="13.734523542444146"><ele>255.0</ele><time>2026-05-02T15:29:24.998Z</time></trkpt><trkpt lat="45.80420678236259" lon="13.73444477021122"><ele>255.0</ele><time>2026-05-02T15:29:25.998Z</time></trkpt><trkpt lat="45.80426805070916" lon="13.734287283176586"><ele>255.0</ele><time>2026-05-02T15:29:27.998Z</time></trkpt><trkpt lat="45.804297406828184" lon="13.734202820512214"><ele>255.0</ele><time>2026-05-02T15:29:28.997Z</time></trkpt><trkpt lat="45.80435293476321" lon="13.734040146066187"><ele>254.83333333333334</ele><time>2026-05-02T15:29:30.997Z</time></trkpt><trkpt lat="45.80438259294198" lon="13.733956855892927"><ele>254.66666666666669</ele><time>2026-05-02T15:29:31.997Z</time></trkpt><trkpt lat="45.80442692438991" lon="13.733886024048052"><ele>254.5</ele><time>2026-05-02T15:29:32.997Z</time></trkpt><trkpt lat="45.80446085999135" lon="13.733802629226746"><ele>254.33333333333334</ele><time>2026-05-02T15:29:33.997Z</time></trkpt><trkpt lat="45.804523296709256" lon="13.733661287984365"><ele>254.16666666666669</ele><time>2026-05-02T15:29:35.997Z</time></trkpt><trkpt lat="45.80458076755192" lon="13.73353761515165"><ele>254.0</ele><time>2026-05-02T15:29:37.997Z</time></trkpt><trkpt lat="45.80464059514969" lon="13.733419499528601"><ele>254.0</ele><time>2026-05-02T15:29:39.997Z</time></trkpt><trkpt lat="45.80472618874901" lon="13.733270523077062"><ele>253.99999999999997</ele><time>2026-05-02T15:29:41.997Z</time></trkpt><trkpt lat="45.804778026764126" lon="13.733167358969688"><ele>253.99999999999997</ele><time>2026-05-02T15:29:42.997Z</time></trkpt><trkpt lat="45.8048428412261" lon="13.733096216801806"><ele>254.0</ele><time>2026-05-02T15:29:43.997Z</time></trkpt><trkpt lat="45.804899517406646" lon="13.733019053129679"><ele>254.0</ele><time>2026-05-02T15:29:44.997Z</time></trkpt><trkpt lat="45.80496580464361" lon="13.732975553484401"><ele>254.00000000000003</ele><time>2026-05-02T15:29:45.997Z</time></trkpt><trkpt lat="45.80501678537216" lon="13.732898371301388"><ele>254.0</ele><time>2026-05-02T15:29:46.997Z</time></trkpt><trkpt lat="45.80507099691319" lon="13.732850804777648"><ele>254.0</ele><time>2026-05-02T15:29:47.997Z</time></trkpt><trkpt lat="45.80518722788957" lon="13.732759627009273"><ele>254.0</ele><time>2026-05-02T15:29:49.997Z</time></trkpt><trkpt lat="45.80525473925118" lon="13.732716538685391"><ele>254.00000000000003</ele><time>2026-05-02T15:29:50.997Z</time></trkpt><trkpt lat="45.805327142116" lon="13.732677960271467"><ele>254.0</ele><time>2026-05-02T15:29:51.997Z</time></trkpt><trkpt lat="45.80540472098403" lon="13.732644968971552"><ele>253.28571428571428</ele><time>2026-05-02T15:29:52.997Z</time></trkpt><trkpt lat="45.80548331113045" lon="13.732601873185734"><ele>252.57142857142856</ele><time>2026-05-02T15:29:53.997Z</time></trkpt><trkpt lat="45.80556300584544" lon="13.7325904847326"><ele>251.85714285714283</ele><time>2026-05-02T15:29:55Z</time></trkpt><trkpt lat="45.80563003785843" lon="13.732568219857335"><ele>251.14285714285714</ele><time>2026-05-02T15:29:56Z</time></trkpt><trkpt lat="45.805696522972134" lon="13.73254668805479"><ele>250.4285714285714</ele><time>2026-05-02T15:29:57Z</time></trkpt><trkpt lat="45.80576741849605" lon="13.732523756519184"><ele>249.7142857142857</ele><time>2026-05-02T15:29:58Z</time></trkpt><trkpt lat="45.80583073369121" lon="13.732479647680607"><ele>249.0</ele><time>2026-05-02T15:29:59Z</time></trkpt><trkpt lat="45.805899104165604" lon="13.732466225807153"><ele>249.0</ele><time>2026-05-02T15:30:00Z</time></trkpt><trkpt lat="45.805968539351746" lon="13.73243988418713"><ele>248.99999999999997</ele><time>2026-05-02T15:30:01Z</time></trkpt><trkpt lat="45.806033994490484" lon="13.732410960223802"><ele>249.0</ele><time>2026-05-02T15:30:02Z</time></trkpt><trkpt lat="45.806096204804156" lon="13.732372010548996"><ele>249.0</ele><time>2026-05-02T15:30:03Z</time></trkpt><trkpt lat="45.80615392598558" lon="13.732324100890724"><ele>248.99999999999997</ele><time>2026-05-02T15:30:04Z</time></trkpt><trkpt lat="45.806205419950544" lon="13.732267101217557"><ele>249.0</ele><time>2026-05-02T15:30:05Z</time></trkpt><trkpt lat="45.80628344666604" lon="13.73216171114753"><ele>249.0</ele><time>2026-05-02T15:30:07Z</time></trkpt><trkpt lat="45.80636151909951" lon="13.732071574323736"><ele>248.66666666666666</ele><time>2026-05-02T15:30:09Z</time></trkpt><trkpt lat="45.80643008446524" lon="13.731988652835879"><ele>248.33333333333331</ele><time>2026-05-02T15:30:11Z</time></trkpt><trkpt lat="45.80650068209342" lon="13.731905338379793"><ele>248.0</ele><time>2026-05-02T15:30:13Z</time></trkpt><trkpt lat="45.806577494379404" lon="13.731861154316315"><ele>247.66666666666666</ele><time>2026-05-02T15:30:15Z</time></trkpt><trkpt lat="45.806650944054475" lon="13.731819886922123"><ele>247.33333333333331</ele><time>2026-05-02T15:30:17Z</time></trkpt><trkpt lat="45.80672723641883" lon="13.731785915004792"><ele>247.0</ele><time>2026-05-02T15:30:19Z</time></trkpt><trkpt lat="45.80679436970379" lon="13.731756281447026"><ele>246.33333333333331</ele><time>2026-05-02T15:30:21Z</time></trkpt><trkpt lat="45.80685848751148" lon="13.731725083975803"><ele>245.66666666666666</ele><time>2026-05-02T15:30:23Z</time></trkpt><trkpt lat="45.80694926997498" lon="13.731681946250841"><ele>245.0</ele><time>2026-05-02T15:30:24.999Z</time></trkpt><trkpt lat="45.807043210992816" lon="13.731664737916017"><ele>244.33333333333331</ele><time>2026-05-02T15:30:26.999Z</time></trkpt><trkpt lat="45.80710642494629" lon="13.731656242202988"><ele>243.66666666666666</ele><time>2026-05-02T15:30:27.999Z</time></trkpt><trkpt lat="45.807177718350154" lon="13.731649264905894"><ele>243.0</ele><time>2026-05-02T15:30:28.999Z</time></trkpt><trkpt lat="45.807234401969005" lon="13.731605585903926"><ele>243.0</ele><time>2026-05-02T15:30:29.999Z</time></trkpt><trkpt lat="45.807304015586475" lon="13.731586497044514"><ele>243.0</ele><time>2026-05-02T15:30:30.999Z</time></trkpt><trkpt lat="45.80737054284941" lon="13.731531488769805"><ele>243.0</ele><time>2026-05-02T15:30:31.999Z</time></trkpt><trkpt lat="45.80743281604999" lon="13.731476045923605"><ele>243.0</ele><time>2026-05-02T15:30:32.999Z</time></trkpt><trkpt lat="45.807495891802155" lon="13.731416340952753"><ele>243.0</ele><time>2026-05-02T15:30:33.999Z</time></trkpt><trkpt lat="45.80756358787055" lon="13.731338258292713"><ele>243.0</ele><time>2026-05-02T15:30:34.999Z</time></trkpt><trkpt lat="45.807624993776805" lon="13.731253542872151"><ele>242.8</ele><time>2026-05-02T15:30:35.999Z</time></trkpt><trkpt lat="45.8076900171973" lon="13.731168955432803"><ele>242.60000000000002</ele><time>2026-05-02T15:30:36.999Z</time></trkpt><trkpt lat="45.80774678947413" lon="13.73111127200098"><ele>242.39999999999998</ele><time>2026-05-02T15:30:37.999Z</time></trkpt><trkpt lat="45.80786269319526" lon="13.731015908114106"><ele>242.2</ele><time>2026-05-02T15:30:39.999Z</time></trkpt><trkpt lat="45.807944044041925" lon="13.7309481917534"><ele>242.0</ele><time>2026-05-02T15:30:40.999Z</time></trkpt><trkpt lat="45.808031303913616" lon="13.730866168300112"><ele>242.00000000000003</ele><time>2026-05-02T15:30:41.999Z</time></trkpt><trkpt lat="45.80808793395631" lon="13.730802126170758"><ele>242.0</ele><time>2026-05-02T15:30:42.999Z</time></trkpt><trkpt lat="45.80813927901557" lon="13.730734331362703"><ele>242.0</ele><time>2026-05-02T15:30:43.999Z</time></trkpt><trkpt lat="45.80818847465924" lon="13.730665679474459"><ele>242.0</ele><time>2026-05-02T15:30:44.999Z</time></trkpt><trkpt lat="45.80824471050811" lon="13.730577993412002"><ele>242.00000000000003</ele><time>2026-05-02T15:30:45.999Z</time></trkpt><trkpt lat="45.808308956622355" lon="13.730468693328714"><ele>242.0</ele><time>2026-05-02T15:30:46.999Z</time></trkpt><trkpt lat="45.80837532828121" lon="13.730392870433382"><ele>242.00000000000003</ele><time>2026-05-02T15:30:47.999Z</time></trkpt><trkpt lat="45.80842270405209" lon="13.730316281643306"><ele>242.0</ele><time>2026-05-02T15:30:48.999Z</time></trkpt><trkpt lat="45.80847626290708" lon="13.730236335270508"><ele>242.0</ele><time>2026-05-02T15:30:49.999Z</time></trkpt><trkpt lat="45.808532076472204" lon="13.730127733588143"><ele>242.0</ele><time>2026-05-02T15:30:50.999Z</time></trkpt><trkpt lat="45.80860249440579" lon="13.730044495216926"><ele>242.00000000000003</ele><time>2026-05-02T15:30:51.999Z</time></trkpt><trkpt lat="45.80866486149625" lon="13.729955233784704"><ele>242.0</ele><time>2026-05-02T15:30:52.999Z</time></trkpt><trkpt lat="45.80873457410797" lon="13.729841510692022"><ele>242.16666666666669</ele><time>2026-05-02T15:30:53.999Z</time></trkpt><trkpt lat="45.80879291961777" lon="13.72974149307334"><ele>242.33333333333334</ele><time>2026-05-02T15:30:54.999Z</time></trkpt><trkpt lat="45.80884389483652" lon="13.729653194176825"><ele>242.5</ele><time>2026-05-02T15:30:55.999Z</time></trkpt><trkpt lat="45.80888695711679" lon="13.72957958749702"><ele>242.66666666666669</ele><time>2026-05-02T15:30:56.999Z</time></trkpt><trkpt lat="45.8089558668265" lon="13.729439480945281"><ele>242.83333333333334</ele><time>2026-05-02T15:30:58.998Z</time></trkpt><trkpt lat="45.809020731208626" lon="13.72934938435226"><ele>243.0</ele><time>2026-05-02T15:31:00.998Z</time></trkpt><trkpt lat="45.809068686747764" lon="13.729245811665761"><ele>243.0</ele><time>2026-05-02T15:31:02.998Z</time></trkpt><trkpt lat="45.809127681435335" lon="13.72915011914328"><ele>243.0</ele><time>2026-05-02T15:31:04.998Z</time></trkpt><trkpt lat="45.80917327590944" lon="13.729061471927999"><ele>243.0</ele><time>2026-05-02T15:31:06.998Z</time></trkpt><trkpt lat="45.809260780741916" lon="13.728900498739838"><ele>243.0</ele><time>2026-05-02T15:31:08.998Z</time></trkpt><trkpt lat="45.809316809902064" lon="13.72880122848916"><ele>243.0</ele><time>2026-05-02T15:31:09.998Z</time></trkpt><trkpt lat="45.80936362654152" lon="13.728707253902286"><ele>243.4</ele><time>2026-05-02T15:31:10.998Z</time></trkpt><trkpt lat="45.80940267297383" lon="13.728623269581439"><ele>243.8</ele><time>2026-05-02T15:31:11.998Z</time></trkpt><trkpt lat="45.80943693997886" lon="13.728476514202814"><ele>244.2</ele><time>2026-05-02T15:31:13.998Z</time></trkpt><trkpt lat="45.80947099525799" lon="13.728302428167632"><ele>244.6</ele><time>2026-05-02T15:31:15.998Z</time></trkpt><trkpt lat="45.80951070957425" lon="13.728198343735567"><ele>245.0</ele><time>2026-05-02T15:31:16.998Z</time></trkpt><trkpt lat="45.809515822518236" lon="13.728079339398548"><ele>245.16666666666669</ele><time>2026-05-02T15:31:17.998Z</time></trkpt><trkpt lat="45.80953547813356" lon="13.727967146108007"><ele>245.33333333333334</ele><time>2026-05-02T15:31:18.998Z</time></trkpt><trkpt lat="45.80955768332777" lon="13.727855161474263"><ele>245.5</ele><time>2026-05-02T15:31:19.998Z</time></trkpt><trkpt lat="45.80958487449694" lon="13.727750632162046"><ele>245.66666666666669</ele><time>2026-05-02T15:31:20.998Z</time></trkpt><trkpt lat="45.809637660518234" lon="13.727604746903918"><ele>245.83333333333334</ele><time>2026-05-02T15:31:22.998Z</time></trkpt><trkpt lat="45.80966297956129" lon="13.72750736239129"><ele>246.0</ele><time>2026-05-02T15:31:24.998Z</time></trkpt><trkpt lat="45.80963073216119" lon="13.727343118890188"><ele>246.0</ele><time>2026-05-02T15:31:27.998Z</time></trkpt><trkpt lat="45.809572759097506" lon="13.72725240438866"><ele>246.0</ele><time>2026-05-02T15:31:28.998Z</time></trkpt><trkpt lat="45.80948694082488" lon="13.727142251540178"><ele>246.0</ele><time>2026-05-02T15:31:29.998Z</time></trkpt><trkpt lat="45.80940080252054" lon="13.727025120462695"><ele>246.0</ele><time>2026-05-02T15:31:30.998Z</time></trkpt><trkpt lat="45.80928514561782" lon="13.726868535547732"><ele>244.66666666666669</ele><time>2026-05-02T15:31:31.998Z</time></trkpt><trkpt lat="45.80916387353363" lon="13.72669722942337"><ele>243.33333333333334</ele><time>2026-05-02T15:31:32.998Z</time></trkpt><trkpt lat="45.80904395028905" lon="13.726532864242518"><ele>242.0</ele><time>2026-05-02T15:31:33.997Z</time></trkpt><trkpt lat="45.808921251778514" lon="13.726365801875618"><ele>242.0</ele><time>2026-05-02T15:31:34.997Z</time></trkpt><trkpt lat="45.80879625013521" lon="13.726190742809067"><ele>242.0</ele><time>2026-05-02T15:31:35.997Z</time></trkpt><trkpt lat="45.80867503225899" lon="13.726025474437824"><ele>242.0</ele><time>2026-05-02T15:31:36.997Z</time></trkpt><trkpt lat="45.80854698740423" lon="13.725860797615727"><ele>242.33333333333334</ele><time>2026-05-02T15:31:37.997Z</time></trkpt><trkpt lat="45.80841414336959" lon="13.72568079941891"><ele>242.66666666666669</ele><time>2026-05-02T15:31:38.997Z</time></trkpt><trkpt lat="45.80828735150655" lon="13.725508711076436"><ele>243.0</ele><time>2026-05-02T15:31:39.997Z</time></trkpt><trkpt lat="45.808159286740796" lon="13.725333484831939"><ele>241.33333333333331</ele><time>2026-05-02T15:31:40.997Z</time></trkpt><trkpt lat="45.808020579259455" lon="13.725144999967155"><ele>239.66666666666666</ele><time>2026-05-02T15:31:41.997Z</time></trkpt><trkpt lat="45.80787295204782" lon="13.72495357666483"><ele>238.0</ele><time>2026-05-02T15:31:42.997Z</time></trkpt><trkpt lat="45.80773530374946" lon="13.724771660190614"><ele>237.66666666666666</ele><time>2026-05-02T15:31:43.997Z</time></trkpt><trkpt lat="45.80760530154213" lon="13.724604211091872"><ele>237.33333333333331</ele><time>2026-05-02T15:31:44.997Z</time></trkpt><trkpt lat="45.807469776411956" lon="13.724434411889268"><ele>237.0</ele><time>2026-05-02T15:31:45.997Z</time></trkpt><trkpt lat="45.80730626224346" lon="13.72426143257198"><ele>237.0</ele><time>2026-05-02T15:31:46.997Z</time></trkpt><trkpt lat="45.807149580457" lon="13.72411271367745"><ele>237.0</ele><time>2026-05-02T15:31:47.997Z</time></trkpt><trkpt lat="45.807011224180854" lon="13.723971264515866"><ele>237.0</ele><time>2026-05-02T15:31:48.997Z</time></trkpt><trkpt lat="45.80688614139345" lon="13.723825001475046"><ele>237.0</ele><time>2026-05-02T15:31:49.997Z</time></trkpt><trkpt lat="45.806773007412595" lon="13.723683813417164"><ele>237.0</ele><time>2026-05-02T15:31:50.997Z</time></trkpt><trkpt lat="45.80667687670871" lon="13.723541138263851"><ele>237.0</ele><time>2026-05-02T15:31:51.997Z</time></trkpt><trkpt lat="45.8066118965326" lon="13.723377030534735"><ele>237.0</ele><time>2026-05-02T15:31:52.997Z</time></trkpt><trkpt lat="45.80657018310342" lon="13.723211177720362"><ele>236.5</ele><time>2026-05-02T15:31:53.997Z</time></trkpt><trkpt lat="45.80655255873017" lon="13.723025561062682"><ele>236.0</ele><time>2026-05-02T15:31:54.997Z</time></trkpt><trkpt lat="45.80655224333834" lon="13.72281479623843"><ele>235.5</ele><time>2026-05-02T15:31:55.997Z</time></trkpt><trkpt lat="45.80653803056374" lon="13.722585814696656"><ele>235.0</ele><time>2026-05-02T15:31:56.997Z</time></trkpt><trkpt lat="45.806539686706955" lon="13.722368978727257"><ele>234.0</ele><time>2026-05-02T15:31:57.997Z</time></trkpt><trkpt lat="45.806507911748085" lon="13.722163329418327"><ele>233.0</ele><time>2026-05-02T15:31:58.997Z</time></trkpt><trkpt lat="45.80644840509199" lon="13.721945351256503"><ele>232.0</ele><time>2026-05-02T15:31:59.997Z</time></trkpt><trkpt lat="45.806384947885476" lon="13.721714328908101"><ele>230.66666666666666</ele><time>2026-05-02T15:32:01Z</time></trkpt><trkpt lat="45.8063252007086" lon="13.721482749359035"><ele>229.33333333333331</ele><time>2026-05-02T15:32:02Z</time></trkpt><trkpt lat="45.80627120518119" lon="13.721228542452945"><ele>228.0</ele><time>2026-05-02T15:32:03Z</time></trkpt><trkpt lat="45.80623336040187" lon="13.720954933606379"><ele>227.33333333333331</ele><time>2026-05-02T15:32:04Z</time></trkpt><trkpt lat="45.80620808199671" lon="13.720670387126107"><ele>226.66666666666666</ele><time>2026-05-02T15:32:05Z</time></trkpt><trkpt lat="45.80619038918399" lon="13.72039693383936"><ele>226.0</ele><time>2026-05-02T15:32:06Z</time></trkpt><trkpt lat="45.80617708152937" lon="13.720131505165378"><ele>225.66666666666666</ele><time>2026-05-02T15:32:07Z</time></trkpt><trkpt lat="45.806169183684524" lon="13.719875754439258"><ele>225.33333333333331</ele><time>2026-05-02T15:32:08Z</time></trkpt><trkpt lat="45.806158571524314" lon="13.71963836455327"><ele>225.0</ele><time>2026-05-02T15:32:09Z</time></trkpt><trkpt lat="45.8061386236796" lon="13.719415822942892"><ele>225.0</ele><time>2026-05-02T15:32:10Z</time></trkpt><trkpt lat="45.80610562684227" lon="13.719198996657001"><ele>225.0</ele><time>2026-05-02T15:32:11Z</time></trkpt><trkpt lat="45.80605314008222" lon="13.718996468429292"><ele>225.0</ele><time>2026-05-02T15:32:12Z</time></trkpt><trkpt lat="45.805972409046" lon="13.718810249628332"><ele>225.33333333333331</ele><time>2026-05-02T15:32:13Z</time></trkpt><trkpt lat="45.80587527743304" lon="13.71863383531549"><ele>225.66666666666666</ele><time>2026-05-02T15:32:14Z</time></trkpt><trkpt lat="45.80577882212173" lon="13.71845216811898"><ele>226.0</ele><time>2026-05-02T15:32:15Z</time></trkpt><trkpt lat="45.805683077388295" lon="13.71825399906098"><ele>224.66666666666666</ele><time>2026-05-02T15:32:16Z</time></trkpt><trkpt lat="45.805576786428624" lon="13.718050772319408"><ele>223.33333333333331</ele><time>2026-05-02T15:32:17Z</time></trkpt><trkpt lat="45.80546616055085" lon="13.717862196580842"><ele>222.0</ele><time>2026-05-02T15:32:18Z</time></trkpt><trkpt lat="45.80534427572433" lon="13.717705301230662"><ele>221.0</ele><time>2026-05-02T15:32:19Z</time></trkpt><trkpt lat="45.80520766012141" lon="13.717570081522984"><ele>220.0</ele><time>2026-05-02T15:32:20Z</time></trkpt><trkpt lat="45.805058468764116" lon="13.717445232597226"><ele>219.0</ele><time>2026-05-02T15:32:21Z</time></trkpt><trkpt lat="45.80491748542917" lon="13.717306944574853"><ele>219.0</ele><time>2026-05-02T15:32:22Z</time></trkpt><trkpt lat="45.80481508932138" lon="13.717135298649225"><ele>219.0</ele><time>2026-05-02T15:32:23Z</time></trkpt><trkpt lat="45.804718654445075" lon="13.716974394470473"><ele>219.0</ele><time>2026-05-02T15:32:24Z</time></trkpt><trkpt lat="45.80462030764125" lon="13.71680782680653"><ele>218.25</ele><time>2026-05-02T15:32:25Z</time></trkpt><trkpt lat="45.804566696252195" lon="13.716620347284703"><ele>217.5</ele><time>2026-05-02T15:32:26Z</time></trkpt><trkpt lat="45.8045014146774" lon="13.716436475895684"><ele>216.75</ele><time>2026-05-02T15:32:27Z</time></trkpt><trkpt lat="45.80441582267528" lon="13.716250828947521"><ele>216.0</ele><time>2026-05-02T15:32:28Z</time></trkpt><trkpt lat="45.8043456575508" lon="13.716055152379022"><ele>214.25</ele><time>2026-05-02T15:32:29Z</time></trkpt><trkpt lat="45.804268339590536" lon="13.715866548152565"><ele>212.5</ele><time>2026-05-02T15:32:29.999Z</time></trkpt><trkpt lat="45.804187243486844" lon="13.71568247150128"><ele>210.75</ele><time>2026-05-02T15:32:30.999Z</time></trkpt><trkpt lat="45.8041159925252" lon="13.715506611055538"><ele>209.0</ele><time>2026-05-02T15:32:31.999Z</time></trkpt><trkpt lat="45.80404302149418" lon="13.715342071045141"><ele>208.75</ele><time>2026-05-02T15:32:32.999Z</time></trkpt><trkpt lat="45.803967437930346" lon="13.715190334888893"><ele>208.5</ele><time>2026-05-02T15:32:33.999Z</time></trkpt><trkpt lat="45.803891624367" lon="13.715058245672589"><ele>208.25</ele><time>2026-05-02T15:32:34.999Z</time></trkpt><trkpt lat="45.803808403031056" lon="13.714945110637448"><ele>208.0</ele><time>2026-05-02T15:32:35.999Z</time></trkpt><trkpt lat="45.803721113493864" lon="13.714839873757898"><ele>208.0</ele><time>2026-05-02T15:32:36.999Z</time></trkpt><trkpt lat="45.80362386976362" lon="13.714740120282597"><ele>208.0</ele><time>2026-05-02T15:32:37.999Z</time></trkpt><trkpt lat="45.803525166354795" lon="13.714642237315998"><ele>208.0</ele><time>2026-05-02T15:32:38.999Z</time></trkpt><trkpt lat="45.80342902631128" lon="13.71455343302451"><ele>208.0</ele><time>2026-05-02T15:32:39.999Z</time></trkpt><trkpt lat="45.80332770433181" lon="13.71450326359037"><ele>207.60000000000002</ele><time>2026-05-02T15:32:40.999Z</time></trkpt><trkpt lat="45.80321860005561" lon="13.714505009192331"><ele>207.20000000000002</ele><time>2026-05-02T15:32:41.999Z</time></trkpt><trkpt lat="45.80310893975376" lon="13.714541212324544"><ele>206.8</ele><time>2026-05-02T15:32:42.999Z</time></trkpt><trkpt lat="45.80300314065345" lon="13.714553006114718"><ele>206.4</ele><time>2026-05-02T15:32:43.999Z</time></trkpt><trkpt lat="45.802904210844616" lon="13.71454883487986"><ele>206.0</ele><time>2026-05-02T15:32:44.999Z</time></trkpt><trkpt lat="45.80280717535978" lon="13.714553472471623"><ele>205.99999999999997</ele><time>2026-05-02T15:32:45.999Z</time></trkpt><trkpt lat="45.80272200151971" lon="13.714527288917042"><ele>206.0</ele><time>2026-05-02T15:32:46.999Z</time></trkpt><trkpt lat="45.802657738425076" lon="13.714508757799093"><ele>206.0</ele><time>2026-05-02T15:32:47.999Z</time></trkpt><trkpt lat="45.802594959999155" lon="13.714469408654095"><ele>206.0</ele><time>2026-05-02T15:32:48.999Z</time></trkpt><trkpt lat="45.802527942212954" lon="13.714414715889026"><ele>206.0</ele><time>2026-05-02T15:32:49.999Z</time></trkpt><trkpt lat="45.80247033730208" lon="13.714354370392474"><ele>205.99999999999997</ele><time>2026-05-02T15:32:50.999Z</time></trkpt><trkpt lat="45.80240758513075" lon="13.714287340626313"><ele>206.0</ele><time>2026-05-02T15:32:51.999Z</time></trkpt><trkpt lat="45.80235808381151" lon="13.714182096924787"><ele>205.4</ele><time>2026-05-02T15:32:52.999Z</time></trkpt><trkpt lat="45.80229097660949" lon="13.714072328739872"><ele>204.8</ele><time>2026-05-02T15:32:53.999Z</time></trkpt><trkpt lat="45.80225480956575" lon="13.71391638887586"><ele>204.20000000000002</ele><time>2026-05-02T15:32:54.999Z</time></trkpt><trkpt lat="45.802199199145804" lon="13.713778407514496"><ele>203.60000000000002</ele><time>2026-05-02T15:32:55.999Z</time></trkpt><trkpt lat="45.802168535853944" lon="13.713623593277271"><ele>203.0</ele><time>2026-05-02T15:32:56.999Z</time></trkpt><trkpt lat="45.80212920413523" lon="13.713461077889722"><ele>202.60000000000002</ele><time>2026-05-02T15:32:57.999Z</time></trkpt><trkpt lat="45.80209031926952" lon="13.71330442850588"><ele>202.20000000000002</ele><time>2026-05-02T15:32:58.999Z</time></trkpt><trkpt lat="45.80205900588077" lon="13.713149851193007"><ele>201.8</ele><time>2026-05-02T15:32:59.999Z</time></trkpt><trkpt lat="45.80202616020179" lon="13.713002740148237"><ele>201.4</ele><time>2026-05-02T15:33:00.999Z</time></trkpt><trkpt lat="45.80200319156609" lon="13.712852139710943"><ele>201.0</ele><time>2026-05-02T15:33:01.999Z</time></trkpt><trkpt lat="45.801991385236796" lon="13.712697437826337"><ele>200.8</ele><time>2026-05-02T15:33:02.999Z</time></trkpt><trkpt lat="45.801974628937415" lon="13.712549143497823"><ele>200.60000000000002</ele><time>2026-05-02T15:33:03.999Z</time></trkpt><trkpt lat="45.801975943979365" lon="13.712407005853658"><ele>200.4</ele><time>2026-05-02T15:33:04.998Z</time></trkpt><trkpt lat="45.801969529388536" lon="13.71227372013331"><ele>200.2</ele><time>2026-05-02T15:33:05.998Z</time></trkpt><trkpt lat="45.80193919560978" lon="13.71214550158256"><ele>200.0</ele><time>2026-05-02T15:33:06.998Z</time></trkpt><trkpt lat="45.80190376945135" lon="13.712018035183542"><ele>199.2</ele><time>2026-05-02T15:33:07.998Z</time></trkpt><trkpt lat="45.801878334258085" lon="13.711885801983104"><ele>198.4</ele><time>2026-05-02T15:33:08.998Z</time></trkpt><trkpt lat="45.801860544483596" lon="13.71175022304699"><ele>197.60000000000002</ele><time>2026-05-02T15:33:09.998Z</time></trkpt><trkpt lat="45.801839748252185" lon="13.71161611073534"><ele>196.8</ele><time>2026-05-02T15:33:10.998Z</time></trkpt><trkpt lat="45.80182885551635" lon="13.711482121275843"><ele>196.0</ele><time>2026-05-02T15:33:11.998Z</time></trkpt><trkpt lat="45.80181891386733" lon="13.711367285802458"><ele>196.0</ele><time>2026-05-02T15:33:12.998Z</time></trkpt><trkpt lat="45.80177548730185" lon="13.711264430708797"><ele>196.0</ele><time>2026-05-02T15:33:13.998Z</time></trkpt><trkpt lat="45.80171374281308" lon="13.711190493717314"><ele>196.0</ele><time>2026-05-02T15:33:14.998Z</time></trkpt><trkpt lat="45.801619817812686" lon="13.711148113071733"><ele>196.0</ele><time>2026-05-02T15:33:15.998Z</time></trkpt><trkpt lat="45.801507869022714" lon="13.711125953402703"><ele>196.0</ele><time>2026-05-02T15:33:16.998Z</time></trkpt><trkpt lat="45.801412385428954" lon="13.711096907511628"><ele>195.20000000000002</ele><time>2026-05-02T15:33:17.998Z</time></trkpt><trkpt lat="45.80133053894099" lon="13.711051145412851"><ele>194.4</ele><time>2026-05-02T15:33:18.998Z</time></trkpt><trkpt lat="45.80123074695581" lon="13.711045991419153"><ele>193.6</ele><time>2026-05-02T15:33:19.998Z</time></trkpt><trkpt lat="45.80110513283575" lon="13.71106033391422"><ele>192.8</ele><time>2026-05-02T15:33:20.998Z</time></trkpt><trkpt lat="45.80097927531193" lon="13.711066759545194"><ele>192.0</ele><time>2026-05-02T15:33:21.998Z</time></trkpt><trkpt lat="45.800861403410316" lon="13.711057996093588"><ele>190.75</ele><time>2026-05-02T15:33:22.998Z</time></trkpt><trkpt lat="45.80074244522235" lon="13.711067063772838"><ele>189.5</ele><time>2026-05-02T15:33:23.998Z</time></trkpt><trkpt lat="45.80061812690854" lon="13.7110678728399"><ele>188.25</ele><time>2026-05-02T15:33:24.998Z</time></trkpt><trkpt lat="45.80049743498805" lon="13.711019202224065"><ele>187.0</ele><time>2026-05-02T15:33:25.998Z</time></trkpt><trkpt lat="45.80038103999742" lon="13.710964558629572"><ele>187.0</ele><time>2026-05-02T15:33:26.998Z</time></trkpt><trkpt lat="45.8002676611474" lon="13.710869072904474"><ele>187.0</ele><time>2026-05-02T15:33:27.998Z</time></trkpt><trkpt lat="45.80014739550592" lon="13.710766857698841"><ele>187.0</ele><time>2026-05-02T15:33:28.998Z</time></trkpt><trkpt lat="45.80003492140733" lon="13.710665315408312"><ele>187.0</ele><time>2026-05-02T15:33:29.998Z</time></trkpt><trkpt lat="45.799928041225336" lon="13.71055597116725"><ele>186.75</ele><time>2026-05-02T15:33:30.998Z</time></trkpt><trkpt lat="45.799819635220445" lon="13.710460369551258"><ele>186.5</ele><time>2026-05-02T15:33:31.998Z</time></trkpt><trkpt lat="45.799727366468865" lon="13.710335867622161"><ele>186.25</ele><time>2026-05-02T15:33:32.998Z</time></trkpt><trkpt lat="45.79964386129208" lon="13.710213005718506"><ele>186.0</ele><time>2026-05-02T15:33:33.998Z</time></trkpt><trkpt lat="45.7995632249438" lon="13.710107155867485"><ele>184.4</ele><time>2026-05-02T15:33:34.998Z</time></trkpt><trkpt lat="45.79946993342557" lon="13.710038601425914"><ele>182.8</ele><time>2026-05-02T15:33:35.998Z</time></trkpt><trkpt lat="45.799369466147" lon="13.710009949305096"><ele>181.20000000000002</ele><time>2026-05-02T15:33:36.998Z</time></trkpt><trkpt lat="45.79926337815732" lon="13.710060535032731"><ele>179.60000000000002</ele><time>2026-05-02T15:33:37.998Z</time></trkpt><trkpt lat="45.799146186982085" lon="13.710089787927684"><ele>178.0</ele><time>2026-05-02T15:33:38.998Z</time></trkpt><trkpt lat="45.79902458927629" lon="13.710161004224961"><ele>177.0</ele><time>2026-05-02T15:33:39.997Z</time></trkpt><trkpt lat="45.798895676271265" lon="13.710237010097389"><ele>176.0</ele><time>2026-05-02T15:33:40.997Z</time></trkpt><trkpt lat="45.79876190224654" lon="13.710305569457809"><ele>175.0</ele><time>2026-05-02T15:33:41.997Z</time></trkpt><trkpt lat="45.79863035080013" lon="13.710382827341062"><ele>174.0</ele><time>2026-05-02T15:33:42.997Z</time></trkpt><trkpt lat="45.79849380273154" lon="13.710452291775699"><ele>177.66666666666666</ele><time>2026-05-02T15:33:43.997Z</time></trkpt><trkpt lat="45.79834526847231" lon="13.710525701785462"><ele>181.33333333333331</ele><time>2026-05-02T15:33:44.997Z</time></trkpt><trkpt lat="45.798196615814" lon="13.710604134106541"><ele>185.0</ele><time>2026-05-02T15:33:45.997Z</time></trkpt><trkpt lat="45.79806302277717" lon="13.710676698522503"><ele>185.0</ele><time>2026-05-02T15:33:46.997Z</time></trkpt><trkpt lat="45.797934335375714" lon="13.710734168727178"><ele>185.0</ele><time>2026-05-02T15:33:47.997Z</time></trkpt><trkpt lat="45.79780445144713" lon="13.710741491611493"><ele>185.0</ele><time>2026-05-02T15:33:48.997Z</time></trkpt><trkpt lat="45.79768628845355" lon="13.710739575797183"><ele>185.0</ele><time>2026-05-02T15:33:49.997Z</time></trkpt><trkpt lat="45.7975700729417" lon="13.71074346833738"><ele>183.33333333333331</ele><time>2026-05-02T15:33:50.997Z</time></trkpt><trkpt lat="45.79746897358875" lon="13.710709170944499"><ele>181.66666666666666</ele><time>2026-05-02T15:33:51.997Z</time></trkpt><trkpt lat="45.797353186136384" lon="13.710665685217858"><ele>180.0</ele><time>2026-05-02T15:33:53.997Z</time></trkpt><trkpt lat="45.797369189301406" lon="13.71057687041619"><ele>178.33333333333334</ele><time>2026-05-02T15:34:01.997Z</time></trkpt><trkpt lat="45.79734471513865" lon="13.710482583184218"><ele>176.66666666666669</ele><time>2026-05-02T15:34:05.997Z</time></trkpt><trkpt lat="45.79737233918429" lon="13.710569596076748"><ele>175.0</ele><time>2026-05-02T15:35:14.998Z</time></trkpt><trkpt lat="45.79731310796432" lon="13.710611207936841"><ele>175.0</ele><time>2026-05-02T15:35:17.998Z</time></trkpt><trkpt lat="45.797214381596966" lon="13.710635305914117"><ele>175.0</ele><time>2026-05-02T15:35:20.998Z</time></trkpt><trkpt lat="45.797147413070675" lon="13.710600012951819"><ele>175.0</ele><time>2026-05-02T15:35:21.998Z</time></trkpt><trkpt lat="45.79706764911512" lon="13.710568618477357"><ele>175.0</ele><time>2026-05-02T15:35:22.998Z</time></trkpt><trkpt lat="45.796971154374496" lon="13.710530102336584"><ele>175.0</ele><time>2026-05-02T15:35:23.998Z</time></trkpt><trkpt lat="45.796878030986996" lon="13.710495327016757"><ele>173.5</ele><time>2026-05-02T15:35:24.998Z</time></trkpt><trkpt lat="45.79676752019574" lon="13.710456668539697"><ele>172.0</ele><time>2026-05-02T15:35:25.998Z</time></trkpt><trkpt lat="45.7966502744723" lon="13.710419544230291"><ele>170.5</ele><time>2026-05-02T15:35:26.998Z</time></trkpt><trkpt lat="45.79653008905006" lon="13.710381153168633"><ele>169.0</ele><time>2026-05-02T15:35:27.998Z</time></trkpt><trkpt lat="45.79640457223151" lon="13.7103382967587"><ele>169.0</ele><time>2026-05-02T15:35:28.998Z</time></trkpt><trkpt lat="45.79627412918697" lon="13.710292994436303"><ele>169.0</ele><time>2026-05-02T15:35:29.998Z</time></trkpt><trkpt lat="45.79613987166807" lon="13.710254385621562"><ele>169.0</ele><time>2026-05-02T15:35:30.998Z</time></trkpt><trkpt lat="45.79599551363935" lon="13.710211739817773"><ele>169.0</ele><time>2026-05-02T15:35:31.998Z</time></trkpt><trkpt lat="45.79585102858932" lon="13.71016966698181"><ele>167.33333333333334</ele><time>2026-05-02T15:35:32.998Z</time></trkpt><trkpt lat="45.79570382958712" lon="13.710126645369034"><ele>165.66666666666666</ele><time>2026-05-02T15:35:33.998Z</time></trkpt><trkpt lat="45.795549799613305" lon="13.710083194781484"><ele>164.0</ele><time>2026-05-02T15:35:34.998Z</time></trkpt><trkpt lat="45.79540565097004" lon="13.710035615195356"><ele>164.0</ele><time>2026-05-02T15:35:35.998Z</time></trkpt><trkpt lat="45.79525836494058" lon="13.709989440033295"><ele>164.0</ele><time>2026-05-02T15:35:36.998Z</time></trkpt><trkpt lat="45.79509143682825" lon="13.709929043805642"><ele>164.0</ele><time>2026-05-02T15:35:37.998Z</time></trkpt><trkpt lat="45.79491823327147" lon="13.709873719796098"><ele>163.5</ele><time>2026-05-02T15:35:38.998Z</time></trkpt><trkpt lat="45.794756489831116" lon="13.709833963990022"><ele>163.0</ele><time>2026-05-02T15:35:39.998Z</time></trkpt><trkpt lat="45.79461250823372" lon="13.709805177929992"><ele>162.5</ele><time>2026-05-02T15:35:40.998Z</time></trkpt><trkpt lat="45.794472604276805" lon="13.709803862514022"><ele>162.0</ele><time>2026-05-02T15:35:41.998Z</time></trkpt><trkpt lat="45.79433675856211" lon="13.70988100021188"><ele>162.0</ele><time>2026-05-02T15:35:42.998Z</time></trkpt><trkpt lat="45.79419373681577" lon="13.709940862437161"><ele>162.0</ele><time>2026-05-02T15:35:43.998Z</time></trkpt><trkpt lat="45.79405331691408" lon="13.710049988270217"><ele>162.0</ele><time>2026-05-02T15:35:44.998Z</time></trkpt><trkpt lat="45.79391381291125" lon="13.710140037824178"><ele>162.0</ele><time>2026-05-02T15:35:45.998Z</time></trkpt><trkpt lat="45.79377723501491" lon="13.710192159049651"><ele>162.0</ele><time>2026-05-02T15:35:46.998Z</time></trkpt><trkpt lat="45.79365814028029" lon="13.710168234978013"><ele>162.0</ele><time>2026-05-02T15:35:47.998Z</time></trkpt><trkpt lat="45.79355811863883" lon="13.710124862962806"><ele>162.0</ele><time>2026-05-02T15:35:48.997Z</time></trkpt><trkpt lat="45.79348421101574" lon="13.710041546152558"><ele>160.75</ele><time>2026-05-02T15:35:49.997Z</time></trkpt><trkpt lat="45.79340871284359" lon="13.70994039145367"><ele>159.5</ele><time>2026-05-02T15:35:50.997Z</time></trkpt><trkpt lat="45.793347108646316" lon="13.709796233477785"><ele>158.25</ele><time>2026-05-02T15:35:51.997Z</time></trkpt><trkpt lat="45.7932810977848" lon="13.70966253295813"><ele>157.0</ele><time>2026-05-02T15:35:52.997Z</time></trkpt><trkpt lat="45.79321097781293" lon="13.709517653350659"><ele>157.5</ele><time>2026-05-02T15:35:53.997Z</time></trkpt><trkpt lat="45.793119825189095" lon="13.709366233528295"><ele>158.0</ele><time>2026-05-02T15:35:54.997Z</time></trkpt><trkpt lat="45.79303328475335" lon="13.709186844861195"><ele>158.5</ele><time>2026-05-02T15:35:55.997Z</time></trkpt><trkpt lat="45.79294065907362" lon="13.709003831575052"><ele>159.0</ele><time>2026-05-02T15:35:56.997Z</time></trkpt><trkpt lat="45.792859212689194" lon="13.708835021071472"><ele>159.0</ele><time>2026-05-02T15:35:57.997Z</time></trkpt><trkpt lat="45.79278280228073" lon="13.708671289956023"><ele>159.0</ele><time>2026-05-02T15:35:58.997Z</time></trkpt><trkpt lat="45.79271103491325" lon="13.708504783169218"><ele>159.0</ele><time>2026-05-02T15:35:59.997Z</time></trkpt><trkpt lat="45.792645514010786" lon="13.708344208321796"><ele>159.0</ele><time>2026-05-02T15:36:00.997Z</time></trkpt><trkpt lat="45.79258173227577" lon="13.708179632141444"><ele>156.0</ele><time>2026-05-02T15:36:01.997Z</time></trkpt><trkpt lat="45.792538543008476" lon="13.708017040763952"><ele>153.0</ele><time>2026-05-02T15:36:02.997Z</time></trkpt><trkpt lat="45.79250557537072" lon="13.70785673240865"><ele>150.0</ele><time>2026-05-02T15:36:03.997Z</time></trkpt><trkpt lat="45.79247080267819" lon="13.707698042032241"><ele>147.0</ele><time>2026-05-02T15:36:04.997Z</time></trkpt><trkpt lat="45.79242103283727" lon="13.707550778532699"><ele>146.4</ele><time>2026-05-02T15:36:05.997Z</time></trkpt><trkpt lat="45.79234287086377" lon="13.707432142352495"><ele>145.79999999999998</ele><time>2026-05-02T15:36:06.997Z</time></trkpt><trkpt lat="45.79223903062647" lon="13.707366042623375"><ele>145.2</ele><time>2026-05-02T15:36:07.997Z</time></trkpt><trkpt lat="45.79212809255033" lon="13.707357489988384"><ele>144.6</ele><time>2026-05-02T15:36:08.997Z</time></trkpt><trkpt lat="45.79201762526378" lon="13.707359084385294"><ele>144.0</ele><time>2026-05-02T15:36:09.997Z</time></trkpt><trkpt lat="45.791900168159124" lon="13.707354758181948"><ele>143.25</ele><time>2026-05-02T15:36:10.997Z</time></trkpt><trkpt lat="45.79177414847999" lon="13.707339740011886"><ele>142.5</ele><time>2026-05-02T15:36:11.997Z</time></trkpt><trkpt lat="45.791643569836836" lon="13.707325248991191"><ele>141.75</ele><time>2026-05-02T15:36:13Z</time></trkpt><trkpt lat="45.79150888677394" lon="13.707309609367762"><ele>141.0</ele><time>2026-05-02T15:36:14Z</time></trkpt><trkpt lat="45.79137668864268" lon="13.707281860499076"><ele>141.0</ele><time>2026-05-02T15:36:15Z</time></trkpt><trkpt lat="45.79124060791459" lon="13.707257583558379"><ele>141.0</ele><time>2026-05-02T15:36:16Z</time></trkpt><trkpt lat="45.79109684690965" lon="13.70722668128623"><ele>141.0</ele><time>2026-05-02T15:36:17Z</time></trkpt><trkpt lat="45.79095410619054" lon="13.707192081475254"><ele>141.0</ele><time>2026-05-02T15:36:18Z</time></trkpt><trkpt lat="45.79080518280758" lon="13.707152985291058"><ele>143.33333333333334</ele><time>2026-05-02T15:36:19Z</time></trkpt><trkpt lat="45.790655824039746" lon="13.707106088883231"><ele>145.66666666666669</ele><time>2026-05-02T15:36:20Z</time></trkpt><trkpt lat="45.790507601127466" lon="13.707052564991251"><ele>148.0</ele><time>2026-05-02T15:36:21Z</time></trkpt><trkpt lat="45.79036470760878" lon="13.70699397700182"><ele>148.0</ele><time>2026-05-02T15:36:22Z</time></trkpt><trkpt lat="45.790233961366795" lon="13.706924022438178"><ele>148.0</ele><time>2026-05-02T15:36:23Z</time></trkpt><trkpt lat="45.79010246546487" lon="13.706849084752662"><ele>148.0</ele><time>2026-05-02T15:36:24Z</time></trkpt><trkpt lat="45.789974784318204" lon="13.706772633747741"><ele>148.0</ele><time>2026-05-02T15:36:25Z</time></trkpt><trkpt lat="45.789850916217034" lon="13.706701135388558"><ele>148.0</ele><time>2026-05-02T15:36:26Z</time></trkpt><trkpt lat="45.78972338579664" lon="13.706636705601605"><ele>148.0</ele><time>2026-05-02T15:36:27Z</time></trkpt><trkpt lat="45.789606605780186" lon="13.706576567533059"><ele>148.0</ele><time>2026-05-02T15:36:28Z</time></trkpt><trkpt lat="45.789487594832025" lon="13.706534365181563"><ele>148.0</ele><time>2026-05-02T15:36:29Z</time></trkpt><trkpt lat="45.78937046960153" lon="13.706493525927455"><ele>149.75</ele><time>2026-05-02T15:36:30Z</time></trkpt><trkpt lat="45.78926840292149" lon="13.706423796233986"><ele>151.5</ele><time>2026-05-02T15:36:31Z</time></trkpt><trkpt lat="45.78917235497697" lon="13.706333474740964"><ele>153.25</ele><time>2026-05-02T15:36:32Z</time></trkpt><trkpt lat="45.789080861145784" lon="13.706228066291938"><ele>155.0</ele><time>2026-05-02T15:36:33Z</time></trkpt><trkpt lat="45.78899148770729" lon="13.706141816851664"><ele>154.0</ele><time>2026-05-02T15:36:34Z</time></trkpt><trkpt lat="45.78889814403648" lon="13.706053854936297"><ele>153.0</ele><time>2026-05-02T15:36:35Z</time></trkpt><trkpt lat="45.78880071421705" lon="13.705961079209652"><ele>152.0</ele><time>2026-05-02T15:36:36Z</time></trkpt><trkpt lat="45.788702776750014" lon="13.70586765791624"><ele>151.0</ele><time>2026-05-02T15:36:37Z</time></trkpt><trkpt lat="45.78861013682115" lon="13.705762253305528"><ele>151.0</ele><time>2026-05-02T15:36:38Z</time></trkpt><trkpt lat="45.78851665467847" lon="13.705653075299747"><ele>151.0</ele><time>2026-05-02T15:36:39Z</time></trkpt><trkpt lat="45.788425403780494" lon="13.705531105409362"><ele>151.0</ele><time>2026-05-02T15:36:40Z</time></trkpt><trkpt lat="45.78833254648836" lon="13.70540943868482"><ele>151.0</ele><time>2026-05-02T15:36:41Z</time></trkpt><trkpt lat="45.788237410108266" lon="13.70528505493058"><ele>151.2</ele><time>2026-05-02T15:36:42Z</time></trkpt><trkpt lat="45.788167221751145" lon="13.705150267219679"><ele>151.39999999999998</ele><time>2026-05-02T15:36:42.999Z</time></trkpt><trkpt lat="45.788112436316666" lon="13.705018772959027"><ele>151.6</ele><time>2026-05-02T15:36:43.999Z</time></trkpt><trkpt lat="45.788073946213416" lon="13.704873965214556"><ele>151.79999999999998</ele><time>2026-05-02T15:36:44.999Z</time></trkpt><trkpt lat="45.788039287044384" lon="13.704724072150466"><ele>152.0</ele><time>2026-05-02T15:36:45.999Z</time></trkpt><trkpt lat="45.788003119749476" lon="13.70457371827613"><ele>152.0</ele><time>2026-05-02T15:36:46.999Z</time></trkpt><trkpt lat="45.7879465222234" lon="13.704431324968017"><ele>152.0</ele><time>2026-05-02T15:36:47.999Z</time></trkpt><trkpt lat="45.787891292153965" lon="13.7042957356985"><ele>152.0</ele><time>2026-05-02T15:36:48.999Z</time></trkpt><trkpt lat="45.78782447826869" lon="13.704172535253388"><ele>152.0</ele><time>2026-05-02T15:36:49.999Z</time></trkpt><trkpt lat="45.78774607597386" lon="13.704063396662669"><ele>152.0</ele><time>2026-05-02T15:36:50.999Z</time></trkpt><trkpt lat="45.78767024042688" lon="13.703963095982093"><ele>152.2</ele><time>2026-05-02T15:36:51.999Z</time></trkpt><trkpt lat="45.78759795592721" lon="13.703865291563513"><ele>152.39999999999998</ele><time>2026-05-02T15:36:52.999Z</time></trkpt><trkpt lat="45.78753001900193" lon="13.703765606376406"><ele>152.60000000000002</ele><time>2026-05-02T15:36:53.999Z</time></trkpt><trkpt lat="45.787481995964285" lon="13.703700555417898"><ele>152.8</ele><time>2026-05-02T15:36:54.999Z</time></trkpt><trkpt lat="45.78740259612695" lon="13.703579439479968"><ele>153.0</ele><time>2026-05-02T15:36:56.999Z</time></trkpt><trkpt lat="45.78732616873113" lon="13.703459108423848"><ele>153.0</ele><time>2026-05-02T15:36:58.999Z</time></trkpt><trkpt lat="45.78724191858538" lon="13.70333416010486"><ele>153.0</ele><time>2026-05-02T15:37:00.999Z</time></trkpt><trkpt lat="45.78714159222471" lon="13.703225312751346"><ele>153.0</ele><time>2026-05-02T15:37:02.999Z</time></trkpt><trkpt lat="45.78707375932468" lon="13.703172532436612"><ele>153.0</ele><time>2026-05-02T15:37:03.999Z</time></trkpt><trkpt lat="45.78699589383712" lon="13.703116686503234"><ele>153.0</ele><time>2026-05-02T15:37:04.999Z</time></trkpt><trkpt lat="45.786903113797955" lon="13.703063650828161"><ele>153.0</ele><time>2026-05-02T15:37:05.999Z</time></trkpt><trkpt lat="45.78680761242924" lon="13.703006642916414"><ele>153.0</ele><time>2026-05-02T15:37:06.999Z</time></trkpt><trkpt lat="45.78671042596758" lon="13.702943279248121"><ele>153.0</ele><time>2026-05-02T15:37:07.999Z</time></trkpt><trkpt lat="45.7866141096304" lon="13.702873730626525"><ele>153.0</ele><time>2026-05-02T15:37:08.999Z</time></trkpt><trkpt lat="45.786519753431996" lon="13.702803041993038"><ele>153.0</ele><time>2026-05-02T15:37:09.999Z</time></trkpt><trkpt lat="45.7864314834379" lon="13.702732923718317"><ele>152.6</ele><time>2026-05-02T15:37:10.999Z</time></trkpt><trkpt lat="45.78635300525067" lon="13.702646518860337"><ele>152.20000000000002</ele><time>2026-05-02T15:37:11.999Z</time></trkpt><trkpt lat="45.786279940903384" lon="13.702553637297303"><ele>151.8</ele><time>2026-05-02T15:37:12.999Z</time></trkpt><trkpt lat="45.78620047850729" lon="13.702455847996347"><ele>151.4</ele><time>2026-05-02T15:37:13.999Z</time></trkpt><trkpt lat="45.78611920509067" lon="13.702352816500172"><ele>151.0</ele><time>2026-05-02T15:37:14.999Z</time></trkpt><trkpt lat="45.78603729114767" lon="13.702243604012512"><ele>151.0</ele><time>2026-05-02T15:37:15.999Z</time></trkpt><trkpt lat="45.78595074690793" lon="13.702135798297835"><ele>151.0</ele><time>2026-05-02T15:37:16.999Z</time></trkpt><trkpt lat="45.78586664663589" lon="13.702021018564302"><ele>151.0</ele><time>2026-05-02T15:37:17.998Z</time></trkpt><trkpt lat="45.7857869674238" lon="13.701908470683449"><ele>151.0</ele><time>2026-05-02T15:37:18.998Z</time></trkpt><trkpt lat="45.785703401544794" lon="13.701796408229617"><ele>151.2</ele><time>2026-05-02T15:37:19.998Z</time></trkpt><trkpt lat="45.785620704781664" lon="13.701686746490521"><ele>151.39999999999998</ele><time>2026-05-02T15:37:20.998Z</time></trkpt><trkpt lat="45.78554049364878" lon="13.701576647010695"><ele>151.6</ele><time>2026-05-02T15:37:21.998Z</time></trkpt><trkpt lat="45.785461074363106" lon="13.701469793280562"><ele>151.79999999999998</ele><time>2026-05-02T15:37:22.998Z</time></trkpt><trkpt lat="45.785377832864064" lon="13.701370517817466"><ele>152.0</ele><time>2026-05-02T15:37:23.998Z</time></trkpt><trkpt lat="45.78529984850058" lon="13.701266727809372"><ele>152.0</ele><time>2026-05-02T15:37:24.998Z</time></trkpt><trkpt lat="45.785215765750735" lon="13.701172766202932"><ele>152.0</ele><time>2026-05-02T15:37:25.998Z</time></trkpt><trkpt lat="45.78512730097611" lon="13.70108990485821"><ele>152.0</ele><time>2026-05-02T15:37:26.998Z</time></trkpt><trkpt lat="45.785039683755684" lon="13.701006416980228"><ele>152.0</ele><time>2026-05-02T15:37:27.998Z</time></trkpt><trkpt lat="45.78494002424" lon="13.70092637211712"><ele>152.0</ele><time>2026-05-02T15:37:28.998Z</time></trkpt><trkpt lat="45.78485128089406" lon="13.700855038027516"><ele>152.5</ele><time>2026-05-02T15:37:29.998Z</time></trkpt><trkpt lat="45.78479394819072" lon="13.700811690882023"><ele>153.0</ele><time>2026-05-02T15:37:30.998Z</time></trkpt><trkpt lat="45.78472985664445" lon="13.70074718187953"><ele>153.5</ele><time>2026-05-02T15:37:32.998Z</time></trkpt><trkpt lat="45.78462600512124" lon="13.700656759085613"><ele>154.0</ele><time>2026-05-02T15:37:34.998Z</time></trkpt><trkpt lat="45.784566609439445" lon="13.700591067962304"><ele>154.5</ele><time>2026-05-02T15:37:35.998Z</time></trkpt><trkpt lat="45.78450284418709" lon="13.700520658715943"><ele>155.0</ele><time>2026-05-02T15:37:36.998Z</time></trkpt><trkpt lat="45.784450808228556" lon="13.700459400729601"><ele>155.0</ele><time>2026-05-02T15:37:37.998Z</time></trkpt><trkpt lat="45.78437852313418" lon="13.700379734660848"><ele>155.0</ele><time>2026-05-02T15:37:39.998Z</time></trkpt><trkpt lat="45.7843290638977" lon="13.700283072022641"><ele>155.0</ele><time>2026-05-02T15:37:44.998Z</time></trkpt><trkpt lat="45.7842628663084" lon="13.700238078847795"><ele>155.0</ele><time>2026-05-02T15:37:46.998Z</time></trkpt><trkpt lat="45.784180487576535" lon="13.700165055619472"><ele>155.0</ele><time>2026-05-02T15:37:48.998Z</time></trkpt><trkpt lat="45.78411343315678" lon="13.700107579633455"><ele>155.0</ele><time>2026-05-02T15:37:50.998Z</time></trkpt><trkpt lat="45.78426690230655" lon="13.69967820352307"><ele>155.6</ele><time>2026-05-02T15:37:51.997Z</time></trkpt><trkpt lat="45.78429424905023" lon="13.699556215546071"><ele>156.2</ele><time>2026-05-02T15:37:53.997Z</time></trkpt><trkpt lat="45.78433516392344" lon="13.699421478581879"><ele>156.8</ele><time>2026-05-02T15:37:55.997Z</time></trkpt><trkpt lat="45.78438838402723" lon="13.69932534351166"><ele>157.4</ele><time>2026-05-02T15:37:57.997Z</time></trkpt><trkpt lat="45.78446272356574" lon="13.699229746976027"><ele>158.0</ele><time>2026-05-02T15:37:59.997Z</time></trkpt><trkpt lat="45.78452963221097" lon="13.69913060374358"><ele>158.0</ele><time>2026-05-02T15:38:01.997Z</time></trkpt><trkpt lat="45.784579707989465" lon="13.699021978538577"><ele>158.0</ele><time>2026-05-02T15:38:03.997Z</time></trkpt><trkpt lat="45.78468012362449" lon="13.698978957929"><ele>158.0</ele><time>2026-05-02T15:38:05.997Z</time></trkpt><trkpt lat="45.7847524271968" lon="13.698913946804835"><ele>158.0</ele><time>2026-05-02T15:38:07.997Z</time></trkpt><trkpt lat="45.78480203313509" lon="13.69882868539146"><ele>158.0</ele><time>2026-05-02T15:38:09.997Z</time></trkpt><trkpt lat="45.78482432190585" lon="13.69870832396188"><ele>158.0</ele><time>2026-05-02T15:38:11.997Z</time></trkpt><trkpt lat="45.784857675411224" lon="13.698594182433458"><ele>158.83333333333331</ele><time>2026-05-02T15:38:13.997Z</time></trkpt><trkpt lat="45.784875407979285" lon="13.698497105292871"><ele>159.66666666666666</ele><time>2026-05-02T15:38:15.997Z</time></trkpt><trkpt lat="45.7848912191069" lon="13.698401157290704"><ele>160.5</ele><time>2026-05-02T15:38:18Z</time></trkpt><trkpt lat="45.78490491501701" lon="13.698306138304114"><ele>161.33333333333334</ele><time>2026-05-02T15:38:20Z</time></trkpt><trkpt lat="45.78494932493603" lon="13.69818482426115"><ele>162.16666666666669</ele><time>2026-05-02T15:38:23Z</time></trkpt><trkpt lat="45.78501111968436" lon="13.698092160749654"><ele>163.0</ele><time>2026-05-02T15:38:26Z</time></trkpt><trkpt lat="45.784966273108004" lon="13.69815862412015"><ele>163.0</ele><time>2026-05-02T15:38:54.999Z</time></trkpt><trkpt lat="45.78490777214347" lon="13.698254311322708"><ele>163.0</ele><time>2026-05-02T15:38:56.999Z</time></trkpt><trkpt lat="45.7848791302068" lon="13.698392462704225"><ele>163.0</ele><time>2026-05-02T15:38:58.999Z</time></trkpt><trkpt lat="45.7848816421487" lon="13.69851427653847"><ele>163.0</ele><time>2026-05-02T15:39:00.999Z</time></trkpt><trkpt lat="45.78483873455574" lon="13.69865093814238"><ele>163.0</ele><time>2026-05-02T15:39:02.999Z</time></trkpt><trkpt lat="45.784804999240514" lon="13.698769497563426"><ele>162.16666666666669</ele><time>2026-05-02T15:39:04.999Z</time></trkpt><trkpt lat="45.784771691381785" lon="13.698893225093117"><ele>161.33333333333334</ele><time>2026-05-02T15:39:06.999Z</time></trkpt><trkpt lat="45.784711576134036" lon="13.698983557674921"><ele>160.5</ele><time>2026-05-02T15:39:08.999Z</time></trkpt><trkpt lat="45.784630308456585" lon="13.699025203342607"><ele>159.66666666666666</ele><time>2026-05-02T15:39:10.999Z</time></trkpt><trkpt lat="45.784568730972154" lon="13.69906515104939"><ele>158.83333333333331</ele><time>2026-05-02T15:39:11.999Z</time></trkpt><trkpt lat="45.78450752612245" lon="13.699126670878357"><ele>158.0</ele><time>2026-05-02T15:39:12.999Z</time></trkpt><trkpt lat="45.78445691310115" lon="13.69920750664141"><ele>158.0</ele><time>2026-05-02T15:39:13.999Z</time></trkpt><trkpt lat="45.78438862126066" lon="13.699325204357732"><ele>158.0</ele><time>2026-05-02T15:39:15.999Z</time></trkpt><trkpt lat="45.78432314579485" lon="13.699422278120759"><ele>158.0</ele><time>2026-05-02T15:39:17.999Z</time></trkpt><trkpt lat="45.78429145254769" lon="13.699545337075714"><ele>158.0</ele><time>2026-05-02T15:39:19.999Z</time></trkpt><trkpt lat="45.784266565523176" lon="13.699660345503847"><ele>158.0</ele><time>2026-05-02T15:39:21.999Z</time></trkpt><trkpt lat="45.784262077630835" lon="13.69976109073306"><ele>158.0</ele><time>2026-05-02T15:39:23.998Z</time></trkpt><trkpt lat="45.78429011773128" lon="13.699885347980722"><ele>157.66666666666666</ele><time>2026-05-02T15:39:25.998Z</time></trkpt><trkpt lat="45.784331737684894" lon="13.700006369251511"><ele>157.33333333333331</ele><time>2026-05-02T15:39:27.998Z</time></trkpt><trkpt lat="45.784357189570166" lon="13.700132326391657"><ele>157.0</ele><time>2026-05-02T15:39:29.998Z</time></trkpt><trkpt lat="45.784380152172396" lon="13.700241984088908"><ele>156.66666666666666</ele><time>2026-05-02T15:39:31.998Z</time></trkpt><trkpt lat="45.78434703859036" lon="13.700319882802395"><ele>156.33333333333334</ele><time>2026-05-02T15:39:34.998Z</time></trkpt><trkpt lat="45.78425030235963" lon="13.700285400946406"><ele>156.0</ele><time>2026-05-02T15:39:42.998Z</time></trkpt><trkpt lat="45.78417624262875" lon="13.700206627343734"><ele>158.0</ele><time>2026-05-02T15:39:43.998Z</time></trkpt><trkpt lat="45.78408228622422" lon="13.700100236096523"><ele>160.0</ele><time>2026-05-02T15:39:44.998Z</time></trkpt><trkpt lat="45.78398179147072" lon="13.700026848072806"><ele>162.0</ele><time>2026-05-02T15:39:45.998Z</time></trkpt><trkpt lat="45.7838502363316" lon="13.699954110978767"><ele>164.0</ele><time>2026-05-02T15:39:46.998Z</time></trkpt><trkpt lat="45.783709963343526" lon="13.699923499396627"><ele>164.0</ele><time>2026-05-02T15:39:47.998Z</time></trkpt><trkpt lat="45.78353521262529" lon="13.699905383614956"><ele>164.0</ele><time>2026-05-02T15:39:48.998Z</time></trkpt><trkpt lat="45.78338079623776" lon="13.699885016627409"><ele>164.0</ele><time>2026-05-02T15:39:49.998Z</time></trkpt><trkpt lat="45.783232399282895" lon="13.699853892527122"><ele>163.25</ele><time>2026-05-02T15:39:50.998Z</time></trkpt><trkpt lat="45.783083363303476" lon="13.699838649899549"><ele>162.5</ele><time>2026-05-02T15:39:51.998Z</time></trkpt><trkpt lat="45.78293605801316" lon="13.699820086964246"><ele>161.75</ele><time>2026-05-02T15:39:52.998Z</time></trkpt><trkpt lat="45.78278833996186" lon="13.699800428221941"><ele>161.0</ele><time>2026-05-02T15:39:53.998Z</time></trkpt><trkpt lat="45.782639488867645" lon="13.699775143552651"><ele>162.75</ele><time>2026-05-02T15:39:54.998Z</time></trkpt><trkpt lat="45.782494484152984" lon="13.699757574032914"><ele>164.5</ele><time>2026-05-02T15:39:55.998Z</time></trkpt><trkpt lat="45.78235082563723" lon="13.699735978278545"><ele>166.25</ele><time>2026-05-02T15:39:56.998Z</time></trkpt><trkpt lat="45.782210070410954" lon="13.699715452862744"><ele>168.0</ele><time>2026-05-02T15:39:57.998Z</time></trkpt><trkpt lat="45.782074589583715" lon="13.699701121192723"><ele>168.0</ele><time>2026-05-02T15:39:58.998Z</time></trkpt><trkpt lat="45.78194283944407" lon="13.699704891162503"><ele>168.0</ele><time>2026-05-02T15:39:59.997Z</time></trkpt><trkpt lat="45.78182123424694" lon="13.699728993262028"><ele>168.0</ele><time>2026-05-02T15:40:00.997Z</time></trkpt><trkpt lat="45.781707450232" lon="13.699773738391038"><ele>168.0</ele><time>2026-05-02T15:40:01.997Z</time></trkpt><trkpt lat="45.78159703390667" lon="13.69983039819999"><ele>168.0</ele><time>2026-05-02T15:40:02.997Z</time></trkpt><trkpt lat="45.78148737814525" lon="13.699896498135528"><ele>168.0</ele><time>2026-05-02T15:40:03.997Z</time></trkpt><trkpt lat="45.78137152558825" lon="13.699938158460403"><ele>168.0</ele><time>2026-05-02T15:40:04.997Z</time></trkpt><trkpt lat="45.781255996407445" lon="13.699994322782572"><ele>168.0</ele><time>2026-05-02T15:40:05.997Z</time></trkpt><trkpt lat="45.78114170645284" lon="13.700045060190766"><ele>168.0</ele><time>2026-05-02T15:40:06.997Z</time></trkpt><trkpt lat="45.781028110467965" lon="13.700093999948145"><ele>168.0</ele><time>2026-05-02T15:40:07.997Z</time></trkpt><trkpt lat="45.780914891418135" lon="13.70014269531199"><ele>168.0</ele><time>2026-05-02T15:40:08.997Z</time></trkpt><trkpt lat="45.7808024938788" lon="13.700191813995097"><ele>168.0</ele><time>2026-05-02T15:40:09.997Z</time></trkpt><trkpt lat="45.780687097334734" lon="13.700240208147616"><ele>169.75</ele><time>2026-05-02T15:40:10.997Z</time></trkpt><trkpt lat="45.78057091918774" lon="13.700285176853006"><ele>171.5</ele><time>2026-05-02T15:40:11.997Z</time></trkpt><trkpt lat="45.78045107550958" lon="13.700333902009513"><ele>173.25</ele><time>2026-05-02T15:40:12.997Z</time></trkpt><trkpt lat="45.780331788350686" lon="13.700377568155833"><ele>175.0</ele><time>2026-05-02T15:40:13.997Z</time></trkpt><trkpt lat="45.78021389577383" lon="13.700416985471108"><ele>176.2</ele><time>2026-05-02T15:40:14.997Z</time></trkpt><trkpt lat="45.780091071965764" lon="13.700460169811866"><ele>177.4</ele><time>2026-05-02T15:40:15.997Z</time></trkpt><trkpt lat="45.77998483804031" lon="13.700498418286038"><ele>178.60000000000002</ele><time>2026-05-02T15:40:16.997Z</time></trkpt><trkpt lat="45.7798911962343" lon="13.700530146899085"><ele>179.8</ele><time>2026-05-02T15:40:17.997Z</time></trkpt><trkpt lat="45.77980885189523" lon="13.700563103981118"><ele>181.0</ele><time>2026-05-02T15:40:18.997Z</time></trkpt><trkpt lat="45.77971862792339" lon="13.700595169838584"><ele>181.0</ele><time>2026-05-02T15:40:19.997Z</time></trkpt><trkpt lat="45.77962718589865" lon="13.700625023067634"><ele>181.0</ele><time>2026-05-02T15:40:20.997Z</time></trkpt><trkpt lat="45.77954233095624" lon="13.700651885547884"><ele>181.0</ele><time>2026-05-02T15:40:21.997Z</time></trkpt><trkpt lat="45.779461384421715" lon="13.700683883032927"><ele>181.0</ele><time>2026-05-02T15:40:22.997Z</time></trkpt><trkpt lat="45.77937960124509" lon="13.700712856588256"><ele>181.0</ele><time>2026-05-02T15:40:24Z</time></trkpt><trkpt lat="45.77930293904045" lon="13.70074095532754"><ele>181.0</ele><time>2026-05-02T15:40:25Z</time></trkpt><trkpt lat="45.779234230044686" lon="13.70076491732782"><ele>187.0</ele><time>2026-05-02T15:40:26Z</time></trkpt><trkpt lat="45.77913134824185" lon="13.700800062626397"><ele>187.0</ele><time>2026-05-02T15:40:28Z</time></trkpt><trkpt lat="45.77906361400694" lon="13.700801975235802"><ele>187.0</ele><time>2026-05-02T15:40:30Z</time></trkpt></trkseg></trk></gpx>